15	weather.herald.com									
(Timestamp)	(Location)	(Conditions)	Temperature ()	Wind	(Wind Speed) (mph)	Dew point ()	Pressure (in.)	Wind chill ()	Humidity (%)	Visibility (miles)
Fri Jan 29 08:38:52 2010	Austin, Texas 	 Heavy Thunderstorms and Rain	55	WNW	8	54	29.95		94	1.5
Fri Jan 29 09:22:50 2010	Austin, Texas 	 Rain	55	NNE	6	53	29.90		93	5.0
Fri Jan 29 11:54:52 2010	Austin, Texas 	 Rain	44	NW	6	42	29.96	41	93	4.0
Fri Jan 29 12:39:24 2010	Austin, Texas 	 Light Rain	43	NNW	9	41	29.95	38	93	10.0
Fri Jan 29 13:25:55 2010	Austin, Texas 	 Rain	43	NW	12	39	29.97	37	87	6.0
Fri Jan 29 14:14:41 2010	Austin, Texas 	 Heavy Rain	41	NNW	10	39	30.03	35	93	2.5
Fri Jan 29 14:59:23 2010	Austin, Texas 	 Light Rain	40	NNW	12	38	30.04	33	93	10.0
Fri Jan 29 15:45:20 2010	Austin, Texas 	 Light Rain	39	NNW	13	37	30.03	32	93	10.0
Fri Jan 29 16:32:33 2010	Austin, Texas 	 Rain	39	NNW	9	37	30.08	33	93	4.0
Fri Jan 29 17:17:14 2010	Austin, Texas 	 Overcast	40	WNW	12	37	30.08	33	89	10.0
Fri Jan 29 18:05:32 2010	Austin, Texas 	 Mostly Cloudy	41	NW	15	36	30.08	33	82	10.0
Fri Jan 29 18:50:10 2010	Austin, Texas 	 Overcast	43	NNW	15	36	30.07	35	76	10.0
Fri Jan 29 19:42:39 2010	Austin, Texas 	 Mostly Cloudy	43	NW	15	35	30.06	36	74	10.0
Fri Jan 29 20:40:45 2010	Austin, Texas 	 Overcast	41	NW	13	34	30.06	34	76	10.0
Fri Jan 29 21:24:40 2010	Austin, Texas 	 Overcast	39	WNW	13	31	30.06	31	73	10.0
Fri Jan 29 22:10:45 2010	Austin, Texas 	 Overcast	39	NW	9	30	30.04	33	70	10.0
Fri Jan 29 22:57:07 2010	Austin, Texas 	 Overcast	39	NW	10	29	30.06	32	67	10.0
Fri Jan 29 23:41:06 2010	Austin, Texas 	 Overcast	39	NW	10	29	30.06	32	67	10.0
Mon Feb  1 00:08:05 2010	Austin, Texas 	 Haze	35	Calm		30	30.24	36	82	5.0
Mon Feb  1 00:51:19 2010	Austin, Texas 	 Haze	35	Calm		30	30.24	36	82	5.0
Mon Feb  1 01:36:03 2010	Austin, Texas 	 Haze	35	Variable	4	30	30.23	32	82	6.0
Mon Feb  1 02:20:55 2010	Austin, Texas 	 Overcast	34	Calm		30	30.20	34	87	6.0
Mon Feb  1 03:05:05 2010	Austin, Texas 	 Overcast	34	Calm		30	30.24	34	85	5.0
Mon Feb  1 03:48:36 2010	Austin, Texas 	 Overcast	34	Calm		30	30.24	34	85	5.0
Mon Feb  1 04:34:16 2010	Austin, Texas 	 Overcast	34	Calm		30	30.25	34	85	6.0
Mon Feb  1 05:17:52 2010	Austin, Texas 	 Overcast	34	SE	4	30	30.25	31	85	9.0
Mon Feb  1 06:02:46 2010	Austin, Texas 	 Overcast	34	SSE	4	30	30.24	31	85	9.0
Mon Feb  1 06:45:39 2010	Austin, Texas 	 Overcast	34	SSE	4	30	30.24	31	85	9.0
Mon Feb  1 07:29:42 2010	Austin, Texas 	 Overcast	34	ESE	4	30	30.19	31	87	8.0
Mon Feb  1 08:12:53 2010	Austin, Texas 	 Overcast	34	Calm		30	30.21	34	85	8.0
Mon Feb  1 08:56:36 2010	Austin, Texas 	 Overcast	34	South	5	31	30.20	30	89	9.0
Mon Feb  1 09:39:37 2010	Austin, Texas 	 Overcast	34	South	5	31	30.20	30	89	9.0
Mon Feb  1 10:22:58 2010	Austin, Texas 	 Overcast	36	Calm		30	30.16	36	81	8.0
Mon Feb  1 11:06:06 2010	Austin, Texas 	 Overcast	35	Calm		31	30.18	36	85	9.0
Mon Feb  1 11:49:23 2010	Austin, Texas 	 Overcast	36	Calm		30	30.14	36	81	9.0
Mon Feb  1 12:32:56 2010	Austin, Texas 	 Overcast	36	Calm		31	30.16	36	82	9.0
Mon Feb  1 13:16:22 2010	Austin, Texas 	 Overcast	36	Calm		31	30.16	36	82	9.0
Mon Feb  1 14:00:13 2010	Austin, Texas 	 Overcast	36	Calm		32	30.17	36	86	6.0
Mon Feb  1 14:44:43 2010	Austin, Texas 	 Overcast	36	Calm		32	30.17	36	86	6.0
Mon Feb  1 15:29:02 2010	Austin, Texas 	 Overcast	37	Calm		34	30.16	37	89	5.0
Mon Feb  1 16:13:10 2010	Austin, Texas 	 Overcast	38	ESE	4	34	30.17	36	86	4.0
Mon Feb  1 16:58:21 2010	Austin, Texas 	 Overcast	38	Calm		35	30.18	37	89	2.0
Mon Feb  1 17:42:23 2010	Austin, Texas 	 Overcast	37	Calm		36	30.15	37	93	2.0
Mon Feb  1 18:25:33 2010	Austin, Texas 	 Overcast	39	Calm		37	30.14	39	93	1.5
Mon Feb  1 19:09:17 2010	Austin, Texas 	 Overcast	39	ESE	4	37	30.16	37	93	1.5
Mon Feb  1 19:54:25 2010	Austin, Texas 	 Overcast	41	Calm		38	30.13	41	89	3.0
Mon Feb  1 20:40:54 2010	Austin, Texas 	 Overcast	43	Calm		39	30.08	43	87	3.0
Mon Feb  1 21:25:41 2010	Austin, Texas 	 Overcast	43	Calm		39	30.09	43	86	4.0
Mon Feb  1 22:09:13 2010	Austin, Texas 	 Haze	45	Calm		40	30.07	45	82	6.0
Mon Feb  1 22:52:26 2010	Austin, Texas 	 Overcast	46	Calm		39	30.05	46	76	7.0
Mon Feb  1 23:38:33 2010	Austin, Texas 	 Haze	45	Calm		40	30.06	45	82	6.0
Sat Jan 30 00:25:11 2010	Austin, Texas 	 Scattered Clouds	39	NW	14	26	30.09	31	60	10.0
Sat Jan 30 01:09:17 2010	Austin, Texas 	 Mostly Cloudy	38	NNW	8	25	30.10	32	60	10.0
Sat Jan 30 01:52:57 2010	Austin, Texas 	 Mostly Cloudy	38	NNW	8	25	30.10	32	60	10.0
Sat Jan 30 02:37:40 2010	Austin, Texas 	 Partly Cloudy	36	NNW	8	24	30.13	30	62	10.0
Sat Jan 30 03:21:18 2010	Austin, Texas 	 Overcast	36	NNW	7	24	30.14	30	62	10.0
Sat Jan 30 04:05:11 2010	Austin, Texas 	 Scattered Clouds	35	NNW	10	24	30.14	27	64	10.0
Sat Jan 30 04:48:53 2010	Austin, Texas 	 Scattered Clouds	35	NNW	10	24	30.14	27	64	10.0
Sat Jan 30 05:32:43 2010	Austin, Texas 	 Mostly Cloudy	34	Variable	6	25	30.13	29	70	10.0
Sat Jan 30 06:16:23 2010	Austin, Texas 	 Scattered Clouds	34	NNW	9	25	30.13	26	70	10.0
Sat Jan 30 07:02:06 2010	Austin, Texas 	 Clear	32	NNW	7	24	30.16	26	73	10.0
Sat Jan 30 07:45:36 2010	Austin, Texas 	 Clear	32	NNW	7	24	30.16	26	73	10.0
Sat Jan 30 08:28:38 2010	Austin, Texas 	 Clear	31	Variable	5	23	30.16	26	72	10.0
Sat Jan 30 11:58:14 2010	Austin, Texas 	 Overcast	31	NNW	5	23	30.19	26	72	10.0
Sat Jan 30 12:42:03 2010	Austin, Texas 	 Overcast	31	NNW	5	23	30.19	26	72	10.0
Sat Jan 30 13:25:14 2010	Austin, Texas 	 Overcast	32	NW	8	23	30.19	25	69	10.0
Sat Jan 30 14:08:56 2010	Austin, Texas 	 Overcast	32	NNW	6	23	30.21	26	69	10.0
Sat Jan 30 14:53:11 2010	Austin, Texas 	 Scattered Clouds	30	North	6	23	30.19	24	75	10.0
Sat Jan 30 15:37:51 2010	Austin, Texas 	 Clear	30	North	5	22	30.23	25	72	10.0
Sat Jan 30 16:24:05 2010	Austin, Texas 	 Scattered Clouds	32	NNW	9	22	30.25	24	66	10.0
Sat Jan 30 17:08:24 2010	Austin, Texas 	 Scattered Clouds	34	NNW	9	23	30.28	27	64	10.0
Sat Jan 30 17:51:54 2010	Austin, Texas 	 Scattered Clouds	34	NNW	9	23	30.28	27	64	10.0
Sat Jan 30 18:35:43 2010	Austin, Texas 	 Clear	38	North	7	24	30.28	33	57	10.0
Sat Jan 30 19:19:00 2010	Austin, Texas 	 Clear	38	North	9	25	30.27	32	60	10.0
Sat Jan 30 20:03:06 2010	Austin, Texas 	 Clear	41	NNW	10	26	30.24	35	55	10.0
Sat Jan 30 20:46:15 2010	Austin, Texas 	 Clear	41	NNW	10	26	30.24	35	55	10.0
Sat Jan 30 21:30:17 2010	Austin, Texas 	 Clear	43	NNW	14	27	30.22	36	53	10.0
Sat Jan 30 22:13:18 2010	Austin, Texas 	 Clear	45	Variable	7	29	30.20	41	53	10.0
Sat Jan 30 22:58:06 2010	Austin, Texas 	 Clear	45	NNW	8	29	30.20	41	53	10.0
Sat Jan 30 23:43:49 2010	Austin, Texas 	 Clear	45	NNW	8	29	30.20	41	53	10.0
Sun Jan 31 00:27:50 2010	Austin, Texas 	 Clear	44	North	7	30	30.20	40	58	10.0
Sun Jan 31 01:18:27 2010	Austin, Texas 	 Clear	42	North	7	30	30.21	38	62	10.0
Sun Jan 31 02:02:20 2010	Austin, Texas 	 Clear	40	NNE	5	29	30.22	37	65	10.0
Sun Jan 31 02:45:57 2010	Austin, Texas 	 Clear	40	NNE	5	29	30.22	37	65	10.0
Sun Jan 31 03:30:00 2010	Austin, Texas 	 Clear	38	Variable	6	29	30.25	34	70	10.0
Sun Jan 31 04:12:42 2010	Austin, Texas 	 Clear	35	Variable	4	29	30.27	32	78	10.0
Sun Jan 31 04:57:49 2010	Austin, Texas 	 Clear	33	Variable	5	27	30.29	29	78	10.0
Sun Jan 31 05:44:02 2010	Austin, Texas 	 Clear	33	Variable	5	27	30.29	29	78	10.0
Sun Jan 31 06:29:08 2010	Austin, Texas 	 Clear	32	NNE	4	27	30.28	29	82	10.0
Sun Jan 31 07:12:09 2010	Austin, Texas 	 Clear	32	NNE	5	27	30.29	28	82	10.0
Sun Jan 31 07:58:45 2010	Austin, Texas 	 Partly Cloudy	31	North	5	27	30.28	26	85	10.0
Sun Jan 31 08:43:35 2010	Austin, Texas 	 Overcast	32	Variable	5	28	30.25	28	87	8.0
Sun Jan 31 09:26:43 2010	Austin, Texas 	 Overcast	32	Variable	5	28	30.27	28	85	8.0
Sun Jan 31 10:09:54 2010	Austin, Texas 	 Overcast	31	Variable	4	28	30.28	28	89	8.0
Sun Jan 31 10:53:40 2010	Austin, Texas 	 Overcast	31	Variable	4	27	30.29	28	85	7.0
Sun Jan 31 11:37:08 2010	Austin, Texas 	 Overcast	31	Variable	4	27	30.29	28	85	7.0
Sun Jan 31 12:20:46 2010	Austin, Texas 	 Overcast	31	Calm		27	30.29	30	85	7.0
Sun Jan 31 13:03:49 2010	Austin, Texas 	 Overcast	30	Variable	5	27	30.30	25	88	6.0
Sun Jan 31 13:47:53 2010	Austin, Texas 	 Overcast	30	Variable	5	27	30.30	25	88	6.0
Sun Jan 31 14:30:39 2010	Austin, Texas 	 Overcast	30	Variable	5	27	30.32	25	88	7.0
Sun Jan 31 15:14:37 2010	Austin, Texas 	 Overcast	31	NNE	6	28	30.33	25	89	6.0
Sun Jan 31 15:58:01 2010	Austin, Texas 	 Overcast	31	North	7	27	30.33	24	85	6.0
Sun Jan 31 16:47:48 2010	Austin, Texas 	 Overcast	31	North	7	27	30.33	24	85	6.0
Sun Jan 31 17:31:45 2010	Austin, Texas 	 Overcast	31	NE	5	28	30.34	26	89	7.0
Sun Jan 31 18:16:02 2010	Austin, Texas 	 Overcast	32	Variable	4	28	30.33	29	85	7.0
Sun Jan 31 19:00:09 2010	Austin, Texas 	 Overcast	32	Calm		29	30.34	32	88	8.0
Sun Jan 31 19:45:43 2010	Austin, Texas 	 Overcast	32	Calm		29	30.34	32	88	8.0
Sun Jan 31 20:28:43 2010	Austin, Texas 	 Overcast	33	Calm		29	30.30	34	85	7.0
Sun Jan 31 21:12:52 2010	Austin, Texas 	 Overcast	34	Calm		29	30.27	34	82	7.0
Sun Jan 31 21:56:14 2010	Austin, Texas 	 Haze	34	Variable	4	29	30.25	31	82	6.0
Sun Jan 31 22:41:01 2010	Austin, Texas 	 Haze	34	Variable	4	29	30.25	31	82	6.0
Sun Jan 31 23:24:04 2010	Austin, Texas 	 Haze	35	East	4	30	30.24	32	82	6.0
Thu Feb  4 00:09:36 2010	Austin, Texas 	 Light Rain	47	East	10	45	29.93	42	93	3.0
Thu Feb  4 00:53:56 2010	Austin, Texas 	 Light Rain	47	Variable	7	45	29.92	44	93	5.0
Thu Feb  4 01:36:56 2010	Austin, Texas 	 Overcast	46	Variable	7	45	29.91	43	93	7.0
Thu Feb  4 02:24:03 2010	Austin, Texas 	 Overcast	47	ENE	10	45	29.90	42	93	6.0
Thu Feb  4 03:07:59 2010	Austin, Texas 	 Overcast	48	Variable	5	46	29.94	46	93	6.0
Thu Feb  4 03:52:29 2010	Austin, Texas 	 Overcast	48	Variable	5	46	29.94	46	93	6.0
Thu Feb  4 04:35:41 2010	Austin, Texas 	 Overcast	48	Variable	4	46	29.96	47	93	6.0
Thu Feb  4 05:18:50 2010	Austin, Texas 	 Light Rain	47	Variable	4	46	29.94	46	97	4.0
Thu Feb  4 06:01:58 2010	Austin, Texas 	 Light Rain	47	Variable	5	46	29.94	45	97	3.0
Thu Feb  4 06:45:01 2010	Austin, Texas 	 Light Rain	47	Variable	5	46	29.94	45	97	3.0
Thu Feb  4 07:28:34 2010	Austin, Texas 	 Light Rain	46	Variable	5	46	29.91	44	100	2.5
Thu Feb  4 08:11:15 2010	Austin, Texas 	 Light Rain	46	Variable	4	46	29.90	45	100	2.5
Thu Feb  4 08:54:59 2010	Austin, Texas 	 Light Rain	47	Calm		45	29.91	46	93	2.0
Thu Feb  4 09:38:43 2010	Austin, Texas 	 Light Rain	46	Variable	4	45	29.88	45	93	3.0
Thu Feb  4 10:22:07 2010	Austin, Texas 	 Light Rain	46	Variable	4	45	29.88	45	93	2.5
Thu Feb  4 11:08:23 2010	Austin, Texas 	 Light Rain	46	NE	5	45	29.87	44	96	2.5
Thu Feb  4 11:51:57 2010	Austin, Texas 	 Light Rain	46	NNE	5	45	29.86	44	93	4.0
Thu Feb  4 12:35:02 2010	Austin, Texas 	 Overcast	46	Variable	5	45	29.87	44	96	2.5
Thu Feb  4 13:18:31 2010	Austin, Texas 	 Overcast	46	NNE	5	45	29.89	44	96	3.0
Thu Feb  4 14:02:52 2010	Austin, Texas 	 Light Rain	46	NNE	4	45	29.90	45	96	3.0
Thu Feb  4 14:55:34 2010	Austin, Texas 	 Light Rain	46	Variable	7	45	29.89	42	96	3.0
Thu Jan 28 15:35:46 2010	Austin, Texas 	 Overcast	61	ESE	9	58	30.05		90	10.0
Thu Jan 28 15:56:55 2010	Austin, Texas 	 Overcast	62	ESE	9	59	30.04		90	10.0
Thu Jan 28 16:45:13 2010	Austin, Texas 	 Overcast	62	ESE	9	59	30.04		90	10.0
Thu Jan 28 17:10:02 2010	Austin, Texas 	 Overcast	63	SE	9	59	30.04		87	10.0
Thu Jan 28 17:26:17 2010	Austin, Texas 	 Overcast	63	SE	9	59	30.04		87	10.0
Tue Feb  2 00:25:29 2010	Austin, Texas 	 Overcast	45	Calm		43	30.05	45	93	3.0
Tue Feb  2 01:11:00 2010	Austin, Texas 	 Overcast	45	SE	5	43	30.04	42	93	4.0
Tue Feb  2 01:54:24 2010	Austin, Texas 	 Overcast	45	Variable	5	41	30.06	43	86	6.0
Tue Feb  2 02:38:25 2010	Austin, Texas 	 Overcast	45	Calm		41	30.06	45	87	6.0
Tue Feb  2 03:21:37 2010	Austin, Texas 	 Overcast	45	Calm		41	30.08	45	86	5.0
Tue Feb  2 04:05:40 2010	Austin, Texas 	 Overcast	45	Calm		42	30.08	45	90	3.0
Tue Feb  2 04:49:16 2010	Austin, Texas 	 Overcast	45	Calm		42	30.08	45	90	3.0
Tue Feb  2 05:32:37 2010	Austin, Texas 	 Overcast	45	Variable	4	43	30.05	43	93	3.0
Tue Feb  2 06:15:34 2010	Austin, Texas 	 Overcast	45	Calm		43	30.07	45	93	2.5
Tue Feb  2 07:03:04 2010	Austin, Texas 	 Overcast	45	Calm		43	30.09	45	93	2.0
Tue Feb  2 07:46:09 2010	Austin, Texas 	 Overcast	45	Calm		43	30.08	45	93	1.8
Tue Feb  2 08:29:15 2010	Austin, Texas 	 Overcast	45	Calm		43	30.10	45	93	1.5
Tue Feb  2 09:12:43 2010	Austin, Texas 	 Overcast	45	Calm		44	30.10	45	97	1.5
Tue Feb  2 09:56:14 2010	Austin, Texas 	 Overcast	45	Variable	4	43	30.11	44	93	2.5
Tue Feb  2 10:39:52 2010	Austin, Texas 	 Overcast	45	NNE	6	43	30.10	41	93	3.0
Tue Feb  2 11:23:57 2010	Austin, Texas 	 Overcast	45	Calm		43	30.09	45	93	2.0
Tue Feb  2 12:07:29 2010	Austin, Texas 	 Overcast	45	NNE	4	43	30.12	44	93	2.0
Tue Feb  2 12:51:49 2010	Austin, Texas 	 Overcast	45	NNE	4	43	30.12	44	93	2.0
Tue Feb  2 13:35:10 2010	Austin, Texas 	 Overcast	45	Calm		43	30.13	45	93	2.5
Tue Feb  2 14:18:38 2010	Austin, Texas 	 Overcast	45	Calm		44	30.14	45	97	2.5
Tue Feb  2 15:03:07 2010	Austin, Texas 	 Overcast	46	Calm		44	30.16	46	93	2.0
Tue Feb  2 15:49:30 2010	Austin, Texas 	 Overcast	46	Calm		44	30.16	46	93	2.0
Tue Feb  2 16:42:06 2010	Austin, Texas 	 Overcast	46	NNE	6	45	30.16	44	93	3.0
Tue Feb  2 17:29:46 2010	Austin, Texas 	 Overcast	49	Calm		45	30.19	48	86	3.0
Tue Feb  2 18:15:08 2010	Austin, Texas 	 Overcast	50	Calm		46	30.22	50	86	5.0
Tue Feb  2 18:59:10 2010	Austin, Texas 	 Overcast	49	NE	6	46	30.19	46	90	3.0
Tue Feb  2 19:48:09 2010	Austin, Texas 	 Overcast	49	NE	6	46	30.19	46	90	3.0
Tue Feb  2 20:39:51 2010	Austin, Texas 	 Overcast	50	NNE	7	46	30.16	47	86	4.0
Tue Feb  2 21:26:23 2010	Austin, Texas 	 Haze	51	NNE	8	46	30.14		83	4.0
Tue Feb  2 22:14:07 2010	Austin, Texas 	 Overcast	51	Variable	6	45	30.12		80	7.0
Tue Feb  2 22:59:21 2010	Austin, Texas 	 Haze	51	Calm		45	30.14		80	6.0
Tue Feb  2 23:44:21 2010	Austin, Texas 	 Haze	51	Calm		45	30.14		80	6.0
Wed Feb  3 00:29:14 2010	Austin, Texas 	 Haze	51	Variable	4	45	30.15		80	6.0
Wed Feb  3 01:16:16 2010	Austin, Texas 	 Haze	51	Calm		45	30.17		80	6.0
Wed Feb  3 02:01:04 2010	Austin, Texas 	 Mostly Cloudy	50	Calm		45	30.17	50	83	7.0
Wed Feb  3 02:49:48 2010	Austin, Texas 	 Overcast	52	Calm		46	30.16		82	7.0
Wed Feb  3 03:36:47 2010	Austin, Texas 	 Overcast	51	Calm		46	30.17		83	7.0
Wed Feb  3 04:24:49 2010	Austin, Texas 	 Overcast	52	NNE	4	46	30.17		80	8.0
Wed Feb  3 05:11:23 2010	Austin, Texas 	 Scattered Clouds	51	Variable	5	45	30.16		80	9.0
Wed Feb  3 05:59:25 2010	Austin, Texas 	 Overcast	50	NE	5	43	30.16	48	77	10.0
Wed Feb  3 06:46:14 2010	Austin, Texas 	 Overcast	50	NE	5	43	30.16	48	77	10.0
Wed Feb  3 07:30:50 2010	Austin, Texas 	 Overcast	50	Variable	4	43	30.16	49	77	10.0
Wed Feb  3 08:13:55 2010	Austin, Texas 	 Overcast	49	Variable	5	44	30.13	47	83	8.0
Wed Feb  3 09:00:18 2010	Austin, Texas 	 Overcast	49	Variable	5	43	30.09	47	80	7.0
Wed Feb  3 09:43:47 2010	Austin, Texas 	 Overcast	49	Variable	5	43	30.09	47	80	7.0
Wed Feb  3 10:27:45 2010	Austin, Texas 	 Overcast	49	NE	5	43	30.07	47	80	8.0
Wed Feb  3 11:14:28 2010	Austin, Texas 	 Light Rain	48	Variable	4	44	30.07	47	86	5.0
Wed Feb  3 11:59:14 2010	Austin, Texas 	 Rain	47	ENE	4	45	30.08	46	93	3.0
Wed Feb  3 12:42:27 2010	Austin, Texas 	 Light Rain	46	Variable	4	45	30.06	45	93	3.0
Wed Feb  3 13:26:06 2010	Austin, Texas 	 Rain	46	Variable	4	45	30.06	45	93	2.5
Wed Feb  3 14:11:43 2010	Austin, Texas 	 Rain	46	Variable	6	45	30.05	44	93	3.0
Wed Feb  3 14:57:40 2010	Austin, Texas 	 Rain	47	ENE	6	45	30.05	44	93	3.0
Wed Feb  3 15:42:47 2010	Austin, Texas 	 Rain	46	Variable	7	45	30.05	43	93	2.0
Wed Feb  3 16:28:23 2010	Austin, Texas 	 Light Rain	47	ENE	8	46	30.06	43	97	3.0
Wed Feb  3 17:15:51 2010	Austin, Texas 	 Light Rain	47	Variable	6	45	30.08	44	93	3.0
Wed Feb  3 18:04:26 2010	Austin, Texas 	 Light Rain	47	East	8	45	30.06	43	93	5.0
Wed Feb  3 18:47:31 2010	Austin, Texas 	 Light Rain	47	East	8	45	30.06	43	93	5.0
Wed Feb  3 19:31:21 2010	Austin, Texas 	 Light Rain	46	Variable	6	45	30.03	44	93	3.0
Wed Feb  3 20:15:01 2010	Austin, Texas 	 Light Rain	47	Variable	7	44	30.00	44	90	5.0
Wed Feb  3 20:59:48 2010	Austin, Texas 	 Light Rain	47	Variable	5	44	30.00	45	90	5.0
Wed Feb  3 21:47:39 2010	Austin, Texas 	 Light Rain	46	Variable	7	45	29.95	43	93	4.0
Wed Feb  3 22:33:12 2010	Austin, Texas 	 Light Rain	46	Variable	5	45	29.95	44	93	4.0
Wed Feb  3 23:23:58 2010	Austin, Texas 	 Light Rain	47	Variable	7	45	29.94	44	93	6.0
Fri Jan 29 08:38:39 2010	Baltimore, Maryland 	 Scattered Clouds	21	NNW	9	-1	30.33	11	38	10.0
Fri Jan 29 09:22:37 2010	Baltimore, Maryland 	 Scattered Clouds	20	NW	10	0	30.35	9	42	10.0
Fri Jan 29 11:54:39 2010	Baltimore, Maryland 	 Mostly Cloudy	19	NW	6	0	30.37	11	43	10.0
Fri Jan 29 12:39:11 2010	Baltimore, Maryland 	 Mostly Cloudy	18	NNW	8	0	30.38	8	45	10.0
Fri Jan 29 13:25:43 2010	Baltimore, Maryland 	 Mostly Cloudy	18	NW	9	1	30.40	7	48	10.0
Fri Jan 29 14:14:28 2010	Baltimore, Maryland 	 Mostly Cloudy	18	WNW	9	3	30.41	7	52	10.0
Fri Jan 29 14:59:11 2010	Baltimore, Maryland 	 Mostly Cloudy	18	WNW	9	3	30.41	7	52	10.0
Fri Jan 29 15:45:07 2010	Baltimore, Maryland 	 Mostly Cloudy	19	NW	8	2	30.42	9	47	10.0
Fri Jan 29 16:32:17 2010	Baltimore, Maryland 	 Overcast	20	NW	14	1	30.44	7	44	10.0
Fri Jan 29 17:17:00 2010	Baltimore, Maryland 	 Overcast	20	NW	14	1	30.44	7	44	10.0
Fri Jan 29 18:05:18 2010	Baltimore, Maryland 	 Overcast	23	NNW	14	0	30.39	11	37	10.0
Fri Jan 29 18:49:58 2010	Baltimore, Maryland 	 Overcast	23	NNW	14	0	30.39	11	37	10.0
Fri Jan 29 19:42:27 2010	Baltimore, Maryland 	 Overcast	25	WNW	15	3	30.38	13	39	10.0
Fri Jan 29 20:40:29 2010	Baltimore, Maryland 	 Mostly Cloudy	25	NW	13	1	30.35	14	36	10.0
Fri Jan 29 21:24:27 2010	Baltimore, Maryland 	 Mostly Cloudy	24	WNW	9	1	30.35	14	37	10.0
Fri Jan 29 22:10:32 2010	Baltimore, Maryland 	 Overcast	24	NW	13	2	30.35	12	38	10.0
Fri Jan 29 22:56:53 2010	Baltimore, Maryland 	 Overcast	24	NW	13	2	30.35	12	38	10.0
Fri Jan 29 23:40:53 2010	Baltimore, Maryland 	 Overcast	24	NW	9	1	30.35	14	37	10.0
Mon Feb  1 00:07:52 2010	Baltimore, Maryland 	 Clear	23	Calm		5	30.16	23	46	10.0
Mon Feb  1 00:51:03 2010	Baltimore, Maryland 	 Clear	23	Calm		5	30.16	23	46	10.0
Mon Feb  1 01:35:50 2010	Baltimore, Maryland 	 Clear	21	SSW	5	6	30.18	15	53	10.0
Mon Feb  1 02:20:43 2010	Baltimore, Maryland 	 Clear	24	Calm		6	30.19	25	46	10.0
Mon Feb  1 03:04:52 2010	Baltimore, Maryland 	 Clear	19	Calm		6	30.19	19	57	10.0
Mon Feb  1 03:48:23 2010	Baltimore, Maryland 	 Clear	19	Calm		6	30.19	19	57	10.0
Mon Feb  1 04:34:03 2010	Baltimore, Maryland 	 Clear	18	NW	4	7	30.19	12	63	10.0
Mon Feb  1 05:17:39 2010	Baltimore, Maryland 	 Clear	17	WSW	4	8	30.22	12	68	10.0
Mon Feb  1 06:02:33 2010	Baltimore, Maryland 	 Clear	19	West	4	7	30.22	14	59	10.0
Mon Feb  1 06:45:26 2010	Baltimore, Maryland 	 Clear	19	West	4	7	30.22	14	59	10.0
Mon Feb  1 07:29:29 2010	Baltimore, Maryland 	 Clear	22	WSW	7	8	30.22	13	55	10.0
Mon Feb  1 08:12:38 2010	Baltimore, Maryland 	 Clear	21	WSW	4	8	30.24	16	57	10.0
Mon Feb  1 08:56:23 2010	Baltimore, Maryland 	 Clear	21	WSW	4	8	30.24	16	57	10.0
Mon Feb  1 09:39:25 2010	Baltimore, Maryland 	 Clear	14	WSW	7	6	30.26	4	71	10.0
Mon Feb  1 10:22:46 2010	Baltimore, Maryland 	 Clear	13	West	7	6	30.27	3	74	10.0
Mon Feb  1 11:05:53 2010	Baltimore, Maryland 	 Clear	17	West	6	8	30.29	9	68	10.0
Mon Feb  1 11:49:11 2010	Baltimore, Maryland 	 Clear	17	West	6	8	30.29	9	68	10.0
Mon Feb  1 12:32:43 2010	Baltimore, Maryland 	 Partly Cloudy	19	West	7	8	30.32	10	62	10.0
Mon Feb  1 13:16:06 2010	Baltimore, Maryland 	 Mostly Cloudy	19	WNW	4	8	30.34	14	62	10.0
Mon Feb  1 14:00:00 2010	Baltimore, Maryland 	 Scattered Clouds	19	West	5	8	30.36	12	62	10.0
Mon Feb  1 14:44:29 2010	Baltimore, Maryland 	 Scattered Clouds	19	West	5	8	30.36	12	62	10.0
Mon Feb  1 15:28:48 2010	Baltimore, Maryland 	 Scattered Clouds	27	WNW	7	11	30.37	20	51	10.0
Mon Feb  1 16:12:57 2010	Baltimore, Maryland 	 Mostly Cloudy	29	NNW	5	12	30.35	24	49	10.0
Mon Feb  1 16:58:08 2010	Baltimore, Maryland 	 Mostly Cloudy	30	WNW	9	12	30.36	22	47	10.0
Mon Feb  1 17:42:12 2010	Baltimore, Maryland 	 Mostly Cloudy	30	WNW	9	12	30.36	22	47	10.0
Mon Feb  1 18:25:22 2010	Baltimore, Maryland 	 Mostly Cloudy	31	West	8	13	30.34	24	47	10.0
Mon Feb  1 19:09:05 2010	Baltimore, Maryland 	 Mostly Cloudy	32	West	10	15	30.34	24	50	10.0
Mon Feb  1 19:54:13 2010	Baltimore, Maryland 	 Mostly Cloudy	32	West	10	15	30.34	24	50	10.0
Mon Feb  1 20:40:40 2010	Baltimore, Maryland 	 Mostly Cloudy	33	WNW	14	14	30.31	23	46	10.0
Mon Feb  1 21:25:28 2010	Baltimore, Maryland 	 Mostly Cloudy	33	WNW	7	14	30.29	27	46	10.0
Mon Feb  1 22:08:59 2010	Baltimore, Maryland 	 Mostly Cloudy	34	West	13	14	30.29	25	44	10.0
Mon Feb  1 22:52:10 2010	Baltimore, Maryland 	 Mostly Cloudy	34	West	13	14	30.29	25	44	10.0
Mon Feb  1 23:38:20 2010	Baltimore, Maryland 	 Mostly Cloudy	33	WSW	7	13	30.30	27	43	10.0
Sat Jan 30 00:24:58 2010	Baltimore, Maryland 	 Overcast	24	NW	6	2	30.35	17	38	10.0
Sat Jan 30 01:09:04 2010	Baltimore, Maryland 	 Overcast	23	WNW	12	0	30.36	12	37	10.0
Sat Jan 30 01:52:44 2010	Baltimore, Maryland 	 Overcast	23	WNW	12	0	30.36	12	37	10.0
Sat Jan 30 02:37:27 2010	Baltimore, Maryland 	 Mostly Cloudy	22	NW	6	1	30.36	14	40	10.0
Sat Jan 30 03:21:04 2010	Baltimore, Maryland 	 Overcast	22	NW	8	1	30.37	12	40	10.0
Sat Jan 30 04:05:00 2010	Baltimore, Maryland 	 Overcast	22	NW	5	1	30.37	16	40	10.0
Sat Jan 30 04:48:40 2010	Baltimore, Maryland 	 Overcast	22	NW	5	1	30.37	16	40	10.0
Sat Jan 30 05:32:30 2010	Baltimore, Maryland 	 Overcast	21	NNW	8	1	30.37	11	42	10.0
Sat Jan 30 06:16:10 2010	Baltimore, Maryland 	 Overcast	21	WNW	7	2	30.38	12	44	10.0
Sat Jan 30 07:01:53 2010	Baltimore, Maryland 	 Overcast	21	North	7	1	30.37	12	42	10.0
Sat Jan 30 07:45:22 2010	Baltimore, Maryland 	 Overcast	21	North	7	1	30.37	12	42	10.0
Sat Jan 30 08:28:26 2010	Baltimore, Maryland 	 Overcast	21	NNW	6	2	30.35	13	44	10.0
Sat Jan 30 11:58:01 2010	Baltimore, Maryland 	 Overcast	20	North	7	2	30.29	11	46	10.0
Sat Jan 30 12:41:50 2010	Baltimore, Maryland 	 Overcast	20	North	6	2	30.29	12	46	10.0
Sat Jan 30 13:25:01 2010	Baltimore, Maryland 	 Overcast	20	North	6	3	30.27	12	48	10.0
Sat Jan 30 14:08:43 2010	Baltimore, Maryland 	 Overcast	20	NE	12	2	30.24	8	46	10.0
Sat Jan 30 14:52:58 2010	Baltimore, Maryland 	 Overcast	20	NE	12	2	30.24	8	46	10.0
Sat Jan 30 15:37:38 2010	Baltimore, Maryland 	 Light Snow	20	NNE	8	1	30.24	10	44	9.0
Sat Jan 30 16:23:53 2010	Baltimore, Maryland 	 Light Snow	19	NE	10	5	30.23	8	54	5.0
Sat Jan 30 17:08:10 2010	Baltimore, Maryland 	 Light Snow	18	NE	7	11	30.25	9	74	0.8
Sat Jan 30 17:51:41 2010	Baltimore, Maryland 	 Snow	18	ENE	4	12	30.25	12	79	0.5
Sat Jan 30 18:35:30 2010	Baltimore, Maryland 	 Light Snow	17	North	6	13	30.24	9	84	0.8
Sat Jan 30 19:18:47 2010	Baltimore, Maryland 	 Snow	17	North	7	13	30.20	8	84	0.5
Sat Jan 30 20:02:53 2010	Baltimore, Maryland 	 Light Snow	17	NNE	7	13	30.15	8	84	1.0
Sat Jan 30 20:46:05 2010	Baltimore, Maryland 	 Snow	16	North	7	12	30.13	6	86	0.5
Sat Jan 30 21:30:04 2010	Baltimore, Maryland 	 Light Snow	16	NNE	7	12	30.10	6	86	0.8
Sat Jan 30 22:13:05 2010	Baltimore, Maryland 	 Light Snow	16	North	8	12	30.09	5	84	0.8
Sat Jan 30 22:57:53 2010	Baltimore, Maryland 	 Light Snow	16	North	9	12	30.07	4	86	0.8
Sat Jan 30 23:43:36 2010	Baltimore, Maryland 	 Heavy Snow	16	North	6	12	30.08	7	84	0.2
Sun Jan 31 00:27:37 2010	Baltimore, Maryland 	 Light Snow	16	North	9	12	30.05	4	86	4.0
Sun Jan 31 01:18:14 2010	Baltimore, Maryland 	 Light Snow	17	North	13	12	30.05	4	81	5.0
Sun Jan 31 02:02:07 2010	Baltimore, Maryland 	 Light Snow	17	North	9	12	30.05	6	81	4.0
Sun Jan 31 02:45:44 2010	Baltimore, Maryland 	 Light Snow	18	North	8	12	30.04	7	79	3.0
Sun Jan 31 03:29:47 2010	Baltimore, Maryland 	 Light Snow	18	North	5	12	30.03	11	79	5.0
Sun Jan 31 04:12:29 2010	Baltimore, Maryland 	 Light Snow	17	NNW	5	12	30.03	10	81	6.0
Sun Jan 31 04:57:36 2010	Baltimore, Maryland 	 Haze	18	NNW	5	10	30.03	11	71	6.0
Sun Jan 31 05:43:49 2010	Baltimore, Maryland 	 Overcast	18	NNW	5	10	30.03	11	71	7.0
Sun Jan 31 06:28:55 2010	Baltimore, Maryland 	 Overcast	19	NW	4	7	30.04	14	59	10.0
Sun Jan 31 07:11:56 2010	Baltimore, Maryland 	 Overcast	19	WNW	4	7	30.03	14	59	10.0
Sun Jan 31 07:58:32 2010	Baltimore, Maryland 	 Overcast	18	NW	6	6	30.04	10	60	10.0
Sun Jan 31 08:43:19 2010	Baltimore, Maryland 	 Overcast	18	NW	6	6	30.04	10	60	10.0
Sun Jan 31 09:26:30 2010	Baltimore, Maryland 	 Overcast	18	NW	6	5	30.05	9	58	10.0
Sun Jan 31 10:09:40 2010	Baltimore, Maryland 	 Scattered Clouds	17	NW	7	4	30.07	8	56	10.0
Sun Jan 31 10:53:27 2010	Baltimore, Maryland 	 Scattered Clouds	17	NW	7	4	30.07	8	56	10.0
Sun Jan 31 11:36:55 2010	Baltimore, Maryland 	 Scattered Clouds	15	NW	6	3	30.11	6	59	10.0
Sun Jan 31 12:20:35 2010	Baltimore, Maryland 	 Scattered Clouds	13	NW	5	1	30.13	5	59	10.0
Sun Jan 31 13:03:36 2010	Baltimore, Maryland 	 Mostly Cloudy	9	WNW	6	-1	30.16	-1	64	10.0
Sun Jan 31 13:47:41 2010	Baltimore, Maryland 	 Mostly Cloudy	9	WNW	6	-1	30.16	-1	64	10.0
Sun Jan 31 14:30:26 2010	Baltimore, Maryland 	 Mostly Cloudy	12	WNW	4	1	30.18	6	61	10.0
Sun Jan 31 15:14:24 2010	Baltimore, Maryland 	 Mostly Cloudy	17	NNW	9	0	30.20	6	47	10.0
Sun Jan 31 15:57:48 2010	Baltimore, Maryland 	 Partly Cloudy	19	NW	8	-1	30.21	9	42	10.0
Sun Jan 31 16:47:35 2010	Baltimore, Maryland 	 Partly Cloudy	19	NW	8	-1	30.21	9	42	10.0
Sun Jan 31 17:31:29 2010	Baltimore, Maryland 	 Partly Cloudy	23	NW	8	-2	30.22	14	34	10.0
Sun Jan 31 18:15:49 2010	Baltimore, Maryland 	 Clear	24	West	13	0	30.22	12	35	10.0
Sun Jan 31 18:59:56 2010	Baltimore, Maryland 	 Clear	26	WNW	9	1	30.19	17	34	10.0
Sun Jan 31 19:45:30 2010	Baltimore, Maryland 	 Clear	26	WNW	9	1	30.19	17	34	10.0
Sun Jan 31 20:28:30 2010	Baltimore, Maryland 	 Clear	27	West	9	3	30.17	18	36	10.0
Sun Jan 31 21:12:39 2010	Baltimore, Maryland 	 Clear	28	West	10	4	30.17	19	36	10.0
Sun Jan 31 21:56:02 2010	Baltimore, Maryland 	 Clear	28	West	10	4	30.17	19	36	10.0
Sun Jan 31 22:40:47 2010	Baltimore, Maryland 	 Clear	29	WSW	10	5	30.17	20	36	10.0
Sun Jan 31 23:23:51 2010	Baltimore, Maryland 	 Clear	28	West	6	5	30.17	22	38	10.0
Thu Feb  4 00:09:23 2010	Baltimore, Maryland 	 Overcast	38	WNW	4	27	30.16	36	65	10.0
Thu Feb  4 00:53:45 2010	Baltimore, Maryland 	 Overcast	38	WNW	4	27	30.16	36	65	10.0
Thu Feb  4 01:36:44 2010	Baltimore, Maryland 	 Mostly Cloudy	36	WNW	5	27	30.17	32	70	10.0
Thu Feb  4 02:23:50 2010	Baltimore, Maryland 	 Scattered Clouds	35	WNW	7	26	30.20	29	70	10.0
Thu Feb  4 03:07:46 2010	Baltimore, Maryland 	 Partly Cloudy	35	West	9	26	30.22	28	70	10.0
Thu Feb  4 03:52:17 2010	Baltimore, Maryland 	 Partly Cloudy	35	West	9	26	30.22	28	70	10.0
Thu Feb  4 04:35:28 2010	Baltimore, Maryland 	 Mostly Cloudy	34	West	7	26	30.24	28	73	10.0
Thu Feb  4 05:18:37 2010	Baltimore, Maryland 	 Scattered Clouds	33	West	8	24	30.25	26	70	10.0
Thu Feb  4 06:01:48 2010	Baltimore, Maryland 	 Partly Cloudy	32	West	8	23	30.26	25	69	10.0
Thu Feb  4 06:44:48 2010	Baltimore, Maryland 	 Partly Cloudy	32	West	8	23	30.26	25	69	10.0
Thu Feb  4 07:28:22 2010	Baltimore, Maryland 	 Scattered Clouds	31	West	9	21	30.27	23	67	10.0
Thu Feb  4 08:11:02 2010	Baltimore, Maryland 	 Partly Cloudy	32	WNW	8	19	30.29	25	59	10.0
Thu Feb  4 08:54:47 2010	Baltimore, Maryland 	 Partly Cloudy	32	WNW	8	19	30.29	25	59	10.0
Thu Feb  4 09:38:30 2010	Baltimore, Maryland 	 Partly Cloudy	31	WNW	7	17	30.31	24	57	10.0
Thu Feb  4 10:21:54 2010	Baltimore, Maryland 	 Clear	29	NW	5	17	30.32	24	61	10.0
Thu Feb  4 11:08:11 2010	Baltimore, Maryland 	 Clear	28	West	6	16	30.34	22	59	10.0
Thu Feb  4 11:51:45 2010	Baltimore, Maryland 	 Clear	28	West	6	16	30.34	22	59	10.0
Thu Feb  4 12:34:49 2010	Baltimore, Maryland 	 Clear	28	WNW	5	17	30.37	23	63	10.0
Thu Feb  4 13:18:18 2010	Baltimore, Maryland 	 Scattered Clouds	26	Calm		16	30.39	27	66	10.0
Thu Feb  4 14:02:39 2010	Baltimore, Maryland 	 Mostly Cloudy	29	Calm		17	30.39	28	61	10.0
Thu Feb  4 14:55:21 2010	Baltimore, Maryland 	 Mostly Cloudy	29	Calm		17	30.39	28	61	10.0
Thu Jan 28 15:35:33 2010	Baltimore, Maryland 	 Mostly Cloudy	35	WSW	6	25	30.06	30	67	10.0
Thu Jan 28 15:56:42 2010	Baltimore, Maryland 	 Mostly Cloudy	35	WSW	6	25	30.06	30	67	10.0
Thu Jan 28 16:45:00 2010	Baltimore, Maryland 	 Mostly Cloudy	37	SW	6	25	30.04	32	62	10.0
Thu Jan 28 17:09:49 2010	Baltimore, Maryland 	 Mostly Cloudy	40	WSW	9	25	30.02	34	55	10.0
Thu Jan 28 17:26:04 2010	Baltimore, Maryland 	 Mostly Cloudy	40	WSW	9	25	30.02	34	55	10.0
Tue Feb  2 00:25:16 2010	Baltimore, Maryland 	 Mostly Cloudy	29	Calm		13	30.29	28	51	10.0
Tue Feb  2 01:10:44 2010	Baltimore, Maryland 	 Scattered Clouds	27	Calm		13	30.29	27	56	10.0
Tue Feb  2 01:54:11 2010	Baltimore, Maryland 	 Scattered Clouds	27	Calm		13	30.29	27	56	10.0
Tue Feb  2 02:38:12 2010	Baltimore, Maryland 	 Mostly Cloudy	25	Calm		13	30.29	25	60	10.0
Tue Feb  2 03:21:24 2010	Baltimore, Maryland 	 Mostly Cloudy	25	Calm		14	30.30	25	63	10.0
Tue Feb  2 04:05:27 2010	Baltimore, Maryland 	 Mostly Cloudy	23	Calm		14	30.30	23	68	10.0
Tue Feb  2 04:49:03 2010	Baltimore, Maryland 	 Mostly Cloudy	23	Calm		14	30.30	23	68	10.0
Tue Feb  2 05:32:24 2010	Baltimore, Maryland 	 Mostly Cloudy	22	Calm		14	30.29	21	72	10.0
Tue Feb  2 06:15:21 2010	Baltimore, Maryland 	 Overcast	23	Calm		15	30.28	23	72	10.0
Tue Feb  2 07:02:51 2010	Baltimore, Maryland 	 Mostly Cloudy	22	Calm		16	30.27	21	78	10.0
Tue Feb  2 07:45:56 2010	Baltimore, Maryland 	 Mostly Cloudy	22	Calm		16	30.27	21	78	10.0
Tue Feb  2 08:29:02 2010	Baltimore, Maryland 	 Mostly Cloudy	20	Calm		16	30.26	19	85	10.0
Tue Feb  2 09:12:29 2010	Baltimore, Maryland 	 Mostly Cloudy	20	Calm		15	30.25	19	81	10.0
Tue Feb  2 09:56:01 2010	Baltimore, Maryland 	 Mostly Cloudy	20	Calm		15	30.25	19	81	10.0
Tue Feb  2 10:39:39 2010	Baltimore, Maryland 	 Scattered Clouds	20	Calm		15	30.26	19	81	10.0
Tue Feb  2 11:23:44 2010	Baltimore, Maryland 	 Mostly Cloudy	19	Calm		15	30.26	19	85	9.0
Tue Feb  2 12:07:16 2010	Baltimore, Maryland 	 Overcast	22	Calm		16	30.24	21	78	9.0
Tue Feb  2 12:51:37 2010	Baltimore, Maryland 	 Overcast	22	Calm		16	30.24	21	78	9.0
Tue Feb  2 13:34:57 2010	Baltimore, Maryland 	 Haze	27	Calm		22	30.23	27	81	6.0
Tue Feb  2 14:18:25 2010	Baltimore, Maryland 	 Overcast	28	ENE	4	23	30.26	24	81	7.0
Tue Feb  2 15:02:54 2010	Baltimore, Maryland 	 Haze	29	ENE	5	24	30.25	24	82	6.0
Tue Feb  2 15:49:17 2010	Baltimore, Maryland 	 Haze	29	ENE	5	24	30.25	24	82	6.0
Tue Feb  2 16:41:53 2010	Baltimore, Maryland 	 Haze	31	ENE	8	26	30.22	24	82	6.0
Tue Feb  2 17:29:33 2010	Baltimore, Maryland 	 Overcast	33	ENE	8	27	30.21	26	78	8.0
Tue Feb  2 18:14:57 2010	Baltimore, Maryland 	 Overcast	33	ENE	6	27	30.20	28	78	9.0
Tue Feb  2 18:58:57 2010	Baltimore, Maryland 	 Overcast	34	ENE	5	27	30.17	30	75	9.0
Tue Feb  2 19:47:55 2010	Baltimore, Maryland 	 Overcast	34	ENE	5	27	30.17	30	75	9.0
Tue Feb  2 20:39:39 2010	Baltimore, Maryland 	 Overcast	35	ENE	8	27	30.15	29	72	9.0
Tue Feb  2 21:26:12 2010	Baltimore, Maryland 	 Overcast	36	East	6	25	30.12	31	64	10.0
Tue Feb  2 22:13:54 2010	Baltimore, Maryland 	 Overcast	35	ENE	7	26	30.12	29	70	8.0
Tue Feb  2 22:59:09 2010	Baltimore, Maryland 	 Overcast	35	East	7	26	30.13	29	70	8.0
Tue Feb  2 23:44:08 2010	Baltimore, Maryland 	 Overcast	35	East	7	26	30.13	29	70	8.0
Wed Feb  3 00:29:01 2010	Baltimore, Maryland 	 Light Snow	34	ENE	5	27	30.12	30	75	5.0
Wed Feb  3 01:15:59 2010	Baltimore, Maryland 	 Light Snow	33	NE	7	26	30.12	27	75	5.0
Wed Feb  3 02:00:51 2010	Baltimore, Maryland 	 Light Snow	31	NE	7	29	30.11	24	92	1.0
Wed Feb  3 02:49:35 2010	Baltimore, Maryland 	 Light Snow	30	NE	7	28	30.10	23	93	0.8
Wed Feb  3 03:36:34 2010	Baltimore, Maryland 	 Light Snow	30	NNE	4	29	30.10	26	96	0.8
Wed Feb  3 04:24:36 2010	Baltimore, Maryland 	 Snow	30	NNE	4	30	30.08	27	100	0.5
Wed Feb  3 05:11:10 2010	Baltimore, Maryland 	 Light Snow	30	Variable	5	30	30.06	25	100	1.0
Wed Feb  3 05:59:12 2010	Baltimore, Maryland 	 Light Snow	30	NE	5	30	30.06	25	100	0.8
Wed Feb  3 06:46:01 2010	Baltimore, Maryland 	 Light Snow	30	NE	5	30	30.06	25	100	0.8
Wed Feb  3 07:30:37 2010	Baltimore, Maryland 	 Light Snow	30	Calm		30	30.03	30	100	1.0
Wed Feb  3 08:13:42 2010	Baltimore, Maryland 	 Light Snow	30	Calm		28	30.04	30	93	1.0
Wed Feb  3 09:00:05 2010	Baltimore, Maryland 	 Light Snow	30	Calm		29	30.04	30	96	1.5
Wed Feb  3 09:43:34 2010	Baltimore, Maryland 	 Light Snow	30	Calm		29	30.04	30	96	1.5
Wed Feb  3 10:27:33 2010	Baltimore, Maryland 	 Light Snow	30	NNW	4	28	30.05	27	93	2.0
Wed Feb  3 11:14:16 2010	Baltimore, Maryland 	 Overcast	30	Calm		28	30.04	30	93	3.0
Wed Feb  3 11:59:03 2010	Baltimore, Maryland 	 Overcast	30	Calm		29	30.06	30	96	3.0
Wed Feb  3 12:42:14 2010	Baltimore, Maryland 	 Overcast	30	Calm		28	30.06	30	93	3.0
Wed Feb  3 13:25:53 2010	Baltimore, Maryland 	 Mostly Cloudy	29	WNW	4	28	30.08	25	96	2.5
Wed Feb  3 14:11:31 2010	Baltimore, Maryland 	 Overcast	29	West	4	28	30.10	25	96	2.5
Wed Feb  3 14:57:27 2010	Baltimore, Maryland 	 Overcast	28	West	5	27	30.12	23	96	3.0
Wed Feb  3 15:42:34 2010	Baltimore, Maryland 	 Mostly Cloudy	30	Calm		28	30.10	30	93	3.0
Wed Feb  3 16:28:11 2010	Baltimore, Maryland 	 Overcast	32	West	6	28	30.11	26	87	5.0
Wed Feb  3 17:15:38 2010	Baltimore, Maryland 	 Mostly Cloudy	33	WNW	6	29	30.10	28	85	6.0
Wed Feb  3 18:04:12 2010	Baltimore, Maryland 	 Partly Cloudy	36	West	6	30	30.10	31	79	8.0
Wed Feb  3 18:47:18 2010	Baltimore, Maryland 	 Partly Cloudy	36	West	6	30	30.10	31	79	8.0
Wed Feb  3 19:31:08 2010	Baltimore, Maryland 	 Partly Cloudy	39	West	10	30	30.09	32	70	10.0
Wed Feb  3 20:14:48 2010	Baltimore, Maryland 	 Mostly Cloudy	42	WNW	12	27	30.07	36	55	10.0
Wed Feb  3 20:59:35 2010	Baltimore, Maryland 	 Mostly Cloudy	42	WNW	12	27	30.07	36	55	10.0
Wed Feb  3 21:47:27 2010	Baltimore, Maryland 	 Overcast	40	NW	14	26	30.09	32	58	10.0
Wed Feb  3 22:32:59 2010	Baltimore, Maryland 	 Mostly Cloudy	39	WNW	8	27	30.11	33	62	10.0
Wed Feb  3 23:23:45 2010	Baltimore, Maryland 	 Mostly Cloudy	39	WNW	8	27	30.13	33	62	10.0
Fri Jan 29 08:39:38 2010	Boston, Massachusetts 	 Clear	18	WNW	33	-5	29.94	-2	36	10.0
Fri Jan 29 09:23:33 2010	Boston, Massachusetts 	 Clear	16	WNW	26	-6	29.96	-3	38	10.0
Fri Jan 29 11:55:35 2010	Boston, Massachusetts 	 Clear	14	West	28	-6	29.97	-6	41	10.0
Fri Jan 29 12:40:07 2010	Boston, Massachusetts 	 Clear	14	West	22	-6	29.99	-4	41	10.0
Fri Jan 29 13:26:41 2010	Boston, Massachusetts 	 Clear	13	West	26	-6	30.01	-7	43	10.0
Fri Jan 29 14:15:28 2010	Boston, Massachusetts 	 Clear	13	West	24	-6	30.01	-6	43	10.0
Fri Jan 29 15:00:09 2010	Boston, Massachusetts 	 Clear	13	West	24	-6	30.01	-6	43	10.0
Fri Jan 29 15:46:03 2010	Boston, Massachusetts 	 Clear	14	West	25	-7	30.03	-6	39	10.0
Fri Jan 29 16:33:25 2010	Boston, Massachusetts 	 Clear	15	West	25	-7	30.04	-4	37	10.0
Fri Jan 29 17:18:00 2010	Boston, Massachusetts 	 Clear	15	West	25	-7	30.04	-4	37	10.0
Fri Jan 29 18:06:15 2010	Boston, Massachusetts 	 Clear	19	WNW	26	-10	30.00	1	27	10.0
Fri Jan 29 18:50:53 2010	Boston, Massachusetts 	 Clear	19	WNW	26	-10	30.00	1	27	10.0
Fri Jan 29 19:43:22 2010	Boston, Massachusetts 	 Partly Cloudy	19	West	24	-9	29.98	2	29	10.0
Fri Jan 29 20:41:27 2010	Boston, Massachusetts 	 Partly Cloudy	20	WNW	24	-10	29.99	3	26	10.0
Fri Jan 29 21:25:24 2010	Boston, Massachusetts 	 Partly Cloudy	20	WNW	26	-11	30.00	2	25	10.0
Fri Jan 29 22:11:27 2010	Boston, Massachusetts 	 Scattered Clouds	19	WNW	23	-10	30.02	2	27	10.0
Fri Jan 29 22:57:47 2010	Boston, Massachusetts 	 Scattered Clouds	19	WNW	23	-10	30.02	2	27	10.0
Fri Jan 29 23:41:49 2010	Boston, Massachusetts 	 Partly Cloudy	18	WNW	25	-12	30.04	0	26	10.0
Mon Feb  1 00:08:47 2010	Boston, Massachusetts 	 Clear	27	West	13	3	30.00	16	36	10.0
Mon Feb  1 00:52:01 2010	Boston, Massachusetts 	 Clear	27	West	13	3	30.00	16	36	10.0
Mon Feb  1 01:36:44 2010	Boston, Massachusetts 	 Clear	27	West	10	4	30.02	17	37	10.0
Mon Feb  1 02:21:38 2010	Boston, Massachusetts 	 Clear	26	West	14	4	30.02	14	39	10.0
Mon Feb  1 03:05:48 2010	Boston, Massachusetts 	 Partly Cloudy	25	West	9	5	30.02	16	43	10.0
Mon Feb  1 03:49:19 2010	Boston, Massachusetts 	 Partly Cloudy	25	West	9	5	30.02	16	43	10.0
Mon Feb  1 04:34:58 2010	Boston, Massachusetts 	 Mostly Cloudy	25	West	12	5	30.03	14	43	10.0
Mon Feb  1 05:18:35 2010	Boston, Massachusetts 	 Overcast	25	West	12	5	30.03	14	43	10.0
Mon Feb  1 06:03:29 2010	Boston, Massachusetts 	 Overcast	25	West	15	4	30.02	13	41	10.0
Mon Feb  1 06:46:22 2010	Boston, Massachusetts 	 Overcast	25	West	15	4	30.02	13	41	10.0
Mon Feb  1 07:30:26 2010	Boston, Massachusetts 	 Overcast	25	West	13	6	30.01	14	45	10.0
Mon Feb  1 08:13:36 2010	Boston, Massachusetts 	 Overcast	25	West	14	6	30.01	13	45	10.0
Mon Feb  1 08:57:19 2010	Boston, Massachusetts 	 Mostly Cloudy	25	West	15	6	30.02	13	45	10.0
Mon Feb  1 09:40:21 2010	Boston, Massachusetts 	 Mostly Cloudy	25	West	15	6	30.02	13	45	10.0
Mon Feb  1 10:23:41 2010	Boston, Massachusetts 	 Clear	24	West	16	7	30.03	11	48	10.0
Mon Feb  1 11:06:49 2010	Boston, Massachusetts 	 Clear	24	West	14	7	30.04	12	48	10.0
Mon Feb  1 11:50:06 2010	Boston, Massachusetts 	 Clear	24	West	14	7	30.04	12	48	10.0
Mon Feb  1 12:33:37 2010	Boston, Massachusetts 	 Clear	23	WSW	16	8	30.06	10	53	10.0
Mon Feb  1 13:17:07 2010	Boston, Massachusetts 	 Clear	23	WSW	17	8	30.09	9	53	10.0
Mon Feb  1 14:00:55 2010	Boston, Massachusetts 	 Clear	23	WSW	16	8	30.11	10	53	10.0
Mon Feb  1 14:45:24 2010	Boston, Massachusetts 	 Clear	23	WSW	16	8	30.11	10	53	10.0
Mon Feb  1 15:29:44 2010	Boston, Massachusetts 	 Clear	27	West	17	9	30.12	14	47	10.0
Mon Feb  1 16:13:53 2010	Boston, Massachusetts 	 Partly Cloudy	29	West	14	9	30.14	18	43	10.0
Mon Feb  1 16:59:02 2010	Boston, Massachusetts 	 Partly Cloudy	31	West	16	7	30.14	20	37	10.0
Mon Feb  1 17:43:06 2010	Boston, Massachusetts 	 Partly Cloudy	31	West	16	7	30.14	20	37	10.0
Mon Feb  1 18:26:15 2010	Boston, Massachusetts 	 Partly Cloudy	33	WSW	14	6	30.12	23	32	10.0
Mon Feb  1 19:10:00 2010	Boston, Massachusetts 	 Partly Cloudy	34	WSW	13	8	30.10	25	34	10.0
Mon Feb  1 19:55:09 2010	Boston, Massachusetts 	 Partly Cloudy	34	WSW	13	8	30.10	25	34	10.0
Mon Feb  1 20:41:36 2010	Boston, Massachusetts 	 Partly Cloudy	34	WNW	20	2	30.08	23	26	10.0
Mon Feb  1 21:26:23 2010	Boston, Massachusetts 	 Partly Cloudy	34	West	16	5	30.09	24	30	10.0
Mon Feb  1 22:09:56 2010	Boston, Massachusetts 	 Partly Cloudy	33	West	21	4	30.09	21	29	10.0
Mon Feb  1 22:53:13 2010	Boston, Massachusetts 	 Partly Cloudy	33	West	21	4	30.09	21	29	10.0
Mon Feb  1 23:39:16 2010	Boston, Massachusetts 	 Scattered Clouds	32	West	14	3	30.11	22	29	10.0
Sat Jan 30 00:25:52 2010	Boston, Massachusetts 	 Partly Cloudy	17	WNW	25	-10	30.06	-1	30	10.0
Sat Jan 30 01:10:01 2010	Boston, Massachusetts 	 Partly Cloudy	16	WNW	25	-11	30.06	-3	30	10.0
Sat Jan 30 01:53:44 2010	Boston, Massachusetts 	 Partly Cloudy	16	WNW	25	-11	30.06	-3	30	10.0
Sat Jan 30 02:38:23 2010	Boston, Massachusetts 	 Clear	15	WNW	22	-12	30.06	-3	29	10.0
Sat Jan 30 03:22:01 2010	Boston, Massachusetts 	 Clear	14	WNW	23	-12	30.08	-5	31	10.0
Sat Jan 30 04:05:54 2010	Boston, Massachusetts 	 Clear	13	WNW	22	-12	30.09	-6	32	10.0
Sat Jan 30 04:49:36 2010	Boston, Massachusetts 	 Clear	13	WNW	22	-12	30.09	-6	32	10.0
Sat Jan 30 05:33:25 2010	Boston, Massachusetts 	 Clear	12	West	18	-12	30.11	-6	34	10.0
Sat Jan 30 06:17:06 2010	Boston, Massachusetts 	 Clear	11	WNW	17	-11	30.11	-6	37	10.0
Sat Jan 30 07:02:47 2010	Boston, Massachusetts 	 Partly Cloudy	9	WNW	20	-12	30.11	-10	38	10.0
Sat Jan 30 07:46:19 2010	Boston, Massachusetts 	 Partly Cloudy	9	WNW	20	-12	30.11	-10	38	10.0
Sat Jan 30 08:29:21 2010	Boston, Massachusetts 	 Partly Cloudy	8	WNW	15	-11	30.14	-9	42	10.0
Sat Jan 30 11:58:56 2010	Boston, Massachusetts 	 Scattered Clouds	6	West	14	-12	30.16	-11	44	10.0
Sat Jan 30 12:42:44 2010	Boston, Massachusetts 	 Scattered Clouds	6	West	14	-12	30.16	-11	44	10.0
Sat Jan 30 13:25:57 2010	Boston, Massachusetts 	 Scattered Clouds	6	WNW	13	-12	30.17	-10	44	10.0
Sat Jan 30 14:09:40 2010	Boston, Massachusetts 	 Scattered Clouds	7	NW	15	-11	30.18	-10	44	10.0
Sat Jan 30 14:53:56 2010	Boston, Massachusetts 	 Scattered Clouds	7	NW	15	-11	30.18	-10	44	10.0
Sat Jan 30 15:38:32 2010	Boston, Massachusetts 	 Mostly Cloudy	9	NW	15	-9	30.18	-8	44	10.0
Sat Jan 30 16:24:46 2010	Boston, Massachusetts 	 Mostly Cloudy	12	NW	15	-7	30.19	-4	42	10.0
Sat Jan 30 17:09:08 2010	Boston, Massachusetts 	 Scattered Clouds	14	NW	13	-6	30.17	0	41	10.0
Sat Jan 30 17:52:37 2010	Boston, Massachusetts 	 Scattered Clouds	14	NW	13	-6	30.17	0	41	10.0
Sat Jan 30 18:36:27 2010	Boston, Massachusetts 	 Mostly Cloudy	17	NNW	12	-4	30.14	4	39	10.0
Sat Jan 30 19:19:42 2010	Boston, Massachusetts 	 Overcast	20	NW	9	-3	30.13	9	37	10.0
Sat Jan 30 20:03:50 2010	Boston, Massachusetts 	 Overcast	21	NW	6	-2	30.11	13	36	10.0
Sat Jan 30 20:46:58 2010	Boston, Massachusetts 	 Overcast	21	NW	6	-2	30.11	13	36	10.0
Sat Jan 30 21:31:01 2010	Boston, Massachusetts 	 Overcast	22	NNW	8	-1	30.08	12	37	10.0
Sat Jan 30 22:14:03 2010	Boston, Massachusetts 	 Overcast	22	North	7	-1	30.10	13	37	10.0
Sat Jan 30 22:58:46 2010	Boston, Massachusetts 	 Overcast	22	North	7	-1	30.10	13	37	10.0
Sat Jan 30 23:44:31 2010	Boston, Massachusetts 	 Overcast	22	NW	6	-1	30.11	14	37	10.0
Sun Jan 31 00:28:32 2010	Boston, Massachusetts 	 Overcast	22	NW	6	0	30.13	14	38	10.0
Sun Jan 31 01:19:09 2010	Boston, Massachusetts 	 Mostly Cloudy	21	North	8	0	30.11	11	40	10.0
Sun Jan 31 02:03:03 2010	Boston, Massachusetts 	 Mostly Cloudy	20	NNW	8	-1	30.09	10	40	10.0
Sun Jan 31 02:46:40 2010	Boston, Massachusetts 	 Mostly Cloudy	20	NNW	8	-1	30.09	10	40	10.0
Sun Jan 31 03:30:41 2010	Boston, Massachusetts 	 Mostly Cloudy	19	NNW	8	-1	30.06	9	42	10.0
Sun Jan 31 04:13:25 2010	Boston, Massachusetts 	 Mostly Cloudy	18	NNW	9	-1	30.04	7	44	10.0
Sun Jan 31 04:58:32 2010	Boston, Massachusetts 	 Overcast	17	NNW	13	-2	30.02	4	43	10.0
Sun Jan 31 05:44:45 2010	Boston, Massachusetts 	 Overcast	17	NNW	13	-2	30.02	4	43	10.0
Sun Jan 31 06:29:49 2010	Boston, Massachusetts 	 Overcast	17	NNW	8	-1	29.99	7	45	10.0
Sun Jan 31 07:12:53 2010	Boston, Massachusetts 	 Overcast	16	NNW	12	-1	29.98	3	47	10.0
Sun Jan 31 07:59:28 2010	Boston, Massachusetts 	 Overcast	16	NNW	12	-1	29.98	3	47	10.0
Sun Jan 31 08:44:18 2010	Boston, Massachusetts 	 Overcast	16	NNW	12	-1	29.98	3	47	10.0
Sun Jan 31 09:27:24 2010	Boston, Massachusetts 	 Overcast	16	NNW	13	-2	29.98	2	45	10.0
Sun Jan 31 10:10:38 2010	Boston, Massachusetts 	 Overcast	15	NW	13	-2	29.98	1	47	10.0
Sun Jan 31 10:54:23 2010	Boston, Massachusetts 	 Overcast	15	NW	13	-2	29.98	1	47	10.0
Sun Jan 31 11:37:51 2010	Boston, Massachusetts 	 Mostly Cloudy	14	NNW	13	-5	30.00	0	43	10.0
Sun Jan 31 12:21:29 2010	Boston, Massachusetts 	 Mostly Cloudy	14	NNW	14	-10	30.01	-1	34	10.0
Sun Jan 31 13:04:31 2010	Boston, Massachusetts 	 Scattered Clouds	13	NNW	12	-8	30.03	-1	39	10.0
Sun Jan 31 13:48:34 2010	Boston, Massachusetts 	 Scattered Clouds	13	NNW	12	-8	30.03	-1	39	10.0
Sun Jan 31 14:31:23 2010	Boston, Massachusetts 	 Scattered Clouds	13	NW	10	-8	30.03	0	39	10.0
Sun Jan 31 15:15:18 2010	Boston, Massachusetts 	 Scattered Clouds	15	NW	13	-8	30.04	1	36	10.0
Sun Jan 31 15:58:45 2010	Boston, Massachusetts 	 Mostly Cloudy	18	NW	12	-4	30.03	5	38	10.0
Sun Jan 31 16:48:31 2010	Boston, Massachusetts 	 Mostly Cloudy	18	NW	12	-4	30.03	5	38	10.0
Sun Jan 31 17:32:27 2010	Boston, Massachusetts 	 Scattered Clouds	22	WNW	9	-2	30.03	12	35	10.0
Sun Jan 31 18:16:45 2010	Boston, Massachusetts 	 Scattered Clouds	25	NW	13	0	30.01	14	34	10.0
Sun Jan 31 19:00:52 2010	Boston, Massachusetts 	 Scattered Clouds	26	NW	13	2	29.98	15	35	10.0
Sun Jan 31 19:46:26 2010	Boston, Massachusetts 	 Scattered Clouds	26	NW	13	2	29.98	15	35	10.0
Sun Jan 31 20:29:26 2010	Boston, Massachusetts 	 Scattered Clouds	27	WNW	9	2	29.97	18	34	10.0
Sun Jan 31 21:13:32 2010	Boston, Massachusetts 	 Scattered Clouds	28	NW	13	1	29.97	18	31	10.0
Sun Jan 31 21:56:56 2010	Boston, Massachusetts 	 Scattered Clouds	28	NW	13	1	29.97	18	31	10.0
Sun Jan 31 22:41:44 2010	Boston, Massachusetts 	 Partly Cloudy	29	NW	12	2	29.98	19	32	10.0
Sun Jan 31 23:24:50 2010	Boston, Massachusetts 	 Partly Cloudy	28	WNW	10	2	30.00	19	33	10.0
Thu Feb  4 00:10:25 2010	Boston, Massachusetts 	 Overcast	32	NNW	7	19	30.00	26	59	10.0
Thu Feb  4 00:54:35 2010	Boston, Massachusetts 	 Overcast	32	NNW	7	19	30.00	26	59	10.0
Thu Feb  4 01:37:36 2010	Boston, Massachusetts 	 Overcast	32	NW	8	18	30.01	25	56	10.0
Thu Feb  4 02:24:45 2010	Boston, Massachusetts 	 Overcast	32	NW	8	18	30.01	25	56	10.0
Thu Feb  4 03:08:42 2010	Boston, Massachusetts 	 Overcast	32	NW	8	19	30.01	25	59	10.0
Thu Feb  4 03:53:10 2010	Boston, Massachusetts 	 Overcast	32	NW	8	19	30.01	25	59	10.0
Thu Feb  4 04:36:22 2010	Boston, Massachusetts 	 Partly Cloudy	31	WNW	10	17	30.03	22	57	10.0
Thu Feb  4 05:19:33 2010	Boston, Massachusetts 	 Clear	30	WNW	13	17	30.03	20	59	10.0
Thu Feb  4 06:02:40 2010	Boston, Massachusetts 	 Clear	29	WNW	10	17	30.04	20	61	10.0
Thu Feb  4 06:45:40 2010	Boston, Massachusetts 	 Clear	29	WNW	10	17	30.04	20	61	10.0
Thu Feb  4 07:29:17 2010	Boston, Massachusetts 	 Clear	28	WNW	12	17	30.05	18	63	10.0
Thu Feb  4 08:11:57 2010	Boston, Massachusetts 	 Clear	27	WNW	12	16	30.06	17	63	10.0
Thu Feb  4 08:55:41 2010	Boston, Massachusetts 	 Clear	27	WNW	12	16	30.06	17	63	10.0
Thu Feb  4 09:39:25 2010	Boston, Massachusetts 	 Clear	26	WNW	9	16	30.07	17	66	10.0
Thu Feb  4 10:22:48 2010	Boston, Massachusetts 	 Clear	26	WNW	9	16	30.09	17	66	10.0
Thu Feb  4 11:09:02 2010	Boston, Massachusetts 	 Clear	25	WNW	9	15	30.10	16	66	10.0
Thu Feb  4 11:52:36 2010	Boston, Massachusetts 	 Clear	25	WNW	9	15	30.10	16	66	10.0
Thu Feb  4 12:35:45 2010	Boston, Massachusetts 	 Clear	26	WNW	13	15	30.12	15	63	10.0
Thu Feb  4 13:19:14 2010	Boston, Massachusetts 	 Clear	25	NW	10	15	30.15	15	66	10.0
Thu Feb  4 14:03:35 2010	Boston, Massachusetts 	 Clear	26	NNW	13	11	30.18	15	53	10.0
Thu Feb  4 14:56:17 2010	Boston, Massachusetts 	 Clear	26	NNW	13	11	30.18	15	53	10.0
Thu Jan 28 15:36:30 2010	Boston, Massachusetts 	 Scattered Clouds	32	WSW	13	19	30.04	22	59	10.0
Thu Jan 28 15:57:39 2010	Boston, Massachusetts 	 Scattered Clouds	32	WSW	13	19	30.04	22	59	10.0
Thu Jan 28 16:45:57 2010	Boston, Massachusetts 	 Scattered Clouds	33	SW	9	19	30.00	26	56	10.0
Thu Jan 28 17:10:48 2010	Boston, Massachusetts 	 Mostly Cloudy	35	SW	14	18	29.97	26	50	10.0
Thu Jan 28 17:27:04 2010	Boston, Massachusetts 	 Mostly Cloudy	35	SW	14	18	29.97	26	50	10.0
Tue Feb  2 00:26:12 2010	Boston, Massachusetts 	 Scattered Clouds	31	West	18	2	30.14	19	29	10.0
Tue Feb  2 01:11:44 2010	Boston, Massachusetts 	 Partly Cloudy	30	West	15	3	30.15	19	32	10.0
Tue Feb  2 01:55:07 2010	Boston, Massachusetts 	 Partly Cloudy	30	West	15	3	30.15	19	32	10.0
Tue Feb  2 02:39:09 2010	Boston, Massachusetts 	 Partly Cloudy	28	WNW	12	4	30.17	18	36	10.0
Tue Feb  2 03:22:19 2010	Boston, Massachusetts 	 Scattered Clouds	27	WNW	15	6	30.18	15	41	10.0
Tue Feb  2 04:06:21 2010	Boston, Massachusetts 	 Partly Cloudy	26	WNW	9	7	30.18	17	44	10.0
Tue Feb  2 04:49:59 2010	Boston, Massachusetts 	 Partly Cloudy	26	WNW	9	7	30.18	17	44	10.0
Tue Feb  2 05:33:20 2010	Boston, Massachusetts 	 Scattered Clouds	27	West	14	7	30.17	16	43	10.0
Tue Feb  2 06:16:17 2010	Boston, Massachusetts 	 Overcast	27	West	15	8	30.18	15	45	10.0
Tue Feb  2 07:03:46 2010	Boston, Massachusetts 	 Overcast	27	WNW	13	8	30.20	16	45	10.0
Tue Feb  2 07:46:52 2010	Boston, Massachusetts 	 Overcast	27	WNW	13	8	30.20	16	45	10.0
Tue Feb  2 08:29:57 2010	Boston, Massachusetts 	 Mostly Cloudy	26	West	12	9	30.20	16	49	10.0
Tue Feb  2 09:13:26 2010	Boston, Massachusetts 	 Partly Cloudy	26	West	12	9	30.22	16	49	10.0
Tue Feb  2 09:56:57 2010	Boston, Massachusetts 	 Partly Cloudy	26	West	12	9	30.22	16	49	10.0
Tue Feb  2 10:40:35 2010	Boston, Massachusetts 	 Partly Cloudy	25	West	8	9	30.23	16	51	10.0
Tue Feb  2 11:24:40 2010	Boston, Massachusetts 	 Clear	25	West	9	10	30.23	16	53	10.0
Tue Feb  2 12:08:14 2010	Boston, Massachusetts 	 Partly Cloudy	24	WNW	9	10	30.24	14	55	10.0
Tue Feb  2 12:52:33 2010	Boston, Massachusetts 	 Partly Cloudy	24	WNW	9	10	30.24	14	55	10.0
Tue Feb  2 13:35:53 2010	Boston, Massachusetts 	 Scattered Clouds	24	WNW	7	10	30.25	16	55	10.0
Tue Feb  2 14:19:22 2010	Boston, Massachusetts 	 Scattered Clouds	25	WNW	7	11	30.27	17	55	10.0
Tue Feb  2 15:03:51 2010	Boston, Massachusetts 	 Scattered Clouds	26	NW	7	11	30.28	18	53	10.0
Tue Feb  2 15:50:12 2010	Boston, Massachusetts 	 Scattered Clouds	26	NW	7	11	30.28	18	53	10.0
Tue Feb  2 16:42:51 2010	Boston, Massachusetts 	 Scattered Clouds	28	NNW	13	8	30.27	18	43	10.0
Tue Feb  2 17:30:27 2010	Boston, Massachusetts 	 Mostly Cloudy	29	Variable	6	8	30.26	23	41	10.0
Tue Feb  2 18:15:51 2010	Boston, Massachusetts 	 Overcast	29	Variable	5	8	30.24	24	41	10.0
Tue Feb  2 18:59:52 2010	Boston, Massachusetts 	 Overcast	30	Calm		8	30.21	30	40	10.0
Tue Feb  2 19:48:56 2010	Boston, Massachusetts 	 Overcast	30	Calm		8	30.21	30	40	10.0
Tue Feb  2 20:40:33 2010	Boston, Massachusetts 	 Overcast	30	South	7	10	30.20	23	43	10.0
Tue Feb  2 21:27:07 2010	Boston, Massachusetts 	 Mostly Cloudy	30	SE	7	11	30.20	23	45	10.0
Tue Feb  2 22:14:49 2010	Boston, Massachusetts 	 Overcast	30	South	6	11	30.20	24	45	10.0
Tue Feb  2 23:00:04 2010	Boston, Massachusetts 	 Overcast	29	SE	10	14	30.21	20	54	10.0
Tue Feb  2 23:45:03 2010	Boston, Massachusetts 	 Overcast	29	SE	10	14	30.21	20	54	10.0
Wed Feb  3 00:29:57 2010	Boston, Massachusetts 	 Overcast	29	SSW	8	11	30.21	21	47	10.0
Wed Feb  3 01:16:59 2010	Boston, Massachusetts 	 Mostly Cloudy	28	SSW	5	11	30.19	23	49	10.0
Wed Feb  3 02:01:47 2010	Boston, Massachusetts 	 Mostly Cloudy	26	South	6	12	30.19	19	55	10.0
Wed Feb  3 02:50:31 2010	Boston, Massachusetts 	 Mostly Cloudy	26	South	6	12	30.19	19	55	10.0
Wed Feb  3 03:37:28 2010	Boston, Massachusetts 	 Mostly Cloudy	27	South	7	13	30.19	20	56	10.0
Wed Feb  3 04:25:33 2010	Boston, Massachusetts 	 Mostly Cloudy	26	SSW	8	14	30.17	18	60	10.0
Wed Feb  3 05:12:06 2010	Boston, Massachusetts 	 Overcast	26	South	5	14	30.15	20	60	10.0
Wed Feb  3 06:00:07 2010	Boston, Massachusetts 	 Overcast	27	South	4	16	30.14	23	63	10.0
Wed Feb  3 06:46:56 2010	Boston, Massachusetts 	 Overcast	27	South	4	16	30.14	23	63	10.0
Wed Feb  3 07:31:32 2010	Boston, Massachusetts 	 Overcast	27	South	4	17	30.12	23	66	10.0
Wed Feb  3 08:14:37 2010	Boston, Massachusetts 	 Overcast	27	NNE	4	17	30.12	23	66	7.0
Wed Feb  3 09:01:01 2010	Boston, Massachusetts 	 Light Snow	26	Calm		19	30.11	27	75	3.0
Wed Feb  3 09:44:27 2010	Boston, Massachusetts 	 Light Snow	27	Calm		19	30.11	27	74	2.5
Wed Feb  3 10:28:28 2010	Boston, Massachusetts 	 Light Snow	25	Calm		20	30.09	25	81	3.0
Wed Feb  3 11:15:08 2010	Boston, Massachusetts 	 Light Snow	26	North	-9999	22	30.08	27	84	5.0
Wed Feb  3 11:59:57 2010	Boston, Massachusetts 	 Light Snow	26	Calm		22	30.07	27	84	4.0
Wed Feb  3 12:43:10 2010	Boston, Massachusetts 	 Light Snow	26	Calm		22	30.07	27	84	4.0
Wed Feb  3 13:26:52 2010	Boston, Massachusetts 	 Light Snow	26	Calm		22	30.07	27	84	5.0
Wed Feb  3 14:12:31 2010	Boston, Massachusetts 	 Light Snow	26	Calm		23	30.07	27	88	2.0
Wed Feb  3 14:58:19 2010	Boston, Massachusetts 	 Light Snow	27	SSW	4	25	30.07	23	92	3.0
Wed Feb  3 15:43:32 2010	Boston, Massachusetts 	 Light Snow	28	NNE	4	25	30.06	25	86	2.0
Wed Feb  3 16:29:07 2010	Boston, Massachusetts 	 Light Snow	28	Variable	7	23	30.06	21	80	4.0
Wed Feb  3 17:16:33 2010	Boston, Massachusetts 	 Light Snow	28	NW	6	23	30.04	22	80	5.0
Wed Feb  3 18:05:08 2010	Boston, Massachusetts 	 Overcast	31	NNE	5	24	30.02	26	76	8.0
Wed Feb  3 18:48:13 2010	Boston, Massachusetts 	 Overcast	31	NNE	5	24	30.02	26	76	8.0
Wed Feb  3 19:32:02 2010	Boston, Massachusetts 	 Overcast	31	NE	5	23	29.98	26	72	10.0
Wed Feb  3 20:15:45 2010	Boston, Massachusetts 	 Overcast	32	NNW	7	23	29.96	26	69	10.0
Wed Feb  3 21:00:31 2010	Boston, Massachusetts 	 Overcast	32	NNW	7	23	29.96	26	69	10.0
Wed Feb  3 21:48:23 2010	Boston, Massachusetts 	 Overcast	32	NNW	10	19	29.97	24	60	10.0
Wed Feb  3 22:33:53 2010	Boston, Massachusetts 	 Overcast	32	NW	10	20	29.97	24	61	10.0
Wed Feb  3 23:24:40 2010	Boston, Massachusetts 	 Overcast	32	NNW	8	20	29.97	25	61	10.0
Fri Jan 29 08:38:08 2010	Charlotte, North Carolina 	 Overcast	42	North	5	25	30.18	39	51	10.0
Fri Jan 29 09:22:09 2010	Charlotte, North Carolina 	 Clear	41	NE	5	25	30.19	38	53	10.0
Fri Jan 29 11:54:06 2010	Charlotte, North Carolina 	 Mostly Cloudy	41	NE	8	20	30.20	36	43	10.0
Fri Jan 29 12:38:41 2010	Charlotte, North Carolina 	 Clear	40	NE	8	18	30.21	34	41	10.0
Fri Jan 29 13:25:15 2010	Charlotte, North Carolina 	 Scattered Clouds	38	ENE	7	16	30.24	33	41	10.0
Fri Jan 29 14:13:57 2010	Charlotte, North Carolina 	 Mostly Cloudy	38	NNE	6	18	30.27	34	45	10.0
Fri Jan 29 14:58:36 2010	Charlotte, North Carolina 	 Mostly Cloudy	38	NNE	6	18	30.27	34	45	10.0
Fri Jan 29 15:44:37 2010	Charlotte, North Carolina 	 Mostly Cloudy	39	ENE	12	17	30.28	32	41	10.0
Fri Jan 29 16:31:42 2010	Charlotte, North Carolina 	 Mostly Cloudy	40	East	10	15	30.28	33	36	10.0
Fri Jan 29 17:16:23 2010	Charlotte, North Carolina 	 Mostly Cloudy	41	ENE	12	14	30.29	34	33	10.0
Fri Jan 29 18:04:48 2010	Charlotte, North Carolina 	 Mostly Cloudy	44	East	12	12	30.28	38	27	10.0
Fri Jan 29 18:49:31 2010	Charlotte, North Carolina 	 Mostly Cloudy	44	East	12	12	30.28	38	27	10.0
Fri Jan 29 19:41:57 2010	Charlotte, North Carolina 	 Mostly Cloudy	43	NE	6	12	30.26	40	28	10.0
Fri Jan 29 20:39:53 2010	Charlotte, North Carolina 	 Overcast	44	ENE	8	14	30.23	40	30	10.0
Fri Jan 29 21:23:59 2010	Charlotte, North Carolina 	 Overcast	43	NE	9	14	30.25	38	31	10.0
Fri Jan 29 22:10:00 2010	Charlotte, North Carolina 	 Light Snow	36	NNE	8	27	30.25	29	70	2.0
Fri Jan 29 22:56:17 2010	Charlotte, North Carolina 	 Light Snow	34	East	7	30	30.28	28	85	2.0
Fri Jan 29 23:40:23 2010	Charlotte, North Carolina 	 Light Snow	34	East	5	28	30.26	30	81	0.8
Mon Feb  1 00:07:21 2010	Charlotte, North Carolina 	 Scattered Clouds	35	South	5	19	30.26	31	52	10.0
Mon Feb  1 00:50:34 2010	Charlotte, North Carolina 	 Scattered Clouds	35	South	5	19	30.26	31	52	10.0
Mon Feb  1 01:35:20 2010	Charlotte, North Carolina 	 Scattered Clouds	33	SSW	7	20	30.28	27	59	10.0
Mon Feb  1 02:20:12 2010	Charlotte, North Carolina 	 Partly Cloudy	31	SSW	5	25	30.29	26	79	10.0
Mon Feb  1 03:04:22 2010	Charlotte, North Carolina 	 Partly Cloudy	32	Calm		26	30.29	32	79	10.0
Mon Feb  1 03:47:53 2010	Charlotte, North Carolina 	 Partly Cloudy	32	Calm		26	30.29	32	79	10.0
Mon Feb  1 04:33:33 2010	Charlotte, North Carolina 	 Partly Cloudy	29	Calm		25	30.30	28	85	10.0
Mon Feb  1 05:17:09 2010	Charlotte, North Carolina 	 Partly Cloudy	29	Calm		26	30.31	28	89	10.0
Mon Feb  1 06:02:03 2010	Charlotte, North Carolina 	 Partly Cloudy	29	Calm		26	30.31	28	89	7.0
Mon Feb  1 06:44:57 2010	Charlotte, North Carolina 	 Partly Cloudy	29	Calm		26	30.31	28	89	7.0
Mon Feb  1 07:28:59 2010	Charlotte, North Carolina 	 Partly Cloudy	27	Calm		25	30.31	27	92	7.0
Mon Feb  1 08:12:03 2010	Charlotte, North Carolina 	 Partly Cloudy	27	Calm		25	30.32	27	92	7.0
Mon Feb  1 08:55:52 2010	Charlotte, North Carolina 	 Clear	26	Calm		25	30.33	27	96	5.0
Mon Feb  1 09:38:55 2010	Charlotte, North Carolina 	 Clear	26	Calm		25	30.33	27	96	5.0
Mon Feb  1 10:22:16 2010	Charlotte, North Carolina 	 Clear	26	Calm		24	30.33	27	92	5.0
Mon Feb  1 11:05:22 2010	Charlotte, North Carolina 	 Clear	26	Calm		23	30.32	27	88	6.0
Mon Feb  1 11:48:40 2010	Charlotte, North Carolina 	 Clear	26	Calm		23	30.32	27	88	6.0
Mon Feb  1 12:32:13 2010	Charlotte, North Carolina 	 Partly Cloudy	24	Calm		22	30.32	25	91	6.0
Mon Feb  1 13:15:36 2010	Charlotte, North Carolina 	 Scattered Clouds	24	Calm		23	30.35	25	96	5.0
Mon Feb  1 13:59:30 2010	Charlotte, North Carolina 	 Mostly Cloudy	21	North	4	19	30.38	16	92	4.0
Mon Feb  1 14:43:59 2010	Charlotte, North Carolina 	 Mostly Cloudy	21	North	4	19	30.38	16	92	4.0
Mon Feb  1 15:28:20 2010	Charlotte, North Carolina 	 Mostly Cloudy	30	Calm		30	30.38	30	100	4.0
Mon Feb  1 16:12:23 2010	Charlotte, North Carolina 	 Mostly Cloudy	32	Calm		30	30.39	32	92	7.0
Mon Feb  1 16:57:39 2010	Charlotte, North Carolina 	 Mostly Cloudy	37	SW	4	31	30.38	34	79	8.0
Mon Feb  1 17:41:41 2010	Charlotte, North Carolina 	 Mostly Cloudy	37	SW	4	31	30.38	34	79	8.0
Mon Feb  1 18:24:52 2010	Charlotte, North Carolina 	 Mostly Cloudy	41	Variable	4	30	30.37	39	65	10.0
Mon Feb  1 19:08:34 2010	Charlotte, North Carolina 	 Scattered Clouds	42	SW	5	26	30.35	39	53	10.0
Mon Feb  1 19:53:43 2010	Charlotte, North Carolina 	 Scattered Clouds	42	SW	5	26	30.35	39	53	10.0
Mon Feb  1 20:40:14 2010	Charlotte, North Carolina 	 Scattered Clouds	45	Calm		24	30.32	45	44	10.0
Mon Feb  1 21:25:00 2010	Charlotte, North Carolina 	 Partly Cloudy	46	SSE	4	23	30.28	45	40	10.0
Mon Feb  1 22:08:29 2010	Charlotte, North Carolina 	 Partly Cloudy	48	Calm		21	30.26	48	34	10.0
Mon Feb  1 22:51:40 2010	Charlotte, North Carolina 	 Partly Cloudy	48	Calm		21	30.26	48	34	10.0
Mon Feb  1 23:37:52 2010	Charlotte, North Carolina 	 Partly Cloudy	45	South	6	24	30.27	42	44	10.0
Sat Jan 30 00:24:28 2010	Charlotte, North Carolina 	 Light Snow	32	NNE	8	30	30.27	25	93	3.0
Sat Jan 30 01:08:34 2010	Charlotte, North Carolina 	 Light Snow	34	ENE	8	30	30.24	27	87	1.0
Sat Jan 30 01:52:14 2010	Charlotte, North Carolina 	 Light Snow	34	ENE	8	30	30.24	27	87	1.0
Sat Jan 30 02:36:56 2010	Charlotte, North Carolina 	 Light Snow	32	NE	6	30	30.21	26	93	2.5
Sat Jan 30 03:20:34 2010	Charlotte, North Carolina 	 Overcast	32	ENE	8	30	30.21	25	93	7.0
Sat Jan 30 04:04:30 2010	Charlotte, North Carolina 	 Light Snow	32	East	8	29	30.22	25	88	2.0
Sat Jan 30 04:48:11 2010	Charlotte, North Carolina 	 Light Snow	32	ENE	9	28	30.16	24	87	1.5
Sat Jan 30 05:31:59 2010	Charlotte, North Carolina 	 Light Snow	32	NE	6	28	30.17	26	87	1.5
Sat Jan 30 06:15:39 2010	Charlotte, North Carolina 	 Light Snow	31	ENE	8	29	30.14	24	92	1.5
Sat Jan 30 07:01:23 2010	Charlotte, North Carolina 	 Light Snow	31	ENE	9	28	30.11	23	89	1.5
Sat Jan 30 07:44:54 2010	Charlotte, North Carolina 	 Light Snow	31	ENE	9	28	30.11	23	89	1.5
Sat Jan 30 08:27:57 2010	Charlotte, North Carolina 	 Light Freezing Rain	30	NE	10	28	30.08	21	93	1.5
Sat Jan 30 11:57:31 2010	Charlotte, North Carolina 	 Light Freezing Rain	29	NNE	9	26	30.02	20	89	1.5
Sat Jan 30 12:41:20 2010	Charlotte, North Carolina 	 Light Freezing Rain	28	ENE	9	27	30.00	20	93	1.0
Sat Jan 30 13:24:26 2010	Charlotte, North Carolina 	 Light Freezing Rain	28	NE	14	27	29.98	18	93	1.2
Sat Jan 30 14:08:12 2010	Charlotte, North Carolina 	 Light Freezing Rain	28	NNE	9	26	30.02	19	92	1.2
Sat Jan 30 14:52:28 2010	Charlotte, North Carolina 	 Light Ice Pellets	28	NNE	13	25	29.99	18	86	1.2
Sat Jan 30 15:37:05 2010	Charlotte, North Carolina 	 Light Ice Pellets	28	NNE	14	25	30.01	17	88	1.5
Sat Jan 30 16:23:23 2010	Charlotte, North Carolina 	 Light Ice Pellets	27	NNE	13	24	30.01	16	89	1.0
Sat Jan 30 17:07:39 2010	Charlotte, North Carolina 	 Light Ice Pellets	26	NNE	18	22	29.99	13	84	1.0
Sat Jan 30 17:51:11 2010	Charlotte, North Carolina 	 Light Snow	27	NNE	16	21	29.96	14	80	1.5
Sat Jan 30 18:35:00 2010	Charlotte, North Carolina 	 Light Ice Pellets	25	NNE	16	21	29.94	12	86	2.0
Sat Jan 30 19:18:16 2010	Charlotte, North Carolina 	 Overcast	25	North	17	19	29.91	12	80	2.0
Sat Jan 30 20:02:22 2010	Charlotte, North Carolina 	 Overcast	24	NNE	15	19	29.91	12	81	8.0
Sat Jan 30 20:45:34 2010	Charlotte, North Carolina 	 Overcast	24	NNE	15	19	29.91	12	81	8.0
Sat Jan 30 21:29:36 2010	Charlotte, North Carolina 	 Overcast	24	NE	13	19	29.89	12	81	10.0
Sat Jan 30 22:12:35 2010	Charlotte, North Carolina 	 Overcast	25	NNE	12	20	29.88	14	81	10.0
Sat Jan 30 22:57:23 2010	Charlotte, North Carolina 	 Overcast	25	NE	10	20	29.90	15	81	10.0
Sat Jan 30 23:43:03 2010	Charlotte, North Carolina 	 Overcast	25	NE	10	20	29.90	15	81	10.0
Sun Jan 31 00:27:07 2010	Charlotte, North Carolina 	 Light Ice Pellets	25	NE	12	19	29.90	14	80	9.0
Sun Jan 31 01:17:44 2010	Charlotte, North Carolina 	 Light Snow	24	NNE	10	20	29.94	14	84	9.0
Sun Jan 31 02:01:37 2010	Charlotte, North Carolina 	 Light Snow	24	NNE	8	20	29.94	15	84	8.0
Sun Jan 31 02:45:16 2010	Charlotte, North Carolina 	 Light Snow	25	North	12	18	29.94	14	74	9.0
Sun Jan 31 03:29:17 2010	Charlotte, North Carolina 	 Overcast	24	NNE	12	17	29.97	13	75	10.0
Sun Jan 31 04:12:00 2010	Charlotte, North Carolina 	 Overcast	23	North	13	17	29.99	11	78	10.0
Sun Jan 31 04:57:05 2010	Charlotte, North Carolina 	 Overcast	24	NNE	9	16	30.01	14	71	10.0
Sun Jan 31 05:43:19 2010	Charlotte, North Carolina 	 Overcast	24	NNE	9	16	30.01	14	71	10.0
Sun Jan 31 06:28:25 2010	Charlotte, North Carolina 	 Scattered Clouds	23	NNE	8	16	30.02	14	74	10.0
Sun Jan 31 07:11:26 2010	Charlotte, North Carolina 	 Partly Cloudy	22	NNE	5	16	30.04	16	78	10.0
Sun Jan 31 07:58:02 2010	Charlotte, North Carolina 	 Partly Cloudy	21	North	4	16	30.06	16	81	10.0
Sun Jan 31 08:42:48 2010	Charlotte, North Carolina 	 Partly Cloudy	21	North	4	16	30.06	16	81	10.0
Sun Jan 31 09:26:00 2010	Charlotte, North Carolina 	 Clear	20	North	5	16	30.07	13	85	10.0
Sun Jan 31 10:09:10 2010	Charlotte, North Carolina 	 Clear	20	North	4	16	30.10	15	85	10.0
Sun Jan 31 10:53:00 2010	Charlotte, North Carolina 	 Clear	20	North	4	16	30.10	15	85	10.0
Sun Jan 31 11:36:22 2010	Charlotte, North Carolina 	 Clear	16	Calm		14	30.11	16	92	10.0
Sun Jan 31 12:20:05 2010	Charlotte, North Carolina 	 Clear	16	Calm		14	30.14	16	92	9.0
Sun Jan 31 13:03:11 2010	Charlotte, North Carolina 	 Clear	16	Calm		13	30.16	16	88	8.0
Sun Jan 31 13:47:11 2010	Charlotte, North Carolina 	 Clear	16	Calm		13	30.16	16	88	8.0
Sun Jan 31 14:29:58 2010	Charlotte, North Carolina 	 Clear	17	Calm		14	30.20	18	88	9.0
Sun Jan 31 15:13:51 2010	Charlotte, North Carolina 	 Clear	22	SSW	4	20	30.25	17	92	8.0
Sun Jan 31 15:57:17 2010	Charlotte, North Carolina 	 Partly Cloudy	27	Calm		22	30.27	27	81	10.0
Sun Jan 31 16:47:06 2010	Charlotte, North Carolina 	 Partly Cloudy	27	Calm		22	30.27	27	81	10.0
Sun Jan 31 17:30:58 2010	Charlotte, North Carolina 	 Partly Cloudy	31	NW	4	22	30.29	28	69	10.0
Sun Jan 31 18:15:17 2010	Charlotte, North Carolina 	 Partly Cloudy	32	Calm		19	30.28	32	59	10.0
Sun Jan 31 18:59:27 2010	Charlotte, North Carolina 	 Clear	36	ENE	7	18	30.25	30	48	10.0
Sun Jan 31 19:44:59 2010	Charlotte, North Carolina 	 Clear	36	ENE	7	18	30.25	30	48	10.0
Sun Jan 31 20:28:00 2010	Charlotte, North Carolina 	 Scattered Clouds	36	Calm		18	30.24	36	48	10.0
Sun Jan 31 21:12:09 2010	Charlotte, North Carolina 	 Scattered Clouds	38	Calm		14	30.24	37	38	10.0
Sun Jan 31 21:55:31 2010	Charlotte, North Carolina 	 Partly Cloudy	40	Calm		13	30.23	39	33	10.0
Sun Jan 31 22:40:16 2010	Charlotte, North Carolina 	 Partly Cloudy	40	Calm		13	30.23	39	33	10.0
Sun Jan 31 23:23:20 2010	Charlotte, North Carolina 	 Partly Cloudy	38	South	4	20	30.24	36	48	10.0
Thu Feb  4 00:08:53 2010	Charlotte, North Carolina 	 Partly Cloudy	47	Calm		32	30.17	46	56	10.0
Thu Feb  4 00:53:15 2010	Charlotte, North Carolina 	 Partly Cloudy	47	Calm		32	30.17	46	56	10.0
Thu Feb  4 01:36:14 2010	Charlotte, North Carolina 	 Partly Cloudy	47	ENE	5	32	30.19	45	56	10.0
Thu Feb  4 02:23:21 2010	Charlotte, North Carolina 	 Clear	44	Calm		32	30.21	45	63	10.0
Thu Feb  4 03:07:18 2010	Charlotte, North Carolina 	 Clear	45	East	5	31	30.24	43	58	10.0
Thu Feb  4 03:51:47 2010	Charlotte, North Carolina 	 Clear	45	East	5	31	30.24	43	58	10.0
Thu Feb  4 04:34:58 2010	Charlotte, North Carolina 	 Clear	41	NNE	5	32	30.28	38	70	10.0
Thu Feb  4 05:18:07 2010	Charlotte, North Carolina 	 Clear	39	NE	9	29	30.28	33	67	10.0
Thu Feb  4 06:01:19 2010	Charlotte, North Carolina 	 Partly Cloudy	36	NE	9	27	30.29	29	70	10.0
Thu Feb  4 06:44:19 2010	Charlotte, North Carolina 	 Partly Cloudy	36	NE	9	27	30.29	29	70	10.0
Thu Feb  4 07:27:52 2010	Charlotte, North Carolina 	 Partly Cloudy	36	NE	10	26	30.29	28	67	10.0
Thu Feb  4 08:10:32 2010	Charlotte, North Carolina 	 Mostly Cloudy	35	NE	7	26	30.29	29	70	10.0
Thu Feb  4 08:54:16 2010	Charlotte, North Carolina 	 Mostly Cloudy	35	NE	7	26	30.29	29	70	10.0
Thu Feb  4 09:38:01 2010	Charlotte, North Carolina 	 Mostly Cloudy	35	NNE	8	25	30.30	29	67	10.0
Thu Feb  4 10:21:24 2010	Charlotte, North Carolina 	 Overcast	34	NE	5	25	30.31	30	70	10.0
Thu Feb  4 11:07:41 2010	Charlotte, North Carolina 	 Overcast	33	NNE	5	25	30.32	29	72	10.0
Thu Feb  4 11:51:15 2010	Charlotte, North Carolina 	 Overcast	33	NNE	5	25	30.32	29	72	10.0
Thu Feb  4 12:34:20 2010	Charlotte, North Carolina 	 Overcast	34	NE	5	25	30.35	30	70	10.0
Thu Feb  4 13:17:51 2010	Charlotte, North Carolina 	 Overcast	34	NE	8	24	30.38	27	67	10.0
Thu Feb  4 14:02:09 2010	Charlotte, North Carolina 	 Overcast	35	NE	9	24	30.38	28	64	10.0
Thu Feb  4 14:54:53 2010	Charlotte, North Carolina 	 Overcast	36	NE	10	25	30.41	28	64	10.0
Thu Jan 28 15:35:00 2010	Charlotte, North Carolina 	 Partly Cloudy	37	Calm		28	30.25	37	70	10.0
Thu Jan 28 15:56:12 2010	Charlotte, North Carolina 	 Mostly Cloudy	40	Calm		30	30.24	39	68	10.0
Thu Jan 28 16:44:30 2010	Charlotte, North Carolina 	 Mostly Cloudy	40	Calm		30	30.24	39	68	10.0
Thu Jan 28 17:09:19 2010	Charlotte, North Carolina 	 Mostly Cloudy	47	Calm		29	30.23	46	50	10.0
Thu Jan 28 17:25:32 2010	Charlotte, North Carolina 	 Mostly Cloudy	47	Calm		29	30.23	46	50	10.0
Tue Feb  2 00:24:46 2010	Charlotte, North Carolina 	 Partly Cloudy	43	SSE	4	25	30.27	41	49	10.0
Tue Feb  2 01:10:05 2010	Charlotte, North Carolina 	 Partly Cloudy	42	SE	6	23	30.28	38	47	10.0
Tue Feb  2 01:53:41 2010	Charlotte, North Carolina 	 Partly Cloudy	42	SE	6	23	30.28	38	47	10.0
Tue Feb  2 02:37:42 2010	Charlotte, North Carolina 	 Partly Cloudy	39	SSE	4	23	30.29	37	53	10.0
Tue Feb  2 03:20:54 2010	Charlotte, North Carolina 	 Partly Cloudy	41	ENE	5	23	30.26	38	49	10.0
Tue Feb  2 04:04:57 2010	Charlotte, North Carolina 	 Partly Cloudy	36	ESE	4	25	30.25	33	64	10.0
Tue Feb  2 04:48:32 2010	Charlotte, North Carolina 	 Partly Cloudy	36	ESE	4	25	30.25	33	64	10.0
Tue Feb  2 05:31:54 2010	Charlotte, North Carolina 	 Mostly Cloudy	38	SE	5	24	30.23	34	57	10.0
Tue Feb  2 06:14:51 2010	Charlotte, North Carolina 	 Overcast	37	Calm		24	30.23	37	59	10.0
Tue Feb  2 07:02:20 2010	Charlotte, North Carolina 	 Overcast	36	ENE	4	27	30.22	33	70	10.0
Tue Feb  2 07:45:26 2010	Charlotte, North Carolina 	 Overcast	36	ENE	4	27	30.22	33	70	10.0
Tue Feb  2 08:28:32 2010	Charlotte, North Carolina 	 Overcast	36	NNW	4	27	30.22	33	70	10.0
Tue Feb  2 09:11:59 2010	Charlotte, North Carolina 	 Overcast	36	North	5	27	30.19	32	70	10.0
Tue Feb  2 09:55:31 2010	Charlotte, North Carolina 	 Overcast	36	North	6	28	30.17	31	73	10.0
Tue Feb  2 10:39:08 2010	Charlotte, North Carolina 	 Overcast	36	North	6	28	30.17	31	73	10.0
Tue Feb  2 11:23:14 2010	Charlotte, North Carolina 	 Mostly Cloudy	38	NE	7	24	30.15	33	57	10.0
Tue Feb  2 12:06:46 2010	Charlotte, North Carolina 	 Overcast	38	ENE	7	24	30.13	33	57	10.0
Tue Feb  2 12:51:06 2010	Charlotte, North Carolina 	 Overcast	37	ENE	9	25	30.10	31	60	10.0
Tue Feb  2 13:34:27 2010	Charlotte, North Carolina 	 Light Rain	37	NE	6	26	30.11	32	65	9.0
Tue Feb  2 14:17:59 2010	Charlotte, North Carolina 	 Rain	35	North	5	30	30.11	31	82	4.0
Tue Feb  2 15:02:23 2010	Charlotte, North Carolina 	 Rain	34	North	9	31	30.14	27	89	3.0
Tue Feb  2 15:48:47 2010	Charlotte, North Carolina 	 Rain	34	North	14	30	30.11	24	87	2.0
Tue Feb  2 16:41:22 2010	Charlotte, North Carolina 	 Rain	34	North	9	32	30.10	26	93	2.0
Tue Feb  2 17:29:03 2010	Charlotte, North Carolina 	 Light Rain	36	North	13	34	30.07	27	93	2.0
Tue Feb  2 18:14:27 2010	Charlotte, North Carolina 	 Light Rain	36	NNE	10	34	30.06	28	93	2.0
Tue Feb  2 18:58:28 2010	Charlotte, North Carolina 	 Overcast	36	North	10	34	30.03	28	93	4.0
Tue Feb  2 19:47:23 2010	Charlotte, North Carolina 	 Light Rain	36	North	8	34	29.99	29	93	2.5
Tue Feb  2 20:39:09 2010	Charlotte, North Carolina 	 Light Rain	36	North	9	34	29.98	29	93	1.8
Tue Feb  2 21:25:41 2010	Charlotte, North Carolina 	 Light Drizzle	36	North	9	35	29.98	29	97	1.8
Tue Feb  2 22:13:25 2010	Charlotte, North Carolina 	 Light Drizzle	37	North	10	35	29.99	30	93	2.0
Tue Feb  2 22:58:40 2010	Charlotte, North Carolina 	 Light Rain	37	North	8	35	30.01	31	93	1.8
Tue Feb  2 23:43:38 2010	Charlotte, North Carolina 	 Light Rain	37	North	8	35	30.01	31	93	1.8
Wed Feb  3 00:28:32 2010	Charlotte, North Carolina 	 Light Rain	37	NE	7	36	29.99	32	96	2.0
Wed Feb  3 01:15:28 2010	Charlotte, North Carolina 	 Light Rain	37	Variable	4	36	29.98	35	93	2.0
Wed Feb  3 02:00:19 2010	Charlotte, North Carolina 	 Overcast	37	North	5	36	30.01	33	96	2.0
Wed Feb  3 02:49:06 2010	Charlotte, North Carolina 	 Overcast	37	North	5	36	29.99	34	93	2.0
Wed Feb  3 03:36:04 2010	Charlotte, North Carolina 	 Overcast	37	North	4	36	30.00	34	96	2.0
Wed Feb  3 04:24:06 2010	Charlotte, North Carolina 	 Overcast	37	Calm		36	30.02	37	96	2.0
Wed Feb  3 05:10:40 2010	Charlotte, North Carolina 	 Overcast	37	NW	4	36	30.04	34	96	2.0
Wed Feb  3 05:58:42 2010	Charlotte, North Carolina 	 Overcast	37	Calm		36	30.05	37	96	2.0
Wed Feb  3 06:45:31 2010	Charlotte, North Carolina 	 Overcast	37	Calm		36	30.04	37	93	2.0
Wed Feb  3 07:30:07 2010	Charlotte, North Carolina 	 Overcast	37	Calm		36	30.05	37	96	2.0
Wed Feb  3 08:13:12 2010	Charlotte, North Carolina 	 Overcast	37	North	5	36	30.04	33	96	2.0
Wed Feb  3 08:59:35 2010	Charlotte, North Carolina 	 Overcast	37	North	5	36	30.06	33	96	0.8
Wed Feb  3 09:43:05 2010	Charlotte, North Carolina 	 Fog	36	Calm		36	30.06	36	100	0.5
Wed Feb  3 10:27:04 2010	Charlotte, North Carolina 	 Overcast	36	NNW	5	35	30.07	32	97	0.8
Wed Feb  3 11:13:44 2010	Charlotte, North Carolina 	 Overcast	36	WNW	4	35	30.10	33	97	0.8
Wed Feb  3 11:58:30 2010	Charlotte, North Carolina 	 Fog	35	NNW	4	34	30.10	32	96	0.5
Wed Feb  3 12:41:45 2010	Charlotte, North Carolina 	 Fog	34	WNW	4	34	30.09	31	100	0.2
Wed Feb  3 13:25:23 2010	Charlotte, North Carolina 	 Fog	34	Calm		33	30.12	34	96	0.2
Wed Feb  3 14:10:58 2010	Charlotte, North Carolina 	 Fog	34	Calm		34	30.13	34	100	0.2
Wed Feb  3 14:56:59 2010	Charlotte, North Carolina 	 Fog	34	Calm		34	30.14	34	100	0.2
Wed Feb  3 15:42:02 2010	Charlotte, North Carolina 	 Fog	34	Calm		34	30.14	34	100	0.2
Wed Feb  3 16:27:41 2010	Charlotte, North Carolina 	 Fog	36	WNW	4	36	30.18	33	100	0.2
Wed Feb  3 17:15:09 2010	Charlotte, North Carolina 	 Overcast	37	Calm		36	30.19	37	96	0.8
Wed Feb  3 18:03:43 2010	Charlotte, North Carolina 	 Scattered Clouds	41	NW	4	38	30.20	39	89	7.0
Wed Feb  3 18:46:53 2010	Charlotte, North Carolina 	 Scattered Clouds	41	NW	4	38	30.20	39	89	7.0
Wed Feb  3 19:30:38 2010	Charlotte, North Carolina 	 Partly Cloudy	45	Calm		37	30.18	45	74	10.0
Wed Feb  3 20:14:17 2010	Charlotte, North Carolina 	 Partly Cloudy	48	Calm		36	30.16	48	63	10.0
Wed Feb  3 20:59:08 2010	Charlotte, North Carolina 	 Clear	50	Calm		34	30.14	50	54	10.0
Wed Feb  3 21:46:58 2010	Charlotte, North Carolina 	 Clear	50	Calm		34	30.14	50	54	10.0
Wed Feb  3 22:32:30 2010	Charlotte, North Carolina 	 Partly Cloudy	50	Variable	4	32	30.12	49	50	10.0
Wed Feb  3 23:23:13 2010	Charlotte, North Carolina 	 Clear	51	Variable	4	32	30.14		48	10.0
Fri Jan 29 08:39:25 2010	Chicago, Illinois 	 Partly Cloudy	7	NW	5	-5	30.59	-2	58	10.0
Fri Jan 29 09:23:20 2010	Chicago, Illinois 	 Scattered Clouds	7	NNW	10	-8	30.58	-8	51	10.0
Fri Jan 29 11:55:22 2010	Chicago, Illinois 	 Mostly Cloudy	6	NW	7	-7	30.58	-6	55	10.0
Fri Jan 29 12:39:54 2010	Chicago, Illinois 	 Mostly Cloudy	6	NW	7	-7	30.58	-6	55	10.0
Fri Jan 29 13:26:26 2010	Chicago, Illinois 	 Overcast	6	NW	8	-8	30.58	-7	53	10.0
Fri Jan 29 14:15:15 2010	Chicago, Illinois 	 Mostly Cloudy	5	NW	5	-6	30.59	-4	61	10.0
Fri Jan 29 14:59:54 2010	Chicago, Illinois 	 Mostly Cloudy	5	NW	5	-6	30.59	-4	61	10.0
Fri Jan 29 15:45:50 2010	Chicago, Illinois 	 Mostly Cloudy	6	WNW	5	-6	30.60	-3	58	10.0
Fri Jan 29 16:33:12 2010	Chicago, Illinois 	 Mostly Cloudy	9	North	5	-4	30.58	1	56	10.0
Fri Jan 29 17:17:47 2010	Chicago, Illinois 	 Mostly Cloudy	11	Calm		-2	30.60	10	56	10.0
Fri Jan 29 18:06:02 2010	Chicago, Illinois 	 Mostly Cloudy	14	Calm		-1	30.60	14	52	10.0
Fri Jan 29 18:50:41 2010	Chicago, Illinois 	 Mostly Cloudy	14	Calm		-1	30.60	14	52	10.0
Fri Jan 29 19:43:09 2010	Chicago, Illinois 	 Mostly Cloudy	18	Calm		1	30.55	18	48	10.0
Fri Jan 29 20:41:14 2010	Chicago, Illinois 	 Mostly Cloudy	20	Calm		4	30.52	19	50	10.0
Fri Jan 29 21:25:11 2010	Chicago, Illinois 	 Mostly Cloudy	20	East	9	7	30.48	9	57	10.0
Fri Jan 29 22:11:15 2010	Chicago, Illinois 	 Mostly Cloudy	19	East	8	7	30.48	9	59	10.0
Fri Jan 29 22:57:34 2010	Chicago, Illinois 	 Mostly Cloudy	19	ENE	7	8	30.46	10	62	10.0
Fri Jan 29 23:41:36 2010	Chicago, Illinois 	 Mostly Cloudy	19	ENE	7	8	30.46	10	62	10.0
Mon Feb  1 00:08:34 2010	Chicago, Illinois 	 Mostly Cloudy	27	WNW	10	12	30.28	17	53	10.0
Mon Feb  1 00:51:48 2010	Chicago, Illinois 	 Mostly Cloudy	27	WNW	10	12	30.28	17	53	10.0
Mon Feb  1 01:36:32 2010	Chicago, Illinois 	 Partly Cloudy	25	West	8	13	30.30	16	60	10.0
Mon Feb  1 02:21:26 2010	Chicago, Illinois 	 Clear	24	WNW	7	14	30.32	16	65	10.0
Mon Feb  1 03:05:35 2010	Chicago, Illinois 	 Partly Cloudy	23	WNW	7	11	30.33	15	60	10.0
Mon Feb  1 03:49:07 2010	Chicago, Illinois 	 Partly Cloudy	23	WNW	7	11	30.33	15	60	10.0
Mon Feb  1 04:34:46 2010	Chicago, Illinois 	 Partly Cloudy	22	NNW	9	10	30.34	12	60	10.0
Mon Feb  1 05:18:22 2010	Chicago, Illinois 	 Partly Cloudy	21	NW	6	9	30.35	13	60	10.0
Mon Feb  1 06:03:16 2010	Chicago, Illinois 	 Scattered Clouds	20	NW	6	9	30.35	12	62	10.0
Mon Feb  1 06:46:09 2010	Chicago, Illinois 	 Scattered Clouds	20	NW	6	9	30.35	12	62	10.0
Mon Feb  1 07:30:13 2010	Chicago, Illinois 	 Scattered Clouds	19	WNW	5	9	30.36	12	65	10.0
Mon Feb  1 08:13:23 2010	Chicago, Illinois 	 Partly Cloudy	18	Calm		9	30.37	18	68	9.0
Mon Feb  1 08:57:06 2010	Chicago, Illinois 	 Mostly Cloudy	18	NW	4	9	30.36	13	68	9.0
Mon Feb  1 09:40:08 2010	Chicago, Illinois 	 Mostly Cloudy	18	NW	4	9	30.36	13	68	9.0
Mon Feb  1 10:23:28 2010	Chicago, Illinois 	 Overcast	20	Calm		8	30.35	19	60	10.0
Mon Feb  1 11:06:36 2010	Chicago, Illinois 	 Overcast	20	North	4	10	30.35	15	65	10.0
Mon Feb  1 11:49:54 2010	Chicago, Illinois 	 Overcast	20	North	4	10	30.35	15	65	10.0
Mon Feb  1 12:33:25 2010	Chicago, Illinois 	 Overcast	21	NNW	4	10	30.34	16	63	10.0
Mon Feb  1 13:16:52 2010	Chicago, Illinois 	 Overcast	21	Calm		10	30.35	21	63	10.0
Mon Feb  1 14:00:42 2010	Chicago, Illinois 	 Overcast	22	Calm		11	30.35	21	63	10.0
Mon Feb  1 14:45:11 2010	Chicago, Illinois 	 Overcast	22	Calm		11	30.35	21	63	10.0
Mon Feb  1 15:29:31 2010	Chicago, Illinois 	 Overcast	23	Calm		12	30.37	23	63	10.0
Mon Feb  1 16:13:42 2010	Chicago, Illinois 	 Overcast	24	Calm		13	30.37	25	62	8.0
Mon Feb  1 16:58:49 2010	Chicago, Illinois 	 Overcast	25	South	4	13	30.37	21	60	9.0
Mon Feb  1 17:42:53 2010	Chicago, Illinois 	 Overcast	25	South	4	13	30.37	21	60	9.0
Mon Feb  1 18:26:03 2010	Chicago, Illinois 	 Overcast	26	Calm		12	30.35	27	55	8.0
Mon Feb  1 19:09:47 2010	Chicago, Illinois 	 Overcast	27	Calm		13	30.32	27	56	8.0
Mon Feb  1 19:54:56 2010	Chicago, Illinois 	 Overcast	29	Calm		14	30.29	28	54	7.0
Mon Feb  1 20:41:23 2010	Chicago, Illinois 	 Overcast	29	Calm		14	30.29	28	54	7.0
Mon Feb  1 21:26:10 2010	Chicago, Illinois 	 Overcast	30	Calm		15	30.27	30	54	8.0
Mon Feb  1 22:09:43 2010	Chicago, Illinois 	 Overcast	30	Calm		15	30.26	30	54	7.0
Mon Feb  1 22:52:57 2010	Chicago, Illinois 	 Overcast	30	Calm		15	30.26	30	54	7.0
Mon Feb  1 23:39:03 2010	Chicago, Illinois 	 Haze	31	SSE	4	16	30.25	28	54	6.0
Sat Jan 30 00:25:42 2010	Chicago, Illinois 	 Mostly Cloudy	18	ENE	8	8	30.45	8	65	10.0
Sat Jan 30 01:09:47 2010	Chicago, Illinois 	 Light Snow	18	North	5	8	30.46	11	65	9.0
Sat Jan 30 01:53:31 2010	Chicago, Illinois 	 Light Snow	18	North	5	8	30.46	11	65	9.0
Sat Jan 30 02:38:10 2010	Chicago, Illinois 	 Light Snow	19	NNE	7	10	30.44	10	68	9.0
Sat Jan 30 03:21:48 2010	Chicago, Illinois 	 Light Snow	20	North	6	11	30.42	12	68	8.0
Sat Jan 30 04:05:41 2010	Chicago, Illinois 	 Light Snow	20	NNW	5	13	30.41	13	74	5.0
Sat Jan 30 04:49:23 2010	Chicago, Illinois 	 Light Snow	19	SE	12	14	30.33	7	80	6.0
Sat Jan 30 05:33:12 2010	Chicago, Illinois 	 Light Snow	19	SE	10	13	30.40	8	77	10.0
Sat Jan 30 06:16:53 2010	Chicago, Illinois 	 Light Snow	19	SE	8	10	30.39	9	68	9.0
Sat Jan 30 07:02:33 2010	Chicago, Illinois 	 Light Snow	19	ESE	7	10	30.38	10	68	9.0
Sat Jan 30 07:46:06 2010	Chicago, Illinois 	 Light Snow	19	ESE	7	10	30.38	10	68	9.0
Sat Jan 30 08:29:08 2010	Chicago, Illinois 	 Light Snow	18	ESE	10	8	30.37	6	65	9.0
Sat Jan 30 11:58:43 2010	Chicago, Illinois 	 Overcast	19	East	9	9	30.32	8	65	10.0
Sat Jan 30 12:42:31 2010	Chicago, Illinois 	 Overcast	19	East	9	9	30.32	8	65	10.0
Sat Jan 30 13:25:44 2010	Chicago, Illinois 	 Overcast	19	East	12	8	30.32	7	62	10.0
Sat Jan 30 14:09:27 2010	Chicago, Illinois 	 Light Snow	18	East	9	7	30.32	7	62	10.0
Sat Jan 30 14:53:43 2010	Chicago, Illinois 	 Light Snow	18	East	9	7	30.32	7	62	10.0
Sat Jan 30 15:38:19 2010	Chicago, Illinois 	 Light Snow	18	East	9	7	30.32	7	62	10.0
Sat Jan 30 16:24:33 2010	Chicago, Illinois 	 Mostly Cloudy	20	East	12	8	30.32	8	60	10.0
Sat Jan 30 17:08:56 2010	Chicago, Illinois 	 Mostly Cloudy	21	East	12	8	30.32	9	57	10.0
Sat Jan 30 17:52:24 2010	Chicago, Illinois 	 Mostly Cloudy	21	East	12	8	30.32	9	57	10.0
Sat Jan 30 18:36:15 2010	Chicago, Illinois 	 Scattered Clouds	22	East	8	8	30.31	12	55	10.0
Sat Jan 30 19:19:28 2010	Chicago, Illinois 	 Scattered Clouds	23	East	10	9	30.29	12	55	10.0
Sat Jan 30 20:03:35 2010	Chicago, Illinois 	 Scattered Clouds	23	NE	8	10	30.27	14	58	10.0
Sat Jan 30 20:46:45 2010	Chicago, Illinois 	 Scattered Clouds	23	NE	8	10	30.27	14	58	10.0
Sat Jan 30 21:30:48 2010	Chicago, Illinois 	 Scattered Clouds	23	East	10	11	30.26	12	60	10.0
Sat Jan 30 22:13:50 2010	Chicago, Illinois 	 Scattered Clouds	22	East	6	11	30.25	14	63	10.0
Sat Jan 30 22:58:37 2010	Chicago, Illinois 	 Mostly Cloudy	22	East	6	12	30.25	14	66	10.0
Sat Jan 30 23:44:18 2010	Chicago, Illinois 	 Mostly Cloudy	22	East	6	12	30.25	14	66	10.0
Sun Jan 31 00:28:19 2010	Chicago, Illinois 	 Mostly Cloudy	22	Calm		12	30.25	21	66	10.0
Sun Jan 31 01:18:57 2010	Chicago, Illinois 	 Mostly Cloudy	22	East	4	12	30.26	17	66	10.0
Sun Jan 31 02:02:50 2010	Chicago, Illinois 	 Mostly Cloudy	22	ESE	5	12	30.25	16	66	10.0
Sun Jan 31 02:46:27 2010	Chicago, Illinois 	 Mostly Cloudy	22	ESE	5	12	30.25	16	66	10.0
Sun Jan 31 03:30:28 2010	Chicago, Illinois 	 Mostly Cloudy	21	SE	4	12	30.25	16	68	10.0
Sun Jan 31 04:13:12 2010	Chicago, Illinois 	 Mostly Cloudy	21	SSE	4	13	30.24	16	71	10.0
Sun Jan 31 04:58:19 2010	Chicago, Illinois 	 Mostly Cloudy	21	SSE	4	13	30.24	16	71	10.0
Sun Jan 31 05:44:32 2010	Chicago, Illinois 	 Mostly Cloudy	21	SW	4	12	30.19	16	68	10.0
Sun Jan 31 06:29:36 2010	Chicago, Illinois 	 Overcast	20	SW	4	13	30.24	15	74	10.0
Sun Jan 31 07:12:40 2010	Chicago, Illinois 	 Mostly Cloudy	20	SW	5	12	30.23	13	71	10.0
Sun Jan 31 07:59:15 2010	Chicago, Illinois 	 Mostly Cloudy	20	SSW	5	12	30.22	13	71	10.0
Sun Jan 31 08:44:05 2010	Chicago, Illinois 	 Mostly Cloudy	20	SSW	5	12	30.22	13	71	10.0
Sun Jan 31 09:27:11 2010	Chicago, Illinois 	 Mostly Cloudy	18	West	6	12	30.23	10	78	10.0
Sun Jan 31 10:10:25 2010	Chicago, Illinois 	 Overcast	19	West	7	13	30.24	10	77	10.0
Sun Jan 31 10:54:10 2010	Chicago, Illinois 	 Overcast	19	West	7	13	30.24	10	77	10.0
Sun Jan 31 11:37:38 2010	Chicago, Illinois 	 Mostly Cloudy	19	West	8	12	30.18	10	74	10.0
Sun Jan 31 12:21:16 2010	Chicago, Illinois 	 Mostly Cloudy	18	WSW	5	12	30.24	11	78	10.0
Sun Jan 31 13:04:19 2010	Chicago, Illinois 	 Mostly Cloudy	18	WSW	5	12	30.24	11	78	10.0
Sun Jan 31 13:48:22 2010	Chicago, Illinois 	 Mostly Cloudy	18	WSW	5	12	30.24	11	78	10.0
Sun Jan 31 14:31:10 2010	Chicago, Illinois 	 Clear	16	WSW	7	11	30.26	6	81	8.0
Sun Jan 31 15:15:05 2010	Chicago, Illinois 	 Partly Cloudy	16	SW	6	11	30.27	7	81	9.0
Sun Jan 31 15:58:31 2010	Chicago, Illinois 	 Partly Cloudy	18	WSW	10	10	30.26	6	71	10.0
Sun Jan 31 16:48:18 2010	Chicago, Illinois 	 Partly Cloudy	18	WSW	10	10	30.26	6	71	10.0
Sun Jan 31 17:32:15 2010	Chicago, Illinois 	 Partly Cloudy	20	West	12	9	30.27	8	62	10.0
Sun Jan 31 18:16:33 2010	Chicago, Illinois 	 Partly Cloudy	24	West	12	7	30.27	13	48	10.0
Sun Jan 31 19:00:40 2010	Chicago, Illinois 	 Partly Cloudy	26	West	12	6	30.26	16	43	10.0
Sun Jan 31 19:46:13 2010	Chicago, Illinois 	 Partly Cloudy	26	West	12	6	30.26	16	43	10.0
Sun Jan 31 20:29:14 2010	Chicago, Illinois 	 Partly Cloudy	28	West	14	7	30.24	17	41	10.0
Sun Jan 31 21:13:20 2010	Chicago, Illinois 	 Scattered Clouds	29	WSW	16	5	30.24	17	36	10.0
Sun Jan 31 21:56:43 2010	Chicago, Illinois 	 Mostly Cloudy	29	West	16	9	30.25	17	43	10.0
Sun Jan 31 22:41:32 2010	Chicago, Illinois 	 Mostly Cloudy	29	West	16	9	30.25	17	43	10.0
Sun Jan 31 23:24:37 2010	Chicago, Illinois 	 Mostly Cloudy	29	West	15	12	30.26	18	49	10.0
Thu Feb  4 00:10:06 2010	Chicago, Illinois 	 Overcast	29	East	6	22	30.37	23	75	10.0
Thu Feb  4 00:54:22 2010	Chicago, Illinois 	 Overcast	29	East	6	22	30.37	23	75	10.0
Thu Feb  4 01:37:24 2010	Chicago, Illinois 	 Overcast	29	East	4	21	30.40	25	72	10.0
Thu Feb  4 02:24:33 2010	Chicago, Illinois 	 Overcast	30	ESE	5	22	30.41	25	72	9.0
Thu Feb  4 03:08:29 2010	Chicago, Illinois 	 Overcast	29	SE	5	22	30.42	24	75	9.0
Thu Feb  4 03:52:59 2010	Chicago, Illinois 	 Overcast	29	SE	5	22	30.42	24	75	9.0
Thu Feb  4 04:36:09 2010	Chicago, Illinois 	 Overcast	30	South	5	22	30.44	25	72	7.0
Thu Feb  4 05:19:20 2010	Chicago, Illinois 	 Overcast	30	Calm		20	30.44	30	66	7.0
Thu Feb  4 06:02:28 2010	Chicago, Illinois 	 Overcast	30	Calm		20	30.44	30	66	7.0
Thu Feb  4 06:45:31 2010	Chicago, Illinois 	 Haze	28	SSW	4	19	30.37	25	69	6.0
Thu Feb  4 07:29:04 2010	Chicago, Illinois 	 Haze	27	SSW	5	20	30.42	22	75	6.0
Thu Feb  4 08:11:44 2010	Chicago, Illinois 	 Haze	26	SSE	4	20	30.39	22	78	5.0
Thu Feb  4 08:55:29 2010	Chicago, Illinois 	 Haze	26	South	6	20	30.40	19	78	5.0
Thu Feb  4 09:39:12 2010	Chicago, Illinois 	 Haze	26	South	6	20	30.40	19	78	5.0
Thu Feb  4 10:22:35 2010	Chicago, Illinois 	 Haze	26	South	6	20	30.42	19	78	6.0
Thu Feb  4 11:08:49 2010	Chicago, Illinois 	 Haze	26	Calm		20	30.42	27	78	6.0
Thu Feb  4 11:52:24 2010	Chicago, Illinois 	 Haze	26	Calm		20	30.42	27	78	6.0
Thu Feb  4 12:35:32 2010	Chicago, Illinois 	 Haze	25	Calm		20	30.43	25	81	6.0
Thu Feb  4 13:19:01 2010	Chicago, Illinois 	 Haze	26	South	5	20	30.43	20	78	6.0
Thu Feb  4 14:03:22 2010	Chicago, Illinois 	 Haze	26	Variable	5	20	30.44	20	78	5.0
Thu Feb  4 14:56:04 2010	Chicago, Illinois 	 Haze	26	SE	7	21	30.43	18	81	3.0
Thu Jan 28 15:36:17 2010	Chicago, Illinois 	 Partly Cloudy	8	WNW	13	-2	30.43	-8	64	10.0
Thu Jan 28 15:57:26 2010	Chicago, Illinois 	 Partly Cloudy	9	WNW	10	-2	30.45	-5	61	10.0
Thu Jan 28 16:45:44 2010	Chicago, Illinois 	 Partly Cloudy	9	WNW	10	-2	30.45	-5	61	10.0
Thu Jan 28 17:10:38 2010	Chicago, Illinois 	 Scattered Clouds	10	NW	16	-2	30.47	-7	58	10.0
Thu Jan 28 17:26:47 2010	Chicago, Illinois 	 Scattered Clouds	10	NW	16	-2	30.47	-7	58	10.0
Tue Feb  2 00:25:59 2010	Chicago, Illinois 	 Haze	30	SE	8	17	30.24	22	59	6.0
Tue Feb  2 01:11:31 2010	Chicago, Illinois 	 Haze	29	East	7	18	30.23	22	64	6.0
Tue Feb  2 01:54:55 2010	Chicago, Illinois 	 Overcast	29	East	7	20	30.23	22	69	7.0
Tue Feb  2 02:38:55 2010	Chicago, Illinois 	 Overcast	29	East	7	20	30.23	22	69	7.0
Tue Feb  2 03:22:06 2010	Chicago, Illinois 	 Overcast	29	East	5	21	30.22	24	72	8.0
Tue Feb  2 04:06:10 2010	Chicago, Illinois 	 Overcast	30	SSE	6	20	30.22	24	66	8.0
Tue Feb  2 04:49:46 2010	Chicago, Illinois 	 Overcast	30	SSE	6	20	30.22	24	66	8.0
Tue Feb  2 05:33:07 2010	Chicago, Illinois 	 Overcast	30	SE	8	20	30.19	22	66	9.0
Tue Feb  2 06:16:05 2010	Chicago, Illinois 	 Overcast	30	ESE	6	19	30.17	24	64	9.0
Tue Feb  2 07:03:34 2010	Chicago, Illinois 	 Overcast	30	SE	5	20	30.17	25	66	10.0
Tue Feb  2 07:46:39 2010	Chicago, Illinois 	 Light Snow	28	South	6	23	30.12	22	80	2.0
Tue Feb  2 08:29:44 2010	Chicago, Illinois 	 Light Snow	28	Calm		25	30.12	28	86	1.0
Tue Feb  2 09:13:13 2010	Chicago, Illinois 	 Light Snow	27	ESE	5	25	30.11	21	93	1.5
Tue Feb  2 09:56:44 2010	Chicago, Illinois 	 Light Snow	27	SE	5	25	30.15	22	92	1.2
Tue Feb  2 10:40:22 2010	Chicago, Illinois 	 Light Snow	27	SE	5	25	30.15	22	92	1.2
Tue Feb  2 11:24:27 2010	Chicago, Illinois 	 Light Snow	27	ESE	7	25	30.08	19	93	2.0
Tue Feb  2 12:08:01 2010	Chicago, Illinois 	 Light Snow	27	ESE	7	25	30.06	19	93	3.0
Tue Feb  2 12:52:20 2010	Chicago, Illinois 	 Light Snow	28	East	6	25	30.05	22	86	2.0
Tue Feb  2 13:35:40 2010	Chicago, Illinois 	 Light Snow	28	ESE	9	25	30.04	20	86	2.5
Tue Feb  2 14:19:09 2010	Chicago, Illinois 	 Light Snow	28	ESE	6	26	30.07	22	92	2.5
Tue Feb  2 15:03:38 2010	Chicago, Illinois 	 Light Snow	29	ESE	8	26	30.06	21	89	1.2
Tue Feb  2 15:49:59 2010	Chicago, Illinois 	 Light Snow	28	SE	8	25	30.03	20	86	2.5
Tue Feb  2 16:42:38 2010	Chicago, Illinois 	 Light Snow	28	SE	5	25	30.02	23	86	1.5
Tue Feb  2 17:30:15 2010	Chicago, Illinois 	 Light Snow	29	South	5	26	30.06	24	89	1.0
Tue Feb  2 18:15:38 2010	Chicago, Illinois 	 Light Snow	30	South	4	27	30.00	27	86	3.0
Tue Feb  2 18:59:40 2010	Chicago, Illinois 	 Haze	31	SSW	6	25	30.03	25	79	5.0
Tue Feb  2 19:48:42 2010	Chicago, Illinois 	 Haze	31	SSW	6	25	30.03	25	79	5.0
Tue Feb  2 20:40:21 2010	Chicago, Illinois 	 Haze	32	SW	6	23	30.01	26	69	5.0
Tue Feb  2 21:26:54 2010	Chicago, Illinois 	 Haze	32	WSW	8	24	30.00	25	73	6.0
Tue Feb  2 22:14:37 2010	Chicago, Illinois 	 Haze	32	West	8	25	29.97	25	75	6.0
Tue Feb  2 22:59:51 2010	Chicago, Illinois 	 Light Snow	31	West	7	26	30.03	24	82	3.0
Tue Feb  2 23:44:51 2010	Chicago, Illinois 	 Light Snow	31	West	7	26	30.03	24	82	3.0
Wed Feb  3 00:29:44 2010	Chicago, Illinois 	 Light Snow	31	West	6	27	30.03	25	85	3.0
Wed Feb  3 01:16:45 2010	Chicago, Illinois 	 Light Snow	31	West	7	27	30.05	24	85	4.0
Wed Feb  3 02:01:34 2010	Chicago, Illinois 	 Light Snow	32	West	12	27	30.07	23	82	4.0
Wed Feb  3 02:50:18 2010	Chicago, Illinois 	 Light Snow	32	West	12	27	30.07	23	82	4.0
Wed Feb  3 03:37:15 2010	Chicago, Illinois 	 Light Snow	30	West	13	24	30.09	20	79	5.0
Wed Feb  3 04:25:20 2010	Chicago, Illinois 	 Light Snow	28	West	10	22	30.11	19	78	5.0
Wed Feb  3 05:11:53 2010	Chicago, Illinois 	 Haze	27	West	12	21	30.12	17	78	6.0
Wed Feb  3 05:59:55 2010	Chicago, Illinois 	 Haze	25	West	8	20	30.13	16	81	4.0
Wed Feb  3 06:46:43 2010	Chicago, Illinois 	 Haze	25	West	8	20	30.13	16	81	4.0
Wed Feb  3 07:31:19 2010	Chicago, Illinois 	 Haze	25	West	12	20	30.15	14	81	4.0
Wed Feb  3 08:14:24 2010	Chicago, Illinois 	 Haze	24	West	8	19	30.16	15	81	4.0
Wed Feb  3 09:00:48 2010	Chicago, Illinois 	 Haze	24	West	12	19	30.19	13	81	4.0
Wed Feb  3 09:44:16 2010	Chicago, Illinois 	 Haze	24	West	12	19	30.19	13	81	4.0
Wed Feb  3 10:28:15 2010	Chicago, Illinois 	 Overcast	24	West	10	20	30.19	14	84	4.0
Wed Feb  3 11:14:56 2010	Chicago, Illinois 	 Haze	24	West	10	19	30.21	14	81	4.0
Wed Feb  3 11:59:44 2010	Chicago, Illinois 	 Haze	24	WSW	7	19	30.23	16	81	5.0
Wed Feb  3 12:42:57 2010	Chicago, Illinois 	 Haze	24	WSW	7	19	30.23	16	81	5.0
Wed Feb  3 13:26:41 2010	Chicago, Illinois 	 Haze	24	West	8	19	30.23	15	81	4.0
Wed Feb  3 14:12:18 2010	Chicago, Illinois 	 Haze	23	WNW	7	18	30.24	15	81	5.0
Wed Feb  3 14:58:06 2010	Chicago, Illinois 	 Haze	24	WNW	7	19	30.28	16	81	3.0
Wed Feb  3 15:43:16 2010	Chicago, Illinois 	 Haze	24	WNW	7	19	30.28	16	81	3.0
Wed Feb  3 16:28:54 2010	Chicago, Illinois 	 Haze	24	West	6	19	30.31	17	81	4.0
Wed Feb  3 17:16:20 2010	Chicago, Illinois 	 Haze	24	West	8	19	30.34	15	81	4.0
Wed Feb  3 18:04:55 2010	Chicago, Illinois 	 Haze	26	WNW	7	20	30.36	18	78	4.0
Wed Feb  3 18:48:01 2010	Chicago, Illinois 	 Haze	26	WNW	7	20	30.36	18	78	4.0
Wed Feb  3 19:31:49 2010	Chicago, Illinois 	 Haze	30	NNW	7	21	30.34	23	69	4.0
Wed Feb  3 20:15:32 2010	Chicago, Illinois 	 Haze	30	WNW	5	21	30.33	25	69	5.0
Wed Feb  3 21:00:18 2010	Chicago, Illinois 	 Haze	31	North	4	20	30.32	28	64	6.0
Wed Feb  3 21:48:09 2010	Chicago, Illinois 	 Haze	31	North	4	20	30.32	28	64	6.0
Wed Feb  3 22:33:40 2010	Chicago, Illinois 	 Overcast	31	East	7	22	30.33	24	69	7.0
Wed Feb  3 23:24:30 2010	Chicago, Illinois 	 Mostly Cloudy	30	East	7	22	30.35	23	72	10.0
Fri Jan 29 08:39:46 2010	Columbus, Ohio 	 Clear	10	North	8	2	30.48	-2	70	10.0
Fri Jan 29 09:23:42 2010	Columbus, Ohio 	 Clear	8	North	5	1	30.48	0	73	10.0
Fri Jan 29 11:55:42 2010	Columbus, Ohio 	 Clear	8	NNW	6	-1	30.50	-2	67	10.0
Fri Jan 29 12:40:16 2010	Columbus, Ohio 	 Clear	9	NNW	6	0	30.49	-1	67	10.0
Fri Jan 29 13:26:50 2010	Columbus, Ohio 	 Clear	9	NNW	5	0	30.51	1	67	10.0
Fri Jan 29 14:15:37 2010	Columbus, Ohio 	 Clear	9	North	7	-1	30.52	-2	64	10.0
Fri Jan 29 15:00:17 2010	Columbus, Ohio 	 Clear	9	North	7	-1	30.52	-2	64	10.0
Fri Jan 29 15:46:10 2010	Columbus, Ohio 	 Clear	10	NNE	7	-1	30.52	-1	61	10.0
Fri Jan 29 16:33:34 2010	Columbus, Ohio 	 Clear	11	NNE	6	-1	30.52	1	59	10.0
Fri Jan 29 17:18:09 2010	Columbus, Ohio 	 Clear	12	NNE	8	-1	30.55	0	56	10.0
Fri Jan 29 18:06:24 2010	Columbus, Ohio 	 Clear	13	North	10	0	30.55	0	56	10.0
Fri Jan 29 18:51:02 2010	Columbus, Ohio 	 Clear	13	North	10	0	30.55	0	56	10.0
Fri Jan 29 19:43:31 2010	Columbus, Ohio 	 Clear	14	NNE	7	0	30.51	4	54	10.0
Fri Jan 29 20:41:33 2010	Columbus, Ohio 	 Clear	15	Calm		1	30.48	16	54	10.0
Fri Jan 29 21:25:34 2010	Columbus, Ohio 	 Clear	16	NE	8	2	30.47	5	54	10.0
Fri Jan 29 22:11:36 2010	Columbus, Ohio 	 Clear	15	NNE	6	2	30.44	6	56	10.0
Fri Jan 29 22:57:55 2010	Columbus, Ohio 	 Clear	14	North	8	3	30.43	3	62	10.0
Fri Jan 29 23:41:58 2010	Columbus, Ohio 	 Clear	14	North	8	3	30.43	3	62	10.0
Mon Feb  1 00:08:56 2010	Columbus, Ohio 	 Clear	26	WSW	10	13	30.24	16	58	10.0
Mon Feb  1 00:52:10 2010	Columbus, Ohio 	 Clear	26	WSW	10	13	30.24	16	58	10.0
Mon Feb  1 01:36:53 2010	Columbus, Ohio 	 Clear	25	WSW	8	13	30.26	16	60	10.0
Mon Feb  1 02:21:47 2010	Columbus, Ohio 	 Clear	23	West	7	13	30.28	15	65	10.0
Mon Feb  1 03:05:56 2010	Columbus, Ohio 	 Clear	22	West	8	13	30.28	12	68	10.0
Mon Feb  1 03:49:28 2010	Columbus, Ohio 	 Clear	22	West	8	13	30.28	12	68	10.0
Mon Feb  1 04:35:07 2010	Columbus, Ohio 	 Clear	20	West	5	12	30.30	13	71	10.0
Mon Feb  1 05:18:42 2010	Columbus, Ohio 	 Clear	18	West	6	13	30.31	10	81	10.0
Mon Feb  1 06:03:37 2010	Columbus, Ohio 	 Clear	17	West	7	12	30.32	8	81	10.0
Mon Feb  1 06:46:30 2010	Columbus, Ohio 	 Clear	17	West	7	12	30.32	8	81	10.0
Mon Feb  1 07:30:35 2010	Columbus, Ohio 	 Clear	19	West	4	13	30.32	14	77	10.0
Mon Feb  1 08:13:45 2010	Columbus, Ohio 	 Clear	17	WSW	5	11	30.34	10	77	10.0
Mon Feb  1 08:57:27 2010	Columbus, Ohio 	 Clear	17	WSW	5	11	30.34	10	77	10.0
Mon Feb  1 09:40:29 2010	Columbus, Ohio 	 Clear	17	SW	4	12	30.36	12	81	9.0
Mon Feb  1 10:23:50 2010	Columbus, Ohio 	 Clear	16	Calm		12	30.36	16	84	8.0
Mon Feb  1 11:06:58 2010	Columbus, Ohio 	 Clear	17	Calm		12	30.36	18	81	8.0
Mon Feb  1 11:50:15 2010	Columbus, Ohio 	 Clear	17	Calm		12	30.36	18	81	8.0
Mon Feb  1 12:33:45 2010	Columbus, Ohio 	 Clear	15	Calm		11	30.36	16	84	7.0
Mon Feb  1 13:17:16 2010	Columbus, Ohio 	 Clear	13	Calm		11	30.35	12	92	9.0
Mon Feb  1 14:01:03 2010	Columbus, Ohio 	 Clear	14	Calm		11	30.36	14	88	6.0
Mon Feb  1 14:45:32 2010	Columbus, Ohio 	 Clear	14	Calm		11	30.36	14	88	6.0
Mon Feb  1 15:29:52 2010	Columbus, Ohio 	 Clear	19	Calm		15	30.38	19	85	6.0
Mon Feb  1 16:14:02 2010	Columbus, Ohio 	 Haze	21	SSE	5	15	30.38	15	78	6.0
Mon Feb  1 16:59:10 2010	Columbus, Ohio 	 Haze	25	South	5	16	30.38	19	69	6.0
Mon Feb  1 17:43:14 2010	Columbus, Ohio 	 Haze	25	South	5	16	30.38	19	69	6.0
Mon Feb  1 18:26:24 2010	Columbus, Ohio 	 Clear	27	South	5	16	30.38	22	63	7.0
Mon Feb  1 19:10:10 2010	Columbus, Ohio 	 Clear	29	Variable	6	17	30.35	23	61	8.0
Mon Feb  1 19:55:17 2010	Columbus, Ohio 	 Clear	29	Variable	6	17	30.35	23	61	8.0
Mon Feb  1 20:41:45 2010	Columbus, Ohio 	 Clear	32	Calm		15	30.31	32	50	10.0
Mon Feb  1 21:26:32 2010	Columbus, Ohio 	 Clear	32	Calm		16	30.29	32	52	10.0
Mon Feb  1 22:10:04 2010	Columbus, Ohio 	 Clear	32	Calm		16	30.28	32	52	10.0
Mon Feb  1 22:53:21 2010	Columbus, Ohio 	 Clear	32	Calm		16	30.28	32	52	10.0
Mon Feb  1 23:39:25 2010	Columbus, Ohio 	 Clear	32	Calm		16	30.28	32	52	10.0
Sat Jan 30 00:26:01 2010	Columbus, Ohio 	 Clear	14	NNE	7	3	30.43	4	62	10.0
Sat Jan 30 01:10:15 2010	Columbus, Ohio 	 Clear	13	NNE	7	3	30.42	3	65	10.0
Sat Jan 30 01:53:52 2010	Columbus, Ohio 	 Clear	13	NNE	7	3	30.42	3	65	10.0
Sat Jan 30 02:38:32 2010	Columbus, Ohio 	 Clear	13	NNE	7	4	30.42	3	67	10.0
Sat Jan 30 03:22:09 2010	Columbus, Ohio 	 Clear	13	NNE	7	4	30.39	3	67	10.0
Sat Jan 30 04:06:02 2010	Columbus, Ohio 	 Clear	14	NE	8	4	30.38	3	64	10.0
Sat Jan 30 04:49:45 2010	Columbus, Ohio 	 Clear	14	NE	8	4	30.38	3	64	10.0
Sat Jan 30 05:33:33 2010	Columbus, Ohio 	 Clear	14	ENE	9	4	30.36	2	64	10.0
Sat Jan 30 06:17:15 2010	Columbus, Ohio 	 Clear	14	ENE	12	3	30.35	0	62	10.0
Sat Jan 30 07:02:55 2010	Columbus, Ohio 	 Clear	14	East	12	3	30.33	0	62	10.0
Sat Jan 30 07:46:27 2010	Columbus, Ohio 	 Clear	14	East	12	3	30.33	0	62	10.0
Sat Jan 30 08:29:29 2010	Columbus, Ohio 	 Clear	14	ENE	8	4	30.31	3	64	10.0
Sat Jan 30 11:59:05 2010	Columbus, Ohio 	 Overcast	15	ENE	15	4	30.22	0	61	10.0
Sat Jan 30 12:42:52 2010	Columbus, Ohio 	 Overcast	15	ENE	15	4	30.22	0	61	10.0
Sat Jan 30 13:26:05 2010	Columbus, Ohio 	 Overcast	15	ENE	13	5	30.19	1	64	10.0
Sat Jan 30 14:09:49 2010	Columbus, Ohio 	 Mostly Cloudy	15	ENE	12	6	30.19	2	68	10.0
Sat Jan 30 14:54:04 2010	Columbus, Ohio 	 Mostly Cloudy	15	ENE	12	6	30.19	2	68	10.0
Sat Jan 30 15:38:39 2010	Columbus, Ohio 	 Partly Cloudy	15	NE	14	6	30.19	0	68	10.0
Sat Jan 30 16:24:55 2010	Columbus, Ohio 	 Clear	16	ENE	15	6	30.19	1	65	10.0
Sat Jan 30 17:09:17 2010	Columbus, Ohio 	 Partly Cloudy	18	ENE	13	7	30.19	5	62	10.0
Sat Jan 30 17:52:45 2010	Columbus, Ohio 	 Partly Cloudy	18	ENE	13	7	30.19	5	62	10.0
Sat Jan 30 18:36:36 2010	Columbus, Ohio 	 Partly Cloudy	19	NE	15	7	30.18	5	59	10.0
Sat Jan 30 19:19:50 2010	Columbus, Ohio 	 Clear	20	NE	13	7	30.15	7	57	10.0
Sat Jan 30 20:03:57 2010	Columbus, Ohio 	 Clear	22	NE	14	7	30.13	9	53	10.0
Sat Jan 30 20:47:07 2010	Columbus, Ohio 	 Clear	22	NE	14	7	30.13	9	53	10.0
Sat Jan 30 21:31:07 2010	Columbus, Ohio 	 Clear	23	ENE	10	6	30.11	12	48	10.0
Sat Jan 30 22:14:10 2010	Columbus, Ohio 	 Clear	23	North	10	8	30.10	12	53	10.0
Sat Jan 30 22:58:55 2010	Columbus, Ohio 	 Clear	22	North	14	6	30.12	9	51	10.0
Sat Jan 30 23:44:39 2010	Columbus, Ohio 	 Clear	22	North	14	6	30.12	9	51	10.0
Sun Jan 31 00:28:40 2010	Columbus, Ohio 	 Clear	20	North	13	7	30.14	7	57	10.0
Sun Jan 31 01:19:18 2010	Columbus, Ohio 	 Clear	18	North	10	7	30.14	6	62	10.0
Sun Jan 31 02:03:12 2010	Columbus, Ohio 	 Clear	17	North	10	8	30.16	5	68	10.0
Sun Jan 31 02:46:48 2010	Columbus, Ohio 	 Clear	17	North	10	8	30.16	5	68	10.0
Sun Jan 31 03:30:50 2010	Columbus, Ohio 	 Clear	16	North	10	8	30.16	4	71	10.0
Sun Jan 31 04:13:33 2010	Columbus, Ohio 	 Clear	13	North	6	8	30.17	4	81	10.0
Sun Jan 31 04:58:40 2010	Columbus, Ohio 	 Clear	12	North	5	7	30.18	4	80	10.0
Sun Jan 31 05:44:54 2010	Columbus, Ohio 	 Clear	12	North	5	7	30.18	4	80	10.0
Sun Jan 31 06:29:57 2010	Columbus, Ohio 	 Clear	11	North	4	7	30.19	5	84	10.0
Sun Jan 31 07:13:01 2010	Columbus, Ohio 	 Clear	12	Calm		7	30.18	12	80	10.0
Sun Jan 31 07:59:37 2010	Columbus, Ohio 	 Clear	11	WNW	5	7	30.19	3	84	10.0
Sun Jan 31 08:44:26 2010	Columbus, Ohio 	 Clear	11	WNW	5	7	30.19	3	84	10.0
Sun Jan 31 09:27:32 2010	Columbus, Ohio 	 Clear	11	Calm		7	30.20	10	84	10.0
Sun Jan 31 10:10:46 2010	Columbus, Ohio 	 Clear	9	West	4	6	30.21	2	88	10.0
Sun Jan 31 10:54:31 2010	Columbus, Ohio 	 Clear	9	West	4	6	30.21	2	88	10.0
Sun Jan 31 11:38:00 2010	Columbus, Ohio 	 Clear	9	West	4	7	30.21	2	92	10.0
Sun Jan 31 12:21:38 2010	Columbus, Ohio 	 Clear	9	Calm		6	30.22	9	88	10.0
Sun Jan 31 13:04:39 2010	Columbus, Ohio 	 Clear	7	Calm		5	30.25	7	92	10.0
Sun Jan 31 13:48:43 2010	Columbus, Ohio 	 Clear	7	Calm		5	30.25	7	92	10.0
Sun Jan 31 14:31:32 2010	Columbus, Ohio 	 Scattered Clouds	9	Calm		6	30.27	9	88	10.0
Sun Jan 31 15:15:27 2010	Columbus, Ohio 	 Mostly Cloudy	11	Calm		8	30.29	10	88	10.0
Sun Jan 31 15:58:54 2010	Columbus, Ohio 	 Partly Cloudy	16	WSW	8	10	30.28	5	77	10.0
Sun Jan 31 16:48:40 2010	Columbus, Ohio 	 Partly Cloudy	16	WSW	8	10	30.28	5	77	10.0
Sun Jan 31 17:32:36 2010	Columbus, Ohio 	 Partly Cloudy	19	WSW	10	11	30.29	8	71	10.0
Sun Jan 31 18:16:54 2010	Columbus, Ohio 	 Partly Cloudy	21	WSW	12	13	30.27	9	71	10.0
Sun Jan 31 19:01:01 2010	Columbus, Ohio 	 Clear	23	WSW	12	12	30.24	12	63	10.0
Sun Jan 31 19:46:35 2010	Columbus, Ohio 	 Clear	23	WSW	12	12	30.24	12	63	10.0
Sun Jan 31 20:29:35 2010	Columbus, Ohio 	 Clear	25	SW	14	12	30.23	13	58	10.0
Sun Jan 31 21:13:43 2010	Columbus, Ohio 	 Clear	26	West	13	13	30.21	15	58	10.0
Sun Jan 31 21:57:04 2010	Columbus, Ohio 	 Clear	26	West	13	13	30.21	15	58	10.0
Sun Jan 31 22:41:53 2010	Columbus, Ohio 	 Clear	28	WSW	16	12	30.21	16	51	10.0
Sun Jan 31 23:24:58 2010	Columbus, Ohio 	 Clear	28	WSW	13	11	30.22	18	49	10.0
Thu Feb  4 00:10:33 2010	Columbus, Ohio 	 Haze	32	West	8	25	30.31	25	75	4.0
Thu Feb  4 00:54:44 2010	Columbus, Ohio 	 Haze	32	WNW	8	25	30.29	25	75	5.0
Thu Feb  4 01:37:44 2010	Columbus, Ohio 	 Haze	30	WNW	5	25	30.31	25	80	5.0
Thu Feb  4 02:24:54 2010	Columbus, Ohio 	 Haze	31	NNW	7	24	30.36	24	76	5.0
Thu Feb  4 03:08:48 2010	Columbus, Ohio 	 Haze	31	NNW	5	25	30.38	26	79	4.0
Thu Feb  4 03:53:18 2010	Columbus, Ohio 	 Haze	31	NNW	5	25	30.38	26	79	4.0
Thu Feb  4 04:36:30 2010	Columbus, Ohio 	 Haze	30	NNW	4	25	30.39	26	82	4.0
Thu Feb  4 05:19:41 2010	Columbus, Ohio 	 Scattered Clouds	28	NNW	5	24	30.39	23	85	3.0
Thu Feb  4 06:02:49 2010	Columbus, Ohio 	 Clear	27	Calm		24	30.40	27	89	3.0
Thu Feb  4 06:45:49 2010	Columbus, Ohio 	 Clear	27	Calm		25	30.36	27	93	2.5
Thu Feb  4 07:29:25 2010	Columbus, Ohio 	 Clear	25	Calm		23	30.39	25	92	2.0
Thu Feb  4 08:12:06 2010	Columbus, Ohio 	 Clear	27	Calm		23	30.35	27	86	1.8
Thu Feb  4 08:55:50 2010	Columbus, Ohio 	 Light Freezing Fog	25	Calm		21	30.35	25	86	0.5
Thu Feb  4 09:39:33 2010	Columbus, Ohio 	 Clear	23	Calm		21	30.36	23	93	0.8
Thu Feb  4 10:22:57 2010	Columbus, Ohio 	 Clear	23	Calm		21	30.37	23	93	1.2
Thu Feb  4 11:09:11 2010	Columbus, Ohio 	 Clear	23	Calm		21	30.42	23	92	1.8
Thu Feb  4 11:52:45 2010	Columbus, Ohio 	 Clear	19	North	4	19	30.38	14	100	2.0
Thu Feb  4 12:35:53 2010	Columbus, Ohio 	 Clear	21	Calm		20	30.41	21	96	2.0
Thu Feb  4 13:19:23 2010	Columbus, Ohio 	 Light Freezing Fog	21	Calm		19	30.39	21	93	0.2
Thu Feb  4 14:03:44 2010	Columbus, Ohio 	 Clear	22	Calm		20	30.44	21	92	0.8
Thu Feb  4 14:56:26 2010	Columbus, Ohio 	 Partly Cloudy	23	Calm		21	30.40	23	93	1.2
Thu Jan 28 15:36:38 2010	Columbus, Ohio 	 Clear	22	West	21	15	30.22	6	75	7.0
Thu Jan 28 15:57:47 2010	Columbus, Ohio 	 Clear	22	West	21	15	30.22	6	75	7.0
Thu Jan 28 16:46:05 2010	Columbus, Ohio 	 Mostly Cloudy	20	WNW	24	10	30.27	3	65	10.0
Thu Jan 28 17:11:01 2010	Columbus, Ohio 	 Mostly Cloudy	19	West	18	10	30.27	4	68	10.0
Thu Jan 28 17:27:13 2010	Columbus, Ohio 	 Mostly Cloudy	19	West	18	10	30.27	4	68	10.0
Tue Feb  2 00:26:20 2010	Columbus, Ohio 	 Clear	32	Calm		16	30.27	32	52	10.0
Tue Feb  2 01:11:54 2010	Columbus, Ohio 	 Clear	32	Calm		16	30.27	32	52	10.0
Tue Feb  2 01:55:16 2010	Columbus, Ohio 	 Clear	32	Calm		16	30.27	32	52	10.0
Tue Feb  2 02:39:17 2010	Columbus, Ohio 	 Clear	27	East	4	16	30.26	23	63	9.0
Tue Feb  2 03:22:28 2010	Columbus, Ohio 	 Clear	26	East	4	17	30.23	22	69	9.0
Tue Feb  2 04:06:30 2010	Columbus, Ohio 	 Clear	24	Calm		17	30.23	25	75	8.0
Tue Feb  2 04:50:07 2010	Columbus, Ohio 	 Clear	24	Calm		17	30.23	25	75	8.0
Tue Feb  2 05:33:29 2010	Columbus, Ohio 	 Clear	25	East	4	17	30.22	21	72	8.0
Tue Feb  2 06:16:26 2010	Columbus, Ohio 	 Overcast	26	East	4	18	30.21	22	71	9.0
Tue Feb  2 07:03:55 2010	Columbus, Ohio 	 Overcast	27	ESE	4	19	30.19	23	72	9.0
Tue Feb  2 07:47:00 2010	Columbus, Ohio 	 Overcast	27	ESE	4	19	30.19	23	72	9.0
Tue Feb  2 08:30:06 2010	Columbus, Ohio 	 Overcast	28	SE	5	19	30.19	23	69	10.0
Tue Feb  2 09:13:34 2010	Columbus, Ohio 	 Overcast	28	East	4	21	30.18	24	75	9.0
Tue Feb  2 09:57:06 2010	Columbus, Ohio 	 Overcast	28	East	4	21	30.18	24	75	9.0
Tue Feb  2 10:40:44 2010	Columbus, Ohio 	 Overcast	29	Calm		21	30.17	28	72	9.0
Tue Feb  2 11:24:49 2010	Columbus, Ohio 	 Light Snow	27	Calm		25	30.12	27	93	0.8
Tue Feb  2 12:08:23 2010	Columbus, Ohio 	 Light Snow	27	Calm		25	30.15	27	92	0.8
Tue Feb  2 12:52:41 2010	Columbus, Ohio 	 Light Snow	27	Calm		25	30.11	27	93	1.0
Tue Feb  2 13:36:01 2010	Columbus, Ohio 	 Light Snow	27	ENE	4	27	30.10	23	100	2.0
Tue Feb  2 14:19:30 2010	Columbus, Ohio 	 Overcast	28	East	5	27	30.09	23	93	1.5
Tue Feb  2 15:04:01 2010	Columbus, Ohio 	 Overcast	29	Calm		27	30.12	28	92	2.5
Tue Feb  2 15:50:20 2010	Columbus, Ohio 	 Mostly Cloudy	28	Calm		27	30.08	28	93	3.0
Tue Feb  2 16:42:59 2010	Columbus, Ohio 	 Haze	31	East	6	26	30.12	25	82	5.0
Tue Feb  2 17:30:36 2010	Columbus, Ohio 	 Overcast	32	East	5	24	30.11	28	73	8.0
Tue Feb  2 18:15:59 2010	Columbus, Ohio 	 Overcast	33	East	6	22	30.08	28	64	10.0
Tue Feb  2 19:00:01 2010	Columbus, Ohio 	 Overcast	35	SE	5	22	30.04	31	59	10.0
Tue Feb  2 19:49:05 2010	Columbus, Ohio 	 Overcast	35	SE	5	22	30.04	31	59	10.0
Tue Feb  2 20:40:42 2010	Columbus, Ohio 	 Mostly Cloudy	38	Variable	4	22	30.01	36	53	10.0
Tue Feb  2 21:27:16 2010	Columbus, Ohio 	 Overcast	40	ESE	4	22	29.98	38	49	10.0
Tue Feb  2 22:14:58 2010	Columbus, Ohio 	 Overcast	41	South	5	21	29.98	38	45	10.0
Tue Feb  2 23:00:13 2010	Columbus, Ohio 	 Overcast	40	SSW	4	22	29.99	38	49	10.0
Tue Feb  2 23:45:12 2010	Columbus, Ohio 	 Overcast	40	SSW	4	22	29.99	38	49	10.0
Wed Feb  3 00:30:06 2010	Columbus, Ohio 	 Overcast	37	Calm		23	30.00	37	57	10.0
Wed Feb  3 01:17:07 2010	Columbus, Ohio 	 Overcast	38	Calm		20	30.01	37	48	10.0
Wed Feb  3 02:01:56 2010	Columbus, Ohio 	 Overcast	36	NNW	4	24	30.01	33	62	10.0
Wed Feb  3 02:50:39 2010	Columbus, Ohio 	 Overcast	36	NNW	4	24	30.01	33	62	10.0
Wed Feb  3 03:37:36 2010	Columbus, Ohio 	 Overcast	36	NNW	6	24	30.02	31	62	10.0
Wed Feb  3 04:25:42 2010	Columbus, Ohio 	 Overcast	34	WNW	4	26	30.02	31	73	10.0
Wed Feb  3 05:12:12 2010	Columbus, Ohio 	 Overcast	35	West	7	27	30.04	29	72	9.0
Wed Feb  3 06:00:16 2010	Columbus, Ohio 	 Overcast	34	West	9	28	30.05	27	79	9.0
Wed Feb  3 06:47:04 2010	Columbus, Ohio 	 Overcast	34	West	9	28	30.05	27	79	9.0
Wed Feb  3 07:31:40 2010	Columbus, Ohio 	 Overcast	34	WNW	12	27	30.06	26	75	7.0
Wed Feb  3 08:14:45 2010	Columbus, Ohio 	 Haze	34	West	12	27	30.05	25	75	6.0
Wed Feb  3 09:01:09 2010	Columbus, Ohio 	 Haze	33	West	12	28	30.09	24	82	5.0
Wed Feb  3 09:44:36 2010	Columbus, Ohio 	 Haze	34	West	8	28	30.07	27	81	4.0
Wed Feb  3 10:28:35 2010	Columbus, Ohio 	 Haze	34	West	9	28	30.08	26	81	4.0
Wed Feb  3 11:15:20 2010	Columbus, Ohio 	 Light Snow	32	West	12	29	30.13	23	88	3.0
Wed Feb  3 12:00:06 2010	Columbus, Ohio 	 Overcast	32	West	10	29	30.16	24	88	4.0
Wed Feb  3 12:43:18 2010	Columbus, Ohio 	 Overcast	32	West	10	29	30.16	24	88	4.0
Wed Feb  3 13:27:00 2010	Columbus, Ohio 	 Overcast	32	West	8	29	30.16	25	88	4.0
Wed Feb  3 14:12:39 2010	Columbus, Ohio 	 Overcast	31	West	10	28	30.18	22	89	3.0
Wed Feb  3 14:58:27 2010	Columbus, Ohio 	 Haze	31	WNW	8	26	30.20	24	82	4.0
Wed Feb  3 15:43:38 2010	Columbus, Ohio 	 Haze	32	West	9	27	30.18	24	80	4.0
Wed Feb  3 16:29:16 2010	Columbus, Ohio 	 Haze	33	West	10	26	30.23	25	75	4.0
Wed Feb  3 17:16:42 2010	Columbus, Ohio 	 Haze	33	West	10	26	30.25	25	75	4.0
Wed Feb  3 18:05:17 2010	Columbus, Ohio 	 Haze	34	West	13	25	30.25	25	70	5.0
Wed Feb  3 18:48:19 2010	Columbus, Ohio 	 Haze	34	West	13	25	30.25	25	70	5.0
Wed Feb  3 19:32:11 2010	Columbus, Ohio 	 Overcast	34	West	13	24	30.24	25	67	7.0
Wed Feb  3 20:15:54 2010	Columbus, Ohio 	 Overcast	34	West	13	25	30.22	25	70	7.0
Wed Feb  3 21:00:39 2010	Columbus, Ohio 	 Overcast	34	West	10	24	30.25	26	67	7.0
Wed Feb  3 21:48:31 2010	Columbus, Ohio 	 Overcast	34	West	10	24	30.25	26	67	7.0
Wed Feb  3 22:34:01 2010	Columbus, Ohio 	 Haze	34	West	10	25	30.24	26	70	6.0
Wed Feb  3 23:24:48 2010	Columbus, Ohio 	 Haze	32	West	8	25	30.28	25	75	4.0
Fri Jan 29 08:39:54 2010	Dallas, Texas 	 Light Rain	43	NE	6	41	30.02	39	93	6.0
Fri Jan 29 09:23:46 2010	Dallas, Texas 	 Light Rain	43	NNE	5	39	30.02	40	87	6.0
Fri Jan 29 11:55:46 2010	Dallas, Texas 	 Light Rain	41	NE	8	39	30.01	36	93	6.0
Fri Jan 29 12:40:20 2010	Dallas, Texas 	 Light Rain	41	NE	9	39	30.01	35	93	6.0
Fri Jan 29 13:26:54 2010	Dallas, Texas 	 Light Rain	39	NNE	6	38	30.01	35	96	6.0
Fri Jan 29 14:15:41 2010	Dallas, Texas 	 Light Rain	39	North	8	37	30.02	33	93	6.0
Fri Jan 29 15:00:22 2010	Dallas, Texas 	 Light Rain	37	NNE	8	36	30.03	31	93	6.0
Fri Jan 29 15:46:14 2010	Dallas, Texas 	 Light Rain	37	North	6	37	30.04	33	100	7.0
Fri Jan 29 16:33:42 2010	Dallas, Texas 	 Light Rain	38	North	7	36	30.07	33	93	6.0
Fri Jan 29 17:18:13 2010	Dallas, Texas 	 Light Rain	38	NNW	9	36	30.06	32	93	8.0
Fri Jan 29 18:06:29 2010	Dallas, Texas 	 Light Rain	38	NW	7	36	30.10	33	93	10.0
Fri Jan 29 18:51:06 2010	Dallas, Texas 	 Light Rain	37	NW	10	36	30.06	30	93	6.0
Fri Jan 29 19:43:35 2010	Dallas, Texas 	 Light Rain	37	NW	14	35	30.05	28	93	7.0
Fri Jan 29 20:41:37 2010	Dallas, Texas 	 Overcast	37	NW	14	35	30.02	28	93	10.0
Fri Jan 29 21:25:39 2010	Dallas, Texas 	 Light Drizzle	36	NW	14	34	30.00	27	93	6.0
Fri Jan 29 22:11:41 2010	Dallas, Texas 	 Light Drizzle	35	WNW	18	31	30.01	24	85	10.0
Fri Jan 29 22:58:00 2010	Dallas, Texas 	 Overcast	34	NW	14	31	30.03	25	89	10.0
Fri Jan 29 23:42:02 2010	Dallas, Texas 	 Overcast	34	NW	17	28	30.03	23	81	10.0
Mon Feb  1 00:09:00 2010	Dallas, Texas 	 Mostly Cloudy	38	South	5	30	30.22	34	73	10.0
Mon Feb  1 00:52:14 2010	Dallas, Texas 	 Overcast	37	SSW	4	28	30.21	35	70	10.0
Mon Feb  1 01:36:57 2010	Dallas, Texas 	 Overcast	38	SSW	4	29	30.22	36	70	10.0
Mon Feb  1 02:21:51 2010	Dallas, Texas 	 Mostly Cloudy	37	Calm		29	30.21	37	73	10.0
Mon Feb  1 03:06:00 2010	Dallas, Texas 	 Mostly Cloudy	36	Calm		29	30.21	36	76	10.0
Mon Feb  1 03:49:32 2010	Dallas, Texas 	 Mostly Cloudy	36	Calm		29	30.21	36	76	10.0
Mon Feb  1 04:35:11 2010	Dallas, Texas 	 Scattered Clouds	35	Calm		29	30.21	36	78	10.0
Mon Feb  1 05:18:47 2010	Dallas, Texas 	 Mostly Cloudy	32	Calm		29	30.21	32	88	10.0
Mon Feb  1 06:03:42 2010	Dallas, Texas 	 Scattered Clouds	33	Calm		29	30.21	34	85	10.0
Mon Feb  1 06:46:34 2010	Dallas, Texas 	 Scattered Clouds	33	Calm		29	30.21	34	85	10.0
Mon Feb  1 07:30:39 2010	Dallas, Texas 	 Mostly Cloudy	31	Calm		28	30.20	30	89	6.0
Mon Feb  1 08:13:49 2010	Dallas, Texas 	 Mostly Cloudy	34	West	4	30	30.20	31	85	6.0
Mon Feb  1 08:57:32 2010	Dallas, Texas 	 Scattered Clouds	32	Calm		29	30.18	32	88	6.0
Mon Feb  1 09:40:34 2010	Dallas, Texas 	 Scattered Clouds	32	Calm		29	30.18	32	88	6.0
Mon Feb  1 10:23:54 2010	Dallas, Texas 	 Mostly Cloudy	33	Calm		29	30.18	34	85	6.0
Mon Feb  1 11:07:02 2010	Dallas, Texas 	 Mostly Cloudy	33	Calm		30	30.17	34	89	6.0
Mon Feb  1 11:50:19 2010	Dallas, Texas 	 Mostly Cloudy	33	Calm		30	30.17	34	89	6.0
Mon Feb  1 12:33:50 2010	Dallas, Texas 	 Mostly Cloudy	33	Calm		30	30.16	34	89	6.0
Mon Feb  1 13:17:20 2010	Dallas, Texas 	 Mostly Cloudy	32	East	4	30	30.14	29	92	6.0
Mon Feb  1 14:01:08 2010	Dallas, Texas 	 Mostly Cloudy	33	ESE	4	30	30.13	30	89	5.0
Mon Feb  1 14:45:37 2010	Dallas, Texas 	 Mostly Cloudy	34	ESE	6	30	30.12	29	87	5.0
Mon Feb  1 15:29:57 2010	Dallas, Texas 	 Overcast	35	SE	7	31	30.13	29	85	5.0
Mon Feb  1 16:14:06 2010	Dallas, Texas 	 Haze	36	SSW	4	31	30.15	33	82	5.0
Mon Feb  1 16:59:12 2010	Dallas, Texas 	 Overcast	38	South	6	32	30.15	34	79	6.0
Mon Feb  1 17:43:19 2010	Dallas, Texas 	 Haze	41	South	7	34	30.13	36	76	6.0
Mon Feb  1 18:26:28 2010	Dallas, Texas 	 Mostly Cloudy	41	South	6	33	30.13	37	73	7.0
Mon Feb  1 19:10:21 2010	Dallas, Texas 	 Mostly Cloudy	45	South	9	34	30.12	40	65	9.0
Mon Feb  1 19:55:22 2010	Dallas, Texas 	 Overcast	46	SSW	9	36	30.10	42	66	8.0
Mon Feb  1 20:41:49 2010	Dallas, Texas 	 Overcast	46	SW	6	36	30.06	44	66	10.0
Mon Feb  1 21:26:36 2010	Dallas, Texas 	 Overcast	46	SW	7	36	30.05	42	68	10.0
Mon Feb  1 22:10:06 2010	Dallas, Texas 	 Overcast	46	WSW	8	36	30.03	42	68	10.0
Mon Feb  1 22:53:26 2010	Dallas, Texas 	 Overcast	46	WSW	8	36	30.03	42	68	10.0
Mon Feb  1 23:39:32 2010	Dallas, Texas 	 Overcast	47	WSW	5	37	30.02	45	68	10.0
Sat Jan 30 00:26:05 2010	Dallas, Texas 	 Overcast	33	NW	16	29	30.05	23	85	10.0
Sat Jan 30 01:10:20 2010	Dallas, Texas 	 Overcast	33	NW	20	27	30.07	22	78	10.0
Sat Jan 30 01:53:57 2010	Dallas, Texas 	 Overcast	33	NW	20	27	30.07	22	78	10.0
Sat Jan 30 02:38:36 2010	Dallas, Texas 	 Overcast	32	NW	23	25	30.09	19	75	10.0
Sat Jan 30 03:22:14 2010	Dallas, Texas 	 Overcast	32	NW	17	25	30.09	21	75	10.0
Sat Jan 30 04:06:07 2010	Dallas, Texas 	 Overcast	31	NW	15	24	30.11	20	76	10.0
Sat Jan 30 04:49:49 2010	Dallas, Texas 	 Overcast	31	NW	15	24	30.11	20	76	10.0
Sat Jan 30 05:33:37 2010	Dallas, Texas 	 Overcast	31	NW	16	25	30.12	20	79	10.0
Sat Jan 30 06:17:19 2010	Dallas, Texas 	 Overcast	30	NNW	14	24	30.12	20	79	10.0
Sat Jan 30 07:03:00 2010	Dallas, Texas 	 Overcast	30	NNW	18	23	30.14	18	75	10.0
Sat Jan 30 07:46:32 2010	Dallas, Texas 	 Overcast	30	NNW	18	23	30.14	18	75	10.0
Sat Jan 30 08:29:33 2010	Dallas, Texas 	 Overcast	29	NW	16	23	30.13	17	78	10.0
Sat Jan 30 11:59:09 2010	Dallas, Texas 	 Overcast	27	NNW	13	21	30.16	16	78	10.0
Sat Jan 30 12:42:57 2010	Dallas, Texas 	 Overcast	27	NNW	13	21	30.16	16	78	10.0
Sat Jan 30 13:26:10 2010	Dallas, Texas 	 Overcast	27	NNW	16	20	30.18	15	75	10.0
Sat Jan 30 14:09:53 2010	Dallas, Texas 	 Overcast	27	NNW	10	20	30.20	17	75	10.0
Sat Jan 30 14:54:09 2010	Dallas, Texas 	 Overcast	27	NNW	10	20	30.20	17	75	10.0
Sat Jan 30 15:38:43 2010	Dallas, Texas 	 Overcast	27	North	12	21	30.23	17	78	10.0
Sat Jan 30 16:25:00 2010	Dallas, Texas 	 Overcast	27	NNW	13	20	30.26	16	75	10.0
Sat Jan 30 17:09:21 2010	Dallas, Texas 	 Overcast	27	North	13	20	30.28	16	75	10.0
Sat Jan 30 17:52:50 2010	Dallas, Texas 	 Overcast	27	North	13	20	30.28	16	75	10.0
Sat Jan 30 18:36:43 2010	Dallas, Texas 	 Overcast	28	North	13	21	30.28	18	75	10.0
Sat Jan 30 19:19:58 2010	Dallas, Texas 	 Overcast	30	North	15	22	30.27	19	72	10.0
Sat Jan 30 20:04:02 2010	Dallas, Texas 	 Overcast	30	NNW	13	23	30.26	20	75	10.0
Sat Jan 30 20:47:11 2010	Dallas, Texas 	 Overcast	30	NNW	13	23	30.26	20	75	10.0
Sat Jan 30 21:31:12 2010	Dallas, Texas 	 Overcast	30	North	10	22	30.25	21	72	10.0
Sat Jan 30 22:14:15 2010	Dallas, Texas 	 Overcast	31	NNW	9	23	30.25	23	72	10.0
Sat Jan 30 22:58:59 2010	Dallas, Texas 	 Overcast	31	North	8	24	30.25	24	76	10.0
Sat Jan 30 23:44:44 2010	Dallas, Texas 	 Overcast	31	North	8	24	30.25	24	76	10.0
Sun Jan 31 00:28:45 2010	Dallas, Texas 	 Overcast	31	North	12	25	30.25	22	79	10.0
Sun Jan 31 01:19:21 2010	Dallas, Texas 	 Overcast	31	North	9	25	30.26	23	79	10.0
Sun Jan 31 02:03:16 2010	Dallas, Texas 	 Overcast	31	North	8	25	30.27	24	79	10.0
Sun Jan 31 02:46:53 2010	Dallas, Texas 	 Overcast	31	North	8	25	30.27	24	79	10.0
Sun Jan 31 03:30:54 2010	Dallas, Texas 	 Overcast	31	NW	9	25	30.28	23	79	10.0
Sun Jan 31 04:13:38 2010	Dallas, Texas 	 Overcast	31	North	9	25	30.29	23	79	10.0
Sun Jan 31 04:58:44 2010	Dallas, Texas 	 Overcast	31	NNE	9	25	30.28	23	79	10.0
Sun Jan 31 05:44:58 2010	Dallas, Texas 	 Overcast	31	NNE	9	25	30.28	23	79	10.0
Sun Jan 31 06:30:02 2010	Dallas, Texas 	 Overcast	31	NE	7	25	30.29	24	79	10.0
Sun Jan 31 07:13:06 2010	Dallas, Texas 	 Overcast	30	NE	4	25	30.30	26	82	10.0
Sun Jan 31 07:59:41 2010	Dallas, Texas 	 Overcast	31	NNE	6	25	30.29	25	79	10.0
Sun Jan 31 08:44:31 2010	Dallas, Texas 	 Overcast	31	NNE	6	25	30.29	25	79	10.0
Sun Jan 31 09:27:37 2010	Dallas, Texas 	 Overcast	31	East	6	26	30.29	25	82	10.0
Sun Jan 31 10:10:51 2010	Dallas, Texas 	 Overcast	31	Calm		26	30.29	30	82	10.0
Sun Jan 31 10:54:36 2010	Dallas, Texas 	 Overcast	31	Calm		26	30.29	30	82	10.0
Sun Jan 31 11:38:04 2010	Dallas, Texas 	 Overcast	31	East	4	26	30.30	28	82	10.0
Sun Jan 31 12:21:42 2010	Dallas, Texas 	 Overcast	31	Calm		26	30.30	30	82	10.0
Sun Jan 31 13:04:44 2010	Dallas, Texas 	 Overcast	31	East	6	27	30.31	25	85	10.0
Sun Jan 31 13:48:47 2010	Dallas, Texas 	 Overcast	31	East	6	27	30.31	25	85	10.0
Sun Jan 31 14:31:36 2010	Dallas, Texas 	 Overcast	31	ESE	6	26	30.32	25	82	10.0
Sun Jan 31 15:15:31 2010	Dallas, Texas 	 Overcast	31	East	4	26	30.32	28	82	7.0
Sun Jan 31 15:58:58 2010	Dallas, Texas 	 Overcast	31	SE	8	27	30.33	24	85	7.0
Sun Jan 31 16:48:44 2010	Dallas, Texas 	 Overcast	31	SE	8	27	30.33	24	85	7.0
Sun Jan 31 17:32:40 2010	Dallas, Texas 	 Overcast	32	SE	4	27	30.34	29	82	6.0
Sun Jan 31 18:16:58 2010	Dallas, Texas 	 Overcast	32	South	6	27	30.33	26	82	6.0
Sun Jan 31 19:01:05 2010	Dallas, Texas 	 Overcast	34	Calm		28	30.31	34	79	6.0
Sun Jan 31 19:46:39 2010	Dallas, Texas 	 Overcast	34	Calm		28	30.31	34	79	6.0
Sun Jan 31 20:29:39 2010	Dallas, Texas 	 Overcast	36	Variable	4	28	30.25	33	75	6.0
Sun Jan 31 21:13:47 2010	Dallas, Texas 	 Overcast	36	ENE	7	28	30.24	30	73	6.0
Sun Jan 31 21:57:09 2010	Dallas, Texas 	 Overcast	37	East	7	29	30.23	32	73	6.0
Sun Jan 31 22:41:57 2010	Dallas, Texas 	 Overcast	37	East	7	29	30.23	32	73	6.0
Sun Jan 31 23:25:03 2010	Dallas, Texas 	 Overcast	38	Calm		29	30.23	37	70	10.0
Thu Feb  4 00:10:38 2010	Dallas, Texas 	 Light Rain	44	East	7	40	30.09	40	85	5.0
Thu Feb  4 00:54:48 2010	Dallas, Texas 	 Light Rain	44	East	7	40	30.09	40	85	5.0
Thu Feb  4 01:37:49 2010	Dallas, Texas 	 Overcast	44	East	8	39	30.10	40	82	5.0
Thu Feb  4 02:24:58 2010	Dallas, Texas 	 Light Rain	44	East	10	38	30.08	39	79	6.0
Thu Feb  4 03:08:52 2010	Dallas, Texas 	 Light Rain	45	East	12	37	30.09	39	74	7.0
Thu Feb  4 03:53:23 2010	Dallas, Texas 	 Light Rain	45	East	12	37	30.09	39	74	7.0
Thu Feb  4 04:36:34 2010	Dallas, Texas 	 Overcast	44	East	14	38	30.06	37	79	7.0
Thu Feb  4 05:19:46 2010	Dallas, Texas 	 Light Rain	44	East	16	38	30.08	37	79	7.0
Thu Feb  4 06:02:53 2010	Dallas, Texas 	 Overcast	43	East	16	38	30.03	35	82	7.0
Thu Feb  4 06:45:53 2010	Dallas, Texas 	 Overcast	43	East	16	38	30.03	35	82	7.0
Thu Feb  4 07:29:27 2010	Dallas, Texas 	 Overcast	43	East	13	39	30.01	36	86	7.0
Thu Feb  4 08:12:10 2010	Dallas, Texas 	 Overcast	43	East	15	39	30.00	35	87	6.0
Thu Feb  4 08:55:54 2010	Dallas, Texas 	 Light Rain	43	East	16	39	29.97	35	87	6.0
Thu Feb  4 09:39:38 2010	Dallas, Texas 	 Light Rain	42	East	15	40	29.97	34	92	6.0
Thu Feb  4 10:23:01 2010	Dallas, Texas 	 Light Rain	42	East	14	40	29.98	35	92	5.0
Thu Feb  4 11:09:15 2010	Dallas, Texas 	 Light Drizzle	42	ESE	14	40	29.95	35	92	3.0
Thu Feb  4 11:52:49 2010	Dallas, Texas 	 Light Drizzle	43	ESE	12	39	29.95	37	87	5.0
Thu Feb  4 12:35:57 2010	Dallas, Texas 	 Light Rain	43	East	6	39	29.96	39	87	4.0
Thu Feb  4 13:19:27 2010	Dallas, Texas 	 Light Rain	43	NE	4	39	29.98	41	87	5.0
Thu Feb  4 14:03:48 2010	Dallas, Texas 	 Light Rain	42	ENE	5	40	29.97	39	92	6.0
Thu Feb  4 14:56:30 2010	Dallas, Texas 	 Light Rain	43	ENE	6	39	29.97	39	87	5.0
Thu Jan 28 15:36:43 2010	Dallas, Texas 	 Light Rain	56	ESE	15	52	30.14		87	8.0
Thu Jan 28 15:57:52 2010	Dallas, Texas 	 Light Rain	56	ESE	12	52	30.13		87	10.0
Thu Jan 28 16:46:10 2010	Dallas, Texas 	 Overcast	55	ESE	12	52	30.14		88	10.0
Thu Jan 28 17:11:05 2010	Dallas, Texas 	 Overcast	56	East	12	52	30.12		87	10.0
Thu Jan 28 17:27:17 2010	Dallas, Texas 	 Overcast	56	East	12	52	30.12		87	10.0
Tue Feb  2 00:26:25 2010	Dallas, Texas 	 Overcast	47	SSE	10	37	30.04	42	68	10.0
Tue Feb  2 01:11:59 2010	Dallas, Texas 	 Overcast	46	South	8	37	30.04	42	71	10.0
Tue Feb  2 01:55:20 2010	Dallas, Texas 	 Overcast	46	South	8	37	30.04	42	71	10.0
Tue Feb  2 02:39:21 2010	Dallas, Texas 	 Overcast	45	South	6	38	30.06	42	76	10.0
Tue Feb  2 03:22:32 2010	Dallas, Texas 	 Overcast	45	SSE	7	39	30.06	41	80	10.0
Tue Feb  2 04:06:34 2010	Dallas, Texas 	 Overcast	45	Calm		39	30.08	45	80	7.0
Tue Feb  2 04:50:12 2010	Dallas, Texas 	 Overcast	45	Calm		39	30.08	45	80	7.0
Tue Feb  2 05:33:33 2010	Dallas, Texas 	 Haze	44	Calm		39	30.08	45	82	5.0
Tue Feb  2 06:16:30 2010	Dallas, Texas 	 Haze	45	Calm		40	30.09	45	82	6.0
Tue Feb  2 07:03:59 2010	Dallas, Texas 	 Overcast	42	NNW	6	38	30.10	38	85	6.0
Tue Feb  2 07:47:05 2010	Dallas, Texas 	 Overcast	42	NNW	6	38	30.10	38	85	6.0
Tue Feb  2 08:30:10 2010	Dallas, Texas 	 Haze	43	North	8	37	30.12	38	81	5.0
Tue Feb  2 09:13:39 2010	Dallas, Texas 	 Haze	41	NNE	6	36	30.12	37	81	5.0
Tue Feb  2 09:57:10 2010	Dallas, Texas 	 Haze	42	NNE	4	37	30.13	40	82	5.0
Tue Feb  2 10:40:48 2010	Dallas, Texas 	 Haze	42	NNE	4	37	30.13	40	82	5.0
Tue Feb  2 11:24:53 2010	Dallas, Texas 	 Haze	42	North	5	37	30.14	39	82	6.0
Tue Feb  2 12:08:27 2010	Dallas, Texas 	 Overcast	42	North	4	38	30.14	40	85	7.0
Tue Feb  2 12:52:46 2010	Dallas, Texas 	 Overcast	42	North	4	38	30.14	40	85	7.0
Tue Feb  2 13:36:05 2010	Dallas, Texas 	 Overcast	42	NNW	4	37	30.16	40	82	7.0
Tue Feb  2 14:19:35 2010	Dallas, Texas 	 Overcast	43	North	8	36	30.18	38	76	7.0
Tue Feb  2 15:04:05 2010	Dallas, Texas 	 Overcast	42	North	9	36	30.19	37	79	9.0
Tue Feb  2 15:50:24 2010	Dallas, Texas 	 Overcast	42	North	9	36	30.19	37	79	9.0
Tue Feb  2 16:43:04 2010	Dallas, Texas 	 Overcast	43	North	9	34	30.22	38	71	10.0
Tue Feb  2 17:30:40 2010	Dallas, Texas 	 Overcast	43	North	8	34	30.23	38	71	10.0
Tue Feb  2 18:16:04 2010	Dallas, Texas 	 Mostly Cloudy	45	North	9	34	30.23	40	65	10.0
Tue Feb  2 19:00:05 2010	Dallas, Texas 	 Mostly Cloudy	46	Variable	5	34	30.24	44	63	10.0
Tue Feb  2 19:49:10 2010	Dallas, Texas 	 Mostly Cloudy	46	Variable	5	34	30.24	44	63	10.0
Tue Feb  2 20:40:46 2010	Dallas, Texas 	 Mostly Cloudy	48	North	6	34	30.22	46	58	10.0
Tue Feb  2 21:27:20 2010	Dallas, Texas 	 Scattered Clouds	49	North	7	34	30.19	46	56	10.0
Tue Feb  2 22:15:02 2010	Dallas, Texas 	 Scattered Clouds	50	Calm		35	30.18	50	57	10.0
Tue Feb  2 23:00:17 2010	Dallas, Texas 	 Mostly Cloudy	51	NNE	10	35	30.16		54	10.0
Tue Feb  2 23:45:16 2010	Dallas, Texas 	 Mostly Cloudy	51	NNE	10	35	30.16		54	10.0
Wed Feb  3 00:30:10 2010	Dallas, Texas 	 Mostly Cloudy	50	NNE	10	35	30.16	46	57	10.0
Wed Feb  3 01:17:12 2010	Dallas, Texas 	 Mostly Cloudy	49	North	6	35	30.16	46	59	10.0
Wed Feb  3 02:02:00 2010	Dallas, Texas 	 Mostly Cloudy	48	Calm		35	30.21	48	61	10.0
Wed Feb  3 02:50:43 2010	Dallas, Texas 	 Mostly Cloudy	48	Calm		35	30.21	48	61	10.0
Wed Feb  3 03:37:40 2010	Dallas, Texas 	 Mostly Cloudy	44	NE	5	36	30.20	42	73	10.0
Wed Feb  3 04:25:46 2010	Dallas, Texas 	 Scattered Clouds	44	East	7	36	30.21	40	73	10.0
Wed Feb  3 05:12:17 2010	Dallas, Texas 	 Partly Cloudy	42	East	4	35	30.21	40	76	10.0
Wed Feb  3 06:00:20 2010	Dallas, Texas 	 Mostly Cloudy	41	ENE	4	35	30.22	39	79	10.0
Wed Feb  3 06:47:09 2010	Dallas, Texas 	 Mostly Cloudy	41	ENE	4	35	30.22	39	79	10.0
Wed Feb  3 07:31:44 2010	Dallas, Texas 	 Overcast	41	Calm		35	30.22	41	79	10.0
Wed Feb  3 08:14:49 2010	Dallas, Texas 	 Overcast	38	NE	4	34	30.21	36	86	10.0
Wed Feb  3 09:01:13 2010	Dallas, Texas 	 Overcast	38	ENE	7	34	30.17	33	86	10.0
Wed Feb  3 09:44:40 2010	Dallas, Texas 	 Overcast	38	ENE	7	34	30.17	33	86	10.0
Wed Feb  3 10:28:39 2010	Dallas, Texas 	 Mostly Cloudy	38	ENE	4	34	30.16	36	86	10.0
Wed Feb  3 11:15:24 2010	Dallas, Texas 	 Mostly Cloudy	38	NE	7	34	30.16	33	86	10.0
Wed Feb  3 12:00:10 2010	Dallas, Texas 	 Overcast	39	Calm		34	30.14	39	82	10.0
Wed Feb  3 12:43:22 2010	Dallas, Texas 	 Overcast	39	Calm		34	30.14	39	82	10.0
Wed Feb  3 13:27:05 2010	Dallas, Texas 	 Overcast	39	East	4	34	30.15	37	82	10.0
Wed Feb  3 14:12:44 2010	Dallas, Texas 	 Overcast	40	East	9	35	30.15	34	83	10.0
Wed Feb  3 14:58:32 2010	Dallas, Texas 	 Overcast	41	East	9	36	30.17	35	82	9.0
Wed Feb  3 15:43:43 2010	Dallas, Texas 	 Overcast	41	East	9	36	30.17	35	82	9.0
Wed Feb  3 16:29:20 2010	Dallas, Texas 	 Overcast	43	ESE	10	37	30.19	37	80	8.0
Wed Feb  3 17:16:46 2010	Dallas, Texas 	 Overcast	44	ESE	10	38	30.18	39	79	8.0
Wed Feb  3 18:05:21 2010	Dallas, Texas 	 Overcast	45	East	7	38	30.18	41	76	7.0
Wed Feb  3 18:48:24 2010	Dallas, Texas 	 Overcast	45	East	7	38	30.18	41	76	7.0
Wed Feb  3 19:32:15 2010	Dallas, Texas 	 Overcast	46	East	12	38	30.14	41	73	7.0
Wed Feb  3 20:15:58 2010	Dallas, Texas 	 Overcast	46	East	13	37	30.08	40	71	9.0
Wed Feb  3 21:00:44 2010	Dallas, Texas 	 Light Rain	46	East	9	39	30.08	41	76	9.0
Wed Feb  3 21:48:34 2010	Dallas, Texas 	 Light Rain	46	East	9	39	30.08	41	76	9.0
Wed Feb  3 22:34:05 2010	Dallas, Texas 	 Light Rain	45	NE	12	40	30.04	39	82	7.0
Wed Feb  3 23:24:55 2010	Dallas, Texas 	 Light Rain	44	ENE	5	40	30.06	42	85	6.0
Fri Jan 29 08:38:17 2010	Denver, Colorado 	 Mostly Cloudy	25	SE	4	21	30.21	21	85	8.0
Fri Jan 29 09:22:16 2010	Denver, Colorado 	 Mostly Cloudy	21	SSE	4	18	30.21	16	88	6.0
Fri Jan 29 11:54:14 2010	Denver, Colorado 	 Overcast	24	South	5	21	30.18	18	88	6.0
Fri Jan 29 12:38:50 2010	Denver, Colorado 	 Overcast	24	South	5	21	30.18	18	88	6.0
Fri Jan 29 13:25:21 2010	Denver, Colorado 	 Scattered Clouds	22	South	5	20	30.18	16	92	4.0
Fri Jan 29 14:14:05 2010	Denver, Colorado 	 Scattered Clouds	19	SSW	5	16	30.17	12	88	4.0
Fri Jan 29 14:58:45 2010	Denver, Colorado 	 Scattered Clouds	19	SSW	5	16	30.17	12	88	4.0
Fri Jan 29 15:44:45 2010	Denver, Colorado 	 Partly Cloudy	20	Calm		16	30.18	19	85	6.0
Fri Jan 29 16:31:55 2010	Denver, Colorado 	 Clear	21	Calm		17	30.18	21	85	7.0
Fri Jan 29 17:16:32 2010	Denver, Colorado 	 Clear	21	Calm		17	30.18	21	85	7.0
Fri Jan 29 18:04:56 2010	Denver, Colorado 	 Clear	33	Calm		21	30.15	34	61	10.0
Fri Jan 29 18:49:39 2010	Denver, Colorado 	 Clear	33	Calm		21	30.15	34	61	10.0
Fri Jan 29 19:42:06 2010	Denver, Colorado 	 Partly Cloudy	37	Calm		17	30.15	37	44	10.0
Fri Jan 29 20:40:04 2010	Denver, Colorado 	 Partly Cloudy	39	North	6	12	30.12	35	33	10.0
Fri Jan 29 21:24:08 2010	Denver, Colorado 	 Partly Cloudy	39	Calm		11	30.10	39	32	10.0
Fri Jan 29 22:10:09 2010	Denver, Colorado 	 Partly Cloudy	41	Calm		7	30.06	41	25	10.0
Fri Jan 29 22:56:32 2010	Denver, Colorado 	 Partly Cloudy	41	Calm		7	30.06	41	25	10.0
Fri Jan 29 23:40:28 2010	Denver, Colorado 	 Partly Cloudy	43	North	7	4	30.04	39	20	10.0
Mon Feb  1 00:07:30 2010	Denver, Colorado 	 Partly Cloudy	37	North	8	19	29.87	31	48	10.0
Mon Feb  1 00:50:43 2010	Denver, Colorado 	 Partly Cloudy	37	North	8	19	29.87	31	48	10.0
Mon Feb  1 01:35:29 2010	Denver, Colorado 	 Partly Cloudy	35	NNE	5	20	29.90	31	54	10.0
Mon Feb  1 02:20:21 2010	Denver, Colorado 	 Mostly Cloudy	32	NNW	4	19	29.93	29	59	10.0
Mon Feb  1 03:04:31 2010	Denver, Colorado 	 Mostly Cloudy	31	Calm		19	29.95	30	61	10.0
Mon Feb  1 03:48:02 2010	Denver, Colorado 	 Mostly Cloudy	31	Calm		19	29.95	30	61	10.0
Mon Feb  1 04:33:41 2010	Denver, Colorado 	 Scattered Clouds	27	South	5	18	29.96	22	69	10.0
Mon Feb  1 05:17:17 2010	Denver, Colorado 	 Partly Cloudy	25	SSW	7	18	29.95	17	75	10.0
Mon Feb  1 06:02:12 2010	Denver, Colorado 	 Scattered Clouds	26	South	8	18	29.92	18	71	10.0
Mon Feb  1 06:45:06 2010	Denver, Colorado 	 Scattered Clouds	26	South	8	18	29.92	18	71	10.0
Mon Feb  1 07:29:07 2010	Denver, Colorado 	 Clear	25	SSE	10	18	29.90	15	75	10.0
Mon Feb  1 08:12:11 2010	Denver, Colorado 	 Clear	23	South	7	16	29.90	15	74	10.0
Mon Feb  1 08:56:01 2010	Denver, Colorado 	 Clear	23	South	7	16	29.90	15	74	10.0
Mon Feb  1 09:39:03 2010	Denver, Colorado 	 Clear	23	SSE	4	15	29.88	18	72	10.0
Mon Feb  1 10:22:24 2010	Denver, Colorado 	 Clear	23	SSE	4	14	29.88	18	68	10.0
Mon Feb  1 11:05:31 2010	Denver, Colorado 	 Clear	23	SSW	8	11	29.89	14	60	10.0
Mon Feb  1 11:48:49 2010	Denver, Colorado 	 Clear	23	SSW	8	11	29.89	14	60	10.0
Mon Feb  1 12:32:22 2010	Denver, Colorado 	 Clear	24	SW	8	10	29.89	15	55	10.0
Mon Feb  1 13:15:45 2010	Denver, Colorado 	 Clear	26	SSW	5	6	29.90	20	43	10.0
Mon Feb  1 13:59:38 2010	Denver, Colorado 	 Clear	23	SSW	10	9	29.91	12	55	10.0
Mon Feb  1 14:44:08 2010	Denver, Colorado 	 Clear	23	SSW	10	9	29.91	12	55	10.0
Mon Feb  1 15:28:26 2010	Denver, Colorado 	 Partly Cloudy	24	SSW	7	8	29.92	16	51	10.0
Mon Feb  1 16:12:32 2010	Denver, Colorado 	 Partly Cloudy	29	West	6	9	29.94	23	43	10.0
Mon Feb  1 16:57:48 2010	Denver, Colorado 	 Partly Cloudy	29	West	6	9	29.94	23	43	10.0
Mon Feb  1 17:41:50 2010	Denver, Colorado 	 Partly Cloudy	35	WSW	5	7	29.93	31	31	10.0
Mon Feb  1 18:25:01 2010	Denver, Colorado 	 Partly Cloudy	39	South	9	5	29.91	33	24	10.0
Mon Feb  1 19:08:43 2010	Denver, Colorado 	 Scattered Clouds	41	WNW	8	4	29.90	36	21	10.0
Mon Feb  1 19:53:51 2010	Denver, Colorado 	 Scattered Clouds	41	WNW	8	4	29.90	36	21	10.0
Mon Feb  1 20:40:23 2010	Denver, Colorado 	 Partly Cloudy	43	North	10	5	29.89	37	21	10.0
Mon Feb  1 21:25:06 2010	Denver, Colorado 	 Partly Cloudy	44	West	6	4	29.87	41	19	10.0
Mon Feb  1 22:08:37 2010	Denver, Colorado 	 Partly Cloudy	44	North	8	5	29.87	40	20	10.0
Mon Feb  1 22:51:48 2010	Denver, Colorado 	 Partly Cloudy	44	North	8	5	29.87	40	20	10.0
Mon Feb  1 23:38:00 2010	Denver, Colorado 	 Partly Cloudy	45	NNE	9	7	29.88	40	21	10.0
Sat Jan 30 00:24:37 2010	Denver, Colorado 	 Partly Cloudy	43	NNE	6	3	30.04	40	19	10.0
Sat Jan 30 01:08:42 2010	Denver, Colorado 	 Clear	40	North	6	7	30.07	36	26	10.0
Sat Jan 30 01:52:22 2010	Denver, Colorado 	 Clear	40	North	6	7	30.07	36	26	10.0
Sat Jan 30 02:37:04 2010	Denver, Colorado 	 Clear	36	Calm		7	30.10	36	30	10.0
Sat Jan 30 03:20:43 2010	Denver, Colorado 	 Clear	32	South	4	9	30.12	29	38	10.0
Sat Jan 30 04:04:38 2010	Denver, Colorado 	 Clear	30	Calm		10	30.13	30	43	10.0
Sat Jan 30 04:48:20 2010	Denver, Colorado 	 Clear	30	Calm		10	30.13	30	43	10.0
Sat Jan 30 05:32:08 2010	Denver, Colorado 	 Clear	24	Calm		13	30.14	25	62	10.0
Sat Jan 30 06:15:48 2010	Denver, Colorado 	 Clear	27	South	5	12	30.12	22	53	10.0
Sat Jan 30 07:01:31 2010	Denver, Colorado 	 Clear	26	SSW	7	11	30.10	18	53	10.0
Sat Jan 30 07:45:03 2010	Denver, Colorado 	 Clear	26	SSW	7	11	30.10	18	53	10.0
Sat Jan 30 08:28:06 2010	Denver, Colorado 	 Clear	25	SSW	6	11	30.10	18	55	10.0
Sat Jan 30 11:57:39 2010	Denver, Colorado 	 Partly Cloudy	20	South	4	10	30.09	15	65	10.0
Sat Jan 30 12:41:29 2010	Denver, Colorado 	 Partly Cloudy	20	South	4	10	30.09	15	65	10.0
Sat Jan 30 13:24:34 2010	Denver, Colorado 	 Partly Cloudy	22	SSE	5	10	30.10	16	60	10.0
Sat Jan 30 14:08:21 2010	Denver, Colorado 	 Partly Cloudy	22	SSW	5	9	30.12	16	58	10.0
Sat Jan 30 14:52:36 2010	Denver, Colorado 	 Partly Cloudy	22	SSW	5	9	30.12	16	58	10.0
Sat Jan 30 15:37:16 2010	Denver, Colorado 	 Partly Cloudy	19	South	4	10	30.15	14	68	10.0
Sat Jan 30 16:23:31 2010	Denver, Colorado 	 Clear	23	South	7	12	30.15	15	63	10.0
Sat Jan 30 17:07:47 2010	Denver, Colorado 	 Clear	33	South	8	12	30.13	26	42	10.0
Sat Jan 30 17:51:20 2010	Denver, Colorado 	 Clear	33	South	8	12	30.13	26	42	10.0
Sat Jan 30 18:35:08 2010	Denver, Colorado 	 Clear	39	Calm		11	30.10	39	32	10.0
Sat Jan 30 19:18:25 2010	Denver, Colorado 	 Clear	44	SSW	6	11	30.06	41	26	10.0
Sat Jan 30 20:02:31 2010	Denver, Colorado 	 Clear	47	Variable	5	11	30.02	45	23	10.0
Sat Jan 30 20:45:43 2010	Denver, Colorado 	 Clear	47	Variable	5	11	30.02	45	23	10.0
Sat Jan 30 21:29:45 2010	Denver, Colorado 	 Clear	48	ESE	5	9	29.98	46	21	10.0
Sat Jan 30 22:12:43 2010	Denver, Colorado 	 Clear	50	SSE	8	9	29.97	47	19	10.0
Sat Jan 30 22:57:32 2010	Denver, Colorado 	 Partly Cloudy	51	East	4	9	29.95		18	10.0
Sat Jan 30 23:43:12 2010	Denver, Colorado 	 Partly Cloudy	51	East	4	9	29.95		18	10.0
Sun Jan 31 00:27:15 2010	Denver, Colorado 	 Clear	50	ESE	6	11	29.96	48	21	10.0
Sun Jan 31 01:17:53 2010	Denver, Colorado 	 Clear	45	South	12	17	29.96	39	33	10.0
Sun Jan 31 02:01:46 2010	Denver, Colorado 	 Clear	37	South	9	19	30.00	30	48	10.0
Sun Jan 31 02:45:25 2010	Denver, Colorado 	 Clear	37	South	9	19	30.00	30	48	10.0
Sun Jan 31 03:29:25 2010	Denver, Colorado 	 Clear	39	West	9	20	30.01	33	46	10.0
Sun Jan 31 04:12:09 2010	Denver, Colorado 	 Clear	34	West	6	20	30.01	29	56	10.0
Sun Jan 31 04:57:14 2010	Denver, Colorado 	 Clear	34	WNW	8	19	29.98	27	54	10.0
Sun Jan 31 05:43:27 2010	Denver, Colorado 	 Clear	34	WNW	8	19	29.98	27	54	10.0
Sun Jan 31 06:28:33 2010	Denver, Colorado 	 Clear	33	West	6	18	29.97	28	54	10.0
Sun Jan 31 07:11:34 2010	Denver, Colorado 	 Clear	31	West	6	18	29.95	25	59	10.0
Sun Jan 31 07:58:11 2010	Denver, Colorado 	 Clear	33	WNW	6	17	29.93	28	52	10.0
Sun Jan 31 08:42:57 2010	Denver, Colorado 	 Clear	33	WNW	6	17	29.93	28	52	10.0
Sun Jan 31 09:26:09 2010	Denver, Colorado 	 Clear	31	Calm		17	29.92	30	57	10.0
Sun Jan 31 10:09:18 2010	Denver, Colorado 	 Clear	29	Calm		18	29.91	28	64	10.0
Sun Jan 31 10:53:08 2010	Denver, Colorado 	 Clear	29	Calm		18	29.91	28	64	10.0
Sun Jan 31 11:36:30 2010	Denver, Colorado 	 Clear	25	Calm		18	29.91	25	75	10.0
Sun Jan 31 12:20:14 2010	Denver, Colorado 	 Clear	27	Calm		18	29.89	27	69	10.0
Sun Jan 31 13:03:20 2010	Denver, Colorado 	 Partly Cloudy	27	Calm		18	29.90	27	69	10.0
Sun Jan 31 13:47:20 2010	Denver, Colorado 	 Partly Cloudy	27	Calm		18	29.90	27	69	10.0
Sun Jan 31 14:30:05 2010	Denver, Colorado 	 Partly Cloudy	26	West	4	17	29.92	22	69	10.0
Sun Jan 31 15:14:03 2010	Denver, Colorado 	 Scattered Clouds	25	SW	4	17	29.92	21	72	10.0
Sun Jan 31 15:57:26 2010	Denver, Colorado 	 Clear	25	Calm		17	29.92	25	72	10.0
Sun Jan 31 16:47:14 2010	Denver, Colorado 	 Clear	25	Calm		17	29.92	25	72	10.0
Sun Jan 31 17:31:07 2010	Denver, Colorado 	 Clear	29	Calm		19	29.89	28	67	10.0
Sun Jan 31 18:15:25 2010	Denver, Colorado 	 Clear	30	North	4	18	29.90	26	61	10.0
Sun Jan 31 18:59:35 2010	Denver, Colorado 	 Partly Cloudy	34	North	8	19	29.89	27	54	10.0
Sun Jan 31 19:45:08 2010	Denver, Colorado 	 Partly Cloudy	34	North	8	19	29.89	27	54	10.0
Sun Jan 31 20:28:09 2010	Denver, Colorado 	 Partly Cloudy	35	North	6	18	29.86	30	50	10.0
Sun Jan 31 21:12:18 2010	Denver, Colorado 	 Scattered Clouds	39	Calm		18	29.83	39	43	10.0
Sun Jan 31 21:55:40 2010	Denver, Colorado 	 Scattered Clouds	39	Calm		18	29.83	39	43	10.0
Sun Jan 31 22:40:25 2010	Denver, Colorado 	 Scattered Clouds	41	North	13	17	29.83	34	38	10.0
Sun Jan 31 23:23:29 2010	Denver, Colorado 	 Scattered Clouds	39	North	10	19	29.85	32	45	10.0
Thu Feb  4 00:09:01 2010	Denver, Colorado 	 Scattered Clouds	45	ESE	14	12	29.88	38	26	10.0
Thu Feb  4 00:53:23 2010	Denver, Colorado 	 Scattered Clouds	45	ESE	14	12	29.88	38	26	10.0
Thu Feb  4 01:36:22 2010	Denver, Colorado 	 Mostly Cloudy	43	SE	9	13	29.90	38	30	10.0
Thu Feb  4 02:23:28 2010	Denver, Colorado 	 Overcast	41	SE	9	13	29.92	35	32	10.0
Thu Feb  4 03:07:25 2010	Denver, Colorado 	 Overcast	40	SSE	12	14	29.91	33	35	10.0
Thu Feb  4 03:51:55 2010	Denver, Colorado 	 Overcast	40	SSE	12	14	29.91	33	35	10.0
Thu Feb  4 04:35:07 2010	Denver, Colorado 	 Overcast	39	SSE	8	17	29.91	33	41	10.0
Thu Feb  4 05:18:16 2010	Denver, Colorado 	 Overcast	37	WSW	7	18	29.86	32	46	10.0
Thu Feb  4 06:01:27 2010	Denver, Colorado 	 Overcast	36	SSE	12	18	29.83	28	48	10.0
Thu Feb  4 06:44:27 2010	Denver, Colorado 	 Overcast	36	SSE	12	18	29.83	28	48	10.0
Thu Feb  4 07:28:01 2010	Denver, Colorado 	 Light Snow	32	SE	6	28	29.79	26	87	3.0
Thu Feb  4 08:10:41 2010	Denver, Colorado 	 Overcast	32	South	7	28	29.78	26	85	5.0
Thu Feb  4 08:54:25 2010	Denver, Colorado 	 Overcast	32	South	7	28	29.78	26	85	5.0
Thu Feb  4 09:38:09 2010	Denver, Colorado 	 Haze	32	South	6	27	29.74	26	82	5.0
Thu Feb  4 10:21:33 2010	Denver, Colorado 	 Mostly Cloudy	31	SSE	7	27	29.74	24	85	5.0
Thu Feb  4 11:07:50 2010	Denver, Colorado 	 Overcast	31	South	5	27	29.70	26	85	10.0
Thu Feb  4 11:51:23 2010	Denver, Colorado 	 Overcast	31	South	5	27	29.70	26	85	10.0
Thu Feb  4 12:34:28 2010	Denver, Colorado 	 Overcast	30	SSE	4	26	29.70	26	85	10.0
Thu Feb  4 13:17:59 2010	Denver, Colorado 	 Mostly Cloudy	28	South	5	24	29.71	23	85	10.0
Thu Feb  4 14:02:18 2010	Denver, Colorado 	 Mostly Cloudy	28	SW	5	24	29.71	23	85	10.0
Thu Feb  4 14:55:01 2010	Denver, Colorado 	 Mostly Cloudy	28	North	6	25	29.69	22	86	10.0
Thu Jan 28 15:35:09 2010	Denver, Colorado 	 Scattered Clouds	25	SW	8	18	30.28	16	75	10.0
Thu Jan 28 15:56:21 2010	Denver, Colorado 	 Scattered Clouds	25	Calm		19	30.17	25	80	0.8
Thu Jan 28 16:44:39 2010	Denver, Colorado 	 Light Freezing Fog	25	NNW	4	21	30.17	20	86	0.1
Thu Jan 28 17:09:27 2010	Denver, Colorado 	 Mostly Cloudy	27	North	5	25	30.17	21	93	2.0
Thu Jan 28 17:25:41 2010	Denver, Colorado 	 Mostly Cloudy	27	North	5	25	30.17	21	93	2.0
Tue Feb  2 00:24:54 2010	Denver, Colorado 	 Partly Cloudy	43	North	13	8	29.91	36	24	10.0
Tue Feb  2 01:10:23 2010	Denver, Colorado 	 Scattered Clouds	41	North	8	8	29.94	36	26	10.0
Tue Feb  2 01:53:49 2010	Denver, Colorado 	 Scattered Clouds	41	North	8	8	29.94	36	26	10.0
Tue Feb  2 02:37:51 2010	Denver, Colorado 	 Partly Cloudy	37	North	9	8	30.00	30	30	10.0
Tue Feb  2 03:21:02 2010	Denver, Colorado 	 Clear	32	SSE	6	10	30.04	26	40	10.0
Tue Feb  2 04:05:05 2010	Denver, Colorado 	 Clear	31	South	8	11	30.04	24	43	10.0
Tue Feb  2 04:48:40 2010	Denver, Colorado 	 Clear	31	South	8	11	30.04	24	43	10.0
Tue Feb  2 05:32:02 2010	Denver, Colorado 	 Clear	29	South	7	11	30.04	22	47	10.0
Tue Feb  2 06:15:00 2010	Denver, Colorado 	 Clear	27	South	6	11	30.04	20	51	10.0
Tue Feb  2 07:02:28 2010	Denver, Colorado 	 Clear	27	SE	10	11	30.04	17	51	10.0
Tue Feb  2 07:45:35 2010	Denver, Colorado 	 Clear	27	SE	10	11	30.04	17	51	10.0
Tue Feb  2 08:28:41 2010	Denver, Colorado 	 Clear	28	SSE	12	12	30.03	18	51	10.0
Tue Feb  2 09:12:08 2010	Denver, Colorado 	 Clear	25	SSE	8	11	30.04	16	55	10.0
Tue Feb  2 09:55:40 2010	Denver, Colorado 	 Clear	25	SSE	8	11	30.04	16	55	10.0
Tue Feb  2 10:39:17 2010	Denver, Colorado 	 Clear	24	SSE	8	10	30.04	15	55	10.0
Tue Feb  2 11:23:23 2010	Denver, Colorado 	 Clear	22	SE	9	9	30.04	12	58	10.0
Tue Feb  2 12:06:55 2010	Denver, Colorado 	 Clear	20	SE	6	8	30.06	12	60	10.0
Tue Feb  2 12:51:15 2010	Denver, Colorado 	 Clear	20	SE	6	8	30.06	12	60	10.0
Tue Feb  2 13:34:35 2010	Denver, Colorado 	 Clear	23	SSE	10	8	30.05	12	53	10.0
Tue Feb  2 14:18:06 2010	Denver, Colorado 	 Clear	27	South	13	8	30.04	16	45	10.0
Tue Feb  2 15:02:32 2010	Denver, Colorado 	 Clear	25	Variable	4	9	30.06	21	51	10.0
Tue Feb  2 15:48:56 2010	Denver, Colorado 	 Clear	25	Variable	4	9	30.06	21	51	10.0
Tue Feb  2 16:41:30 2010	Denver, Colorado 	 Clear	26	South	8	11	30.08	18	53	10.0
Tue Feb  2 17:29:11 2010	Denver, Colorado 	 Clear	33	South	8	10	30.06	26	38	10.0
Tue Feb  2 18:14:35 2010	Denver, Colorado 	 Clear	38	SSW	12	4	30.03	30	24	10.0
Tue Feb  2 18:58:37 2010	Denver, Colorado 	 Clear	43	SSW	9	3	29.99	38	19	10.0
Tue Feb  2 19:47:32 2010	Denver, Colorado 	 Clear	43	SSW	9	3	29.99	38	19	10.0
Tue Feb  2 20:39:18 2010	Denver, Colorado 	 Clear	45	Variable	4	2	29.94	44	17	10.0
Tue Feb  2 21:25:49 2010	Denver, Colorado 	 Clear	48	Variable	4	1	29.91	47	14	10.0
Tue Feb  2 22:13:33 2010	Denver, Colorado 	 Clear	49	Calm		4	29.90	48	16	10.0
Tue Feb  2 22:58:49 2010	Denver, Colorado 	 Clear	48	North	8	8	29.91	44	20	10.0
Tue Feb  2 23:43:47 2010	Denver, Colorado 	 Clear	48	North	8	8	29.91	44	20	10.0
Wed Feb  3 00:28:40 2010	Denver, Colorado 	 Clear	46	North	8	10	29.94	42	23	10.0
Wed Feb  3 01:15:37 2010	Denver, Colorado 	 Clear	40	North	7	15	29.95	35	36	10.0
Wed Feb  3 02:00:28 2010	Denver, Colorado 	 Clear	38	North	4	15	29.95	36	39	10.0
Wed Feb  3 02:49:14 2010	Denver, Colorado 	 Clear	38	North	4	15	29.95	36	39	10.0
Wed Feb  3 03:36:13 2010	Denver, Colorado 	 Clear	34	Calm		15	29.98	34	46	10.0
Wed Feb  3 04:24:14 2010	Denver, Colorado 	 Clear	33	Calm		15	29.99	34	48	10.0
Wed Feb  3 05:10:49 2010	Denver, Colorado 	 Clear	32	South	4	14	29.96	29	48	10.0
Wed Feb  3 05:58:51 2010	Denver, Colorado 	 Clear	28	South	5	15	29.96	23	58	10.0
Wed Feb  3 06:45:40 2010	Denver, Colorado 	 Clear	28	South	5	15	29.96	23	58	10.0
Wed Feb  3 07:30:16 2010	Denver, Colorado 	 Partly Cloudy	28	South	6	13	29.93	22	53	10.0
Wed Feb  3 08:13:21 2010	Denver, Colorado 	 Partly Cloudy	26	South	6	12	29.93	19	55	10.0
Wed Feb  3 08:59:44 2010	Denver, Colorado 	 Partly Cloudy	27	South	6	11	29.91	20	51	10.0
Wed Feb  3 09:43:14 2010	Denver, Colorado 	 Partly Cloudy	27	South	6	11	29.91	20	51	10.0
Wed Feb  3 10:27:12 2010	Denver, Colorado 	 Partly Cloudy	27	South	6	9	29.91	20	47	10.0
Wed Feb  3 11:13:51 2010	Denver, Colorado 	 Partly Cloudy	26	SE	5	9	29.91	20	49	10.0
Wed Feb  3 11:58:43 2010	Denver, Colorado 	 Partly Cloudy	25	South	6	8	29.92	18	49	10.0
Wed Feb  3 12:41:53 2010	Denver, Colorado 	 Partly Cloudy	25	South	6	8	29.92	18	49	10.0
Wed Feb  3 13:25:31 2010	Denver, Colorado 	 Partly Cloudy	25	Calm		8	29.96	25	49	10.0
Wed Feb  3 14:11:06 2010	Denver, Colorado 	 Clear	25	Calm		8	29.99	25	49	10.0
Wed Feb  3 14:57:08 2010	Denver, Colorado 	 Clear	25	Calm		8	29.99	25	49	10.0
Wed Feb  3 15:42:11 2010	Denver, Colorado 	 Partly Cloudy	25	SSE	5	7	30.01	19	46	10.0
Wed Feb  3 16:27:49 2010	Denver, Colorado 	 Partly Cloudy	25	Calm		12	30.01	25	58	10.0
Wed Feb  3 17:15:18 2010	Denver, Colorado 	 Partly Cloudy	34	Calm		13	29.98	34	42	10.0
Wed Feb  3 18:03:51 2010	Denver, Colorado 	 Partly Cloudy	39	Variable	4	7	29.97	37	27	10.0
Wed Feb  3 18:46:59 2010	Denver, Colorado 	 Partly Cloudy	39	Variable	4	7	29.97	37	27	10.0
Wed Feb  3 19:30:47 2010	Denver, Colorado 	 Partly Cloudy	42	Calm		5	29.97	43	22	10.0
Wed Feb  3 20:14:26 2010	Denver, Colorado 	 Partly Cloudy	46	ENE	4	8	29.95	45	21	10.0
Wed Feb  3 20:59:17 2010	Denver, Colorado 	 Partly Cloudy	47	East	14	9	29.90	41	21	10.0
Wed Feb  3 21:47:07 2010	Denver, Colorado 	 Partly Cloudy	47	East	14	9	29.90	41	21	10.0
Wed Feb  3 22:32:38 2010	Denver, Colorado 	 Partly Cloudy	47	ESE	16	11	29.87	40	23	10.0
Wed Feb  3 23:23:21 2010	Denver, Colorado 	 Partly Cloudy	48	ESE	18	11	29.86	41	22	10.0
Fri Jan 29 08:40:11 2010	Detroit, Michigan 	 Clear	8	WNW	5	-2	30.45	0	64	10.0
Fri Jan 29 09:24:03 2010	Detroit, Michigan 	 Clear	8	WNW	6	-2	30.46	-2	64	10.0
Fri Jan 29 11:56:03 2010	Detroit, Michigan 	 Clear	7	West	6	-1	30.47	-3	70	10.0
Fri Jan 29 12:40:38 2010	Detroit, Michigan 	 Clear	7	West	6	-1	30.49	-3	70	10.0
Fri Jan 29 13:27:11 2010	Detroit, Michigan 	 Clear	8	WNW	5	-1	30.48	0	67	10.0
Fri Jan 29 14:15:58 2010	Detroit, Michigan 	 Clear	8	WNW	5	-1	30.51	0	67	10.0
Fri Jan 29 15:00:41 2010	Detroit, Michigan 	 Clear	8	WNW	5	-1	30.51	0	67	10.0
Fri Jan 29 15:46:30 2010	Detroit, Michigan 	 Clear	10	WNW	6	0	30.51	0	64	10.0
Fri Jan 29 16:33:59 2010	Detroit, Michigan 	 Clear	13	WNW	10	-2	30.46	0	51	10.0
Fri Jan 29 17:18:31 2010	Detroit, Michigan 	 Clear	15	NW	8	-2	30.51	4	47	10.0
Fri Jan 29 18:06:46 2010	Detroit, Michigan 	 Clear	16	WNW	5	-2	30.52	9	45	10.0
Fri Jan 29 18:51:24 2010	Detroit, Michigan 	 Clear	16	WNW	5	-2	30.52	9	45	10.0
Fri Jan 29 19:43:52 2010	Detroit, Michigan 	 Partly Cloudy	19	NW	8	-1	30.50	9	42	10.0
Fri Jan 29 20:41:55 2010	Detroit, Michigan 	 Partly Cloudy	19	NW	5	-1	30.48	12	42	10.0
Fri Jan 29 21:25:56 2010	Detroit, Michigan 	 Clear	20	North	7	-1	30.46	11	40	10.0
Fri Jan 29 22:11:58 2010	Detroit, Michigan 	 Clear	20	NNW	5	-1	30.44	13	40	10.0
Fri Jan 29 22:58:19 2010	Detroit, Michigan 	 Clear	20	Variable	7	-1	30.44	11	40	10.0
Fri Jan 29 23:42:20 2010	Detroit, Michigan 	 Clear	20	Variable	7	-1	30.44	11	40	10.0
Mon Feb  1 00:09:19 2010	Detroit, Michigan 	 Clear	27	West	12	13	30.12	17	56	10.0
Mon Feb  1 00:52:31 2010	Detroit, Michigan 	 Clear	27	West	12	13	30.12	17	56	10.0
Mon Feb  1 01:37:15 2010	Detroit, Michigan 	 Mostly Cloudy	27	West	10	12	30.87	17	53	10.0
Mon Feb  1 02:22:08 2010	Detroit, Michigan 	 Overcast	26	WNW	14	10	30.90	14	51	10.0
Mon Feb  1 03:06:18 2010	Detroit, Michigan 	 Overcast	24	WNW	18	10	30.95	10	55	9.0
Mon Feb  1 03:49:49 2010	Detroit, Michigan 	 Overcast	24	WNW	18	10	30.95	10	55	9.0
Mon Feb  1 04:35:28 2010	Detroit, Michigan 	 Scattered Clouds	22	WNW	13	9	30.99	10	58	10.0
Mon Feb  1 05:19:04 2010	Detroit, Michigan 	 Clear	21	WNW	9	9	31.00	11	60	10.0
Mon Feb  1 06:03:59 2010	Detroit, Michigan 	 Clear	19	WNW	6	8	31.02	11	62	10.0
Mon Feb  1 06:46:52 2010	Detroit, Michigan 	 Clear	19	WNW	6	8	31.02	11	62	10.0
Mon Feb  1 07:30:56 2010	Detroit, Michigan 	 Clear	18	WNW	7	9	31.04	9	68	10.0
Mon Feb  1 08:14:06 2010	Detroit, Michigan 	 Clear	18	West	6	9	30.31	10	68	10.0
Mon Feb  1 08:57:49 2010	Detroit, Michigan 	 Clear	17	WNW	5	9	30.33	10	71	10.0
Mon Feb  1 09:40:51 2010	Detroit, Michigan 	 Clear	17	WNW	5	9	30.33	10	71	10.0
Mon Feb  1 10:24:11 2010	Detroit, Michigan 	 Clear	16	West	5	9	30.34	9	74	10.0
Mon Feb  1 11:07:22 2010	Detroit, Michigan 	 Clear	15	West	5	9	30.34	8	77	10.0
Mon Feb  1 11:50:36 2010	Detroit, Michigan 	 Clear	15	West	5	9	30.34	8	77	10.0
Mon Feb  1 12:34:05 2010	Detroit, Michigan 	 Clear	15	West	4	9	30.34	9	77	10.0
Mon Feb  1 13:17:38 2010	Detroit, Michigan 	 Clear	14	West	4	9	30.34	8	80	10.0
Mon Feb  1 14:01:25 2010	Detroit, Michigan 	 Clear	14	West	4	9	31.11	8	80	9.0
Mon Feb  1 14:45:54 2010	Detroit, Michigan 	 Clear	14	West	4	9	31.11	8	80	9.0
Mon Feb  1 15:30:14 2010	Detroit, Michigan 	 Clear	16	Calm		10	31.10	16	77	9.0
Mon Feb  1 16:14:25 2010	Detroit, Michigan 	 Clear	21	WSW	7	12	30.37	12	68	10.0
Mon Feb  1 16:59:33 2010	Detroit, Michigan 	 Clear	23	WSW	8	11	30.37	14	60	10.0
Mon Feb  1 17:43:36 2010	Detroit, Michigan 	 Clear	23	WSW	8	11	30.37	14	60	10.0
Mon Feb  1 18:26:46 2010	Detroit, Michigan 	 Mostly Cloudy	25	WSW	9	11	30.36	16	55	10.0
Mon Feb  1 19:10:38 2010	Detroit, Michigan 	 Overcast	26	WNW	7	11	30.33	18	53	10.0
Mon Feb  1 19:55:38 2010	Detroit, Michigan 	 Overcast	26	WNW	7	11	30.33	18	53	10.0
Mon Feb  1 20:42:06 2010	Detroit, Michigan 	 Partly Cloudy	27	WSW	8	12	30.30	19	53	10.0
Mon Feb  1 21:26:53 2010	Detroit, Michigan 	 Overcast	27	West	8	12	30.29	19	53	10.0
Mon Feb  1 22:10:27 2010	Detroit, Michigan 	 Overcast	27	SW	8	12	30.28	19	53	10.0
Mon Feb  1 22:53:43 2010	Detroit, Michigan 	 Overcast	27	SW	8	12	30.28	19	53	10.0
Mon Feb  1 23:39:50 2010	Detroit, Michigan 	 Overcast	27	WSW	6	13	30.29	20	56	10.0
Sat Jan 30 00:26:22 2010	Detroit, Michigan 	 Clear	18	NNE	5	0	30.45	11	45	10.0
Sat Jan 30 01:10:37 2010	Detroit, Michigan 	 Clear	17	NNE	5	0	30.45	10	47	10.0
Sat Jan 30 01:54:14 2010	Detroit, Michigan 	 Clear	17	NNE	5	0	30.45	10	47	10.0
Sat Jan 30 02:38:53 2010	Detroit, Michigan 	 Clear	16	NNE	5	1	30.42	9	52	10.0
Sat Jan 30 03:22:31 2010	Detroit, Michigan 	 Clear	14	NE	5	2	30.40	6	59	10.0
Sat Jan 30 04:06:24 2010	Detroit, Michigan 	 Clear	14	NE	5	3	30.44	6	62	10.0
Sat Jan 30 04:50:06 2010	Detroit, Michigan 	 Clear	14	NE	5	3	30.44	6	62	10.0
Sat Jan 30 05:33:54 2010	Detroit, Michigan 	 Clear	14	ENE	4	4	30.43	8	64	10.0
Sat Jan 30 06:17:40 2010	Detroit, Michigan 	 Clear	13	ENE	5	4	30.42	5	67	10.0
Sat Jan 30 07:03:17 2010	Detroit, Michigan 	 Clear	13	Calm		4	30.41	12	67	10.0
Sat Jan 30 07:46:49 2010	Detroit, Michigan 	 Clear	13	Calm		4	30.41	12	67	10.0
Sat Jan 30 08:29:51 2010	Detroit, Michigan 	 Clear	12	Calm		3	30.40	12	67	10.0
Sat Jan 30 11:59:26 2010	Detroit, Michigan 	 Clear	11	North	5	4	30.34	3	73	10.0
Sat Jan 30 12:43:14 2010	Detroit, Michigan 	 Clear	11	North	5	4	30.34	3	73	10.0
Sat Jan 30 13:26:23 2010	Detroit, Michigan 	 Clear	11	North	4	4	30.34	5	73	10.0
Sat Jan 30 14:10:21 2010	Detroit, Michigan 	 Overcast	12	North	7	4	30.34	2	70	10.0
Sat Jan 30 14:54:26 2010	Detroit, Michigan 	 Overcast	12	North	7	4	30.34	2	70	10.0
Sat Jan 30 15:39:08 2010	Detroit, Michigan 	 Overcast	14	NNE	5	5	30.34	6	67	10.0
Sat Jan 30 16:25:19 2010	Detroit, Michigan 	 Overcast	16	NE	10	8	30.34	4	71	10.0
Sat Jan 30 17:09:39 2010	Detroit, Michigan 	 Partly Cloudy	17	East	9	10	30.32	6	74	10.0
Sat Jan 30 17:53:07 2010	Detroit, Michigan 	 Partly Cloudy	17	East	9	10	30.32	6	74	10.0
Sat Jan 30 18:37:00 2010	Detroit, Michigan 	 Mostly Cloudy	18	ESE	8	7	30.26	7	63	10.0
Sat Jan 30 19:20:15 2010	Detroit, Michigan 	 Mostly Cloudy	18	NE	6	6	30.27	10	60	10.0
Sat Jan 30 20:04:20 2010	Detroit, Michigan 	 Mostly Cloudy	20	East	7	6	30.25	11	55	10.0
Sat Jan 30 20:47:29 2010	Detroit, Michigan 	 Mostly Cloudy	20	East	7	6	30.25	11	55	10.0
Sat Jan 30 21:31:27 2010	Detroit, Michigan 	 Mostly Cloudy	19	ESE	8	7	30.23	9	59	10.0
Sat Jan 30 22:14:32 2010	Detroit, Michigan 	 Scattered Clouds	18	SSE	4	7	30.24	13	62	10.0
Sat Jan 30 22:59:17 2010	Detroit, Michigan 	 Clear	18	Calm		7	30.23	18	62	10.0
Sat Jan 30 23:45:01 2010	Detroit, Michigan 	 Clear	18	Calm		7	30.23	18	62	10.0
Sun Jan 31 00:29:02 2010	Detroit, Michigan 	 Clear	17	SE	5	6	30.22	10	62	10.0
Sun Jan 31 01:19:39 2010	Detroit, Michigan 	 Clear	16	SSE	4	7	30.23	10	68	10.0
Sun Jan 31 02:03:33 2010	Detroit, Michigan 	 Clear	16	South	7	7	30.22	6	68	10.0
Sun Jan 31 02:47:10 2010	Detroit, Michigan 	 Clear	16	South	7	7	30.22	6	68	10.0
Sun Jan 31 03:31:11 2010	Detroit, Michigan 	 Clear	15	South	5	7	30.21	8	70	10.0
Sun Jan 31 04:13:55 2010	Detroit, Michigan 	 Clear	15	Calm		7	30.21	16	70	10.0
Sun Jan 31 04:59:02 2010	Detroit, Michigan 	 Clear	14	Calm		7	30.20	14	74	10.0
Sun Jan 31 05:45:15 2010	Detroit, Michigan 	 Clear	14	Calm		7	30.20	14	74	10.0
Sun Jan 31 06:30:19 2010	Detroit, Michigan 	 Clear	15	West	4	7	30.20	9	70	10.0
Sun Jan 31 07:13:23 2010	Detroit, Michigan 	 Clear	14	WSW	6	8	30.19	5	77	10.0
Sun Jan 31 07:59:58 2010	Detroit, Michigan 	 Clear	14	West	6	8	30.18	5	77	10.0
Sun Jan 31 08:44:48 2010	Detroit, Michigan 	 Clear	14	West	6	8	30.18	5	77	10.0
Sun Jan 31 09:27:54 2010	Detroit, Michigan 	 Clear	14	WSW	6	8	30.19	5	77	10.0
Sun Jan 31 10:11:05 2010	Detroit, Michigan 	 Clear	13	West	8	7	30.19	2	77	10.0
Sun Jan 31 10:54:53 2010	Detroit, Michigan 	 Clear	13	West	8	7	30.19	2	77	10.0
Sun Jan 31 11:38:21 2010	Detroit, Michigan 	 Clear	13	WSW	6	7	30.18	4	77	10.0
Sun Jan 31 12:22:00 2010	Detroit, Michigan 	 Clear	11	SW	6	7	30.18	1	84	10.0
Sun Jan 31 13:05:01 2010	Detroit, Michigan 	 Overcast	13	SW	8	8	30.19	2	81	10.0
Sun Jan 31 13:49:05 2010	Detroit, Michigan 	 Overcast	13	SW	8	8	30.19	2	81	10.0
Sun Jan 31 14:31:52 2010	Detroit, Michigan 	 Overcast	14	SW	7	8	30.20	4	77	10.0
Sun Jan 31 15:15:52 2010	Detroit, Michigan 	 Overcast	16	SW	9	8	30.19	4	71	10.0
Sun Jan 31 15:59:16 2010	Detroit, Michigan 	 Overcast	18	WSW	12	8	30.18	5	65	10.0
Sun Jan 31 16:49:03 2010	Detroit, Michigan 	 Overcast	19	WSW	12	9	30.14	7	63	10.0
Sun Jan 31 17:32:58 2010	Detroit, Michigan 	 Overcast	19	WSW	14	10	30.18	6	68	9.0
Sun Jan 31 18:17:16 2010	Detroit, Michigan 	 Overcast	21	SW	15	13	30.16	8	71	10.0
Sun Jan 31 19:01:23 2010	Detroit, Michigan 	 Overcast	22	WSW	15	13	30.14	9	68	10.0
Sun Jan 31 19:46:56 2010	Detroit, Michigan 	 Overcast	22	WSW	15	13	30.14	9	68	10.0
Sun Jan 31 20:29:54 2010	Detroit, Michigan 	 Overcast	23	WSW	15	13	30.11	10	65	10.0
Sun Jan 31 21:14:03 2010	Detroit, Michigan 	 Overcast	25	WSW	13	14	30.82	14	63	10.0
Sun Jan 31 21:57:26 2010	Detroit, Michigan 	 Overcast	25	WSW	13	14	30.07	13	64	10.0
Sun Jan 31 22:42:15 2010	Detroit, Michigan 	 Overcast	26	WSW	13	14	30.82	15	60	10.0
Sun Jan 31 23:25:25 2010	Detroit, Michigan 	 Scattered Clouds	27	WSW	16	13	30.82	15	56	10.0
Thu Feb  4 00:10:54 2010	Detroit, Michigan 	 Overcast	32	WNW	6	23	30.29	26	69	10.0
Thu Feb  4 00:55:05 2010	Detroit, Michigan 	 Overcast	32	WNW	6	23	30.29	26	69	10.0
Thu Feb  4 01:38:06 2010	Detroit, Michigan 	 Partly Cloudy	31	NNW	5	22	30.32	26	69	10.0
Thu Feb  4 02:25:15 2010	Detroit, Michigan 	 Overcast	30	NW	6	22	30.35	24	72	9.0
Thu Feb  4 03:09:09 2010	Detroit, Michigan 	 Clear	28	WNW	4	21	30.37	24	75	9.0
Thu Feb  4 03:53:40 2010	Detroit, Michigan 	 Clear	28	WNW	4	21	30.37	24	75	9.0
Thu Feb  4 04:36:51 2010	Detroit, Michigan 	 Partly Cloudy	28	Calm		21	30.38	28	75	8.0
Thu Feb  4 05:20:02 2010	Detroit, Michigan 	 Overcast	29	WNW	4	21	30.40	25	72	9.0
Thu Feb  4 06:03:09 2010	Detroit, Michigan 	 Clear	27	WNW	4	20	30.40	23	75	10.0
Thu Feb  4 06:46:10 2010	Detroit, Michigan 	 Clear	27	WNW	4	20	30.40	23	75	10.0
Thu Feb  4 07:29:50 2010	Detroit, Michigan 	 Mostly Cloudy	26	NW	4	19	30.40	22	75	8.0
Thu Feb  4 08:12:25 2010	Detroit, Michigan 	 Clear	25	NNW	4	18	30.40	21	75	9.0
Thu Feb  4 08:56:09 2010	Detroit, Michigan 	 Clear	25	NNW	4	18	30.40	21	75	9.0
Thu Feb  4 09:39:55 2010	Detroit, Michigan 	 Clear	22	Calm		17	30.40	21	82	9.0
Thu Feb  4 10:23:18 2010	Detroit, Michigan 	 Clear	21	Calm		17	30.41	21	85	8.0
Thu Feb  4 11:09:33 2010	Detroit, Michigan 	 Mostly Cloudy	20	Calm		17	30.43	19	89	7.0
Thu Feb  4 11:53:06 2010	Detroit, Michigan 	 Scattered Clouds	19	Calm		16	30.42	19	86	7.0
Thu Feb  4 12:36:15 2010	Detroit, Michigan 	 Clear	21	Calm		17	30.45	21	85	7.0
Thu Feb  4 13:19:45 2010	Detroit, Michigan 	 Clear	20	Calm		16	30.44	19	85	6.0
Thu Feb  4 14:04:05 2010	Detroit, Michigan 	 Clear	19	Calm		16	30.47	19	88	5.0
Thu Feb  4 14:56:45 2010	Detroit, Michigan 	 Clear	19	Calm		16	30.47	19	88	5.0
Thu Jan 28 15:37:00 2010	Detroit, Michigan 	 Light Snow	16	NW	16	6	30.88	1	65	5.0
Thu Jan 28 15:58:10 2010	Detroit, Michigan 	 Light Snow	13	NW	14	8	30.20	-2	81	0.8
Thu Jan 28 16:46:27 2010	Detroit, Michigan 	 Mostly Cloudy	14	NW	18	1	30.19	-3	57	8.0
Thu Jan 28 17:11:22 2010	Detroit, Michigan 	 Mostly Cloudy	14	NW	18	1	30.19	-3	57	8.0
Thu Jan 28 17:27:35 2010	Detroit, Michigan 	 Mostly Cloudy	14	NW	18	1	30.19	-3	57	8.0
Tue Feb  2 00:26:44 2010	Detroit, Michigan 	 Overcast	26	SW	8	13	30.29	18	58	10.0
Tue Feb  2 01:12:16 2010	Detroit, Michigan 	 Overcast	25	SW	7	15	31.03	17	66	10.0
Tue Feb  2 01:55:37 2010	Detroit, Michigan 	 Overcast	25	SW	7	15	31.03	17	66	10.0
Tue Feb  2 02:39:39 2010	Detroit, Michigan 	 Overcast	25	SW	4	15	31.02	21	66	10.0
Tue Feb  2 03:22:49 2010	Detroit, Michigan 	 Mostly Cloudy	23	SW	4	15	31.01	18	72	10.0
Tue Feb  2 04:06:52 2010	Detroit, Michigan 	 Overcast	23	SW	4	16	30.26	18	74	10.0
Tue Feb  2 04:50:29 2010	Detroit, Michigan 	 Overcast	23	SW	4	16	30.26	18	74	10.0
Tue Feb  2 05:33:50 2010	Detroit, Michigan 	 Overcast	23	Calm		16	30.25	23	74	10.0
Tue Feb  2 06:16:48 2010	Detroit, Michigan 	 Overcast	21	Calm		15	30.25	21	78	10.0
Tue Feb  2 07:04:16 2010	Detroit, Michigan 	 Partly Cloudy	20	Calm		15	30.24	19	81	10.0
Tue Feb  2 07:47:22 2010	Detroit, Michigan 	 Partly Cloudy	20	Calm		15	30.24	19	81	10.0
Tue Feb  2 08:30:27 2010	Detroit, Michigan 	 Scattered Clouds	19	Calm		15	30.24	19	85	9.0
Tue Feb  2 09:13:56 2010	Detroit, Michigan 	 Overcast	20	ENE	4	16	30.22	15	85	9.0
Tue Feb  2 09:57:27 2010	Detroit, Michigan 	 Overcast	21	ENE	4	16	30.21	16	81	9.0
Tue Feb  2 10:41:05 2010	Detroit, Michigan 	 Overcast	21	ENE	4	16	30.21	16	81	9.0
Tue Feb  2 11:25:10 2010	Detroit, Michigan 	 Overcast	22	Calm		17	30.22	21	82	9.0
Tue Feb  2 12:08:44 2010	Detroit, Michigan 	 Overcast	23	SE	4	18	30.21	18	81	8.0
Tue Feb  2 12:53:03 2010	Detroit, Michigan 	 Overcast	23	SE	4	18	30.21	18	81	8.0
Tue Feb  2 13:36:22 2010	Detroit, Michigan 	 Overcast	23	SE	4	18	30.21	18	81	8.0
Tue Feb  2 14:19:52 2010	Detroit, Michigan 	 Overcast	24	ESE	5	18	30.19	18	77	10.0
Tue Feb  2 15:04:22 2010	Detroit, Michigan 	 Overcast	24	ESE	7	20	30.17	16	84	4.0
Tue Feb  2 15:50:41 2010	Detroit, Michigan 	 Overcast	24	ESE	7	20	30.17	16	84	4.0
Tue Feb  2 16:43:21 2010	Detroit, Michigan 	 Light Snow	25	SE	7	21	30.17	17	85	3.0
Tue Feb  2 17:30:55 2010	Detroit, Michigan 	 Light Snow	27	ESE	7	21	30.12	19	80	2.0
Tue Feb  2 18:16:21 2010	Detroit, Michigan 	 Light Snow	27	ESE	7	23	30.12	20	85	3.0
Tue Feb  2 19:00:23 2010	Detroit, Michigan 	 Overcast	28	ESE	6	24	30.09	22	85	5.0
Tue Feb  2 19:49:28 2010	Detroit, Michigan 	 Haze	28	East	7	23	30.04	21	80	5.0
Tue Feb  2 20:41:03 2010	Detroit, Michigan 	 Light Snow	28	East	6	25	30.03	22	86	1.0
Tue Feb  2 21:27:37 2010	Detroit, Michigan 	 Light Snow	28	East	8	25	30.02	20	86	1.5
Tue Feb  2 22:15:19 2010	Detroit, Michigan 	 Light Snow	28	ESE	8	27	30.02	20	93	1.2
Tue Feb  2 23:00:34 2010	Detroit, Michigan 	 Light Snow	28	ESE	9	26	30.06	19	92	1.2
Tue Feb  2 23:45:33 2010	Detroit, Michigan 	 Mostly Cloudy	27	ESE	9	25	30.01	18	93	2.5
Wed Feb  3 00:30:27 2010	Detroit, Michigan 	 Light Snow	27	SE	7	25	30.01	19	93	2.5
Wed Feb  3 01:17:29 2010	Detroit, Michigan 	 Light Snow	27	SE	6	25	30.04	20	92	2.5
Wed Feb  3 02:02:16 2010	Detroit, Michigan 	 Light Snow	27	SE	6	25	30.05	20	92	2.0
Wed Feb  3 02:51:00 2010	Detroit, Michigan 	 Overcast	27	SSE	4	25	30.02	23	93	4.0
Wed Feb  3 03:37:57 2010	Detroit, Michigan 	 Overcast	27	SSE	6	25	30.05	20	92	4.0
Wed Feb  3 04:26:04 2010	Detroit, Michigan 	 Light Snow	27	Calm		26	30.05	27	96	2.5
Wed Feb  3 05:12:31 2010	Detroit, Michigan 	 Light Snow	27	SSW	4	25	30.05	23	92	3.0
Wed Feb  3 06:00:37 2010	Detroit, Michigan 	 Light Snow	27	Calm		25	30.05	27	92	3.0
Wed Feb  3 06:47:25 2010	Detroit, Michigan 	 Light Snow	27	Calm		25	30.02	27	93	2.5
Wed Feb  3 07:32:01 2010	Detroit, Michigan 	 Overcast	27	Calm		25	30.03	27	93	3.0
Wed Feb  3 08:15:06 2010	Detroit, Michigan 	 Clear	28	West	4	25	30.05	24	88	4.0
Wed Feb  3 09:01:33 2010	Detroit, Michigan 	 Mostly Cloudy	28	WSW	4	25	30.06	24	88	4.0
Wed Feb  3 09:44:56 2010	Detroit, Michigan 	 Mostly Cloudy	28	WSW	4	25	30.06	24	88	4.0
Wed Feb  3 10:28:56 2010	Detroit, Michigan 	 Overcast	28	WSW	4	25	30.07	24	88	4.0
Wed Feb  3 11:15:42 2010	Detroit, Michigan 	 Mostly Cloudy	28	West	4	26	30.09	24	92	4.0
Wed Feb  3 12:00:31 2010	Detroit, Michigan 	 Light Snow	28	West	4	26	30.11	24	92	2.5
Wed Feb  3 12:43:39 2010	Detroit, Michigan 	 Light Snow	28	West	4	27	30.09	25	93	2.0
Wed Feb  3 13:27:20 2010	Detroit, Michigan 	 Mostly Cloudy	29	West	4	27	30.12	25	92	3.0
Wed Feb  3 14:12:59 2010	Detroit, Michigan 	 Mostly Cloudy	29	West	5	27	30.14	24	92	3.0
Wed Feb  3 14:58:50 2010	Detroit, Michigan 	 Mostly Cloudy	30	NNW	7	26	30.16	23	85	3.0
Wed Feb  3 15:43:57 2010	Detroit, Michigan 	 Mostly Cloudy	30	NNW	7	26	30.16	23	85	3.0
Wed Feb  3 16:29:36 2010	Detroit, Michigan 	 Overcast	29	NW	8	23	30.19	21	78	8.0
Wed Feb  3 17:17:03 2010	Detroit, Michigan 	 Overcast	30	Variable	5	23	30.21	25	75	8.0
Wed Feb  3 18:05:38 2010	Detroit, Michigan 	 Overcast	31	NW	4	23	30.22	28	72	7.0
Wed Feb  3 18:48:41 2010	Detroit, Michigan 	 Scattered Clouds	32	WNW	5	25	30.20	28	75	9.0
Wed Feb  3 19:32:33 2010	Detroit, Michigan 	 Partly Cloudy	32	WNW	8	23	30.22	25	69	10.0
Wed Feb  3 20:16:18 2010	Detroit, Michigan 	 Overcast	33	WNW	7	23	30.22	27	66	10.0
Wed Feb  3 21:01:05 2010	Detroit, Michigan 	 Overcast	34	WNW	9	23	30.22	27	64	10.0
Wed Feb  3 21:48:51 2010	Detroit, Michigan 	 Overcast	34	WNW	9	23	30.22	27	64	10.0
Wed Feb  3 22:34:22 2010	Detroit, Michigan 	 Overcast	33	WNW	5	23	30.23	29	66	10.0
Wed Feb  3 23:25:12 2010	Detroit, Michigan 	 Overcast	32	NW	7	23	30.26	26	69	10.0
Fri Jan 29 08:38:30 2010	El Paso, Texas 	 Light Snow	30	North	12	27	30.10	21	86	4.0
Fri Jan 29 09:22:28 2010	El Paso, Texas 	 Light Snow	30	North	10	28	30.10	21	92	4.0
Fri Jan 29 11:54:27 2010	El Paso, Texas 	 Overcast	30	North	10	26	30.11	21	85	7.0
Fri Jan 29 12:39:03 2010	El Paso, Texas 	 Overcast	30	North	10	26	30.11	21	85	7.0
Fri Jan 29 13:25:34 2010	El Paso, Texas 	 Overcast	30	North	9	26	30.12	22	85	10.0
Fri Jan 29 14:14:18 2010	El Paso, Texas 	 Overcast	30	NNE	10	25	30.11	21	82	10.0
Fri Jan 29 14:58:58 2010	El Paso, Texas 	 Overcast	30	NNE	10	25	30.11	21	82	10.0
Fri Jan 29 15:45:00 2010	El Paso, Texas 	 Overcast	30	North	7	25	30.13	23	82	10.0
Fri Jan 29 16:32:08 2010	El Paso, Texas 	 Mostly Cloudy	31	Calm		24	30.15	30	76	10.0
Fri Jan 29 17:16:52 2010	El Paso, Texas 	 Mostly Cloudy	32	NNE	4	24	30.17	29	73	10.0
Fri Jan 29 18:05:09 2010	El Paso, Texas 	 Scattered Clouds	35	North	6	27	30.15	30	72	10.0
Fri Jan 29 18:49:52 2010	El Paso, Texas 	 Scattered Clouds	35	North	6	27	30.15	30	72	10.0
Fri Jan 29 19:42:19 2010	El Paso, Texas 	 Partly Cloudy	37	North	7	28	30.16	32	70	10.0
Fri Jan 29 20:40:20 2010	El Paso, Texas 	 Partly Cloudy	40	North	8	29	30.13	34	65	10.0
Fri Jan 29 21:24:18 2010	El Paso, Texas 	 Partly Cloudy	42	North	7	31	30.09	38	65	10.0
Fri Jan 29 22:10:23 2010	El Paso, Texas 	 Partly Cloudy	43	NW	5	31	30.06	40	62	10.0
Fri Jan 29 22:56:45 2010	El Paso, Texas 	 Partly Cloudy	46	Calm		31	30.05	46	56	10.0
Fri Jan 29 23:40:45 2010	El Paso, Texas 	 Partly Cloudy	46	Calm		31	30.05	46	56	10.0
Mon Feb  1 00:07:43 2010	El Paso, Texas 	 Overcast	57	South	4	34	29.82		42	10.0
Mon Feb  1 00:50:54 2010	El Paso, Texas 	 Overcast	57	South	4	34	29.82		42	10.0
Mon Feb  1 01:35:42 2010	El Paso, Texas 	 Mostly Cloudy	56	WSW	4	34	29.82		44	10.0
Mon Feb  1 02:20:34 2010	El Paso, Texas 	 Mostly Cloudy	55	North	4	36	29.84		49	10.0
Mon Feb  1 03:04:44 2010	El Paso, Texas 	 Mostly Cloudy	52	Calm		37	29.86		57	10.0
Mon Feb  1 03:48:15 2010	El Paso, Texas 	 Mostly Cloudy	52	Calm		37	29.86		57	10.0
Mon Feb  1 04:33:55 2010	El Paso, Texas 	 Scattered Clouds	49	Calm		37	29.88	48	64	10.0
Mon Feb  1 05:17:30 2010	El Paso, Texas 	 Scattered Clouds	50	Calm		35	29.88	50	57	10.0
Mon Feb  1 06:02:25 2010	El Paso, Texas 	 Scattered Clouds	49	WSW	5	36	29.88	47	61	10.0
Mon Feb  1 06:45:19 2010	El Paso, Texas 	 Scattered Clouds	49	WSW	5	36	29.88	47	61	10.0
Mon Feb  1 07:29:20 2010	El Paso, Texas 	 Partly Cloudy	48	SSW	7	36	29.88	45	63	10.0
Mon Feb  1 08:12:26 2010	El Paso, Texas 	 Partly Cloudy	47	WSW	7	36	29.86	44	66	10.0
Mon Feb  1 08:56:14 2010	El Paso, Texas 	 Partly Cloudy	47	SSW	6	37	29.86	44	68	10.0
Mon Feb  1 09:39:16 2010	El Paso, Texas 	 Partly Cloudy	47	SSW	6	37	29.86	44	68	10.0
Mon Feb  1 10:22:37 2010	El Paso, Texas 	 Mostly Cloudy	45	South	6	37	29.87	42	74	10.0
Mon Feb  1 11:05:44 2010	El Paso, Texas 	 Mostly Cloudy	46	Calm		37	29.86	46	71	10.0
Mon Feb  1 11:49:02 2010	El Paso, Texas 	 Mostly Cloudy	46	Calm		37	29.86	46	71	10.0
Mon Feb  1 12:32:35 2010	El Paso, Texas 	 Mostly Cloudy	44	Calm		38	29.87	45	79	10.0
Mon Feb  1 13:15:58 2010	El Paso, Texas 	 Mostly Cloudy	43	Calm		37	29.88	43	80	10.0
Mon Feb  1 13:59:51 2010	El Paso, Texas 	 Mostly Cloudy	42	Calm		37	29.89	43	82	10.0
Mon Feb  1 14:44:21 2010	El Paso, Texas 	 Mostly Cloudy	42	Calm		37	29.89	43	82	10.0
Mon Feb  1 15:28:39 2010	El Paso, Texas 	 Overcast	41	SSE	6	37	29.91	37	86	10.0
Mon Feb  1 16:12:49 2010	El Paso, Texas 	 Mostly Cloudy	45	ESE	4	39	29.93	44	80	10.0
Mon Feb  1 16:58:01 2010	El Paso, Texas 	 Mostly Cloudy	48	Calm		39	29.93	48	71	10.0
Mon Feb  1 17:42:03 2010	El Paso, Texas 	 Mostly Cloudy	48	Calm		39	29.93	48	71	10.0
Mon Feb  1 18:25:14 2010	El Paso, Texas 	 Mostly Cloudy	51	ESE	5	40	29.94		66	10.0
Mon Feb  1 19:08:56 2010	El Paso, Texas 	 Scattered Clouds	56	Calm		38	29.91		51	10.0
Mon Feb  1 19:54:04 2010	El Paso, Texas 	 Scattered Clouds	56	Calm		38	29.91		51	10.0
Mon Feb  1 20:40:34 2010	El Paso, Texas 	 Scattered Clouds	60	WNW	13	29	29.87		31	10.0
Mon Feb  1 21:25:20 2010	El Paso, Texas 	 Scattered Clouds	60	West	13	32	29.84		35	10.0
Mon Feb  1 22:08:51 2010	El Paso, Texas 	 Scattered Clouds	60	Calm		34	29.83		38	10.0
Mon Feb  1 22:52:02 2010	El Paso, Texas 	 Scattered Clouds	60	Calm		34	29.83		38	10.0
Mon Feb  1 23:38:12 2010	El Paso, Texas 	 Mostly Cloudy	62	West	9	31	29.80		31	10.0
Sat Jan 30 00:24:50 2010	El Paso, Texas 	 Partly Cloudy	47	North	5	30	30.05	45	52	10.0
Sat Jan 30 01:08:55 2010	El Paso, Texas 	 Partly Cloudy	47	North	4	31	30.06	46	54	10.0
Sat Jan 30 01:52:35 2010	El Paso, Texas 	 Partly Cloudy	47	North	4	31	30.06	46	54	10.0
Sat Jan 30 02:37:18 2010	El Paso, Texas 	 Partly Cloudy	44	WSW	7	32	30.07	40	63	10.0
Sat Jan 30 03:20:56 2010	El Paso, Texas 	 Clear	44	West	5	32	30.08	42	63	10.0
Sat Jan 30 04:04:51 2010	El Paso, Texas 	 Clear	41	NE	8	31	30.10	36	67	10.0
Sat Jan 30 04:48:31 2010	El Paso, Texas 	 Clear	41	NE	8	31	30.10	36	67	10.0
Sat Jan 30 05:32:21 2010	El Paso, Texas 	 Clear	38	NE	4	30	30.11	36	73	10.0
Sat Jan 30 06:16:01 2010	El Paso, Texas 	 Clear	38	North	6	31	30.09	34	76	10.0
Sat Jan 30 07:01:44 2010	El Paso, Texas 	 Clear	37	North	6	30	30.10	32	76	10.0
Sat Jan 30 07:45:14 2010	El Paso, Texas 	 Clear	37	North	6	30	30.10	32	76	10.0
Sat Jan 30 08:28:17 2010	El Paso, Texas 	 Partly Cloudy	36	Calm		30	30.09	36	79	10.0
Sat Jan 30 11:57:52 2010	El Paso, Texas 	 Clear	30	Calm		28	30.07	30	92	10.0
Sat Jan 30 12:41:42 2010	El Paso, Texas 	 Clear	30	Calm		28	30.07	30	92	10.0
Sat Jan 30 13:24:52 2010	El Paso, Texas 	 Clear	31	NNE	4	27	30.07	28	85	10.0
Sat Jan 30 14:08:34 2010	El Paso, Texas 	 Clear	30	North	6	27	30.09	24	88	10.0
Sat Jan 30 14:52:49 2010	El Paso, Texas 	 Clear	30	North	6	27	30.09	24	88	10.0
Sat Jan 30 15:37:30 2010	El Paso, Texas 	 Clear	30	North	7	27	30.09	23	88	10.0
Sat Jan 30 16:23:44 2010	El Paso, Texas 	 Clear	33	NE	6	28	30.12	28	82	10.0
Sat Jan 30 17:08:03 2010	El Paso, Texas 	 Clear	36	NNE	6	30	30.13	31	79	10.0
Sat Jan 30 17:51:33 2010	El Paso, Texas 	 Clear	36	NNE	6	30	30.13	31	79	10.0
Sat Jan 30 18:35:21 2010	El Paso, Texas 	 Partly Cloudy	40	Calm		31	30.13	39	70	10.0
Sat Jan 30 19:18:38 2010	El Paso, Texas 	 Partly Cloudy	44	Variable	5	32	30.11	42	63	10.0
Sat Jan 30 20:02:44 2010	El Paso, Texas 	 Scattered Clouds	47	Calm		31	30.07	46	54	10.0
Sat Jan 30 20:45:56 2010	El Paso, Texas 	 Scattered Clouds	47	Calm		31	30.07	46	54	10.0
Sat Jan 30 21:29:55 2010	El Paso, Texas 	 Scattered Clouds	50	NNE	6	31	30.03	48	48	10.0
Sat Jan 30 22:12:57 2010	El Paso, Texas 	 Mostly Cloudy	51	Variable	7	31	30.01		46	10.0
Sat Jan 30 22:57:45 2010	El Paso, Texas 	 Mostly Cloudy	52	NNE	4	31	30.00		45	10.0
Sat Jan 30 23:43:25 2010	El Paso, Texas 	 Mostly Cloudy	52	NNE	4	31	30.00		45	10.0
Sun Jan 31 00:27:28 2010	El Paso, Texas 	 Overcast	52	Calm		30	29.99		43	10.0
Sun Jan 31 01:18:06 2010	El Paso, Texas 	 Overcast	52	Calm		30	29.99		43	10.0
Sun Jan 31 02:01:59 2010	El Paso, Texas 	 Overcast	50	North	6	33	29.99	48	52	10.0
Sun Jan 31 02:45:38 2010	El Paso, Texas 	 Overcast	50	North	6	33	29.99	48	52	10.0
Sun Jan 31 03:29:38 2010	El Paso, Texas 	 Mostly Cloudy	47	North	7	33	30.00	44	59	10.0
Sun Jan 31 04:12:21 2010	El Paso, Texas 	 Mostly Cloudy	44	NNE	4	34	30.00	42	68	10.0
Sun Jan 31 04:57:27 2010	El Paso, Texas 	 Scattered Clouds	43	NE	7	32	30.00	39	65	10.0
Sun Jan 31 05:43:41 2010	El Paso, Texas 	 Scattered Clouds	43	NE	7	32	30.00	39	65	10.0
Sun Jan 31 06:28:46 2010	El Paso, Texas 	 Mostly Cloudy	41	NNW	6	33	30.00	37	73	10.0
Sun Jan 31 07:11:47 2010	El Paso, Texas 	 Mostly Cloudy	42	North	5	33	29.99	39	70	10.0
Sun Jan 31 07:58:24 2010	El Paso, Texas 	 Overcast	42	NE	5	33	29.98	39	70	10.0
Sun Jan 31 08:43:10 2010	El Paso, Texas 	 Overcast	42	NE	5	33	29.98	39	70	10.0
Sun Jan 31 09:26:22 2010	El Paso, Texas 	 Overcast	41	NNE	7	33	29.96	36	73	10.0
Sun Jan 31 10:09:31 2010	El Paso, Texas 	 Overcast	39	North	7	33	29.96	34	79	10.0
Sun Jan 31 10:53:19 2010	El Paso, Texas 	 Overcast	39	North	7	33	29.96	34	79	10.0
Sun Jan 31 11:36:43 2010	El Paso, Texas 	 Mostly Cloudy	39	NNE	6	33	29.95	35	79	10.0
Sun Jan 31 12:20:27 2010	El Paso, Texas 	 Overcast	39	North	5	33	29.94	36	79	10.0
Sun Jan 31 13:03:30 2010	El Paso, Texas 	 Overcast	39	North	6	33	29.93	35	79	10.0
Sun Jan 31 13:47:33 2010	El Paso, Texas 	 Overcast	39	North	6	33	29.93	35	79	10.0
Sun Jan 31 14:30:17 2010	El Paso, Texas 	 Overcast	39	NNE	6	33	29.94	35	79	10.0
Sun Jan 31 15:14:16 2010	El Paso, Texas 	 Overcast	39	NNE	6	33	29.96	35	79	10.0
Sun Jan 31 15:57:39 2010	El Paso, Texas 	 Overcast	39	NNE	6	34	29.97	35	82	10.0
Sun Jan 31 16:47:27 2010	El Paso, Texas 	 Overcast	39	NNE	6	34	29.97	35	82	10.0
Sun Jan 31 17:31:20 2010	El Paso, Texas 	 Overcast	41	North	6	34	29.97	37	76	10.0
Sun Jan 31 18:15:40 2010	El Paso, Texas 	 Overcast	44	NNW	4	35	29.97	42	71	10.0
Sun Jan 31 18:59:47 2010	El Paso, Texas 	 Mostly Cloudy	48	Calm		34	29.95	48	58	10.0
Sun Jan 31 19:45:21 2010	El Paso, Texas 	 Mostly Cloudy	48	Calm		34	29.95	48	58	10.0
Sun Jan 31 20:28:22 2010	El Paso, Texas 	 Mostly Cloudy	52	Calm		34	29.90		50	10.0
Sun Jan 31 21:12:31 2010	El Paso, Texas 	 Mostly Cloudy	54	Variable	4	33	29.86		45	10.0
Sun Jan 31 21:55:53 2010	El Paso, Texas 	 Mostly Cloudy	55	WSW	4	32	29.84		42	10.0
Sun Jan 31 22:40:38 2010	El Paso, Texas 	 Mostly Cloudy	55	WSW	4	32	29.84		42	10.0
Sun Jan 31 23:23:42 2010	El Paso, Texas 	 Mostly Cloudy	57	Calm		33	29.82		40	10.0
Thu Feb  4 00:09:15 2010	El Paso, Texas 	 Overcast	45	North	14	41	29.62	38	86	10.0
Thu Feb  4 00:53:36 2010	El Paso, Texas 	 Overcast	45	North	14	41	29.62	38	86	10.0
Thu Feb  4 01:36:35 2010	El Paso, Texas 	 Mostly Cloudy	45	NNW	9	41	29.65	40	86	10.0
Thu Feb  4 02:23:41 2010	El Paso, Texas 	 Light Rain	45	North	10	41	29.66	40	86	7.0
Thu Feb  4 03:07:38 2010	El Paso, Texas 	 Overcast	44	North	8	42	29.69	40	93	10.0
Thu Feb  4 03:52:08 2010	El Paso, Texas 	 Overcast	44	North	8	42	29.69	40	93	10.0
Thu Feb  4 04:35:20 2010	El Paso, Texas 	 Overcast	45	Calm		41	29.79	45	87	10.0
Thu Feb  4 05:18:29 2010	El Paso, Texas 	 Overcast	44	Calm		41	29.73	45	89	10.0
Thu Feb  4 06:01:39 2010	El Paso, Texas 	 Overcast	44	Calm		40	29.73	45	85	10.0
Thu Feb  4 06:44:40 2010	El Paso, Texas 	 Overcast	45	Calm		41	29.80	45	87	10.0
Thu Feb  4 07:28:14 2010	El Paso, Texas 	 Overcast	44	SW	5	41	29.73	42	89	10.0
Thu Feb  4 08:10:54 2010	El Paso, Texas 	 Overcast	43	South	8	41	29.74	38	93	10.0
Thu Feb  4 08:54:38 2010	El Paso, Texas 	 Light Rain	43	South	5	40	29.75	40	89	10.0
Thu Feb  4 09:38:22 2010	El Paso, Texas 	 Light Rain	43	South	5	40	29.75	40	89	10.0
Thu Feb  4 10:21:46 2010	El Paso, Texas 	 Light Rain	43	South	4	41	29.74	41	93	10.0
Thu Feb  4 11:08:02 2010	El Paso, Texas 	 Overcast	44	WSW	7	40	29.75	40	85	10.0
Thu Feb  4 11:51:36 2010	El Paso, Texas 	 Overcast	45	SW	6	39	29.81	41	81	10.0
Thu Feb  4 12:34:41 2010	El Paso, Texas 	 Overcast	44	Calm		41	29.75	45	89	10.0
Thu Feb  4 13:18:10 2010	El Paso, Texas 	 Overcast	45	SSW	5	39	29.82	42	81	10.0
Thu Feb  4 14:02:30 2010	El Paso, Texas 	 Overcast	43	SSW	4	41	29.77	41	93	10.0
Thu Feb  4 14:55:14 2010	El Paso, Texas 	 Overcast	43	SSE	4	40	29.79	41	89	10.0
Thu Jan 28 15:35:22 2010	El Paso, Texas 	 Overcast	45	North	4	42	29.81	44	90	10.0
Thu Jan 28 15:56:33 2010	El Paso, Texas 	 Overcast	45	North	5	43	29.83	43	93	10.0
Thu Jan 28 16:44:52 2010	El Paso, Texas 	 Light Rain	46	NNW	6	43	29.94	44	87	10.0
Thu Jan 28 17:09:40 2010	El Paso, Texas 	 Light Rain	46	NNW	7	43	29.87	42	89	8.0
Thu Jan 28 17:25:54 2010	El Paso, Texas 	 Light Rain	45	NNW	12	43	29.95	39	93	8.0
Tue Feb  2 00:25:07 2010	El Paso, Texas 	 Mostly Cloudy	61	West	8	30	29.81		31	10.0
Tue Feb  2 01:10:36 2010	El Paso, Texas 	 Mostly Cloudy	60	WNW	10	30	29.83		32	10.0
Tue Feb  2 01:54:03 2010	El Paso, Texas 	 Mostly Cloudy	60	WNW	10	30	29.83		32	10.0
Tue Feb  2 02:38:04 2010	El Paso, Texas 	 Overcast	58	WNW	10	32	29.85		37	10.0
Tue Feb  2 03:21:16 2010	El Paso, Texas 	 Overcast	57	WNW	5	32	29.87		39	10.0
Tue Feb  2 04:05:18 2010	El Paso, Texas 	 Overcast	54	North	6	34	29.87		47	10.0
Tue Feb  2 04:48:54 2010	El Paso, Texas 	 Overcast	54	North	6	34	29.87		47	10.0
Tue Feb  2 05:32:15 2010	El Paso, Texas 	 Mostly Cloudy	53	NNW	4	33	29.87		47	10.0
Tue Feb  2 06:15:13 2010	El Paso, Texas 	 Overcast	46	NE	5	35	29.88	44	66	10.0
Tue Feb  2 07:02:42 2010	El Paso, Texas 	 Overcast	46	Calm		35	29.89	46	66	10.0
Tue Feb  2 07:45:48 2010	El Paso, Texas 	 Overcast	46	Calm		35	29.89	46	66	10.0
Tue Feb  2 08:28:53 2010	El Paso, Texas 	 Mostly Cloudy	44	East	5	34	29.89	42	68	10.0
Tue Feb  2 09:12:21 2010	El Paso, Texas 	 Mostly Cloudy	45	NE	4	33	29.88	44	63	10.0
Tue Feb  2 09:55:53 2010	El Paso, Texas 	 Mostly Cloudy	44	Calm		33	29.89	45	65	10.0
Tue Feb  2 10:39:30 2010	El Paso, Texas 	 Mostly Cloudy	44	Calm		33	29.89	45	65	10.0
Tue Feb  2 11:23:36 2010	El Paso, Texas 	 Mostly Cloudy	42	North	8	33	29.89	37	70	10.0
Tue Feb  2 12:07:08 2010	El Paso, Texas 	 Mostly Cloudy	42	North	9	33	29.90	37	70	10.0
Tue Feb  2 12:51:28 2010	El Paso, Texas 	 Mostly Cloudy	42	North	9	33	29.90	37	70	10.0
Tue Feb  2 13:34:48 2010	El Paso, Texas 	 Mostly Cloudy	41	North	8	33	29.91	36	73	10.0
Tue Feb  2 14:18:17 2010	El Paso, Texas 	 Mostly Cloudy	41	North	10	31	29.93	35	67	10.0
Tue Feb  2 15:02:45 2010	El Paso, Texas 	 Mostly Cloudy	41	North	10	30	29.94	35	65	10.0
Tue Feb  2 15:49:09 2010	El Paso, Texas 	 Mostly Cloudy	41	North	10	30	29.94	35	65	10.0
Tue Feb  2 16:41:44 2010	El Paso, Texas 	 Scattered Clouds	44	North	10	29	29.94	39	55	10.0
Tue Feb  2 17:29:24 2010	El Paso, Texas 	 Scattered Clouds	49	North	10	29	29.95	45	46	10.0
Tue Feb  2 18:14:48 2010	El Paso, Texas 	 Scattered Clouds	52	North	6	30	30.04		44	10.0
Tue Feb  2 18:58:48 2010	El Paso, Texas 	 Mostly Cloudy	55	NNE	7	31	29.94		40	10.0
Tue Feb  2 19:47:46 2010	El Paso, Texas 	 Mostly Cloudy	55	NNE	7	31	29.94		40	10.0
Tue Feb  2 20:39:30 2010	El Paso, Texas 	 Mostly Cloudy	59	NNE	9	30	29.89		33	10.0
Tue Feb  2 21:26:03 2010	El Paso, Texas 	 Mostly Cloudy	61	ESE	12	30	29.84		31	10.0
Tue Feb  2 22:13:46 2010	El Paso, Texas 	 Mostly Cloudy	62	East	10	30	29.82		30	10.0
Tue Feb  2 22:59:01 2010	El Paso, Texas 	 Mostly Cloudy	63	East	13	31	29.80		30	10.0
Tue Feb  2 23:43:59 2010	El Paso, Texas 	 Mostly Cloudy	63	East	13	31	29.80		30	10.0
Wed Feb  3 00:28:53 2010	El Paso, Texas 	 Mostly Cloudy	63	ESE	9	32	29.78		31	10.0
Wed Feb  3 01:15:50 2010	El Paso, Texas 	 Mostly Cloudy	61	East	13	33	29.78		35	10.0
Wed Feb  3 02:00:42 2010	El Paso, Texas 	 Overcast	57	ENE	10	34	29.80		42	10.0
Wed Feb  3 02:49:27 2010	El Paso, Texas 	 Overcast	57	ENE	10	34	29.80		42	10.0
Wed Feb  3 03:36:25 2010	El Paso, Texas 	 Overcast	54	ENE	9	34	29.80		47	10.0
Wed Feb  3 04:24:27 2010	El Paso, Texas 	 Overcast	53	East	12	35	29.80		50	10.0
Wed Feb  3 05:11:02 2010	El Paso, Texas 	 Overcast	50	East	12	37	29.78	46	61	10.0
Wed Feb  3 05:59:03 2010	El Paso, Texas 	 Overcast	50	East	16	35	29.80	44	57	10.0
Wed Feb  3 06:45:52 2010	El Paso, Texas 	 Overcast	50	East	16	35	29.80	44	57	10.0
Wed Feb  3 07:30:28 2010	El Paso, Texas 	 Light Rain	47	Calm		39	29.80	46	74	10.0
Wed Feb  3 08:13:34 2010	El Paso, Texas 	 Overcast	47	NE	10	38	29.74	42	71	10.0
Wed Feb  3 08:59:56 2010	El Paso, Texas 	 Overcast	46	North	9	38	29.75	41	73	10.0
Wed Feb  3 09:43:26 2010	El Paso, Texas 	 Overcast	46	North	9	38	29.75	41	73	10.0
Wed Feb  3 10:27:25 2010	El Paso, Texas 	 Light Rain	45	ENE	5	39	29.73	43	80	8.0
Wed Feb  3 11:14:07 2010	El Paso, Texas 	 Light Rain	45	East	8	40	29.71	41	82	7.0
Wed Feb  3 11:58:56 2010	El Paso, Texas 	 Light Rain	44	East	15	39	29.67	37	82	10.0
Wed Feb  3 12:42:06 2010	El Paso, Texas 	 Light Rain	43	East	14	39	29.74	36	87	8.0
Wed Feb  3 13:25:44 2010	El Paso, Texas 	 Light Rain	43	ENE	14	39	29.64	36	86	10.0
Wed Feb  3 14:11:19 2010	El Paso, Texas 	 Rain	43	East	14	39	29.63	36	86	7.0
Wed Feb  3 14:57:18 2010	El Paso, Texas 	 Light Rain	43	East	6	40	29.66	40	89	8.0
Wed Feb  3 15:42:23 2010	El Paso, Texas 	 Light Rain	43	East	7	39	29.74	39	87	5.0
Wed Feb  3 16:28:02 2010	El Paso, Texas 	 Overcast	43	East	17	38	29.66	35	82	10.0
Wed Feb  3 17:15:29 2010	El Paso, Texas 	 Light Rain	43	East	12	38	29.67	37	82	6.0
Wed Feb  3 18:04:04 2010	El Paso, Texas 	 Light Rain	44	ENE	10	39	29.67	39	82	10.0
Wed Feb  3 18:47:10 2010	El Paso, Texas 	 Light Rain	44	ENE	10	39	29.67	39	82	10.0
Wed Feb  3 19:30:59 2010	El Paso, Texas 	 Light Rain	44	NE	8	39	29.66	40	82	7.0
Wed Feb  3 20:14:39 2010	El Paso, Texas 	 Rain	44	North	9	41	29.64	39	89	5.0
Wed Feb  3 20:59:27 2010	El Paso, Texas 	 Rain	43	North	12	41	29.62	37	93	3.0
Wed Feb  3 21:47:19 2010	El Paso, Texas 	 Rain	43	North	12	41	29.62	37	93	3.0
Wed Feb  3 22:32:51 2010	El Paso, Texas 	 Light Rain	43	NNW	14	41	29.68	36	93	4.0
Wed Feb  3 23:23:37 2010	El Paso, Texas 	 Light Rain	43	NNE	14	41	29.62	36	93	7.0
Fri Jan 29 08:39:12 2010	Fort Worth, Texas 	 Rain	46	NE	8	43	30.00	42	89	8.0
Fri Jan 29 09:23:07 2010	Fort Worth, Texas 	 Light Rain	43	NW	9	39	30.01	38	87	7.0
Fri Jan 29 11:55:09 2010	Fort Worth, Texas 	 Light Rain	39	NW	15	37	29.99	31	93	10.0
Fri Jan 29 12:39:41 2010	Fort Worth, Texas 	 Rain	38	NW	12	35	30.02	30	89	8.0
Fri Jan 29 13:26:13 2010	Fort Worth, Texas 	 Light Rain	37	NW	16	34	30.01	28	89	10.0
Fri Jan 29 14:14:58 2010	Fort Worth, Texas 	 Light Rain	36	NW	18	33	30.04	26	89	10.0
Fri Jan 29 14:59:41 2010	Fort Worth, Texas 	 Light Rain	36	NW	18	33	30.04	26	89	10.0
Fri Jan 29 15:45:39 2010	Fort Worth, Texas 	 Light Rain	36	NW	15	33	30.05	27	89	10.0
Fri Jan 29 16:32:59 2010	Fort Worth, Texas 	 Rain	35	NW	15	32	30.09	26	89	7.0
Fri Jan 29 17:17:31 2010	Fort Worth, Texas 	 Rain	35	NW	15	32	30.09	26	89	7.0
Fri Jan 29 18:05:49 2010	Fort Worth, Texas 	 Overcast	33	NW	12	30	30.11	24	89	4.0
Fri Jan 29 18:50:28 2010	Fort Worth, Texas 	 Light Freezing Rain	34	NW	20	30	30.07	22	87	10.0
Fri Jan 29 19:42:56 2010	Fort Worth, Texas 	 Overcast	34	NW	18	30	30.06	23	87	10.0
Fri Jan 29 20:41:02 2010	Fort Worth, Texas 	 Overcast	33	NW	16	30	30.03	23	89	10.0
Fri Jan 29 21:24:58 2010	Fort Worth, Texas 	 Overcast	33	NW	14	28	30.03	23	82	10.0
Fri Jan 29 22:11:02 2010	Fort Worth, Texas 	 Overcast	33	NW	20	28	30.02	22	82	10.0
Fri Jan 29 22:57:21 2010	Fort Worth, Texas 	 Overcast	33	NW	20	28	30.02	22	82	10.0
Fri Jan 29 23:41:24 2010	Fort Worth, Texas 	 Overcast	32	NW	15	27	30.03	22	80	10.0
Mon Feb  1 00:08:22 2010	Fort Worth, Texas 	 Overcast	34	SSE	7	28	30.22	28	79	10.0
Mon Feb  1 00:51:36 2010	Fort Worth, Texas 	 Overcast	34	SSE	7	28	30.22	28	79	10.0
Mon Feb  1 01:36:20 2010	Fort Worth, Texas 	 Overcast	34	Calm		28	30.22	34	79	10.0
Mon Feb  1 02:21:12 2010	Fort Worth, Texas 	 Overcast	33	SSE	5	27	30.20	29	78	10.0
Mon Feb  1 03:05:22 2010	Fort Worth, Texas 	 Partly Cloudy	32	SSW	4	27	30.21	29	82	9.0
Mon Feb  1 03:48:54 2010	Fort Worth, Texas 	 Partly Cloudy	32	SSW	4	27	30.21	29	82	9.0
Mon Feb  1 04:34:33 2010	Fort Worth, Texas 	 Clear	32	Calm		27	30.20	32	82	7.0
Mon Feb  1 05:18:09 2010	Fort Worth, Texas 	 Clear	31	SSW	4	27	30.20	28	85	6.0
Mon Feb  1 06:03:03 2010	Fort Worth, Texas 	 Clear	30	Calm		27	30.20	30	88	6.0
Mon Feb  1 06:45:56 2010	Fort Worth, Texas 	 Clear	30	Calm		27	30.20	30	88	6.0
Mon Feb  1 07:29:59 2010	Fort Worth, Texas 	 Clear	30	Calm		27	30.19	30	88	6.0
Mon Feb  1 08:13:11 2010	Fort Worth, Texas 	 Partly Cloudy	29	Calm		27	30.19	28	92	5.0
Mon Feb  1 08:56:53 2010	Fort Worth, Texas 	 Clear	30	Calm		27	30.17	30	88	6.0
Mon Feb  1 09:39:55 2010	Fort Worth, Texas 	 Clear	30	Calm		27	30.17	30	88	6.0
Mon Feb  1 10:23:16 2010	Fort Worth, Texas 	 Clear	30	Calm		27	30.17	30	88	6.0
Mon Feb  1 11:06:23 2010	Fort Worth, Texas 	 Mostly Cloudy	31	Calm		28	30.16	30	89	6.0
Mon Feb  1 11:49:41 2010	Fort Worth, Texas 	 Mostly Cloudy	31	Calm		28	30.16	30	89	6.0
Mon Feb  1 12:33:13 2010	Fort Worth, Texas 	 Clear	30	Calm		26	30.14	30	85	5.0
Mon Feb  1 13:16:39 2010	Fort Worth, Texas 	 Clear	29	Calm		26	30.13	28	89	4.0
Mon Feb  1 14:00:29 2010	Fort Worth, Texas 	 Overcast	28	SSW	5	27	30.13	23	96	4.0
Mon Feb  1 14:45:00 2010	Fort Worth, Texas 	 Overcast	30	South	5	28	30.11	25	93	3.0
Mon Feb  1 15:29:18 2010	Fort Worth, Texas 	 Overcast	30	Calm		29	30.13	30	96	2.0
Mon Feb  1 16:13:29 2010	Fort Worth, Texas 	 Overcast	32	South	6	30	30.14	26	92	2.0
Mon Feb  1 16:58:39 2010	Fort Worth, Texas 	 Overcast	33	SSE	7	31	30.14	27	92	5.0
Mon Feb  1 17:42:40 2010	Fort Worth, Texas 	 Overcast	33	SSE	7	31	30.14	27	92	5.0
Mon Feb  1 18:25:50 2010	Fort Worth, Texas 	 Overcast	35	South	7	32	30.12	29	89	3.0
Mon Feb  1 19:09:34 2010	Fort Worth, Texas 	 Overcast	37	SSW	9	34	30.12	30	89	6.0
Mon Feb  1 19:54:43 2010	Fort Worth, Texas 	 Overcast	37	SSW	9	34	30.12	30	89	6.0
Mon Feb  1 20:41:11 2010	Fort Worth, Texas 	 Overcast	39	SW	8	34	30.06	34	81	9.0
Mon Feb  1 21:25:57 2010	Fort Worth, Texas 	 Overcast	41	SSW	5	34	30.06	38	76	10.0
Mon Feb  1 22:09:30 2010	Fort Worth, Texas 	 Overcast	42	SSW	6	35	30.03	38	76	10.0
Mon Feb  1 22:52:44 2010	Fort Worth, Texas 	 Overcast	42	SSW	6	35	30.03	38	76	10.0
Mon Feb  1 23:38:51 2010	Fort Worth, Texas 	 Overcast	43	South	7	36	30.02	39	76	9.0
Sat Jan 30 00:25:29 2010	Fort Worth, Texas 	 Overcast	32	NW	21	26	30.06	20	79	10.0
Sat Jan 30 01:09:34 2010	Fort Worth, Texas 	 Overcast	31	NW	16	25	30.09	20	79	10.0
Sat Jan 30 01:53:18 2010	Fort Worth, Texas 	 Overcast	31	NW	16	25	30.09	20	79	10.0
Sat Jan 30 02:37:57 2010	Fort Worth, Texas 	 Overcast	30	NW	21	23	30.10	17	75	10.0
Sat Jan 30 03:21:35 2010	Fort Worth, Texas 	 Overcast	29	NNW	17	24	30.10	17	82	10.0
Sat Jan 30 04:05:28 2010	Fort Worth, Texas 	 Overcast	29	NW	15	23	30.12	18	78	10.0
Sat Jan 30 04:49:10 2010	Fort Worth, Texas 	 Overcast	29	NW	15	23	30.12	18	78	10.0
Sat Jan 30 05:33:01 2010	Fort Worth, Texas 	 Overcast	28	NW	13	23	30.12	18	80	10.0
Sat Jan 30 06:16:40 2010	Fort Worth, Texas 	 Overcast	28	NW	14	21	30.14	17	75	10.0
Sat Jan 30 07:02:21 2010	Fort Worth, Texas 	 Overcast	28	NW	15	21	30.14	16	75	10.0
Sat Jan 30 07:45:53 2010	Fort Worth, Texas 	 Overcast	28	NW	15	21	30.14	16	75	10.0
Sat Jan 30 08:28:55 2010	Fort Worth, Texas 	 Overcast	28	NW	18	21	30.14	15	75	10.0
Sat Jan 30 11:58:31 2010	Fort Worth, Texas 	 Overcast	25	NNW	18	18	30.17	11	75	10.0
Sat Jan 30 12:42:20 2010	Fort Worth, Texas 	 Overcast	25	NNW	18	18	30.17	11	75	10.0
Sat Jan 30 13:25:31 2010	Fort Worth, Texas 	 Overcast	25	NW	13	18	30.19	14	75	10.0
Sat Jan 30 14:09:14 2010	Fort Worth, Texas 	 Overcast	24	NNW	15	18	30.21	12	77	10.0
Sat Jan 30 14:53:28 2010	Fort Worth, Texas 	 Overcast	24	NNW	15	18	30.21	12	77	10.0
Sat Jan 30 15:38:06 2010	Fort Worth, Texas 	 Overcast	25	NNW	16	19	30.23	12	78	10.0
Sat Jan 30 16:24:22 2010	Fort Worth, Texas 	 Overcast	25	NNW	10	19	30.26	15	78	10.0
Sat Jan 30 17:08:41 2010	Fort Worth, Texas 	 Overcast	26	NNW	10	19	30.27	16	75	10.0
Sat Jan 30 17:52:11 2010	Fort Worth, Texas 	 Overcast	26	NNW	10	19	30.27	16	75	10.0
Sat Jan 30 18:36:02 2010	Fort Worth, Texas 	 Overcast	27	NNW	13	20	30.29	16	75	10.0
Sat Jan 30 19:19:17 2010	Fort Worth, Texas 	 Overcast	28	NNW	12	20	30.27	18	72	10.0
Sat Jan 30 20:03:23 2010	Fort Worth, Texas 	 Overcast	28	NNW	14	22	30.27	17	78	10.0
Sat Jan 30 20:46:33 2010	Fort Worth, Texas 	 Overcast	28	NNW	14	22	30.27	17	78	10.0
Sat Jan 30 21:30:35 2010	Fort Worth, Texas 	 Overcast	29	North	13	22	30.25	19	75	10.0
Sat Jan 30 22:13:36 2010	Fort Worth, Texas 	 Overcast	29	North	9	22	30.25	20	75	10.0
Sat Jan 30 22:58:24 2010	Fort Worth, Texas 	 Overcast	30	NNW	10	23	30.25	21	75	10.0
Sat Jan 30 23:44:07 2010	Fort Worth, Texas 	 Overcast	30	NNW	10	23	30.25	21	75	10.0
Sun Jan 31 00:28:06 2010	Fort Worth, Texas 	 Overcast	30	NNW	9	23	30.25	22	75	10.0
Sun Jan 31 01:18:44 2010	Fort Worth, Texas 	 Overcast	29	NW	10	23	30.26	20	78	10.0
Sun Jan 31 02:02:37 2010	Fort Worth, Texas 	 Overcast	29	NW	9	23	30.27	20	78	10.0
Sun Jan 31 02:46:14 2010	Fort Worth, Texas 	 Overcast	29	NW	9	23	30.27	20	78	10.0
Sun Jan 31 03:30:18 2010	Fort Worth, Texas 	 Overcast	29	North	5	23	30.28	24	78	10.0
Sun Jan 31 04:12:59 2010	Fort Worth, Texas 	 Overcast	29	NNW	6	23	30.28	23	78	10.0
Sun Jan 31 04:58:06 2010	Fort Worth, Texas 	 Overcast	29	North	8	23	30.28	21	78	10.0
Sun Jan 31 05:44:19 2010	Fort Worth, Texas 	 Overcast	29	North	8	23	30.28	21	78	10.0
Sun Jan 31 06:29:23 2010	Fort Worth, Texas 	 Overcast	29	North	4	24	30.29	25	82	10.0
Sun Jan 31 07:12:27 2010	Fort Worth, Texas 	 Overcast	29	NE	8	24	30.28	21	82	10.0
Sun Jan 31 07:59:03 2010	Fort Worth, Texas 	 Overcast	28	ENE	7	24	30.29	21	85	10.0
Sun Jan 31 08:43:52 2010	Fort Worth, Texas 	 Overcast	28	ENE	7	24	30.29	21	85	10.0
Sun Jan 31 09:27:00 2010	Fort Worth, Texas 	 Overcast	28	ENE	7	24	30.29	21	85	10.0
Sun Jan 31 10:10:12 2010	Fort Worth, Texas 	 Overcast	28	Variable	4	24	30.29	24	85	10.0
Sun Jan 31 10:53:57 2010	Fort Worth, Texas 	 Overcast	28	Variable	4	24	30.29	24	85	10.0
Sun Jan 31 11:37:25 2010	Fort Worth, Texas 	 Overcast	29	Calm		24	30.29	28	82	10.0
Sun Jan 31 12:21:03 2010	Fort Worth, Texas 	 Overcast	29	NE	4	24	30.29	25	82	10.0
Sun Jan 31 13:04:06 2010	Fort Worth, Texas 	 Overcast	29	NE	4	24	30.30	25	82	10.0
Sun Jan 31 13:48:09 2010	Fort Worth, Texas 	 Overcast	29	NE	4	24	30.30	25	82	10.0
Sun Jan 31 14:30:56 2010	Fort Worth, Texas 	 Overcast	28	East	7	24	30.31	21	85	10.0
Sun Jan 31 15:14:53 2010	Fort Worth, Texas 	 Overcast	29	Calm		25	30.32	28	85	10.0
Sun Jan 31 15:58:18 2010	Fort Worth, Texas 	 Overcast	30	Calm		25	30.32	30	82	10.0
Sun Jan 31 16:48:05 2010	Fort Worth, Texas 	 Overcast	30	Calm		25	30.32	30	82	10.0
Sun Jan 31 17:32:02 2010	Fort Worth, Texas 	 Overcast	31	South	6	26	30.33	25	82	9.0
Sun Jan 31 18:16:20 2010	Fort Worth, Texas 	 Overcast	31	ESE	6	26	30.32	25	82	10.0
Sun Jan 31 19:00:27 2010	Fort Worth, Texas 	 Overcast	31	East	5	27	30.29	26	85	10.0
Sun Jan 31 19:46:00 2010	Fort Worth, Texas 	 Overcast	31	East	5	27	30.29	26	85	10.0
Sun Jan 31 20:29:01 2010	Fort Worth, Texas 	 Overcast	32	SE	7	27	30.23	26	80	10.0
Sun Jan 31 21:13:07 2010	Fort Worth, Texas 	 Overcast	33	ENE	5	28	30.24	29	82	10.0
Sun Jan 31 21:56:30 2010	Fort Worth, Texas 	 Overcast	33	ENE	5	28	30.24	29	82	10.0
Sun Jan 31 22:41:19 2010	Fort Worth, Texas 	 Overcast	33	Calm		28	30.23	34	82	10.0
Sun Jan 31 23:24:21 2010	Fort Worth, Texas 	 Overcast	34	SSE	9	28	30.23	27	79	10.0
Thu Feb  4 00:09:54 2010	Fort Worth, Texas 	 Light Rain	43	ENE	6	40	30.08	40	89	4.0
Thu Feb  4 00:54:11 2010	Fort Worth, Texas 	 Light Rain	43	ENE	6	40	30.08	40	89	4.0
Thu Feb  4 01:37:11 2010	Fort Worth, Texas 	 Light Rain	43	ENE	12	40	30.06	37	89	5.0
Thu Feb  4 02:24:20 2010	Fort Worth, Texas 	 Light Rain	41	East	12	38	30.06	34	89	9.0
Thu Feb  4 03:08:16 2010	Fort Worth, Texas 	 Light Rain	42	ENE	8	38	30.06	37	85	8.0
Thu Feb  4 03:52:46 2010	Fort Worth, Texas 	 Light Rain	42	ENE	8	38	30.06	37	85	8.0
Thu Feb  4 04:35:56 2010	Fort Worth, Texas 	 Overcast	42	East	13	37	30.05	35	82	10.0
Thu Feb  4 05:19:07 2010	Fort Worth, Texas 	 Light Rain	42	East	14	37	30.04	35	82	10.0
Thu Feb  4 06:02:15 2010	Fort Worth, Texas 	 Light Rain	42	East	15	37	30.01	34	82	10.0
Thu Feb  4 06:45:18 2010	Fort Worth, Texas 	 Light Rain	42	East	15	37	30.01	34	82	10.0
Thu Feb  4 07:28:51 2010	Fort Worth, Texas 	 Overcast	41	East	17	38	29.98	32	89	9.0
Thu Feb  4 08:11:32 2010	Fort Worth, Texas 	 Light Rain	41	East	15	38	29.97	33	89	9.0
Thu Feb  4 08:55:16 2010	Fort Worth, Texas 	 Light Rain	41	East	13	37	29.97	34	87	5.0
Thu Feb  4 09:39:00 2010	Fort Worth, Texas 	 Light Rain	41	East	12	39	29.97	34	93	5.0
Thu Feb  4 10:22:24 2010	Fort Worth, Texas 	 Light Rain	41	East	10	39	29.96	35	93	4.0
Thu Feb  4 11:08:38 2010	Fort Worth, Texas 	 Light Rain	41	ESE	8	39	29.97	36	93	6.0
Thu Feb  4 11:52:14 2010	Fort Worth, Texas 	 Rain	41	ENE	5	39	29.96	38	93	4.0
Thu Feb  4 12:35:19 2010	Fort Worth, Texas 	 Light Rain	41	East	8	37	29.95	36	87	6.0
Thu Feb  4 13:18:48 2010	Fort Worth, Texas 	 Light Rain	40	East	8	39	29.96	34	97	9.0
Thu Feb  4 14:03:10 2010	Fort Worth, Texas 	 Light Rain	40	ENE	9	39	29.96	34	97	10.0
Thu Feb  4 14:55:51 2010	Fort Worth, Texas 	 Light Rain	40	ENE	9	39	29.96	34	97	10.0
Thu Jan 28 15:36:04 2010	Fort Worth, Texas 	 Overcast	55	ESE	12	51	30.11		86	10.0
Thu Jan 28 15:57:13 2010	Fort Worth, Texas 	 Overcast	56	East	12	51	30.11		84	10.0
Thu Jan 28 16:45:31 2010	Fort Worth, Texas 	 Overcast	56	East	12	51	30.11		84	10.0
Thu Jan 28 17:10:25 2010	Fort Worth, Texas 	 Overcast	56	East	12	51	30.11		84	10.0
Thu Jan 28 17:26:34 2010	Fort Worth, Texas 	 Overcast	56	East	12	51	30.11		84	10.0
Tue Feb  2 00:25:46 2010	Fort Worth, Texas 	 Overcast	43	South	4	36	30.03	41	76	9.0
Tue Feb  2 01:11:18 2010	Fort Worth, Texas 	 Overcast	43	South	4	37	30.03	41	80	8.0
Tue Feb  2 01:54:42 2010	Fort Worth, Texas 	 Overcast	43	South	4	37	30.03	41	80	8.0
Tue Feb  2 02:38:42 2010	Fort Worth, Texas 	 Overcast	43	South	5	37	30.05	40	80	9.0
Tue Feb  2 03:21:55 2010	Fort Worth, Texas 	 Overcast	43	ESE	6	37	30.05	40	80	8.0
Tue Feb  2 04:05:57 2010	Fort Worth, Texas 	 Overcast	43	ESE	4	37	30.07	41	80	8.0
Tue Feb  2 04:49:33 2010	Fort Worth, Texas 	 Overcast	43	ESE	4	37	30.07	41	80	8.0
Tue Feb  2 05:32:54 2010	Fort Worth, Texas 	 Overcast	41	North	6	37	30.08	37	87	8.0
Tue Feb  2 06:15:52 2010	Fort Worth, Texas 	 Overcast	40	North	5	36	30.10	37	86	7.0
Tue Feb  2 07:03:21 2010	Fort Worth, Texas 	 Overcast	40	NE	6	36	30.10	36	86	7.0
Tue Feb  2 07:46:26 2010	Fort Worth, Texas 	 Overcast	40	NE	6	36	30.10	36	86	7.0
Tue Feb  2 08:29:32 2010	Fort Worth, Texas 	 Overcast	39	NNE	7	36	30.11	34	87	8.0
Tue Feb  2 09:13:00 2010	Fort Worth, Texas 	 Overcast	39	NNE	8	35	30.12	33	86	8.0
Tue Feb  2 09:56:32 2010	Fort Worth, Texas 	 Overcast	39	NNE	8	35	30.12	33	86	8.0
Tue Feb  2 10:40:06 2010	Fort Worth, Texas 	 Overcast	39	North	5	35	30.13	36	86	9.0
Tue Feb  2 11:24:14 2010	Fort Worth, Texas 	 Overcast	39	NNE	4	36	30.13	37	89	7.0
Tue Feb  2 12:07:48 2010	Fort Worth, Texas 	 Overcast	40	North	5	36	30.14	37	86	7.0
Tue Feb  2 12:52:07 2010	Fort Worth, Texas 	 Overcast	40	North	5	36	30.14	37	86	7.0
Tue Feb  2 13:35:27 2010	Fort Worth, Texas 	 Overcast	40	Calm		36	30.16	39	86	8.0
Tue Feb  2 14:18:55 2010	Fort Worth, Texas 	 Overcast	40	North	5	35	30.18	37	83	9.0
Tue Feb  2 15:03:24 2010	Fort Worth, Texas 	 Overcast	41	NNE	8	35	30.19	36	79	10.0
Tue Feb  2 15:49:47 2010	Fort Worth, Texas 	 Overcast	41	NNE	8	35	30.19	36	79	10.0
Tue Feb  2 16:42:24 2010	Fort Worth, Texas 	 Overcast	41	NNE	8	35	30.22	36	79	10.0
Tue Feb  2 17:30:02 2010	Fort Worth, Texas 	 Overcast	42	North	12	34	30.22	36	73	10.0
Tue Feb  2 18:15:26 2010	Fort Worth, Texas 	 Overcast	42	NNE	7	33	30.23	38	70	10.0
Tue Feb  2 18:59:27 2010	Fort Worth, Texas 	 Overcast	42	NW	5	34	30.24	39	73	10.0
Tue Feb  2 19:48:28 2010	Fort Worth, Texas 	 Overcast	42	NW	5	34	30.24	39	73	10.0
Tue Feb  2 20:40:08 2010	Fort Worth, Texas 	 Scattered Clouds	45	NW	5	36	30.21	42	71	10.0
Tue Feb  2 21:26:41 2010	Fort Worth, Texas 	 Clear	47	NNE	5	35	30.19	45	63	10.0
Tue Feb  2 22:14:24 2010	Fort Worth, Texas 	 Clear	50	Variable	4	36	30.17	49	59	10.0
Tue Feb  2 22:59:39 2010	Fort Worth, Texas 	 Clear	50	NNE	8	35	30.16	47	57	10.0
Tue Feb  2 23:44:38 2010	Fort Worth, Texas 	 Clear	50	NNE	8	35	30.16	47	57	10.0
Wed Feb  3 00:29:31 2010	Fort Worth, Texas 	 Clear	49	NNE	9	34	30.16	45	56	10.0
Wed Feb  3 01:16:32 2010	Fort Worth, Texas 	 Clear	47	NNE	8	35	30.16	43	63	10.0
Wed Feb  3 02:01:21 2010	Fort Worth, Texas 	 Clear	44	East	6	34	30.20	41	68	10.0
Wed Feb  3 02:50:05 2010	Fort Worth, Texas 	 Clear	44	East	6	34	30.20	41	68	10.0
Wed Feb  3 03:37:02 2010	Fort Worth, Texas 	 Clear	42	NE	6	34	30.19	38	73	10.0
Wed Feb  3 04:25:07 2010	Fort Worth, Texas 	 Clear	43	ENE	4	34	30.22	41	71	10.0
Wed Feb  3 05:11:40 2010	Fort Worth, Texas 	 Clear	38	Calm		33	30.21	37	83	10.0
Wed Feb  3 05:59:42 2010	Fort Worth, Texas 	 Clear	40	NE	5	33	30.22	37	77	10.0
Wed Feb  3 06:46:31 2010	Fort Worth, Texas 	 Clear	40	NE	5	33	30.22	37	77	10.0
Wed Feb  3 07:31:07 2010	Fort Worth, Texas 	 Clear	40	NE	6	34	30.22	36	79	10.0
Wed Feb  3 08:14:12 2010	Fort Worth, Texas 	 Clear	38	NE	7	33	30.19	33	83	10.0
Wed Feb  3 09:00:35 2010	Fort Worth, Texas 	 Clear	38	East	5	33	30.17	34	83	10.0
Wed Feb  3 09:44:04 2010	Fort Worth, Texas 	 Clear	38	East	5	33	30.17	34	83	10.0
Wed Feb  3 10:28:02 2010	Fort Worth, Texas 	 Clear	37	NE	7	33	30.14	32	86	10.0
Wed Feb  3 11:14:46 2010	Fort Worth, Texas 	 Clear	36	Calm		33	30.16	36	89	9.0
Wed Feb  3 11:59:31 2010	Fort Worth, Texas 	 Clear	36	NE	6	33	30.13	31	89	9.0
Wed Feb  3 12:42:44 2010	Fort Worth, Texas 	 Clear	36	NE	6	33	30.13	31	89	9.0
Wed Feb  3 13:26:28 2010	Fort Worth, Texas 	 Clear	37	ENE	9	33	30.13	30	86	9.0
Wed Feb  3 14:11:58 2010	Fort Worth, Texas 	 Clear	38	East	5	33	30.15	34	83	10.0
Wed Feb  3 14:57:57 2010	Fort Worth, Texas 	 Clear	38	East	5	33	30.15	34	83	10.0
Wed Feb  3 15:43:04 2010	Fort Worth, Texas 	 Clear	38	East	4	34	30.17	36	86	9.0
Wed Feb  3 16:28:44 2010	Fort Worth, Texas 	 Clear	40	East	6	35	30.18	36	83	9.0
Wed Feb  3 17:16:08 2010	Fort Worth, Texas 	 Clear	43	East	8	37	30.17	38	80	9.0
Wed Feb  3 18:04:42 2010	Fort Worth, Texas 	 Clear	45	ESE	12	38	30.16	39	76	10.0
Wed Feb  3 18:47:48 2010	Fort Worth, Texas 	 Clear	45	ESE	12	38	30.16	39	76	10.0
Wed Feb  3 19:31:36 2010	Fort Worth, Texas 	 Clear	47	East	14	38	30.12	41	71	10.0
Wed Feb  3 20:15:20 2010	Fort Worth, Texas 	 Light Rain	46	East	9	38	30.07	41	73	10.0
Wed Feb  3 21:00:05 2010	Fort Worth, Texas 	 Light Rain	45	ENE	9	38	30.05	40	76	9.0
Wed Feb  3 21:47:56 2010	Fort Worth, Texas 	 Light Rain	45	ENE	9	38	30.05	40	76	9.0
Wed Feb  3 22:33:27 2010	Fort Worth, Texas 	 Rain	44	NE	10	38	30.02	39	79	7.0
Wed Feb  3 23:24:17 2010	Fort Worth, Texas 	 Rain	43	East	6	39	30.07	40	86	5.0
Fri Jan 29 08:39:58 2010	Houston, Texas 	 Light Rain	64	SE	12	62	29.87		93	9.0
Fri Jan 29 09:23:51 2010	Houston, Texas 	 Overcast	65	SSE	15	62	29.85		90	9.0
Fri Jan 29 11:55:50 2010	Houston, Texas 	 Overcast	66	South	14	64	29.80		93	8.0
Fri Jan 29 12:40:25 2010	Houston, Texas 	 Light Rain	66	South	15	64	29.80		93	8.0
Fri Jan 29 13:26:58 2010	Houston, Texas 	 Heavy Rain	64	NNW	21	63	29.78		94	0.8
Fri Jan 29 14:15:46 2010	Houston, Texas 	 Thunderstorms and Rain	62	NNW	16	59	29.82		90	5.0
Fri Jan 29 15:00:26 2010	Houston, Texas 	 Rain	59	NW	12	55	29.83		88	7.0
Fri Jan 29 15:46:17 2010	Houston, Texas 	 Light Rain	57	NNW	17	55	29.83		94	10.0
Fri Jan 29 16:33:46 2010	Houston, Texas 	 Light Rain	57	NW	18	54	29.91		89	10.0
Fri Jan 29 17:18:18 2010	Houston, Texas 	 Overcast	53	NW	15	50	29.97		89	10.0
Fri Jan 29 18:06:33 2010	Houston, Texas 	 Light Rain	51	NNW	22	47	29.98		86	10.0
Fri Jan 29 18:51:11 2010	Houston, Texas 	 Overcast	52	NNW	17	46	29.94		82	10.0
Fri Jan 29 19:43:39 2010	Houston, Texas 	 Overcast	52	NNW	16	48	29.92		88	10.0
Fri Jan 29 20:41:42 2010	Houston, Texas 	 Overcast	54	NNW	9	48	29.89		82	10.0
Fri Jan 29 21:25:43 2010	Houston, Texas 	 Overcast	52	NW	14	45	29.90		76	10.0
Fri Jan 29 22:11:45 2010	Houston, Texas 	 Overcast	48	NW	20	43	29.92	41	83	10.0
Fri Jan 29 22:58:04 2010	Houston, Texas 	 Overcast	47	NNW	17	41	29.95	40	80	10.0
Fri Jan 29 23:42:07 2010	Houston, Texas 	 Overcast	46	NW	16	39	29.94	40	76	10.0
Mon Feb  1 00:09:04 2010	Houston, Texas 	 Overcast	41	WSW	6	31	30.25	37	67	10.0
Mon Feb  1 00:52:19 2010	Houston, Texas 	 Overcast	41	WSW	6	31	30.25	37	67	10.0
Mon Feb  1 01:37:02 2010	Houston, Texas 	 Mostly Cloudy	40	SW	4	31	30.23	38	70	10.0
Mon Feb  1 02:21:55 2010	Houston, Texas 	 Scattered Clouds	39	SW	6	32	30.24	35	76	10.0
Mon Feb  1 03:06:05 2010	Houston, Texas 	 Partly Cloudy	38	SSW	4	31	30.24	36	76	10.0
Mon Feb  1 03:49:37 2010	Houston, Texas 	 Partly Cloudy	38	SSW	4	31	30.24	36	76	10.0
Mon Feb  1 04:35:15 2010	Houston, Texas 	 Scattered Clouds	38	SW	4	32	30.25	36	79	8.0
Mon Feb  1 05:18:51 2010	Houston, Texas 	 Scattered Clouds	38	Calm		32	30.24	37	79	8.0
Mon Feb  1 06:03:46 2010	Houston, Texas 	 Scattered Clouds	37	Calm		32	30.25	37	82	8.0
Mon Feb  1 06:46:39 2010	Houston, Texas 	 Scattered Clouds	37	Calm		32	30.25	37	82	8.0
Mon Feb  1 07:30:43 2010	Houston, Texas 	 Scattered Clouds	37	ENE	4	32	30.25	34	82	7.0
Mon Feb  1 08:13:53 2010	Houston, Texas 	 Mostly Cloudy	38	NE	6	33	30.22	34	83	7.0
Mon Feb  1 08:57:36 2010	Houston, Texas 	 Haze	38	NNE	7	33	30.19	33	83	6.0
Mon Feb  1 09:40:38 2010	Houston, Texas 	 Mostly Cloudy	38	NNE	7	33	30.19	33	83	7.0
Mon Feb  1 10:23:59 2010	Houston, Texas 	 Mostly Cloudy	38	NE	8	33	30.17	32	83	7.0
Mon Feb  1 11:07:06 2010	Houston, Texas 	 Mostly Cloudy	39	NE	6	34	30.17	35	82	8.0
Mon Feb  1 11:50:23 2010	Houston, Texas 	 Mostly Cloudy	39	NE	6	34	30.17	35	82	8.0
Mon Feb  1 12:33:54 2010	Houston, Texas 	 Mostly Cloudy	39	NE	6	34	30.15	35	82	N/A
Mon Feb  1 13:17:24 2010	Houston, Texas 	 Mostly Cloudy	40	NE	6	34	30.16	36	79	8.0
Mon Feb  1 14:01:12 2010	Houston, Texas 	 Overcast	41	ENE	6	35	30.16	37	79	8.0
Mon Feb  1 14:45:41 2010	Houston, Texas 	 Overcast	41	ENE	6	35	30.16	37	79	8.0
Mon Feb  1 15:30:01 2010	Houston, Texas 	 Haze	42	ENE	8	36	30.15	37	79	6.0
Mon Feb  1 16:14:12 2010	Houston, Texas 	 Light Rain	44	ENE	7	38	30.17	40	79	5.0
Mon Feb  1 16:59:17 2010	Houston, Texas 	 Light Rain	44	East	5	39	30.19	42	82	5.0
Mon Feb  1 17:43:23 2010	Houston, Texas 	 Light Rain	44	East	5	39	30.19	42	82	5.0
Mon Feb  1 18:26:33 2010	Houston, Texas 	 Light Rain	45	East	7	43	30.15	41	93	4.0
Mon Feb  1 19:10:25 2010	Houston, Texas 	 Light Rain	46	East	5	43	30.15	44	89	4.0
Mon Feb  1 19:55:26 2010	Houston, Texas 	 Light Rain	46	East	5	43	30.15	44	89	4.0
Mon Feb  1 20:41:53 2010	Houston, Texas 	 Light Rain	47	ENE	6	45	30.11	44	93	3.0
Mon Feb  1 21:26:41 2010	Houston, Texas 	 Overcast	49	East	7	46	30.08	46	90	4.0
Mon Feb  1 22:10:11 2010	Houston, Texas 	 Overcast	50	East	7	46	30.07	47	86	5.0
Mon Feb  1 22:53:30 2010	Houston, Texas 	 Overcast	50	East	7	46	30.07	47	86	5.0
Mon Feb  1 23:39:37 2010	Houston, Texas 	 Overcast	50	East	6	46	30.08	48	86	5.0
Sat Jan 30 00:26:09 2010	Houston, Texas 	 Overcast	48	NW	14	40	29.97	42	74	10.0
Sat Jan 30 01:10:24 2010	Houston, Texas 	 Overcast	46	NW	21	39	29.98	38	76	10.0
Sat Jan 30 01:54:01 2010	Houston, Texas 	 Overcast	46	NW	21	39	29.98	38	76	10.0
Sat Jan 30 02:38:40 2010	Houston, Texas 	 Overcast	44	NW	17	36	30.00	36	73	10.0
Sat Jan 30 03:22:18 2010	Houston, Texas 	 Overcast	42	WNW	14	34	30.02	35	73	10.0
Sat Jan 30 04:06:11 2010	Houston, Texas 	 Overcast	40	NW	18	32	30.06	31	73	10.0
Sat Jan 30 04:49:53 2010	Houston, Texas 	 Overcast	40	NW	18	32	30.06	31	73	10.0
Sat Jan 30 05:33:41 2010	Houston, Texas 	 Overcast	40	NW	17	31	30.07	31	70	10.0
Sat Jan 30 06:17:24 2010	Houston, Texas 	 Overcast	40	NW	18	30	30.08	31	68	10.0
Sat Jan 30 07:03:04 2010	Houston, Texas 	 Overcast	39	NW	16	30	30.08	30	70	10.0
Sat Jan 30 07:46:36 2010	Houston, Texas 	 Overcast	39	NW	16	30	30.08	30	70	10.0
Sat Jan 30 08:29:38 2010	Houston, Texas 	 Overcast	38	NNW	16	29	30.07	29	70	10.0
Sat Jan 30 11:59:14 2010	Houston, Texas 	 Mostly Cloudy	35	NW	13	26	30.10	26	70	10.0
Sat Jan 30 12:43:01 2010	Houston, Texas 	 Mostly Cloudy	35	NW	13	26	30.10	26	70	10.0
Sat Jan 30 13:26:13 2010	Houston, Texas 	 Mostly Cloudy	34	NW	12	26	30.12	26	73	10.0
Sat Jan 30 14:09:57 2010	Houston, Texas 	 Overcast	35	WNW	7	27	30.14	29	72	10.0
Sat Jan 30 14:54:13 2010	Houston, Texas 	 Overcast	35	WNW	7	27	30.14	29	72	10.0
Sat Jan 30 15:38:51 2010	Houston, Texas 	 Overcast	36	NNW	14	27	30.16	27	70	10.0
Sat Jan 30 16:25:06 2010	Houston, Texas 	 Overcast	36	NNW	16	28	30.18	26	73	10.0
Sat Jan 30 17:09:26 2010	Houston, Texas 	 Overcast	37	NNW	15	28	30.21	28	70	10.0
Sat Jan 30 17:52:54 2010	Houston, Texas 	 Overcast	37	NNW	15	28	30.21	28	70	10.0
Sat Jan 30 18:36:47 2010	Houston, Texas 	 Overcast	38	NNW	15	28	30.21	29	68	10.0
Sat Jan 30 19:20:02 2010	Houston, Texas 	 Mostly Cloudy	39	NNW	13	28	30.19	31	65	10.0
Sat Jan 30 20:04:07 2010	Houston, Texas 	 Mostly Cloudy	41	NW	16	28	30.17	33	60	10.0
Sat Jan 30 20:47:16 2010	Houston, Texas 	 Mostly Cloudy	41	NW	16	28	30.17	33	60	10.0
Sat Jan 30 21:31:16 2010	Houston, Texas 	 Mostly Cloudy	42	NNW	16	29	30.16	34	60	10.0
Sat Jan 30 22:14:19 2010	Houston, Texas 	 Mostly Cloudy	41	North	18	29	30.15	32	62	10.0
Sat Jan 30 22:59:04 2010	Houston, Texas 	 Mostly Cloudy	39	NW	13	27	30.17	31	62	10.0
Sat Jan 30 23:44:48 2010	Houston, Texas 	 Mostly Cloudy	39	NW	13	27	30.17	31	62	10.0
Sun Jan 31 00:28:49 2010	Houston, Texas 	 Mostly Cloudy	38	North	13	28	30.18	30	68	10.0
Sun Jan 31 01:19:26 2010	Houston, Texas 	 Overcast	38	North	13	28	30.19	30	68	10.0
Sun Jan 31 02:03:21 2010	Houston, Texas 	 Overcast	37	North	14	28	30.21	28	70	10.0
Sun Jan 31 02:46:57 2010	Houston, Texas 	 Overcast	37	North	14	28	30.21	28	70	10.0
Sun Jan 31 03:30:59 2010	Houston, Texas 	 Overcast	37	North	15	28	30.22	28	70	10.0
Sun Jan 31 04:13:42 2010	Houston, Texas 	 Overcast	37	North	13	28	30.24	29	70	10.0
Sun Jan 31 04:58:49 2010	Houston, Texas 	 Overcast	36	North	13	28	30.26	28	73	10.0
Sun Jan 31 05:45:03 2010	Houston, Texas 	 Overcast	36	North	13	28	30.26	28	73	10.0
Sun Jan 31 06:30:06 2010	Houston, Texas 	 Overcast	37	North	13	29	30.26	29	73	10.0
Sun Jan 31 07:13:10 2010	Houston, Texas 	 Overcast	37	North	12	29	30.25	29	73	10.0
Sun Jan 31 07:59:46 2010	Houston, Texas 	 Overcast	36	NE	8	29	30.27	30	76	10.0
Sun Jan 31 08:44:35 2010	Houston, Texas 	 Overcast	36	NE	8	29	30.27	30	76	10.0
Sun Jan 31 09:27:41 2010	Houston, Texas 	 Overcast	36	NE	10	29	30.27	28	76	10.0
Sun Jan 31 10:10:55 2010	Houston, Texas 	 Overcast	35	NNE	7	29	30.27	29	78	10.0
Sun Jan 31 10:54:40 2010	Houston, Texas 	 Overcast	35	NNE	7	29	30.27	29	78	10.0
Sun Jan 31 11:38:08 2010	Houston, Texas 	 Overcast	35	NE	9	28	30.27	28	76	9.0
Sun Jan 31 12:21:47 2010	Houston, Texas 	 Overcast	34	North	12	28	30.27	26	79	9.0
Sun Jan 31 13:04:48 2010	Houston, Texas 	 Overcast	35	North	9	29	30.29	28	78	8.0
Sun Jan 31 13:48:52 2010	Houston, Texas 	 Overcast	35	North	9	29	30.29	28	78	8.0
Sun Jan 31 14:31:40 2010	Houston, Texas 	 Overcast	35	North	8	28	30.30	29	76	8.0
Sun Jan 31 15:15:36 2010	Houston, Texas 	 Overcast	36	North	9	29	30.31	29	76	10.0
Sun Jan 31 15:59:03 2010	Houston, Texas 	 Overcast	36	NNE	10	29	30.33	28	76	10.0
Sun Jan 31 16:48:50 2010	Houston, Texas 	 Overcast	36	NNE	10	29	30.33	28	76	10.0
Sun Jan 31 17:32:45 2010	Houston, Texas 	 Overcast	37	NNE	10	30	30.32	30	76	10.0
Sun Jan 31 18:17:02 2010	Houston, Texas 	 Overcast	38	NE	8	31	30.32	32	76	8.0
Sun Jan 31 19:01:10 2010	Houston, Texas 	 Overcast	39	NE	5	31	30.30	36	73	9.0
Sun Jan 31 19:46:43 2010	Houston, Texas 	 Overcast	39	NE	5	31	30.30	36	73	9.0
Sun Jan 31 20:29:41 2010	Houston, Texas 	 Overcast	39	Calm		31	30.29	39	73	10.0
Sun Jan 31 21:13:51 2010	Houston, Texas 	 Overcast	40	Calm		31	30.26	39	70	8.0
Sun Jan 31 21:57:13 2010	Houston, Texas 	 Overcast	40	Calm		31	30.25	39	70	10.0
Sun Jan 31 22:42:02 2010	Houston, Texas 	 Overcast	40	Calm		31	30.25	39	70	10.0
Sun Jan 31 23:25:07 2010	Houston, Texas 	 Mostly Cloudy	42	Calm		32	30.23	43	67	10.0
Thu Feb  4 00:10:42 2010	Houston, Texas 	 Light Rain	51	East	14	46	29.99		83	7.0
Thu Feb  4 00:54:53 2010	Houston, Texas 	 Light Rain	51	East	14	46	29.99		83	7.0
Thu Feb  4 01:37:53 2010	Houston, Texas 	 Light Rain	51	ENE	15	46	29.97		83	8.0
Thu Feb  4 02:25:02 2010	Houston, Texas 	 Light Rain	51	East	20	46	29.98		83	9.0
Thu Feb  4 03:08:56 2010	Houston, Texas 	 Rain	51	ENE	14	47	29.99		86	5.0
Thu Feb  4 03:53:27 2010	Houston, Texas 	 Rain	51	ENE	14	47	29.99		86	5.0
Thu Feb  4 04:36:39 2010	Houston, Texas 	 Rain	50	ENE	16	46	29.95	44	87	4.0
Thu Feb  4 05:19:50 2010	Houston, Texas 	 Rain	50	East	14	47	29.98	45	89	4.0
Thu Feb  4 06:02:57 2010	Houston, Texas 	 Rain	50	ENE	13	47	29.99	45	89	4.0
Thu Feb  4 06:45:57 2010	Houston, Texas 	 Rain	50	ENE	13	47	29.99	45	89	4.0
Thu Feb  4 07:29:34 2010	Houston, Texas 	 Heavy Rain	49	ENE	15	47	29.98	43	93	4.0
Thu Feb  4 08:12:14 2010	Houston, Texas 	 Light Rain	49	East	12	47	29.96	44	93	6.0
Thu Feb  4 08:55:58 2010	Houston, Texas 	 Light Rain	49	East	12	47	29.96	44	93	6.0
Thu Feb  4 09:39:42 2010	Houston, Texas 	 Rain	48	East	18	46	29.88	42	93	6.0
Thu Feb  4 10:23:06 2010	Houston, Texas 	 Rain	49	East	17	47	29.88	43	93	6.0
Thu Feb  4 11:09:20 2010	Houston, Texas 	 Light Rain	50	East	18	48	29.82	44	94	9.0
Thu Feb  4 11:52:54 2010	Houston, Texas 	 Light Rain	50	East	18	48	29.82	44	94	9.0
Thu Feb  4 12:36:02 2010	Houston, Texas 	 Overcast	55	ENE	13	50	29.86		82	10.0
Thu Feb  4 13:19:32 2010	Houston, Texas 	 Overcast	54	ENE	10	48	29.90		80	10.0
Thu Feb  4 14:03:52 2010	Houston, Texas 	 Light Rain	51	East	16	47	29.87		86	10.0
Thu Feb  4 14:56:34 2010	Houston, Texas 	 Light Rain	51	East	16	47	29.87		86	10.0
Thu Jan 28 15:36:47 2010	Houston, Texas 	 Overcast	60	ESE	12	56	30.17		86	10.0
Thu Jan 28 15:57:57 2010	Houston, Texas 	 Overcast	60	ESE	12	56	30.17		86	10.0
Thu Jan 28 16:46:14 2010	Houston, Texas 	 Overcast	60	East	13	56	30.17		86	10.0
Thu Jan 28 17:11:09 2010	Houston, Texas 	 Overcast	61	ESE	10	57	30.18		87	10.0
Thu Jan 28 17:27:22 2010	Houston, Texas 	 Overcast	61	ESE	10	57	30.18		87	10.0
Tue Feb  2 00:26:29 2010	Houston, Texas 	 Overcast	50	ENE	6	47	30.08	48	89	5.0
Tue Feb  2 01:12:03 2010	Houston, Texas 	 Overcast	50	East	7	47	30.07	47	89	5.0
Tue Feb  2 01:55:25 2010	Houston, Texas 	 Overcast	50	East	7	47	30.07	47	89	5.0
Tue Feb  2 02:39:26 2010	Houston, Texas 	 Overcast	50	ENE	8	47	30.08	47	89	6.0
Tue Feb  2 03:22:37 2010	Houston, Texas 	 Overcast	50	NE	6	47	30.08	48	89	6.0
Tue Feb  2 04:06:39 2010	Houston, Texas 	 Overcast	49	ENE	7	46	30.07	46	90	5.0
Tue Feb  2 04:50:16 2010	Houston, Texas 	 Overcast	49	ENE	7	46	30.07	46	90	5.0
Tue Feb  2 05:33:38 2010	Houston, Texas 	 Overcast	48	East	5	46	30.05	46	93	5.0
Tue Feb  2 06:16:35 2010	Houston, Texas 	 Overcast	49	East	5	46	30.07	47	90	5.0
Tue Feb  2 07:04:03 2010	Houston, Texas 	 Overcast	49	East	5	46	30.09	47	90	5.0
Tue Feb  2 07:47:09 2010	Houston, Texas 	 Overcast	49	East	5	46	30.09	47	90	5.0
Tue Feb  2 08:30:14 2010	Houston, Texas 	 Overcast	49	East	7	46	30.09	46	90	5.0
Tue Feb  2 09:13:43 2010	Houston, Texas 	 Overcast	49	East	6	45	30.09	46	86	5.0
Tue Feb  2 09:57:14 2010	Houston, Texas 	 Overcast	49	East	9	44	30.09	45	83	7.0
Tue Feb  2 10:40:53 2010	Houston, Texas 	 Overcast	49	East	9	44	30.09	45	83	7.0
Tue Feb  2 11:24:58 2010	Houston, Texas 	 Overcast	48	NE	8	46	30.07	45	93	5.0
Tue Feb  2 12:08:32 2010	Houston, Texas 	 Light Rain	48	NE	9	45	30.08	44	87	4.0
Tue Feb  2 12:52:50 2010	Houston, Texas 	 Light Rain	48	NNE	8	46	30.08	45	93	4.0
Tue Feb  2 13:36:09 2010	Houston, Texas 	 Light Rain	48	NE	8	46	30.10	45	93	5.0
Tue Feb  2 14:19:39 2010	Houston, Texas 	 Overcast	49	NE	10	45	30.11	45	86	6.0
Tue Feb  2 15:04:09 2010	Houston, Texas 	 Haze	50	NNE	8	45	30.14	47	83	5.0
Tue Feb  2 15:50:28 2010	Houston, Texas 	 Haze	50	NNE	8	45	30.14	47	83	5.0
Tue Feb  2 16:43:08 2010	Houston, Texas 	 Overcast	50	NNE	12	46	30.15	46	86	6.0
Tue Feb  2 17:30:44 2010	Houston, Texas 	 Overcast	51	NE	12	46	30.18		83	8.0
Tue Feb  2 18:16:08 2010	Houston, Texas 	 Light Rain	53	ENE	4	46	30.19		77	8.0
Tue Feb  2 19:00:10 2010	Houston, Texas 	 Light Rain	53	ENE	7	47	30.17		80	6.0
Tue Feb  2 19:49:14 2010	Houston, Texas 	 Light Rain	54	ENE	8	46	30.14		77	7.0
Tue Feb  2 20:40:51 2010	Houston, Texas 	 Light Rain	54	NNE	7	48	30.12		82	3.0
Tue Feb  2 21:27:24 2010	Houston, Texas 	 Overcast	55	NNE	9	50	30.12		83	7.0
Tue Feb  2 22:15:07 2010	Houston, Texas 	 Overcast	57	NE	10	50	30.12		77	10.0
Tue Feb  2 23:00:21 2010	Houston, Texas 	 Overcast	57	NNE	9	50	30.12		77	10.0
Tue Feb  2 23:45:20 2010	Houston, Texas 	 Overcast	57	NNE	9	50	30.12		77	10.0
Wed Feb  3 00:30:15 2010	Houston, Texas 	 Overcast	57	NE	9	49	30.15		74	10.0
Wed Feb  3 01:17:16 2010	Houston, Texas 	 Overcast	57	NE	7	49	30.16		74	10.0
Wed Feb  3 02:02:05 2010	Houston, Texas 	 Overcast	56	ENE	6	49	30.17		77	10.0
Wed Feb  3 02:50:47 2010	Houston, Texas 	 Overcast	56	ENE	6	49	30.17		77	10.0
Wed Feb  3 03:37:45 2010	Houston, Texas 	 Overcast	56	ENE	6	49	30.17		77	10.0
Wed Feb  3 04:25:51 2010	Houston, Texas 	 Overcast	56	ENE	6	49	30.18		77	10.0
Wed Feb  3 05:12:21 2010	Houston, Texas 	 Mostly Cloudy	54	NE	9	48	30.16		80	10.0
Wed Feb  3 06:00:25 2010	Houston, Texas 	 Mostly Cloudy	53	ENE	7	48	30.17		83	10.0
Wed Feb  3 06:47:13 2010	Houston, Texas 	 Mostly Cloudy	53	ENE	7	48	30.17		83	10.0
Wed Feb  3 07:31:49 2010	Houston, Texas 	 Mostly Cloudy	53	ENE	6	47	30.16		80	10.0
Wed Feb  3 08:14:54 2010	Houston, Texas 	 Mostly Cloudy	53	ENE	5	47	30.15		80	10.0
Wed Feb  3 09:01:21 2010	Houston, Texas 	 Overcast	52	East	9	45	30.13		77	10.0
Wed Feb  3 09:44:44 2010	Houston, Texas 	 Overcast	52	East	9	45	30.13		77	10.0
Wed Feb  3 10:28:43 2010	Houston, Texas 	 Mostly Cloudy	52	East	10	45	30.10		77	10.0
Wed Feb  3 11:15:29 2010	Houston, Texas 	 Mostly Cloudy	51	East	10	44	30.10		77	10.0
Wed Feb  3 12:00:18 2010	Houston, Texas 	 Overcast	50	East	9	44	30.11	46	80	9.0
Wed Feb  3 12:43:27 2010	Houston, Texas 	 Overcast	50	East	9	44	30.11	46	80	9.0
Wed Feb  3 13:27:07 2010	Houston, Texas 	 Light Rain	50	East	13	44	30.12	45	80	9.0
Wed Feb  3 14:12:47 2010	Houston, Texas 	 Light Rain	50	East	12	44	30.16	46	80	9.0
Wed Feb  3 14:58:37 2010	Houston, Texas 	 Overcast	49	ENE	18	44	30.11	42	83	8.0
Wed Feb  3 15:43:47 2010	Houston, Texas 	 Overcast	49	ENE	18	44	30.11	42	83	8.0
Wed Feb  3 16:29:25 2010	Houston, Texas 	 Overcast	49	East	16	43	30.08	43	80	10.0
Wed Feb  3 17:16:50 2010	Houston, Texas 	 Overcast	49	East	16	43	30.10	43	80	10.0
Wed Feb  3 18:05:26 2010	Houston, Texas 	 Overcast	51	East	17	43	30.12		74	10.0
Wed Feb  3 18:48:28 2010	Houston, Texas 	 Overcast	51	East	17	43	30.12		74	10.0
Wed Feb  3 19:32:20 2010	Houston, Texas 	 Overcast	52	East	16	43	30.11		71	10.0
Wed Feb  3 20:16:02 2010	Houston, Texas 	 Overcast	54	East	18	44	30.04		69	10.0
Wed Feb  3 21:00:52 2010	Houston, Texas 	 Overcast	53	East	17	43	30.04		69	10.0
Wed Feb  3 21:48:39 2010	Houston, Texas 	 Overcast	53	East	17	43	30.04		69	10.0
Wed Feb  3 22:34:10 2010	Houston, Texas 	 Overcast	52	East	16	45	29.99		76	9.0
Wed Feb  3 23:24:59 2010	Houston, Texas 	 Overcast	52	East	17	45	29.98		77	10.0
Fri Jan 29 08:39:33 2010	Indianapolis, Indiana 	 Scattered Clouds	10	North	4	1	30.50	4	67	10.0
Fri Jan 29 09:23:29 2010	Indianapolis, Indiana 	 Scattered Clouds	10	North	4	1	30.51	4	67	10.0
Fri Jan 29 11:55:31 2010	Indianapolis, Indiana 	 Overcast	11	Variable	5	3	30.48	3	70	10.0
Fri Jan 29 12:40:03 2010	Indianapolis, Indiana 	 Overcast	12	NNE	6	3	30.49	3	67	10.0
Fri Jan 29 13:26:35 2010	Indianapolis, Indiana 	 Overcast	13	NNE	7	3	30.50	3	65	10.0
Fri Jan 29 14:15:24 2010	Indianapolis, Indiana 	 Overcast	13	NNE	8	4	30.51	2	67	10.0
Fri Jan 29 15:00:04 2010	Indianapolis, Indiana 	 Overcast	13	NNE	8	4	30.51	2	67	10.0
Fri Jan 29 15:45:58 2010	Indianapolis, Indiana 	 Overcast	13	NE	8	4	30.49	2	67	10.0
Fri Jan 29 16:33:21 2010	Indianapolis, Indiana 	 Overcast	14	NE	6	4	30.53	5	64	10.0
Fri Jan 29 17:17:56 2010	Indianapolis, Indiana 	 Overcast	14	NE	6	4	30.53	5	64	10.0
Fri Jan 29 18:06:11 2010	Indianapolis, Indiana 	 Overcast	17	ENE	12	5	30.51	4	59	10.0
Fri Jan 29 18:50:49 2010	Indianapolis, Indiana 	 Overcast	17	ENE	12	5	30.51	4	59	10.0
Fri Jan 29 19:43:18 2010	Indianapolis, Indiana 	 Overcast	17	ENE	10	7	30.48	5	65	10.0
Fri Jan 29 20:41:23 2010	Indianapolis, Indiana 	 Overcast	18	ENE	9	7	30.44	7	62	10.0
Fri Jan 29 21:25:20 2010	Indianapolis, Indiana 	 Overcast	18	ENE	8	6	30.39	8	60	10.0
Fri Jan 29 22:11:23 2010	Indianapolis, Indiana 	 Mostly Cloudy	19	East	9	7	30.39	8	59	10.0
Fri Jan 29 22:57:43 2010	Indianapolis, Indiana 	 Mostly Cloudy	19	East	9	7	30.39	8	59	10.0
Fri Jan 29 23:41:45 2010	Indianapolis, Indiana 	 Mostly Cloudy	19	ENE	14	7	30.35	6	59	10.0
Mon Feb  1 00:08:43 2010	Indianapolis, Indiana 	 Partly Cloudy	27	WSW	9	13	30.28	18	56	10.0
Mon Feb  1 00:51:57 2010	Indianapolis, Indiana 	 Partly Cloudy	27	WSW	9	13	30.28	18	56	10.0
Mon Feb  1 01:36:40 2010	Indianapolis, Indiana 	 Partly Cloudy	24	West	7	12	30.29	16	60	10.0
Mon Feb  1 02:21:34 2010	Indianapolis, Indiana 	 Partly Cloudy	22	WNW	7	11	30.31	13	63	10.0
Mon Feb  1 03:05:43 2010	Indianapolis, Indiana 	 Partly Cloudy	21	WNW	5	11	30.31	15	65	10.0
Mon Feb  1 03:49:15 2010	Indianapolis, Indiana 	 Partly Cloudy	21	WNW	5	11	30.31	15	65	10.0
Mon Feb  1 04:34:54 2010	Indianapolis, Indiana 	 Partly Cloudy	19	WNW	5	10	30.28	13	68	10.0
Mon Feb  1 05:18:31 2010	Indianapolis, Indiana 	 Partly Cloudy	21	WSW	4	11	30.32	16	65	10.0
Mon Feb  1 06:03:24 2010	Indianapolis, Indiana 	 Partly Cloudy	20	Calm		11	30.32	19	68	10.0
Mon Feb  1 06:46:17 2010	Indianapolis, Indiana 	 Partly Cloudy	20	Calm		11	30.32	19	68	10.0
Mon Feb  1 07:30:22 2010	Indianapolis, Indiana 	 Mostly Cloudy	18	Calm		10	30.34	18	71	10.0
Mon Feb  1 08:13:32 2010	Indianapolis, Indiana 	 Mostly Cloudy	19	Calm		11	30.33	19	71	10.0
Mon Feb  1 08:57:15 2010	Indianapolis, Indiana 	 Mostly Cloudy	19	Calm		11	30.33	19	71	10.0
Mon Feb  1 09:40:16 2010	Indianapolis, Indiana 	 Overcast	20	Calm		12	30.34	19	71	10.0
Mon Feb  1 10:23:37 2010	Indianapolis, Indiana 	 Overcast	19	ENE	4	11	30.32	14	71	10.0
Mon Feb  1 11:06:45 2010	Indianapolis, Indiana 	 Overcast	21	Calm		13	30.30	21	71	10.0
Mon Feb  1 11:50:02 2010	Indianapolis, Indiana 	 Overcast	21	Calm		13	30.30	21	71	10.0
Mon Feb  1 12:33:32 2010	Indianapolis, Indiana 	 Overcast	21	South	4	15	30.32	16	78	10.0
Mon Feb  1 13:17:03 2010	Indianapolis, Indiana 	 Overcast	21	Calm		14	30.32	21	74	10.0
Mon Feb  1 14:00:51 2010	Indianapolis, Indiana 	 Scattered Clouds	20	SE	5	13	30.34	13	74	10.0
Mon Feb  1 14:45:19 2010	Indianapolis, Indiana 	 Scattered Clouds	20	SE	5	13	30.34	13	74	10.0
Mon Feb  1 15:29:39 2010	Indianapolis, Indiana 	 Mostly Cloudy	21	Calm		16	30.31	21	80	10.0
Mon Feb  1 16:13:49 2010	Indianapolis, Indiana 	 Mostly Cloudy	22	Calm		16	30.35	21	78	10.0
Mon Feb  1 16:58:58 2010	Indianapolis, Indiana 	 Mostly Cloudy	25	SSE	4	16	30.31	20	69	10.0
Mon Feb  1 17:43:02 2010	Indianapolis, Indiana 	 Mostly Cloudy	27	SSE	6	16	30.35	20	63	10.0
Mon Feb  1 18:26:11 2010	Indianapolis, Indiana 	 Mostly Cloudy	29	SSE	5	15	30.33	24	56	10.0
Mon Feb  1 19:09:56 2010	Indianapolis, Indiana 	 Mostly Cloudy	31	Calm		15	30.30	30	52	10.0
Mon Feb  1 19:55:04 2010	Indianapolis, Indiana 	 Mostly Cloudy	31	Calm		15	30.30	30	52	10.0
Mon Feb  1 20:41:31 2010	Indianapolis, Indiana 	 Mostly Cloudy	34	South	5	16	30.22	30	48	10.0
Mon Feb  1 21:26:19 2010	Indianapolis, Indiana 	 Mostly Cloudy	35	Calm		16	30.24	36	46	10.0
Mon Feb  1 22:09:51 2010	Indianapolis, Indiana 	 Mostly Cloudy	37	Calm		15	30.22	37	41	10.0
Mon Feb  1 22:53:05 2010	Indianapolis, Indiana 	 Mostly Cloudy	37	Calm		15	30.22	37	41	10.0
Mon Feb  1 23:39:12 2010	Indianapolis, Indiana 	 Mostly Cloudy	36	SE	4	14	30.21	33	41	10.0
Sat Jan 30 00:25:50 2010	Indianapolis, Indiana 	 Overcast	18	ENE	10	8	30.35	6	65	10.0
Sat Jan 30 01:09:55 2010	Indianapolis, Indiana 	 Overcast	18	ENE	13	7	30.35	5	62	10.0
Sat Jan 30 01:53:39 2010	Indianapolis, Indiana 	 Overcast	18	ENE	13	7	30.35	5	62	10.0
Sat Jan 30 02:38:19 2010	Indianapolis, Indiana 	 Overcast	17	ENE	10	7	30.33	5	65	10.0
Sat Jan 30 03:21:56 2010	Indianapolis, Indiana 	 Overcast	17	ENE	14	8	30.32	3	68	10.0
Sat Jan 30 04:05:49 2010	Indianapolis, Indiana 	 Light Snow	17	ENE	15	8	30.30	2	68	9.0
Sat Jan 30 04:49:32 2010	Indianapolis, Indiana 	 Light Snow	17	ENE	15	8	30.30	2	68	9.0
Sat Jan 30 05:33:21 2010	Indianapolis, Indiana 	 Light Snow	16	ENE	12	7	30.27	3	68	9.0
Sat Jan 30 06:17:02 2010	Indianapolis, Indiana 	 Light Snow	16	ENE	13	7	30.26	2	68	9.0
Sat Jan 30 07:02:42 2010	Indianapolis, Indiana 	 Light Snow	16	NE	14	6	30.25	2	65	10.0
Sat Jan 30 07:46:14 2010	Indianapolis, Indiana 	 Light Snow	16	NE	14	6	30.25	2	65	10.0
Sat Jan 30 08:29:16 2010	Indianapolis, Indiana 	 Overcast	16	NE	14	6	30.21	2	65	10.0
Sat Jan 30 11:58:52 2010	Indianapolis, Indiana 	 Overcast	16	NE	16	5	30.16	1	62	10.0
Sat Jan 30 12:42:39 2010	Indianapolis, Indiana 	 Overcast	16	NE	16	5	30.16	1	62	10.0
Sat Jan 30 13:25:52 2010	Indianapolis, Indiana 	 Overcast	16	NE	12	5	30.15	3	62	10.0
Sat Jan 30 14:09:36 2010	Indianapolis, Indiana 	 Overcast	16	NE	12	5	30.15	3	62	10.0
Sat Jan 30 14:53:51 2010	Indianapolis, Indiana 	 Overcast	16	NE	12	6	30.14	3	65	10.0
Sat Jan 30 15:38:27 2010	Indianapolis, Indiana 	 Mostly Cloudy	16	NE	14	6	30.15	2	65	10.0
Sat Jan 30 16:24:42 2010	Indianapolis, Indiana 	 Mostly Cloudy	17	NE	16	6	30.16	2	62	10.0
Sat Jan 30 17:09:04 2010	Indianapolis, Indiana 	 Mostly Cloudy	19	NNE	15	7	30.17	5	59	10.0
Sat Jan 30 17:52:32 2010	Indianapolis, Indiana 	 Mostly Cloudy	19	NNE	15	7	30.17	5	59	10.0
Sat Jan 30 18:36:23 2010	Indianapolis, Indiana 	 Mostly Cloudy	22	ENE	12	8	30.18	10	55	10.0
Sat Jan 30 19:19:36 2010	Indianapolis, Indiana 	 Mostly Cloudy	22	NNE	12	9	30.15	10	58	10.0
Sat Jan 30 20:03:46 2010	Indianapolis, Indiana 	 Mostly Cloudy	24	NE	9	10	30.12	14	55	10.0
Sat Jan 30 20:46:54 2010	Indianapolis, Indiana 	 Mostly Cloudy	24	NE	9	10	30.12	14	55	10.0
Sat Jan 30 21:30:56 2010	Indianapolis, Indiana 	 Scattered Clouds	25	NNE	10	11	30.12	15	55	10.0
Sat Jan 30 22:13:58 2010	Indianapolis, Indiana 	 Scattered Clouds	26	North	7	10	30.14	18	51	10.0
Sat Jan 30 22:58:42 2010	Indianapolis, Indiana 	 Scattered Clouds	26	North	7	10	30.14	18	51	10.0
Sat Jan 30 23:44:27 2010	Indianapolis, Indiana 	 Scattered Clouds	25	NE	9	11	30.15	16	55	10.0
Sun Jan 31 00:28:28 2010	Indianapolis, Indiana 	 Scattered Clouds	23	NNE	9	11	30.17	13	60	10.0
Sun Jan 31 01:19:05 2010	Indianapolis, Indiana 	 Partly Cloudy	20	NNE	8	10	30.17	10	65	10.0
Sun Jan 31 02:02:59 2010	Indianapolis, Indiana 	 Partly Cloudy	18	NE	8	10	30.18	8	71	10.0
Sun Jan 31 02:46:35 2010	Indianapolis, Indiana 	 Partly Cloudy	18	NE	8	10	30.18	8	71	10.0
Sun Jan 31 03:30:37 2010	Indianapolis, Indiana 	 Partly Cloudy	18	North	5	9	30.20	11	68	10.0
Sun Jan 31 04:13:20 2010	Indianapolis, Indiana 	 Partly Cloudy	18	NNE	9	11	30.20	7	74	10.0
Sun Jan 31 04:58:27 2010	Indianapolis, Indiana 	 Partly Cloudy	18	ENE	6	11	30.19	10	74	10.0
Sun Jan 31 05:44:41 2010	Indianapolis, Indiana 	 Partly Cloudy	18	ENE	6	11	30.19	10	74	10.0
Sun Jan 31 06:29:44 2010	Indianapolis, Indiana 	 Scattered Clouds	17	NE	4	10	30.20	12	74	10.0
Sun Jan 31 07:12:49 2010	Indianapolis, Indiana 	 Scattered Clouds	16	Calm		9	30.19	16	74	10.0
Sun Jan 31 07:59:24 2010	Indianapolis, Indiana 	 Scattered Clouds	15	SE	4	10	30.20	9	80	10.0
Sun Jan 31 08:44:13 2010	Indianapolis, Indiana 	 Scattered Clouds	15	SE	4	10	30.20	9	80	10.0
Sun Jan 31 09:27:20 2010	Indianapolis, Indiana 	 Partly Cloudy	16	SE	5	10	30.17	9	79	10.0
Sun Jan 31 10:10:33 2010	Indianapolis, Indiana 	 Partly Cloudy	12	Calm		8	30.21	12	84	10.0
Sun Jan 31 10:54:19 2010	Indianapolis, Indiana 	 Partly Cloudy	12	Calm		8	30.21	12	84	10.0
Sun Jan 31 11:37:47 2010	Indianapolis, Indiana 	 Partly Cloudy	9	WNW	5	6	30.24	1	88	8.0
Sun Jan 31 12:21:25 2010	Indianapolis, Indiana 	 Partly Cloudy	10	WNW	4	7	30.25	4	87	9.0
Sun Jan 31 13:04:27 2010	Indianapolis, Indiana 	 Partly Cloudy	10	Calm		7	30.27	10	87	8.0
Sun Jan 31 13:48:30 2010	Indianapolis, Indiana 	 Partly Cloudy	10	Calm		7	30.27	10	87	8.0
Sun Jan 31 14:31:19 2010	Indianapolis, Indiana 	 Partly Cloudy	8	WSW	4	5	30.28	1	87	8.0
Sun Jan 31 15:15:14 2010	Indianapolis, Indiana 	 Clear	12	Calm		10	30.29	12	92	7.0
Sun Jan 31 15:58:41 2010	Indianapolis, Indiana 	 Clear	15	Calm		12	30.29	16	88	8.0
Sun Jan 31 16:48:27 2010	Indianapolis, Indiana 	 Clear	15	Calm		12	30.29	16	88	8.0
Sun Jan 31 17:32:23 2010	Indianapolis, Indiana 	 Clear	20	SW	6	14	30.29	12	78	10.0
Sun Jan 31 18:16:41 2010	Indianapolis, Indiana 	 Clear	23	SW	7	14	30.30	15	68	10.0
Sun Jan 31 19:00:48 2010	Indianapolis, Indiana 	 Clear	25	SW	8	14	30.27	16	63	10.0
Sun Jan 31 19:46:22 2010	Indianapolis, Indiana 	 Clear	25	SW	8	14	30.27	16	63	10.0
Sun Jan 31 20:29:22 2010	Indianapolis, Indiana 	 Clear	27	West	9	14	30.26	18	58	10.0
Sun Jan 31 21:13:28 2010	Indianapolis, Indiana 	 Clear	28	West	9	15	30.26	19	58	10.0
Sun Jan 31 21:56:51 2010	Indianapolis, Indiana 	 Clear	28	West	9	15	30.26	19	58	10.0
Sun Jan 31 22:41:40 2010	Indianapolis, Indiana 	 Clear	28	WSW	13	14	30.27	18	56	10.0
Sun Jan 31 23:24:45 2010	Indianapolis, Indiana 	 Partly Cloudy	29	WSW	10	13	30.27	20	51	10.0
Thu Feb  4 00:10:21 2010	Indianapolis, Indiana 	 Scattered Clouds	28	Calm		21	30.32	28	75	7.0
Thu Feb  4 00:54:31 2010	Indianapolis, Indiana 	 Scattered Clouds	28	Calm		21	30.32	28	75	7.0
Thu Feb  4 01:37:31 2010	Indianapolis, Indiana 	 Partly Cloudy	27	Calm		20	30.35	27	75	7.0
Thu Feb  4 02:24:41 2010	Indianapolis, Indiana 	 Clear	26	NNW	4	20	30.38	22	78	7.0
Thu Feb  4 03:08:37 2010	Indianapolis, Indiana 	 Partly Cloudy	25	North	5	20	30.38	19	81	7.0
Thu Feb  4 03:53:05 2010	Indianapolis, Indiana 	 Haze	25	North	5	19	30.36	19	80	6.0
Thu Feb  4 04:36:18 2010	Indianapolis, Indiana 	 Haze	27	NE	6	21	30.36	20	80	6.0
Thu Feb  4 05:19:29 2010	Indianapolis, Indiana 	 Haze	26	NE	7	21	30.39	18	81	6.0
Thu Feb  4 06:02:36 2010	Indianapolis, Indiana 	 Partly Cloudy	26	ENE	6	21	30.38	19	81	8.0
Thu Feb  4 06:45:36 2010	Indianapolis, Indiana 	 Partly Cloudy	26	ENE	6	21	30.38	19	81	8.0
Thu Feb  4 07:29:12 2010	Indianapolis, Indiana 	 Mostly Cloudy	25	NE	4	21	30.37	21	85	8.0
Thu Feb  4 08:11:53 2010	Indianapolis, Indiana 	 Mostly Cloudy	24	NE	5	20	30.35	18	84	7.0
Thu Feb  4 08:55:37 2010	Indianapolis, Indiana 	 Mostly Cloudy	24	NE	5	20	30.35	18	84	7.0
Thu Feb  4 09:39:21 2010	Indianapolis, Indiana 	 Overcast	25	ENE	5	21	30.38	19	85	7.0
Thu Feb  4 10:22:44 2010	Indianapolis, Indiana 	 Overcast	26	ENE	5	22	30.39	20	84	7.0
Thu Feb  4 11:08:58 2010	Indianapolis, Indiana 	 Overcast	25	NE	6	21	30.38	18	85	7.0
Thu Feb  4 11:52:32 2010	Indianapolis, Indiana 	 Overcast	25	NE	6	21	30.38	18	85	7.0
Thu Feb  4 12:35:40 2010	Indianapolis, Indiana 	 Overcast	25	NE	5	21	30.38	19	85	7.0
Thu Feb  4 13:19:10 2010	Indianapolis, Indiana 	 Overcast	26	ENE	4	22	30.39	22	84	6.0
Thu Feb  4 14:03:31 2010	Indianapolis, Indiana 	 Overcast	27	East	8	22	30.40	19	81	4.0
Thu Feb  4 14:56:12 2010	Indianapolis, Indiana 	 Overcast	27	East	8	22	30.40	19	81	4.0
Thu Jan 28 15:36:25 2010	Indianapolis, Indiana 	 Scattered Clouds	14	WNW	18	7	30.38	-3	74	10.0
Thu Jan 28 15:57:34 2010	Indianapolis, Indiana 	 Scattered Clouds	14	WNW	18	7	30.41	-3	74	10.0
Thu Jan 28 16:45:52 2010	Indianapolis, Indiana 	 Scattered Clouds	14	WNW	18	7	30.41	-3	74	10.0
Thu Jan 28 17:10:44 2010	Indianapolis, Indiana 	 Scattered Clouds	15	NW	16	6	30.44	-1	68	10.0
Thu Jan 28 17:26:56 2010	Indianapolis, Indiana 	 Scattered Clouds	15	NW	16	6	30.44	-1	68	10.0
Tue Feb  2 00:26:08 2010	Indianapolis, Indiana 	 Mostly Cloudy	35	ESE	7	16	30.20	29	46	10.0
Tue Feb  2 01:11:39 2010	Indianapolis, Indiana 	 Mostly Cloudy	34	ESE	5	19	30.19	30	54	10.0
Tue Feb  2 01:55:03 2010	Indianapolis, Indiana 	 Mostly Cloudy	34	ESE	5	19	30.19	30	54	10.0
Tue Feb  2 02:39:04 2010	Indianapolis, Indiana 	 Overcast	34	East	4	20	30.19	31	56	10.0
Tue Feb  2 03:22:15 2010	Indianapolis, Indiana 	 Overcast	34	East	4	19	30.19	31	54	10.0
Tue Feb  2 04:06:17 2010	Indianapolis, Indiana 	 Overcast	33	East	5	19	30.16	29	56	10.0
Tue Feb  2 04:49:54 2010	Indianapolis, Indiana 	 Overcast	33	East	5	19	30.16	29	56	10.0
Tue Feb  2 05:33:16 2010	Indianapolis, Indiana 	 Overcast	33	East	6	20	30.14	28	59	10.0
Tue Feb  2 06:16:13 2010	Indianapolis, Indiana 	 Overcast	33	East	6	20	30.13	28	59	10.0
Tue Feb  2 07:03:42 2010	Indianapolis, Indiana 	 Overcast	32	ESE	6	21	30.13	26	64	10.0
Tue Feb  2 07:46:47 2010	Indianapolis, Indiana 	 Overcast	32	ESE	6	21	30.13	26	64	10.0
Tue Feb  2 08:29:53 2010	Indianapolis, Indiana 	 Overcast	33	SSE	7	21	30.12	27	61	10.0
Tue Feb  2 09:13:21 2010	Indianapolis, Indiana 	 Light Snow	34	SE	6	21	30.09	29	60	10.0
Tue Feb  2 09:56:53 2010	Indianapolis, Indiana 	 Light Snow	34	SE	6	21	30.09	29	60	10.0
Tue Feb  2 10:40:31 2010	Indianapolis, Indiana 	 Light Snow	32	East	6	23	30.07	26	69	9.0
Tue Feb  2 11:24:36 2010	Indianapolis, Indiana 	 Overcast	30	Calm		25	30.05	30	80	10.0
Tue Feb  2 12:08:10 2010	Indianapolis, Indiana 	 Overcast	32	ENE	4	25	30.06	29	75	10.0
Tue Feb  2 12:52:28 2010	Indianapolis, Indiana 	 Overcast	32	East	6	25	30.04	26	75	10.0
Tue Feb  2 13:35:48 2010	Indianapolis, Indiana 	 Overcast	30	East	5	25	30.05	25	80	9.0
Tue Feb  2 14:19:17 2010	Indianapolis, Indiana 	 Mostly Cloudy	31	East	4	24	30.07	28	76	10.0
Tue Feb  2 15:03:47 2010	Indianapolis, Indiana 	 Mostly Cloudy	32	East	6	24	30.07	26	73	10.0
Tue Feb  2 15:50:07 2010	Indianapolis, Indiana 	 Mostly Cloudy	32	East	6	24	30.07	26	73	10.0
Tue Feb  2 16:42:46 2010	Indianapolis, Indiana 	 Mostly Cloudy	34	SE	6	23	30.06	29	64	10.0
Tue Feb  2 17:30:23 2010	Indianapolis, Indiana 	 Mostly Cloudy	36	SSE	6	21	30.04	31	55	10.0
Tue Feb  2 18:15:47 2010	Indianapolis, Indiana 	 Overcast	37	SSW	5	22	30.03	33	54	10.0
Tue Feb  2 18:59:48 2010	Indianapolis, Indiana 	 Overcast	38	SSW	7	22	30.00	33	53	10.0
Tue Feb  2 19:48:51 2010	Indianapolis, Indiana 	 Overcast	38	SSW	7	22	30.00	33	53	10.0
Tue Feb  2 20:40:29 2010	Indianapolis, Indiana 	 Overcast	37	WSW	9	23	29.99	30	57	10.0
Tue Feb  2 21:27:03 2010	Indianapolis, Indiana 	 Overcast	37	WSW	7	24	29.99	32	59	10.0
Tue Feb  2 22:14:45 2010	Indianapolis, Indiana 	 Overcast	38	WSW	12	25	29.99	30	60	10.0
Tue Feb  2 23:00:00 2010	Indianapolis, Indiana 	 Overcast	37	West	9	25	30.01	30	62	10.0
Tue Feb  2 23:44:59 2010	Indianapolis, Indiana 	 Overcast	37	West	9	25	30.01	30	62	10.0
Wed Feb  3 00:29:53 2010	Indianapolis, Indiana 	 Overcast	35	West	9	26	30.03	28	70	10.0
Wed Feb  3 01:16:53 2010	Indianapolis, Indiana 	 Overcast	34	West	13	27	30.04	25	75	10.0
Wed Feb  3 02:01:43 2010	Indianapolis, Indiana 	 Overcast	34	West	12	28	30.06	26	79	10.0
Wed Feb  3 02:50:26 2010	Indianapolis, Indiana 	 Overcast	34	West	12	28	30.06	26	79	10.0
Wed Feb  3 03:37:23 2010	Indianapolis, Indiana 	 Light Snow	33	West	10	28	30.08	25	82	8.0
Wed Feb  3 04:25:28 2010	Indianapolis, Indiana 	 Overcast	33	West	10	28	30.09	25	82	10.0
Wed Feb  3 05:12:02 2010	Indianapolis, Indiana 	 Overcast	33	West	12	27	30.10	24	78	10.0
Wed Feb  3 06:00:03 2010	Indianapolis, Indiana 	 Overcast	32	West	9	27	30.12	24	82	10.0
Wed Feb  3 06:46:52 2010	Indianapolis, Indiana 	 Overcast	32	West	9	27	30.12	24	82	10.0
Wed Feb  3 07:31:27 2010	Indianapolis, Indiana 	 Overcast	32	West	8	27	30.11	25	82	10.0
Wed Feb  3 08:14:33 2010	Indianapolis, Indiana 	 Overcast	32	West	7	27	30.12	26	82	9.0
Wed Feb  3 09:00:57 2010	Indianapolis, Indiana 	 Light Rain	32	West	7	28	30.15	26	85	5.0
Wed Feb  3 09:44:24 2010	Indianapolis, Indiana 	 Light Rain	30	WNW	13	27	30.15	20	86	4.0
Wed Feb  3 10:28:23 2010	Indianapolis, Indiana 	 Light Snow	29	WNW	7	26	30.17	22	89	4.0
Wed Feb  3 11:15:04 2010	Indianapolis, Indiana 	 Overcast	29	WNW	13	22	30.18	19	75	7.0
Wed Feb  3 11:59:53 2010	Indianapolis, Indiana 	 Partly Cloudy	25	West	7	18	30.18	17	75	8.0
Wed Feb  3 12:43:05 2010	Indianapolis, Indiana 	 Mostly Cloudy	25	NW	9	19	30.18	15	80	7.0
Wed Feb  3 13:26:47 2010	Indianapolis, Indiana 	 Overcast	25	WNW	10	20	30.22	15	81	7.0
Wed Feb  3 14:12:27 2010	Indianapolis, Indiana 	 Haze	24	WNW	7	18	30.22	16	77	4.0
Wed Feb  3 14:58:15 2010	Indianapolis, Indiana 	 Haze	24	WNW	7	18	30.22	16	77	4.0
Wed Feb  3 15:43:25 2010	Indianapolis, Indiana 	 Haze	23	NW	7	18	30.28	15	81	2.5
Wed Feb  3 16:29:03 2010	Indianapolis, Indiana 	 Haze	24	NW	8	19	30.29	15	81	2.0
Wed Feb  3 17:16:29 2010	Indianapolis, Indiana 	 Light Snow	25	WNW	6	19	30.29	18	78	3.0
Wed Feb  3 18:05:04 2010	Indianapolis, Indiana 	 Haze	26	WNW	6	20	30.31	19	78	4.0
Wed Feb  3 18:48:09 2010	Indianapolis, Indiana 	 Haze	26	WNW	6	20	30.31	19	78	4.0
Wed Feb  3 19:31:58 2010	Indianapolis, Indiana 	 Haze	28	NW	5	21	30.32	23	75	5.0
Wed Feb  3 20:15:41 2010	Indianapolis, Indiana 	 Haze	28	NW	6	21	30.31	22	75	6.0
Wed Feb  3 21:00:27 2010	Indianapolis, Indiana 	 Haze	28	NW	6	21	30.31	22	75	6.0
Wed Feb  3 21:48:17 2010	Indianapolis, Indiana 	 Haze	28	NW	5	21	30.29	23	75	6.0
Wed Feb  3 22:33:49 2010	Indianapolis, Indiana 	 Overcast	29	NNE	5	21	30.30	24	72	8.0
Wed Feb  3 23:24:36 2010	Indianapolis, Indiana 	 Overcast	29	North	4	21	30.32	25	72	8.0
Fri Jan 29 08:39:42 2010	Jacksonville, Florida 	 Scattered Clouds	49	Calm		41	30.17	48	74	10.0
Fri Jan 29 09:23:38 2010	Jacksonville, Florida 	 Scattered Clouds	49	North	5	42	30.17	47	77	10.0
Fri Jan 29 11:55:39 2010	Jacksonville, Florida 	 Overcast	49	Calm		42	30.17	48	77	10.0
Fri Jan 29 12:40:12 2010	Jacksonville, Florida 	 Overcast	49	Calm		42	30.17	48	77	10.0
Fri Jan 29 13:26:45 2010	Jacksonville, Florida 	 Overcast	50	Calm		46	30.17	50	86	10.0
Fri Jan 29 14:15:33 2010	Jacksonville, Florida 	 Overcast	52	NNE	4	46	30.16		80	9.0
Fri Jan 29 15:00:13 2010	Jacksonville, Florida 	 Overcast	52	NNE	4	46	30.16		80	9.0
Fri Jan 29 15:46:05 2010	Jacksonville, Florida 	 Overcast	54	North	5	47	30.18		77	9.0
Fri Jan 29 16:33:29 2010	Jacksonville, Florida 	 Overcast	55	SE	5	44	30.19		67	9.0
Fri Jan 29 17:18:05 2010	Jacksonville, Florida 	 Overcast	59	ESE	6	40	30.18		49	10.0
Fri Jan 29 18:06:20 2010	Jacksonville, Florida 	 Overcast	63	East	8	38	30.14		40	10.0
Fri Jan 29 18:50:58 2010	Jacksonville, Florida 	 Overcast	63	East	8	38	30.14		40	10.0
Fri Jan 29 19:43:26 2010	Jacksonville, Florida 	 Mostly Cloudy	65	East	6	40	30.11		40	10.0
Fri Jan 29 20:41:31 2010	Jacksonville, Florida 	 Mostly Cloudy	67	ESE	7	42	30.08		40	10.0
Fri Jan 29 21:25:30 2010	Jacksonville, Florida 	 Overcast	68	NE	6	45	30.07		43	10.0
Fri Jan 29 22:11:32 2010	Jacksonville, Florida 	 Overcast	66	East	12	46	30.05		48	10.0
Fri Jan 29 22:57:52 2010	Jacksonville, Florida 	 Overcast	63	East	10	46	30.05		54	10.0
Fri Jan 29 23:41:54 2010	Jacksonville, Florida 	 Overcast	63	East	10	46	30.05		54	10.0
Mon Feb  1 00:08:51 2010	Jacksonville, Florida 	 Mostly Cloudy	44	NE	14	35	30.24	37	71	10.0
Mon Feb  1 00:52:06 2010	Jacksonville, Florida 	 Mostly Cloudy	44	NE	14	35	30.24	37	71	10.0
Mon Feb  1 01:36:49 2010	Jacksonville, Florida 	 Overcast	45	NE	13	36	30.23	39	71	10.0
Mon Feb  1 02:21:43 2010	Jacksonville, Florida 	 Mostly Cloudy	45	NNE	12	37	30.24	39	76	10.0
Mon Feb  1 03:05:52 2010	Jacksonville, Florida 	 Mostly Cloudy	46	NNE	13	38	30.23	40	73	10.0
Mon Feb  1 03:49:24 2010	Jacksonville, Florida 	 Mostly Cloudy	46	NNE	13	38	30.23	40	73	10.0
Mon Feb  1 04:35:02 2010	Jacksonville, Florida 	 Mostly Cloudy	47	NNE	13	39	30.22	41	74	10.0
Mon Feb  1 05:18:39 2010	Jacksonville, Florida 	 Mostly Cloudy	47	North	10	40	30.22	42	77	10.0
Mon Feb  1 06:03:33 2010	Jacksonville, Florida 	 Mostly Cloudy	47	NNE	12	40	30.22	42	77	10.0
Mon Feb  1 06:46:26 2010	Jacksonville, Florida 	 Mostly Cloudy	47	NNE	12	40	30.22	42	77	10.0
Mon Feb  1 07:30:31 2010	Jacksonville, Florida 	 Mostly Cloudy	48	NNE	12	41	30.22	43	77	10.0
Mon Feb  1 08:13:41 2010	Jacksonville, Florida 	 Mostly Cloudy	47	North	9	42	30.23	43	83	10.0
Mon Feb  1 08:57:23 2010	Jacksonville, Florida 	 Mostly Cloudy	49	NNE	15	42	30.22	43	77	10.0
Mon Feb  1 09:40:25 2010	Jacksonville, Florida 	 Mostly Cloudy	49	NNE	15	42	30.22	43	77	10.0
Mon Feb  1 10:23:46 2010	Jacksonville, Florida 	 Mostly Cloudy	49	NE	10	42	30.20	45	77	10.0
Mon Feb  1 11:06:53 2010	Jacksonville, Florida 	 Mostly Cloudy	49	NE	14	43	30.20	44	80	10.0
Mon Feb  1 11:50:11 2010	Jacksonville, Florida 	 Mostly Cloudy	49	NE	14	43	30.20	44	80	10.0
Mon Feb  1 12:33:41 2010	Jacksonville, Florida 	 Mostly Cloudy	50	NNE	12	44	30.21	46	80	10.0
Mon Feb  1 13:17:11 2010	Jacksonville, Florida 	 Mostly Cloudy	51	NE	12	46	30.21		83	10.0
Mon Feb  1 14:00:59 2010	Jacksonville, Florida 	 Overcast	52	NE	14	47	30.22		83	10.0
Mon Feb  1 14:45:28 2010	Jacksonville, Florida 	 Overcast	52	NE	14	47	30.22		83	10.0
Mon Feb  1 15:29:48 2010	Jacksonville, Florida 	 Overcast	53	NE	12	47	30.23		80	10.0
Mon Feb  1 16:13:57 2010	Jacksonville, Florida 	 Overcast	56	NE	13	48	30.23		75	10.0
Mon Feb  1 16:59:06 2010	Jacksonville, Florida 	 Overcast	57	NE	12	48	30.23		72	10.0
Mon Feb  1 17:43:10 2010	Jacksonville, Florida 	 Overcast	57	NE	12	48	30.23		72	10.0
Mon Feb  1 18:26:20 2010	Jacksonville, Florida 	 Overcast	58	NE	12	49	30.21		72	10.0
Mon Feb  1 19:10:04 2010	Jacksonville, Florida 	 Overcast	59	NE	14	50	30.18		72	10.0
Mon Feb  1 19:55:13 2010	Jacksonville, Florida 	 Overcast	59	NE	14	50	30.18		72	10.0
Mon Feb  1 20:41:40 2010	Jacksonville, Florida 	 Overcast	59	NE	16	50	30.16		72	10.0
Mon Feb  1 21:26:28 2010	Jacksonville, Florida 	 Overcast	59	NE	15	51	30.13		75	10.0
Mon Feb  1 22:10:00 2010	Jacksonville, Florida 	 Overcast	58	NE	10	51	30.12		78	10.0
Mon Feb  1 22:53:17 2010	Jacksonville, Florida 	 Overcast	58	NE	10	51	30.12		78	10.0
Mon Feb  1 23:39:21 2010	Jacksonville, Florida 	 Overcast	57	NNE	10	52	30.13		83	10.0
Sat Jan 30 00:25:56 2010	Jacksonville, Florida 	 Overcast	60	East	9	45	30.04		57	10.0
Sat Jan 30 01:10:05 2010	Jacksonville, Florida 	 Overcast	59	ENE	5	49	30.04		69	10.0
Sat Jan 30 01:53:48 2010	Jacksonville, Florida 	 Overcast	59	ENE	5	49	30.04		69	10.0
Sat Jan 30 02:38:27 2010	Jacksonville, Florida 	 Overcast	57	NNE	8	51	30.04		81	10.0
Sat Jan 30 03:22:05 2010	Jacksonville, Florida 	 Overcast	56	NE	7	51	30.03		84	10.0
Sat Jan 30 04:05:58 2010	Jacksonville, Florida 	 Mostly Cloudy	56	NNE	5	51	30.02		84	10.0
Sat Jan 30 04:49:40 2010	Jacksonville, Florida 	 Mostly Cloudy	56	NNE	5	51	30.02		84	10.0
Sat Jan 30 05:33:29 2010	Jacksonville, Florida 	 Overcast	57	North	5	52	30.02		83	10.0
Sat Jan 30 06:17:10 2010	Jacksonville, Florida 	 Overcast	58	NNE	6	53	30.00		84	10.0
Sat Jan 30 07:02:51 2010	Jacksonville, Florida 	 Overcast	58	North	9	53	29.99		84	10.0
Sat Jan 30 07:46:23 2010	Jacksonville, Florida 	 Overcast	58	North	9	53	29.99		84	10.0
Sat Jan 30 08:29:25 2010	Jacksonville, Florida 	 Overcast	58	ENE	4	53	29.97		84	10.0
Sat Jan 30 11:59:01 2010	Jacksonville, Florida 	 Overcast	60	South	9	57	29.83		90	10.0
Sat Jan 30 12:42:48 2010	Jacksonville, Florida 	 Overcast	60	South	9	57	29.83		90	10.0
Sat Jan 30 13:26:01 2010	Jacksonville, Florida 	 Overcast	61	South	10	58	29.82		90	10.0
Sat Jan 30 14:09:44 2010	Jacksonville, Florida 	 Overcast	62	South	9	58	29.81		86	10.0
Sat Jan 30 14:54:00 2010	Jacksonville, Florida 	 Overcast	62	South	9	58	29.81		86	10.0
Sat Jan 30 15:38:36 2010	Jacksonville, Florida 	 Heavy Rain	64	SW	9	59	29.88		83	4.0
Sat Jan 30 16:24:51 2010	Jacksonville, Florida 	 Rain	63	South	10	60	29.86		90	5.0
Sat Jan 30 17:09:13 2010	Jacksonville, Florida 	 Light Rain	63	South	12	61	29.83		93	8.0
Sat Jan 30 17:52:41 2010	Jacksonville, Florida 	 Light Rain	63	South	12	61	29.83		93	8.0
Sat Jan 30 18:36:32 2010	Jacksonville, Florida 	 Overcast	63	South	10	62	29.81		97	8.0
Sat Jan 30 19:19:46 2010	Jacksonville, Florida 	 Overcast	66	SSW	16	64	29.77		94	9.0
Sat Jan 30 20:03:53 2010	Jacksonville, Florida 	 Overcast	68	SSW	16	64	29.74		87	10.0
Sat Jan 30 20:47:03 2010	Jacksonville, Florida 	 Overcast	68	SSW	16	64	29.74		87	10.0
Sat Jan 30 21:31:03 2010	Jacksonville, Florida 	 Overcast	69	SSW	20	65	29.72		87	10.0
Sat Jan 30 22:14:06 2010	Jacksonville, Florida 	 Overcast	70	SW	17	65	29.73		84	10.0
Sat Jan 30 22:58:51 2010	Jacksonville, Florida 	 Overcast	69	SW	15	66	29.74		90	9.0
Sat Jan 30 23:44:35 2010	Jacksonville, Florida 	 Overcast	70	SW	12	66	29.75		88	10.0
Sun Jan 31 00:28:36 2010	Jacksonville, Florida 	 Mostly Cloudy	69	SW	14	65	29.75		87	10.0
Sun Jan 31 01:19:14 2010	Jacksonville, Florida 	 Mostly Cloudy	68	WSW	13	61	29.77		78	10.0
Sun Jan 31 02:03:08 2010	Jacksonville, Florida 	 Mostly Cloudy	66	WSW	10	59	29.79		78	10.0
Sun Jan 31 02:46:44 2010	Jacksonville, Florida 	 Mostly Cloudy	66	WSW	10	59	29.79		78	10.0
Sun Jan 31 03:30:45 2010	Jacksonville, Florida 	 Overcast	63	West	12	55	29.84		77	10.0
Sun Jan 31 04:13:29 2010	Jacksonville, Florida 	 Overcast	55	North	22	52	29.86		89	10.0
Sun Jan 31 04:58:36 2010	Jacksonville, Florida 	 Overcast	52	NW	15	47	29.92		83	10.0
Sun Jan 31 05:44:50 2010	Jacksonville, Florida 	 Overcast	52	NNW	17	45	29.95		76	10.0
Sun Jan 31 06:29:53 2010	Jacksonville, Florida 	 Overcast	51	NNW	15	44	29.94		77	10.0
Sun Jan 31 07:12:57 2010	Jacksonville, Florida 	 Overcast	49	NNW	18	41	29.96	42	74	10.0
Sun Jan 31 07:59:33 2010	Jacksonville, Florida 	 Mostly Cloudy	48	NW	12	40	29.97	43	74	10.0
Sun Jan 31 08:44:22 2010	Jacksonville, Florida 	 Mostly Cloudy	48	NW	12	40	29.97	43	74	10.0
Sun Jan 31 09:27:28 2010	Jacksonville, Florida 	 Overcast	47	NNW	12	39	29.99	42	74	10.0
Sun Jan 31 10:10:42 2010	Jacksonville, Florida 	 Overcast	46	North	14	38	30.01	40	73	10.0
Sun Jan 31 10:54:27 2010	Jacksonville, Florida 	 Overcast	46	North	14	38	30.01	40	73	10.0
Sun Jan 31 11:37:55 2010	Jacksonville, Florida 	 Overcast	44	North	16	36	30.04	37	73	10.0
Sun Jan 31 12:21:33 2010	Jacksonville, Florida 	 Overcast	44	North	16	36	30.07	37	73	10.0
Sun Jan 31 13:04:35 2010	Jacksonville, Florida 	 Overcast	42	North	17	34	30.11	34	73	10.0
Sun Jan 31 13:48:39 2010	Jacksonville, Florida 	 Overcast	42	North	17	34	30.11	34	73	10.0
Sun Jan 31 14:31:27 2010	Jacksonville, Florida 	 Mostly Cloudy	41	North	17	33	30.14	32	73	10.0
Sun Jan 31 15:15:22 2010	Jacksonville, Florida 	 Mostly Cloudy	42	North	16	33	30.17	34	70	10.0
Sun Jan 31 15:58:50 2010	Jacksonville, Florida 	 Mostly Cloudy	42	NNE	14	32	30.19	35	67	10.0
Sun Jan 31 16:48:36 2010	Jacksonville, Florida 	 Mostly Cloudy	42	NNE	14	32	30.19	35	67	10.0
Sun Jan 31 17:32:32 2010	Jacksonville, Florida 	 Mostly Cloudy	43	NNE	12	33	30.22	37	68	10.0
Sun Jan 31 18:16:49 2010	Jacksonville, Florida 	 Mostly Cloudy	45	NE	13	33	30.22	39	63	10.0
Sun Jan 31 19:00:57 2010	Jacksonville, Florida 	 Mostly Cloudy	45	NNE	18	34	30.21	37	65	10.0
Sun Jan 31 19:46:30 2010	Jacksonville, Florida 	 Mostly Cloudy	45	NNE	18	34	30.21	37	65	10.0
Sun Jan 31 20:29:31 2010	Jacksonville, Florida 	 Mostly Cloudy	44	NNE	16	34	30.21	37	68	10.0
Sun Jan 31 21:13:38 2010	Jacksonville, Florida 	 Mostly Cloudy	45	NE	16	33	30.19	38	63	10.0
Sun Jan 31 21:57:00 2010	Jacksonville, Florida 	 Mostly Cloudy	45	NE	12	34	30.21	39	65	10.0
Sun Jan 31 22:41:49 2010	Jacksonville, Florida 	 Mostly Cloudy	45	NE	12	34	30.21	39	65	10.0
Sun Jan 31 23:24:54 2010	Jacksonville, Florida 	 Mostly Cloudy	44	NE	15	35	30.22	37	71	10.0
Thu Feb  4 00:10:29 2010	Jacksonville, Florida 	 Mostly Cloudy	53	ENE	10	43	30.16		69	10.0
Thu Feb  4 00:54:40 2010	Jacksonville, Florida 	 Mostly Cloudy	54	NE	7	45	30.17		72	10.0
Thu Feb  4 01:37:40 2010	Jacksonville, Florida 	 Mostly Cloudy	51	NE	6	44	30.15		77	10.0
Thu Feb  4 02:24:49 2010	Jacksonville, Florida 	 Scattered Clouds	51	NNE	7	45	30.17		80	10.0
Thu Feb  4 03:08:46 2010	Jacksonville, Florida 	 Scattered Clouds	51	North	8	45	30.19		80	10.0
Thu Feb  4 03:53:14 2010	Jacksonville, Florida 	 Scattered Clouds	51	North	8	45	30.19		80	10.0
Thu Feb  4 04:36:26 2010	Jacksonville, Florida 	 Mostly Cloudy	50	North	13	44	30.19	45	80	10.0
Thu Feb  4 05:19:37 2010	Jacksonville, Florida 	 Mostly Cloudy	50	North	12	44	30.21	46	80	10.0
Thu Feb  4 06:02:44 2010	Jacksonville, Florida 	 Scattered Clouds	48	NNE	8	44	30.18	44	86	10.0
Thu Feb  4 06:45:44 2010	Jacksonville, Florida 	 Scattered Clouds	48	NNE	8	44	30.18	44	86	10.0
Thu Feb  4 07:29:21 2010	Jacksonville, Florida 	 Scattered Clouds	48	NNE	9	45	30.17	44	89	10.0
Thu Feb  4 08:12:01 2010	Jacksonville, Florida 	 Mostly Cloudy	49	NNE	7	46	30.15	46	90	10.0
Thu Feb  4 08:55:45 2010	Jacksonville, Florida 	 Overcast	50	NNE	6	47	30.14	48	89	10.0
Thu Feb  4 09:39:29 2010	Jacksonville, Florida 	 Overcast	50	NNE	6	47	30.14	48	89	10.0
Thu Feb  4 10:22:53 2010	Jacksonville, Florida 	 Overcast	52	NNE	8	48	30.15		86	10.0
Thu Feb  4 11:09:06 2010	Jacksonville, Florida 	 Overcast	54	NE	16	49	30.15		83	10.0
Thu Feb  4 11:52:41 2010	Jacksonville, Florida 	 Overcast	54	NE	16	49	30.15		83	10.0
Thu Feb  4 12:35:49 2010	Jacksonville, Florida 	 Overcast	55	NE	13	49	30.17		80	10.0
Thu Feb  4 13:19:19 2010	Jacksonville, Florida 	 Mostly Cloudy	56	NE	10	49	30.18		77	10.0
Thu Feb  4 14:03:39 2010	Jacksonville, Florida 	 Mostly Cloudy	56	NNE	10	50	30.20		80	10.0
Thu Feb  4 14:56:21 2010	Jacksonville, Florida 	 Mostly Cloudy	58	NE	14	50	30.19		75	10.0
Thu Jan 28 15:36:34 2010	Jacksonville, Florida 	 Partly Cloudy	47	North	4	41	30.34	46	80	9.0
Thu Jan 28 15:57:43 2010	Jacksonville, Florida 	 Scattered Clouds	51	NNE	4	42	30.34		71	10.0
Thu Jan 28 16:46:01 2010	Jacksonville, Florida 	 Scattered Clouds	51	NNE	4	42	30.34		71	10.0
Thu Jan 28 17:10:54 2010	Jacksonville, Florida 	 Scattered Clouds	55	Calm		38	30.33		53	10.0
Thu Jan 28 17:27:09 2010	Jacksonville, Florida 	 Scattered Clouds	55	Calm		38	30.33		53	10.0
Tue Feb  2 00:26:16 2010	Jacksonville, Florida 	 Overcast	57	NNE	10	52	30.13		83	10.0
Tue Feb  2 01:11:50 2010	Jacksonville, Florida 	 Overcast	57	NNE	10	52	30.12		83	10.0
Tue Feb  2 01:55:12 2010	Jacksonville, Florida 	 Overcast	57	NNE	10	52	30.12		83	10.0
Tue Feb  2 02:39:13 2010	Jacksonville, Florida 	 Overcast	57	NNE	5	53	30.12		87	10.0
Tue Feb  2 03:22:23 2010	Jacksonville, Florida 	 Overcast	57	NNE	7	53	30.11		87	10.0
Tue Feb  2 04:06:26 2010	Jacksonville, Florida 	 Light Rain	57	NNE	8	54	30.10		89	7.0
Tue Feb  2 04:50:03 2010	Jacksonville, Florida 	 Light Rain	55	NE	7	54	30.09		94	7.0
Tue Feb  2 05:33:25 2010	Jacksonville, Florida 	 Rain	55	NE	5	55	30.07		100	2.5
Tue Feb  2 06:16:22 2010	Jacksonville, Florida 	 Rain	55	North	6	55	30.05		100	3.0
Tue Feb  2 07:03:50 2010	Jacksonville, Florida 	 Light Rain	57	NE	7	57	30.01		100	4.0
Tue Feb  2 07:46:56 2010	Jacksonville, Florida 	 Light Rain	57	NE	7	57	30.01		100	3.0
Tue Feb  2 08:30:01 2010	Jacksonville, Florida 	 Light Rain	61	East	7	61	30.00		100	5.0
Tue Feb  2 09:13:30 2010	Jacksonville, Florida 	 Light Rain	61	East	5	60	29.96		97	6.0
Tue Feb  2 09:57:01 2010	Jacksonville, Florida 	 Light Rain	61	East	5	60	29.94		97	6.0
Tue Feb  2 10:40:40 2010	Jacksonville, Florida 	 Light Rain	61	Calm		61	29.95		100	4.0
Tue Feb  2 11:24:44 2010	Jacksonville, Florida 	 Rain	61	Calm		61	29.94		100	2.5
Tue Feb  2 12:08:19 2010	Jacksonville, Florida 	 Light Rain	61	West	10	61	29.95		100	2.0
Tue Feb  2 12:52:37 2010	Jacksonville, Florida 	 Rain	61	WNW	5	59	29.95		94	3.0
Tue Feb  2 13:35:57 2010	Jacksonville, Florida 	 Overcast	59	WNW	4	57	29.96		94	10.0
Tue Feb  2 14:19:26 2010	Jacksonville, Florida 	 Overcast	58	WNW	7	57	29.95		97	7.0
Tue Feb  2 15:03:56 2010	Jacksonville, Florida 	 Overcast	58	Calm		57	29.95		97	7.0
Tue Feb  2 15:50:16 2010	Jacksonville, Florida 	 Light Rain	59	SW	4	57	29.98		94	6.0
Tue Feb  2 16:42:55 2010	Jacksonville, Florida 	 Rain	59	West	4	58	29.96		96	4.0
Tue Feb  2 17:30:31 2010	Jacksonville, Florida 	 Overcast	61	West	8	59	29.97		94	7.0
Tue Feb  2 18:15:55 2010	Jacksonville, Florida 	 Overcast	60	West	10	58	29.95		93	7.0
Tue Feb  2 18:59:57 2010	Jacksonville, Florida 	 Overcast	60	West	10	57	29.93		90	10.0
Tue Feb  2 19:49:00 2010	Jacksonville, Florida 	 Overcast	61	WNW	9	57	29.94		88	10.0
Tue Feb  2 20:40:38 2010	Jacksonville, Florida 	 Overcast	60	WNW	10	56	29.91		86	10.0
Tue Feb  2 21:27:11 2010	Jacksonville, Florida 	 Overcast	61	NW	13	55	29.91		81	10.0
Tue Feb  2 22:14:54 2010	Jacksonville, Florida 	 Overcast	60	NW	12	54	29.92		80	10.0
Tue Feb  2 23:00:08 2010	Jacksonville, Florida 	 Overcast	59	NW	8	53	29.94		81	10.0
Tue Feb  2 23:45:08 2010	Jacksonville, Florida 	 Overcast	59	NW	8	53	29.94		81	10.0
Wed Feb  3 00:30:01 2010	Jacksonville, Florida 	 Overcast	58	NW	14	52	29.97		81	10.0
Wed Feb  3 01:17:03 2010	Jacksonville, Florida 	 Overcast	57	NW	9	51	29.99		81	10.0
Wed Feb  3 02:01:52 2010	Jacksonville, Florida 	 Overcast	57	NNW	12	51	29.99		81	10.0
Wed Feb  3 02:50:35 2010	Jacksonville, Florida 	 Overcast	57	NNW	12	51	29.99		81	10.0
Wed Feb  3 03:37:32 2010	Jacksonville, Florida 	 Overcast	56	NNW	14	49	30.01		77	10.0
Wed Feb  3 04:25:38 2010	Jacksonville, Florida 	 Overcast	55	NW	10	48	30.03		77	10.0
Wed Feb  3 05:12:08 2010	Jacksonville, Florida 	 Overcast	54	NNW	10	48	30.05		80	10.0
Wed Feb  3 06:00:12 2010	Jacksonville, Florida 	 Overcast	52	WNW	9	45	30.06		77	10.0
Wed Feb  3 06:47:00 2010	Jacksonville, Florida 	 Overcast	52	WNW	9	45	30.06		77	10.0
Wed Feb  3 07:31:36 2010	Jacksonville, Florida 	 Overcast	51	NNW	16	44	30.07		77	10.0
Wed Feb  3 08:14:41 2010	Jacksonville, Florida 	 Overcast	51	NNW	15	43	30.08		74	10.0
Wed Feb  3 09:01:05 2010	Jacksonville, Florida 	 Overcast	51	NNW	13	43	30.07		74	10.0
Wed Feb  3 09:44:31 2010	Jacksonville, Florida 	 Overcast	51	NNW	13	43	30.07		74	10.0
Wed Feb  3 10:28:30 2010	Jacksonville, Florida 	 Overcast	50	NNW	17	43	30.08	44	77	10.0
Wed Feb  3 11:15:16 2010	Jacksonville, Florida 	 Mostly Cloudy	49	NW	6	42	30.08	46	77	10.0
Wed Feb  3 12:00:02 2010	Jacksonville, Florida 	 Mostly Cloudy	47	West	4	42	30.10	46	83	10.0
Wed Feb  3 12:43:14 2010	Jacksonville, Florida 	 Mostly Cloudy	47	West	4	42	30.10	46	83	10.0
Wed Feb  3 13:26:56 2010	Jacksonville, Florida 	 Mostly Cloudy	48	NNW	9	41	30.11	44	77	10.0
Wed Feb  3 14:12:35 2010	Jacksonville, Florida 	 Mostly Cloudy	47	NNW	9	41	30.13	43	80	10.0
Wed Feb  3 14:58:23 2010	Jacksonville, Florida 	 Partly Cloudy	48	North	15	41	30.13	42	77	10.0
Wed Feb  3 15:43:36 2010	Jacksonville, Florida 	 Partly Cloudy	48	North	15	41	30.13	42	77	10.0
Wed Feb  3 16:29:12 2010	Jacksonville, Florida 	 Partly Cloudy	50	North	9	41	30.16	46	71	10.0
Wed Feb  3 17:16:37 2010	Jacksonville, Florida 	 Partly Cloudy	52	NNE	10	41	30.17		66	10.0
Wed Feb  3 18:05:13 2010	Jacksonville, Florida 	 Partly Cloudy	54	NNE	7	42	30.15		64	10.0
Wed Feb  3 18:48:15 2010	Jacksonville, Florida 	 Partly Cloudy	54	NNE	7	42	30.15		64	10.0
Wed Feb  3 19:32:06 2010	Jacksonville, Florida 	 Partly Cloudy	53	ENE	12	43	30.15		69	10.0
Wed Feb  3 20:15:49 2010	Jacksonville, Florida 	 Mostly Cloudy	53	NNE	10	43	30.14		69	10.0
Wed Feb  3 21:00:35 2010	Jacksonville, Florida 	 Overcast	53	NE	14	44	30.13		71	10.0
Wed Feb  3 21:48:27 2010	Jacksonville, Florida 	 Overcast	53	NE	14	44	30.13		71	10.0
Wed Feb  3 22:33:57 2010	Jacksonville, Florida 	 Overcast	52	NE	9	43	30.14		71	10.0
Wed Feb  3 23:24:44 2010	Jacksonville, Florida 	 Mostly Cloudy	54	ENE	6	43	30.14		66	10.0
Fri Jan 29 08:38:43 2010	Las Vegas, Nevada 	 Clear	47	SSE	4	35	30.07	46	63	10.0
Fri Jan 29 09:22:41 2010	Las Vegas, Nevada 	 Clear	46	NE	8	34	30.06	42	63	10.0
Fri Jan 29 11:54:43 2010	Las Vegas, Nevada 	 Scattered Clouds	45	ESE	4	33	30.06	44	63	10.0
Fri Jan 29 12:39:15 2010	Las Vegas, Nevada 	 Mostly Cloudy	42	Calm		33	30.06	43	70	10.0
Fri Jan 29 13:25:47 2010	Las Vegas, Nevada 	 Mostly Cloudy	42	SSW	4	33	30.06	40	70	10.0
Fri Jan 29 14:14:32 2010	Las Vegas, Nevada 	 Mostly Cloudy	42	Calm		33	30.06	43	70	10.0
Fri Jan 29 14:59:15 2010	Las Vegas, Nevada 	 Mostly Cloudy	42	Calm		33	30.06	43	70	10.0
Fri Jan 29 15:45:11 2010	Las Vegas, Nevada 	 Mostly Cloudy	41	WSW	4	33	30.06	39	73	10.0
Fri Jan 29 16:32:22 2010	Las Vegas, Nevada 	 Mostly Cloudy	42	SW	5	33	30.06	39	70	10.0
Fri Jan 29 17:17:04 2010	Las Vegas, Nevada 	 Mostly Cloudy	42	SW	5	33	30.06	39	70	10.0
Fri Jan 29 18:05:23 2010	Las Vegas, Nevada 	 Mostly Cloudy	46	Calm		34	30.09	46	63	10.0
Fri Jan 29 18:50:03 2010	Las Vegas, Nevada 	 Mostly Cloudy	46	Calm		34	30.09	46	63	10.0
Fri Jan 29 19:42:31 2010	Las Vegas, Nevada 	 Mostly Cloudy	49	ENE	5	28	30.10	47	44	10.0
Fri Jan 29 20:40:33 2010	Las Vegas, Nevada 	 Mostly Cloudy	50	ENE	4	30	30.08	49	46	10.0
Fri Jan 29 21:24:31 2010	Las Vegas, Nevada 	 Mostly Cloudy	53	Calm		29	30.06		40	10.0
Fri Jan 29 22:10:36 2010	Las Vegas, Nevada 	 Mostly Cloudy	54	East	5	29	30.02		38	10.0
Fri Jan 29 22:56:58 2010	Las Vegas, Nevada 	 Mostly Cloudy	54	East	5	29	30.02		38	10.0
Fri Jan 29 23:40:58 2010	Las Vegas, Nevada 	 Mostly Cloudy	55	Calm		29	30.01		37	10.0
Mon Feb  1 00:07:56 2010	Las Vegas, Nevada 	 Mostly Cloudy	59	ESE	5	30	29.89		33	10.0
Mon Feb  1 00:51:07 2010	Las Vegas, Nevada 	 Mostly Cloudy	59	ESE	5	30	29.89		33	10.0
Mon Feb  1 01:35:54 2010	Las Vegas, Nevada 	 Mostly Cloudy	58	Variable	5	29	29.89		33	10.0
Mon Feb  1 02:20:47 2010	Las Vegas, Nevada 	 Mostly Cloudy	57	East	4	29	29.90		34	10.0
Mon Feb  1 03:04:56 2010	Las Vegas, Nevada 	 Mostly Cloudy	57	East	4	29	29.90		34	10.0
Mon Feb  1 03:48:28 2010	Las Vegas, Nevada 	 Mostly Cloudy	55	Calm		28	29.92		36	10.0
Mon Feb  1 04:34:07 2010	Las Vegas, Nevada 	 Mostly Cloudy	54	Calm		31	29.93		41	10.0
Mon Feb  1 05:17:43 2010	Las Vegas, Nevada 	 Scattered Clouds	50	West	5	35	29.94	48	57	10.0
Mon Feb  1 06:02:38 2010	Las Vegas, Nevada 	 Clear	49	West	5	36	29.94	47	61	10.0
Mon Feb  1 06:45:30 2010	Las Vegas, Nevada 	 Clear	49	West	5	36	29.94	47	61	10.0
Mon Feb  1 07:29:33 2010	Las Vegas, Nevada 	 Clear	47	SW	4	35	29.95	46	63	10.0
Mon Feb  1 08:12:42 2010	Las Vegas, Nevada 	 Clear	46	SSW	4	34	29.95	45	63	10.0
Mon Feb  1 08:56:27 2010	Las Vegas, Nevada 	 Clear	46	SSW	4	34	29.95	45	63	10.0
Mon Feb  1 09:39:29 2010	Las Vegas, Nevada 	 Clear	44	WSW	4	35	29.95	42	71	10.0
Mon Feb  1 10:22:50 2010	Las Vegas, Nevada 	 Clear	43	Calm		34	29.95	43	71	10.0
Mon Feb  1 11:05:57 2010	Las Vegas, Nevada 	 Clear	43	Calm		34	29.95	43	71	10.0
Mon Feb  1 11:49:15 2010	Las Vegas, Nevada 	 Clear	43	Calm		34	29.95	43	71	10.0
Mon Feb  1 12:32:48 2010	Las Vegas, Nevada 	 Clear	42	Calm		33	29.95	43	70	10.0
Mon Feb  1 13:16:13 2010	Las Vegas, Nevada 	 Clear	41	SW	4	33	29.96	39	73	10.0
Mon Feb  1 14:00:05 2010	Las Vegas, Nevada 	 Clear	41	SW	4	33	29.96	39	73	10.0
Mon Feb  1 14:44:34 2010	Las Vegas, Nevada 	 Clear	40	SSW	4	33	29.96	38	77	10.0
Mon Feb  1 15:28:52 2010	Las Vegas, Nevada 	 Partly Cloudy	39	SW	5	34	29.98	36	81	10.0
Mon Feb  1 16:13:02 2010	Las Vegas, Nevada 	 Partly Cloudy	40	SW	5	33	29.97	37	77	10.0
Mon Feb  1 16:58:12 2010	Las Vegas, Nevada 	 Partly Cloudy	39	SW	4	32	29.98	37	75	10.0
Mon Feb  1 17:42:14 2010	Las Vegas, Nevada 	 Scattered Clouds	43	Calm		32	30.00	43	65	10.0
Mon Feb  1 18:25:24 2010	Las Vegas, Nevada 	 Scattered Clouds	47	Calm		31	30.01	46	54	10.0
Mon Feb  1 19:09:09 2010	Las Vegas, Nevada 	 Scattered Clouds	49	Calm		31	30.01	48	50	10.0
Mon Feb  1 19:54:17 2010	Las Vegas, Nevada 	 Scattered Clouds	49	Calm		31	30.01	48	50	10.0
Mon Feb  1 20:40:44 2010	Las Vegas, Nevada 	 Scattered Clouds	53	Variable	4	29	29.99		40	10.0
Mon Feb  1 21:25:33 2010	Las Vegas, Nevada 	 Scattered Clouds	55	East	5	27	29.96		34	10.0
Mon Feb  1 22:09:04 2010	Las Vegas, Nevada 	 Mostly Cloudy	56	Calm		27	29.94		33	10.0
Mon Feb  1 22:52:15 2010	Las Vegas, Nevada 	 Mostly Cloudy	56	Calm		27	29.94		33	10.0
Mon Feb  1 23:38:24 2010	Las Vegas, Nevada 	 Mostly Cloudy	55	Calm		27	29.92		33	10.0
Sat Jan 30 00:25:03 2010	Las Vegas, Nevada 	 Mostly Cloudy	57	Calm		29	30.00		34	10.0
Sat Jan 30 01:09:08 2010	Las Vegas, Nevada 	 Mostly Cloudy	56	Calm		31	30.00		39	10.0
Sat Jan 30 01:52:48 2010	Las Vegas, Nevada 	 Mostly Cloudy	56	Calm		31	30.00		39	10.0
Sat Jan 30 02:37:31 2010	Las Vegas, Nevada 	 Mostly Cloudy	54	Calm		31	30.00		41	10.0
Sat Jan 30 03:21:09 2010	Las Vegas, Nevada 	 Mostly Cloudy	54	Calm		32	30.01		43	10.0
Sat Jan 30 04:05:02 2010	Las Vegas, Nevada 	 Mostly Cloudy	51	Calm		34	30.01		52	10.0
Sat Jan 30 04:48:44 2010	Las Vegas, Nevada 	 Mostly Cloudy	51	Calm		34	30.01		52	10.0
Sat Jan 30 05:32:35 2010	Las Vegas, Nevada 	 Mostly Cloudy	50	WSW	4	35	30.01	49	57	10.0
Sat Jan 30 06:16:15 2010	Las Vegas, Nevada 	 Mostly Cloudy	48	West	5	37	30.01	46	66	10.0
Sat Jan 30 07:01:57 2010	Las Vegas, Nevada 	 Mostly Cloudy	49	Calm		36	30.00	48	61	10.0
Sat Jan 30 07:45:26 2010	Las Vegas, Nevada 	 Mostly Cloudy	49	Calm		36	30.00	48	61	10.0
Sat Jan 30 08:28:30 2010	Las Vegas, Nevada 	 Mostly Cloudy	47	SW	4	37	30.00	46	68	10.0
Sat Jan 30 11:58:05 2010	Las Vegas, Nevada 	 Mostly Cloudy	45	WSW	5	36	29.98	42	71	10.0
Sat Jan 30 12:41:54 2010	Las Vegas, Nevada 	 Scattered Clouds	44	West	4	35	29.96	42	71	10.0
Sat Jan 30 13:25:05 2010	Las Vegas, Nevada 	 Scattered Clouds	43	WSW	4	35	29.96	41	74	10.0
Sat Jan 30 14:08:47 2010	Las Vegas, Nevada 	 Scattered Clouds	43	WSW	4	35	29.96	41	74	10.0
Sat Jan 30 14:53:03 2010	Las Vegas, Nevada 	 Partly Cloudy	42	WSW	5	35	29.96	39	76	10.0
Sat Jan 30 15:37:42 2010	Las Vegas, Nevada 	 Partly Cloudy	43	West	5	34	29.96	40	70	10.0
Sat Jan 30 16:23:57 2010	Las Vegas, Nevada 	 Partly Cloudy	41	WSW	4	34	29.98	39	76	10.0
Sat Jan 30 17:08:15 2010	Las Vegas, Nevada 	 Mostly Cloudy	42	SSW	5	34	30.00	39	73	10.0
Sat Jan 30 17:51:45 2010	Las Vegas, Nevada 	 Mostly Cloudy	42	SSW	5	34	30.00	39	73	10.0
Sat Jan 30 18:35:34 2010	Las Vegas, Nevada 	 Mostly Cloudy	46	Calm		36	29.99	46	68	10.0
Sat Jan 30 19:18:51 2010	Las Vegas, Nevada 	 Mostly Cloudy	50	Calm		36	29.97	50	59	10.0
Sat Jan 30 20:02:57 2010	Las Vegas, Nevada 	 Mostly Cloudy	51	Calm		35	29.95		54	10.0
Sat Jan 30 20:46:09 2010	Las Vegas, Nevada 	 Mostly Cloudy	51	Calm		35	29.95		54	10.0
Sat Jan 30 21:30:08 2010	Las Vegas, Nevada 	 Mostly Cloudy	54	Calm		35	29.91		49	10.0
Sat Jan 30 22:13:09 2010	Las Vegas, Nevada 	 Mostly Cloudy	56	ENE	4	35	29.88		45	10.0
Sat Jan 30 22:57:58 2010	Las Vegas, Nevada 	 Mostly Cloudy	56	ENE	4	35	29.88		45	10.0
Sat Jan 30 23:43:41 2010	Las Vegas, Nevada 	 Mostly Cloudy	57	East	8	36	29.86		45	10.0
Sun Jan 31 00:27:41 2010	Las Vegas, Nevada 	 Mostly Cloudy	58	East	9	37	29.86		46	10.0
Sun Jan 31 01:18:19 2010	Las Vegas, Nevada 	 Mostly Cloudy	58	East	6	37	29.86		46	10.0
Sun Jan 31 02:02:12 2010	Las Vegas, Nevada 	 Mostly Cloudy	56	North	5	38	29.87		51	10.0
Sun Jan 31 02:45:48 2010	Las Vegas, Nevada 	 Mostly Cloudy	56	North	5	38	29.87		51	10.0
Sun Jan 31 03:29:51 2010	Las Vegas, Nevada 	 Mostly Cloudy	54	North	7	39	29.87		57	10.0
Sun Jan 31 04:12:33 2010	Las Vegas, Nevada 	 Mostly Cloudy	54	North	6	38	29.88		55	10.0
Sun Jan 31 04:57:40 2010	Las Vegas, Nevada 	 Mostly Cloudy	54	North	6	38	29.88		55	10.0
Sun Jan 31 05:43:53 2010	Las Vegas, Nevada 	 Scattered Clouds	52	West	5	39	29.89		61	10.0
Sun Jan 31 06:28:59 2010	Las Vegas, Nevada 	 Partly Cloudy	50	West	5	38	29.89	48	63	10.0
Sun Jan 31 07:12:00 2010	Las Vegas, Nevada 	 Clear	48	SSW	5	39	29.90	46	71	10.0
Sun Jan 31 07:58:37 2010	Las Vegas, Nevada 	 Clear	48	SSW	5	39	29.90	46	71	10.0
Sun Jan 31 08:43:23 2010	Las Vegas, Nevada 	 Clear	46	West	4	38	29.90	45	73	10.0
Sun Jan 31 09:26:35 2010	Las Vegas, Nevada 	 Partly Cloudy	45	SW	4	37	29.90	44	74	10.0
Sun Jan 31 10:09:44 2010	Las Vegas, Nevada 	 Partly Cloudy	45	Calm		37	29.90	45	74	10.0
Sun Jan 31 10:53:31 2010	Las Vegas, Nevada 	 Partly Cloudy	45	Calm		37	29.90	45	74	10.0
Sun Jan 31 11:36:59 2010	Las Vegas, Nevada 	 Partly Cloudy	44	Calm		36	29.90	45	73	10.0
Sun Jan 31 12:20:37 2010	Las Vegas, Nevada 	 Partly Cloudy	42	SSW	6	36	29.90	38	79	10.0
Sun Jan 31 13:03:40 2010	Las Vegas, Nevada 	 Partly Cloudy	43	SSW	5	35	29.90	40	74	10.0
Sun Jan 31 13:47:46 2010	Las Vegas, Nevada 	 Partly Cloudy	43	SSW	5	35	29.90	40	74	10.0
Sun Jan 31 14:30:30 2010	Las Vegas, Nevada 	 Partly Cloudy	42	SSW	5	35	29.90	39	76	10.0
Sun Jan 31 15:14:29 2010	Las Vegas, Nevada 	 Partly Cloudy	42	West	5	35	29.93	39	76	10.0
Sun Jan 31 15:57:52 2010	Las Vegas, Nevada 	 Partly Cloudy	42	West	5	35	29.93	39	76	10.0
Sun Jan 31 16:47:40 2010	Las Vegas, Nevada 	 Scattered Clouds	41	SSW	5	35	29.94	38	79	10.0
Sun Jan 31 17:31:33 2010	Las Vegas, Nevada 	 Scattered Clouds	43	Calm		35	29.96	43	74	10.0
Sun Jan 31 18:15:53 2010	Las Vegas, Nevada 	 Partly Cloudy	48	Calm		36	29.97	48	63	10.0
Sun Jan 31 19:00:01 2010	Las Vegas, Nevada 	 Partly Cloudy	51	Calm		34	29.97		52	10.0
Sun Jan 31 19:45:34 2010	Las Vegas, Nevada 	 Partly Cloudy	51	Calm		34	29.97		52	10.0
Sun Jan 31 20:28:35 2010	Las Vegas, Nevada 	 Scattered Clouds	54	Calm		34	29.97		47	10.0
Sun Jan 31 21:12:44 2010	Las Vegas, Nevada 	 Scattered Clouds	55	ENE	5	34	29.94		45	10.0
Sun Jan 31 21:56:06 2010	Las Vegas, Nevada 	 Scattered Clouds	55	ENE	5	34	29.94		45	10.0
Sun Jan 31 22:40:51 2010	Las Vegas, Nevada 	 Mostly Cloudy	56	West	4	33	29.91		42	10.0
Sun Jan 31 23:23:55 2010	Las Vegas, Nevada 	 Mostly Cloudy	59	Calm		32	29.89		36	10.0
Thu Feb  4 00:09:28 2010	Las Vegas, Nevada 	 Partly Cloudy	62	Variable	4	32	29.65		32	10.0
Thu Feb  4 00:53:49 2010	Las Vegas, Nevada 	 Partly Cloudy	62	Variable	4	32	29.65		32	10.0
Thu Feb  4 01:36:48 2010	Las Vegas, Nevada 	 Partly Cloudy	62	NE	4	30	29.66		30	10.0
Thu Feb  4 02:23:54 2010	Las Vegas, Nevada 	 Partly Cloudy	60	ESE	5	32	29.67		35	10.0
Thu Feb  4 03:07:51 2010	Las Vegas, Nevada 	 Clear	59	Calm		32	29.68		36	10.0
Thu Feb  4 03:52:21 2010	Las Vegas, Nevada 	 Clear	59	Calm		32	29.68		36	10.0
Thu Feb  4 04:35:33 2010	Las Vegas, Nevada 	 Clear	57	West	4	33	29.71		40	10.0
Thu Feb  4 05:18:41 2010	Las Vegas, Nevada 	 Clear	52	West	7	36	29.73		54	10.0
Thu Feb  4 06:01:52 2010	Las Vegas, Nevada 	 Clear	52	SW	5	35	29.73		53	10.0
Thu Feb  4 06:44:53 2010	Las Vegas, Nevada 	 Clear	52	SW	5	35	29.73		53	10.0
Thu Feb  4 07:28:26 2010	Las Vegas, Nevada 	 Clear	50	SSW	6	35	29.73	48	57	10.0
Thu Feb  4 08:11:07 2010	Las Vegas, Nevada 	 Clear	49	SSW	7	34	29.73	46	56	10.0
Thu Feb  4 08:54:51 2010	Las Vegas, Nevada 	 Clear	49	SSW	7	34	29.73	46	56	10.0
Thu Feb  4 09:38:35 2010	Las Vegas, Nevada 	 Clear	47	South	5	33	29.74	45	59	10.0
Thu Feb  4 10:21:59 2010	Las Vegas, Nevada 	 Clear	47	Calm		32	29.75	46	56	10.0
Thu Feb  4 11:08:15 2010	Las Vegas, Nevada 	 Partly Cloudy	45	SW	5	32	29.76	43	60	10.0
Thu Feb  4 11:51:49 2010	Las Vegas, Nevada 	 Partly Cloudy	45	SW	5	32	29.76	43	60	10.0
Thu Feb  4 12:34:54 2010	Las Vegas, Nevada 	 Partly Cloudy	44	WSW	4	32	29.76	42	63	10.0
Thu Feb  4 13:18:22 2010	Las Vegas, Nevada 	 Partly Cloudy	43	Calm		31	29.76	43	62	10.0
Thu Feb  4 14:02:43 2010	Las Vegas, Nevada 	 Partly Cloudy	43	WSW	4	31	29.79	41	62	10.0
Thu Feb  4 14:55:25 2010	Las Vegas, Nevada 	 Partly Cloudy	43	WSW	4	31	29.79	41	62	10.0
Thu Jan 28 15:35:38 2010	Las Vegas, Nevada 	 Mostly Cloudy	48	North	13	33	30.01	43	56	10.0
Thu Jan 28 15:56:46 2010	Las Vegas, Nevada 	 Mostly Cloudy	48	North	13	33	30.01	43	56	10.0
Thu Jan 28 16:45:05 2010	Las Vegas, Nevada 	 Scattered Clouds	46	NNE	9	33	30.03	41	61	10.0
Thu Jan 28 17:09:53 2010	Las Vegas, Nevada 	 Scattered Clouds	49	North	14	32	30.04	44	52	10.0
Thu Jan 28 17:26:08 2010	Las Vegas, Nevada 	 Scattered Clouds	49	North	14	32	30.04	44	52	10.0
Tue Feb  2 00:25:20 2010	Las Vegas, Nevada 	 Mostly Cloudy	57	ENE	4	27	29.91		31	10.0
Tue Feb  2 01:10:52 2010	Las Vegas, Nevada 	 Mostly Cloudy	57	ENE	4	27	29.91		32	10.0
Tue Feb  2 01:54:16 2010	Las Vegas, Nevada 	 Mostly Cloudy	57	ENE	4	27	29.91		32	10.0
Tue Feb  2 02:38:17 2010	Las Vegas, Nevada 	 Mostly Cloudy	56	ENE	4	27	29.91		33	10.0
Tue Feb  2 03:21:29 2010	Las Vegas, Nevada 	 Mostly Cloudy	54	Calm		29	29.92		38	10.0
Tue Feb  2 04:05:31 2010	Las Vegas, Nevada 	 Mostly Cloudy	53	North	5	30	29.92		41	10.0
Tue Feb  2 04:49:07 2010	Las Vegas, Nevada 	 Mostly Cloudy	53	North	5	30	29.92		41	10.0
Tue Feb  2 05:32:28 2010	Las Vegas, Nevada 	 Overcast	53	North	4	30	29.92		41	10.0
Tue Feb  2 06:15:26 2010	Las Vegas, Nevada 	 Mostly Cloudy	52	Calm		32	29.91		47	10.0
Tue Feb  2 07:02:55 2010	Las Vegas, Nevada 	 Mostly Cloudy	50	West	5	34	29.92	48	54	10.0
Tue Feb  2 07:46:00 2010	Las Vegas, Nevada 	 Mostly Cloudy	50	West	5	34	29.92	48	54	10.0
Tue Feb  2 08:29:06 2010	Las Vegas, Nevada 	 Mostly Cloudy	49	Calm		34	29.91	48	56	10.0
Tue Feb  2 09:12:34 2010	Las Vegas, Nevada 	 Overcast	48	SSW	4	35	29.91	47	61	10.0
Tue Feb  2 09:56:06 2010	Las Vegas, Nevada 	 Overcast	48	SSW	4	35	29.91	47	61	10.0
Tue Feb  2 10:39:43 2010	Las Vegas, Nevada 	 Mostly Cloudy	47	SSW	4	35	29.90	46	63	10.0
Tue Feb  2 11:23:48 2010	Las Vegas, Nevada 	 Mostly Cloudy	46	Calm		34	29.89	46	63	10.0
Tue Feb  2 12:07:21 2010	Las Vegas, Nevada 	 Mostly Cloudy	46	WNW	4	33	29.87	45	61	10.0
Tue Feb  2 12:51:41 2010	Las Vegas, Nevada 	 Mostly Cloudy	46	WNW	4	33	29.87	45	61	10.0
Tue Feb  2 13:35:01 2010	Las Vegas, Nevada 	 Mostly Cloudy	46	Calm		33	29.88	46	61	10.0
Tue Feb  2 14:18:29 2010	Las Vegas, Nevada 	 Mostly Cloudy	45	Calm		33	29.88	45	63	10.0
Tue Feb  2 15:02:59 2010	Las Vegas, Nevada 	 Mostly Cloudy	46	Calm		33	29.88	46	61	10.0
Tue Feb  2 15:49:21 2010	Las Vegas, Nevada 	 Mostly Cloudy	46	Calm		33	29.88	46	61	10.0
Tue Feb  2 16:41:58 2010	Las Vegas, Nevada 	 Mostly Cloudy	47	Calm		31	29.89	46	54	10.0
Tue Feb  2 17:29:37 2010	Las Vegas, Nevada 	 Mostly Cloudy	48	Calm		31	29.89	48	52	10.0
Tue Feb  2 18:15:00 2010	Las Vegas, Nevada 	 Mostly Cloudy	50	Calm		30	29.90	50	46	10.0
Tue Feb  2 18:59:01 2010	Las Vegas, Nevada 	 Mostly Cloudy	53	NE	9	27	29.90		37	10.0
Tue Feb  2 19:48:00 2010	Las Vegas, Nevada 	 Mostly Cloudy	53	NE	9	27	29.90		37	10.0
Tue Feb  2 20:39:43 2010	Las Vegas, Nevada 	 Mostly Cloudy	55	NE	14	28	29.88		35	10.0
Tue Feb  2 21:26:16 2010	Las Vegas, Nevada 	 Mostly Cloudy	56	Variable	6	29	29.84		36	10.0
Tue Feb  2 22:13:59 2010	Las Vegas, Nevada 	 Mostly Cloudy	58	East	5	30	29.81		35	10.0
Tue Feb  2 22:59:13 2010	Las Vegas, Nevada 	 Mostly Cloudy	58	ENE	7	30	29.80		35	10.0
Tue Feb  2 23:44:12 2010	Las Vegas, Nevada 	 Mostly Cloudy	58	ENE	7	30	29.80		35	10.0
Wed Feb  3 00:29:06 2010	Las Vegas, Nevada 	 Mostly Cloudy	59	Calm		31	29.78		35	10.0
Wed Feb  3 01:16:07 2010	Las Vegas, Nevada 	 Mostly Cloudy	58	NE	5	31	29.78		36	10.0
Wed Feb  3 02:00:55 2010	Las Vegas, Nevada 	 Mostly Cloudy	58	NE	5	31	29.78		36	10.0
Wed Feb  3 02:49:40 2010	Las Vegas, Nevada 	 Mostly Cloudy	57	East	5	32	29.78		39	10.0
Wed Feb  3 03:36:38 2010	Las Vegas, Nevada 	 Mostly Cloudy	56	NNE	5	32	29.78		40	10.0
Wed Feb  3 04:24:40 2010	Las Vegas, Nevada 	 Mostly Cloudy	53	North	6	34	29.79		48	10.0
Wed Feb  3 05:11:14 2010	Las Vegas, Nevada 	 Mostly Cloudy	52	West	4	33	29.79		49	10.0
Wed Feb  3 05:59:16 2010	Las Vegas, Nevada 	 Mostly Cloudy	51	West	4	34	29.78		52	10.0
Wed Feb  3 06:46:05 2010	Las Vegas, Nevada 	 Mostly Cloudy	51	West	4	34	29.78		52	10.0
Wed Feb  3 07:30:41 2010	Las Vegas, Nevada 	 Mostly Cloudy	50	West	4	36	29.79	49	58	10.0
Wed Feb  3 08:13:46 2010	Las Vegas, Nevada 	 Overcast	49	Calm		35	29.78	48	59	10.0
Wed Feb  3 09:00:09 2010	Las Vegas, Nevada 	 Mostly Cloudy	48	WSW	4	35	29.76	47	61	10.0
Wed Feb  3 09:43:38 2010	Las Vegas, Nevada 	 Mostly Cloudy	48	WSW	4	35	29.76	47	61	10.0
Wed Feb  3 10:27:38 2010	Las Vegas, Nevada 	 Overcast	48	Calm		36	29.75	48	63	10.0
Wed Feb  3 11:14:21 2010	Las Vegas, Nevada 	 Mostly Cloudy	47	Calm		35	29.75	46	63	10.0
Wed Feb  3 11:59:05 2010	Las Vegas, Nevada 	 Mostly Cloudy	47	Calm		35	29.75	46	63	10.0
Wed Feb  3 12:42:19 2010	Las Vegas, Nevada 	 Scattered Clouds	46	Calm		35	29.73	46	66	10.0
Wed Feb  3 13:25:57 2010	Las Vegas, Nevada 	 Partly Cloudy	45	Calm		36	29.74	45	71	10.0
Wed Feb  3 14:11:35 2010	Las Vegas, Nevada 	 Partly Cloudy	44	Calm		34	29.74	45	68	10.0
Wed Feb  3 14:57:31 2010	Las Vegas, Nevada 	 Partly Cloudy	44	Calm		34	29.74	45	68	10.0
Wed Feb  3 15:42:38 2010	Las Vegas, Nevada 	 Partly Cloudy	43	Calm		34	29.74	43	71	10.0
Wed Feb  3 16:28:15 2010	Las Vegas, Nevada 	 Scattered Clouds	42	SW	4	34	29.75	40	73	10.0
Wed Feb  3 17:15:42 2010	Las Vegas, Nevada 	 Scattered Clouds	43	SW	5	34	29.76	40	70	10.0
Wed Feb  3 18:04:17 2010	Las Vegas, Nevada 	 Scattered Clouds	48	Calm		34	29.75	48	58	10.0
Wed Feb  3 18:47:22 2010	Las Vegas, Nevada 	 Scattered Clouds	48	Calm		34	29.75	48	58	10.0
Wed Feb  3 19:31:12 2010	Las Vegas, Nevada 	 Scattered Clouds	54	Calm		33	29.73		45	10.0
Wed Feb  3 20:14:52 2010	Las Vegas, Nevada 	 Scattered Clouds	57	NNE	5	32	29.72		39	10.0
Wed Feb  3 20:59:39 2010	Las Vegas, Nevada 	 Scattered Clouds	57	NNE	5	32	29.72		39	10.0
Wed Feb  3 21:47:31 2010	Las Vegas, Nevada 	 Mostly Cloudy	59	Calm		32	29.71		36	10.0
Wed Feb  3 22:33:04 2010	Las Vegas, Nevada 	 Scattered Clouds	61	North	4	31	29.69		32	10.0
Wed Feb  3 23:23:50 2010	Las Vegas, Nevada 	 Scattered Clouds	61	ENE	7	32	29.66		34	10.0
Fri Jan 29 08:38:26 2010	Los Angeles, California 	 Clear	57	Calm		49	30.06		74	10.0
Fri Jan 29 09:22:24 2010	Los Angeles, California 	 Clear	57	Calm		48	30.05		72	10.0
Fri Jan 29 11:54:23 2010	Los Angeles, California 	 Clear	52	Calm		45	30.04		77	10.0
Fri Jan 29 12:38:58 2010	Los Angeles, California 	 Clear	52	Calm		45	30.04		77	10.0
Fri Jan 29 13:25:30 2010	Los Angeles, California 	 Clear	52	Calm		43	30.04		71	10.0
Fri Jan 29 14:14:14 2010	Los Angeles, California 	 Clear	50	Calm		43	30.04	50	77	10.0
Fri Jan 29 14:58:53 2010	Los Angeles, California 	 Clear	50	Calm		43	30.04	50	77	10.0
Fri Jan 29 15:44:56 2010	Los Angeles, California 	 Clear	50	Calm		43	30.04	50	77	10.0
Fri Jan 29 16:32:03 2010	Los Angeles, California 	 Clear	52	Calm		40	30.05		63	10.0
Fri Jan 29 17:16:47 2010	Los Angeles, California 	 Clear	54	Calm		40	30.05		59	10.0
Fri Jan 29 18:05:05 2010	Los Angeles, California 	 Clear	57	Calm		43	30.06		59	10.0
Fri Jan 29 18:49:48 2010	Los Angeles, California 	 Clear	62	Variable	4	39	30.07		43	10.0
Fri Jan 29 19:42:14 2010	Los Angeles, California 	 Clear	62	Variable	4	39	30.07		43	10.0
Fri Jan 29 20:40:16 2010	Los Angeles, California 	 Clear	63	Calm		39	30.06		41	10.0
Fri Jan 29 21:24:17 2010	Los Angeles, California 	 Clear	66	Calm		40	30.03		38	10.0
Fri Jan 29 22:10:19 2010	Los Angeles, California 	 Clear	67	Calm		40	30.01		37	10.0
Fri Jan 29 22:56:40 2010	Los Angeles, California 	 Clear	67	Calm		41	30.01		39	10.0
Fri Jan 29 23:40:37 2010	Los Angeles, California 	 Clear	67	Calm		41	30.01		39	10.0
Mon Feb  1 00:07:39 2010	Los Angeles, California 	 Clear	64	West	5	47	29.92		54	9.0
Mon Feb  1 00:50:50 2010	Los Angeles, California 	 Clear	63	Calm		47	29.92		56	9.0
Mon Feb  1 01:35:37 2010	Los Angeles, California 	 Clear	63	Calm		47	29.92		56	9.0
Mon Feb  1 02:20:30 2010	Los Angeles, California 	 Clear	60	West	4	48	29.93		64	8.0
Mon Feb  1 03:04:39 2010	Los Angeles, California 	 Clear	59	Calm		49	29.94		69	10.0
Mon Feb  1 03:48:11 2010	Los Angeles, California 	 Clear	59	Calm		49	29.94		69	10.0
Mon Feb  1 04:33:50 2010	Los Angeles, California 	 Clear	57	Calm		49	29.94		74	10.0
Mon Feb  1 05:17:26 2010	Los Angeles, California 	 Clear	57	Calm		49	29.95		74	10.0
Mon Feb  1 06:02:21 2010	Los Angeles, California 	 Clear	56	Calm		49	29.95		77	10.0
Mon Feb  1 06:45:15 2010	Los Angeles, California 	 Clear	56	Calm		49	29.95		77	10.0
Mon Feb  1 07:29:16 2010	Los Angeles, California 	 Clear	56	Calm		49	29.95		77	9.0
Mon Feb  1 08:12:22 2010	Los Angeles, California 	 Clear	56	Calm		48	29.95		75	9.0
Mon Feb  1 08:56:10 2010	Los Angeles, California 	 Clear	55	Calm		48	29.96		77	8.0
Mon Feb  1 09:39:12 2010	Los Angeles, California 	 Clear	55	Calm		48	29.96		77	8.0
Mon Feb  1 10:22:33 2010	Los Angeles, California 	 Clear	54	Calm		47	29.96		77	7.0
Mon Feb  1 11:05:40 2010	Los Angeles, California 	 Haze	52	Calm		47	29.96		83	5.0
Mon Feb  1 11:48:58 2010	Los Angeles, California 	 Haze	52	Calm		47	29.96		83	5.0
Mon Feb  1 12:32:31 2010	Los Angeles, California 	 Clear	51	Calm		47	29.96		86	5.0
Mon Feb  1 13:15:54 2010	Los Angeles, California 	 Haze	51	Calm		45	29.95		80	6.0
Mon Feb  1 13:59:47 2010	Los Angeles, California 	 Clear	50	Calm		44	29.95	50	80	7.0
Mon Feb  1 14:44:17 2010	Los Angeles, California 	 Clear	50	Calm		44	29.95	50	80	7.0
Mon Feb  1 15:28:35 2010	Los Angeles, California 	 Clear	51	Calm		44	29.95		77	8.0
Mon Feb  1 16:12:44 2010	Los Angeles, California 	 Clear	51	Calm		43	29.95		74	9.0
Mon Feb  1 16:57:57 2010	Los Angeles, California 	 Clear	52	Calm		44	29.97		74	7.0
Mon Feb  1 17:41:59 2010	Los Angeles, California 	 Clear	52	Calm		44	29.97		74	7.0
Mon Feb  1 18:25:09 2010	Los Angeles, California 	 Clear	57	Calm		44	29.96		62	7.0
Mon Feb  1 19:08:52 2010	Los Angeles, California 	 Haze	60	Calm		44	29.97		55	6.0
Mon Feb  1 19:54:00 2010	Los Angeles, California 	 Haze	63	Calm		46	29.96		54	5.0
Mon Feb  1 20:40:30 2010	Los Angeles, California 	 Haze	63	Calm		46	29.96		54	5.0
Mon Feb  1 21:25:15 2010	Los Angeles, California 	 Haze	65	Calm		44	29.93		47	6.0
Mon Feb  1 22:08:46 2010	Los Angeles, California 	 Haze	66	Calm		44	29.90		45	6.0
Mon Feb  1 22:51:57 2010	Los Angeles, California 	 Haze	68	Calm		44	29.88		42	6.0
Mon Feb  1 23:38:09 2010	Los Angeles, California 	 Haze	68	Calm		44	29.88		42	6.0
Sat Jan 30 00:24:45 2010	Los Angeles, California 	 Clear	66	West	5	44	30.00		45	10.0
Sat Jan 30 01:08:51 2010	Los Angeles, California 	 Clear	66	Variable	4	46	30.00		48	10.0
Sat Jan 30 01:52:31 2010	Los Angeles, California 	 Clear	62	Calm		49	30.01		62	10.0
Sat Jan 30 02:37:14 2010	Los Angeles, California 	 Clear	62	Calm		49	30.01		62	10.0
Sat Jan 30 03:20:52 2010	Los Angeles, California 	 Clear	60	Calm		50	30.01		69	10.0
Sat Jan 30 04:04:47 2010	Los Angeles, California 	 Clear	58	Calm		52	30.02		81	8.0
Sat Jan 30 04:48:27 2010	Los Angeles, California 	 Clear	58	Calm		52	30.02		81	8.0
Sat Jan 30 05:32:16 2010	Los Angeles, California 	 Haze	57	Calm		52	30.02		83	6.0
Sat Jan 30 06:15:57 2010	Los Angeles, California 	 Clear	56	Calm		52	30.02		87	4.0
Sat Jan 30 07:01:40 2010	Los Angeles, California 	 Clear	55	Calm		51	30.03		86	4.0
Sat Jan 30 07:45:09 2010	Los Angeles, California 	 Clear	55	Calm		51	30.03		86	4.0
Sat Jan 30 08:28:13 2010	Los Angeles, California 	 Clear	54	Calm		50	30.03		86	4.0
Sat Jan 30 11:57:48 2010	Los Angeles, California 	 Haze	53	Calm		48	30.00		83	6.0
Sat Jan 30 12:41:37 2010	Los Angeles, California 	 Haze	53	Calm		48	30.00		83	6.0
Sat Jan 30 13:24:43 2010	Los Angeles, California 	 Haze	52	Calm		47	29.99		83	5.0
Sat Jan 30 14:08:30 2010	Los Angeles, California 	 Clear	51	Calm		45	29.99		80	7.0
Sat Jan 30 14:52:45 2010	Los Angeles, California 	 Clear	51	Calm		45	29.99		80	7.0
Sat Jan 30 15:37:25 2010	Los Angeles, California 	 Clear	49	Calm		45	29.99	48	86	5.0
Sat Jan 30 16:23:40 2010	Los Angeles, California 	 Clear	48	Calm		45	30.00	48	89	5.0
Sat Jan 30 17:07:59 2010	Los Angeles, California 	 Haze	51	Calm		45	30.01		80	5.0
Sat Jan 30 17:51:28 2010	Los Angeles, California 	 Haze	55	Calm		46	30.01		72	6.0
Sat Jan 30 18:35:17 2010	Los Angeles, California 	 Haze	55	Calm		46	30.01		72	6.0
Sat Jan 30 19:18:34 2010	Los Angeles, California 	 Haze	59	Calm		48	30.01		67	6.0
Sat Jan 30 20:02:40 2010	Los Angeles, California 	 Partly Cloudy	61	Variable	4	49	30.00		64	7.0
Sat Jan 30 20:45:52 2010	Los Angeles, California 	 Partly Cloudy	61	Variable	4	49	30.00		64	7.0
Sat Jan 30 21:29:54 2010	Los Angeles, California 	 Clear	62	West	4	48	29.98		60	7.0
Sat Jan 30 22:12:52 2010	Los Angeles, California 	 Clear	63	Calm		48	29.95		58	10.0
Sat Jan 30 22:57:41 2010	Los Angeles, California 	 Clear	64	Calm		48	29.94		56	10.0
Sat Jan 30 23:43:20 2010	Los Angeles, California 	 Clear	64	Calm		48	29.94		56	10.0
Sun Jan 31 00:27:24 2010	Los Angeles, California 	 Clear	63	Variable	4	48	29.93		58	10.0
Sun Jan 31 01:18:02 2010	Los Angeles, California 	 Clear	61	Calm		47	29.93		60	10.0
Sun Jan 31 02:01:54 2010	Los Angeles, California 	 Clear	58	West	5	48	29.94		70	10.0
Sun Jan 31 02:45:34 2010	Los Angeles, California 	 Clear	58	West	5	48	29.94		70	10.0
Sun Jan 31 03:29:34 2010	Los Angeles, California 	 Clear	57	West	4	49	29.94		74	10.0
Sun Jan 31 04:12:17 2010	Los Angeles, California 	 Clear	56	Calm		49	29.94		77	10.0
Sun Jan 31 04:57:23 2010	Los Angeles, California 	 Clear	55	Calm		49	29.94		80	10.0
Sun Jan 31 05:43:36 2010	Los Angeles, California 	 Clear	55	Calm		49	29.94		80	10.0
Sun Jan 31 06:28:42 2010	Los Angeles, California 	 Clear	54	Calm		49	29.93		83	10.0
Sun Jan 31 07:11:43 2010	Los Angeles, California 	 Clear	54	Calm		49	29.94		83	10.0
Sun Jan 31 07:58:19 2010	Los Angeles, California 	 Clear	53	Calm		48	29.95		83	10.0
Sun Jan 31 08:43:06 2010	Los Angeles, California 	 Clear	53	Calm		48	29.95		83	10.0
Sun Jan 31 09:26:18 2010	Los Angeles, California 	 Clear	53	Calm		48	29.95		83	10.0
Sun Jan 31 10:09:27 2010	Los Angeles, California 	 Clear	53	Calm		48	29.94		83	8.0
Sun Jan 31 10:53:14 2010	Los Angeles, California 	 Clear	51	Calm		47	29.94		86	6.0
Sun Jan 31 11:36:39 2010	Los Angeles, California 	 Clear	51	Calm		47	29.94		86	6.0
Sun Jan 31 12:20:22 2010	Los Angeles, California 	 Clear	52	Calm		46	29.94		80	7.0
Sun Jan 31 13:03:28 2010	Los Angeles, California 	 Haze	50	Calm		45	29.93	50	83	6.0
Sun Jan 31 13:47:28 2010	Los Angeles, California 	 Haze	50	Calm		45	29.93	50	83	6.0
Sun Jan 31 14:30:14 2010	Los Angeles, California 	 Clear	49	Calm		44	29.93	48	83	7.0
Sun Jan 31 15:14:12 2010	Los Angeles, California 	 Haze	48	Calm		43	29.94	48	83	6.0
Sun Jan 31 15:57:35 2010	Los Angeles, California 	 Clear	47	Calm		43	29.96	46	86	5.0
Sun Jan 31 16:47:23 2010	Los Angeles, California 	 Clear	47	Calm		43	29.96	46	86	5.0
Sun Jan 31 17:31:15 2010	Los Angeles, California 	 Haze	49	Calm		44	29.96	48	83	4.0
Sun Jan 31 18:15:34 2010	Los Angeles, California 	 Haze	52	Calm		44	29.98		74	6.0
Sun Jan 31 18:59:43 2010	Los Angeles, California 	 Haze	57	Calm		45	29.99		64	6.0
Sun Jan 31 19:45:17 2010	Los Angeles, California 	 Haze	57	Calm		45	29.99		64	6.0
Sun Jan 31 20:28:18 2010	Los Angeles, California 	 Clear	62	Calm		44	29.97		52	7.0
Sun Jan 31 21:12:26 2010	Los Angeles, California 	 Clear	64	Calm		43	29.94		46	8.0
Sun Jan 31 21:55:49 2010	Los Angeles, California 	 Haze	65	Calm		44	29.92		47	6.0
Sun Jan 31 22:40:34 2010	Los Angeles, California 	 Haze	65	Calm		44	29.92		47	6.0
Sun Jan 31 23:23:38 2010	Los Angeles, California 	 Clear	66	West	5	48	29.90		52	8.0
Thu Feb  4 00:09:10 2010	Los Angeles, California 	 Clear	68	Variable	4	46	29.72		45	10.0
Thu Feb  4 00:53:32 2010	Los Angeles, California 	 Clear	66	Calm		45	29.73		47	10.0
Thu Feb  4 01:36:31 2010	Los Angeles, California 	 Clear	66	Calm		45	29.73		47	10.0
Thu Feb  4 02:23:37 2010	Los Angeles, California 	 Clear	63	Calm		47	29.74		56	10.0
Thu Feb  4 03:07:33 2010	Los Angeles, California 	 Clear	62	Calm		47	29.76		58	10.0
Thu Feb  4 03:52:04 2010	Los Angeles, California 	 Clear	60	Calm		53	29.81		78	10.0
Thu Feb  4 04:35:15 2010	Los Angeles, California 	 Clear	60	Calm		53	29.81		78	10.0
Thu Feb  4 05:18:24 2010	Los Angeles, California 	 Clear	59	Calm		52	29.83		78	10.0
Thu Feb  4 06:01:35 2010	Los Angeles, California 	 Clear	58	Calm		51	29.83		78	10.0
Thu Feb  4 06:44:36 2010	Los Angeles, California 	 Clear	58	Calm		51	29.83		78	10.0
Thu Feb  4 07:28:09 2010	Los Angeles, California 	 Mostly Cloudy	57	East	5	52	29.86		82	7.0
Thu Feb  4 08:10:49 2010	Los Angeles, California 	 Overcast	57	East	5	52	29.86		82	7.0
Thu Feb  4 08:54:34 2010	Los Angeles, California 	 Overcast	58	East	4	52	29.86		81	7.0
Thu Feb  4 09:38:18 2010	Los Angeles, California 	 Overcast	58	East	4	52	29.86		81	7.0
Thu Feb  4 10:21:42 2010	Los Angeles, California 	 Overcast	57	East	4	52	29.86		82	9.0
Thu Feb  4 11:07:58 2010	Los Angeles, California 	 Overcast	58	Calm		51	29.86		78	9.0
Thu Feb  4 11:51:32 2010	Los Angeles, California 	 Overcast	58	East	4	50	29.88		75	8.0
Thu Feb  4 12:34:37 2010	Los Angeles, California 	 Overcast	57	East	5	50	29.88		77	8.0
Thu Feb  4 13:18:05 2010	Los Angeles, California 	 Overcast	58	ESE	4	50	29.88		75	8.0
Thu Feb  4 14:02:26 2010	Los Angeles, California 	 Overcast	58	East	5	49	29.88		72	8.0
Thu Feb  4 14:55:10 2010	Los Angeles, California 	 Clear	57	East	4	48	29.90		72	7.0
Thu Jan 28 15:35:17 2010	Los Angeles, California 	 Clear	52	East	4	41	29.96		66	10.0
Thu Jan 28 15:56:29 2010	Los Angeles, California 	 Clear	51	Calm		42	29.99		71	10.0
Thu Jan 28 16:44:48 2010	Los Angeles, California 	 Clear	51	Calm		42	29.99		71	10.0
Thu Jan 28 17:09:36 2010	Los Angeles, California 	 Clear	53	Calm		43	30.01		69	10.0
Thu Jan 28 17:25:49 2010	Los Angeles, California 	 Clear	53	Calm		43	30.01		69	10.0
Tue Feb  2 00:25:03 2010	Los Angeles, California 	 Clear	67	Variable	5	51	29.87		57	8.0
Tue Feb  2 01:10:31 2010	Los Angeles, California 	 Clear	64	Variable	4	51	29.88		63	8.0
Tue Feb  2 01:53:58 2010	Los Angeles, California 	 Clear	62	Calm		51	29.88		67	8.0
Tue Feb  2 02:37:59 2010	Los Angeles, California 	 Clear	62	Calm		51	29.88		67	8.0
Tue Feb  2 03:21:11 2010	Los Angeles, California 	 Clear	60	West	4	50	29.89		69	9.0
Tue Feb  2 04:05:14 2010	Los Angeles, California 	 Clear	59	West	4	51	29.90		75	9.0
Tue Feb  2 04:48:49 2010	Los Angeles, California 	 Clear	59	West	4	51	29.90		75	9.0
Tue Feb  2 05:32:11 2010	Los Angeles, California 	 Clear	58	Calm		51	29.89		78	7.0
Tue Feb  2 06:15:08 2010	Los Angeles, California 	 Haze	58	Calm		51	29.89		78	5.0
Tue Feb  2 07:02:38 2010	Los Angeles, California 	 Haze	57	Calm		51	29.88		81	4.0
Tue Feb  2 07:45:44 2010	Los Angeles, California 	 Haze	57	Calm		51	29.88		81	4.0
Tue Feb  2 08:28:49 2010	Los Angeles, California 	 Haze	57	Calm		51	29.88		81	4.0
Tue Feb  2 09:12:16 2010	Los Angeles, California 	 Clear	55	Calm		51	29.89		86	3.0
Tue Feb  2 09:55:49 2010	Los Angeles, California 	 Overcast	55	Calm		51	29.88		86	3.0
Tue Feb  2 10:39:26 2010	Los Angeles, California 	 Overcast	55	Calm		51	29.88		86	3.0
Tue Feb  2 11:23:31 2010	Los Angeles, California 	 Mostly Cloudy	54	Calm		50	29.88		88	2.5
Tue Feb  2 12:07:04 2010	Los Angeles, California 	 Mostly Cloudy	54	Calm		50	29.88		88	3.0
Tue Feb  2 12:51:24 2010	Los Angeles, California 	 Overcast	55	Calm		51	29.87		86	4.0
Tue Feb  2 13:34:44 2010	Los Angeles, California 	 Haze	55	Calm		52	29.87		88	3.0
Tue Feb  2 14:18:12 2010	Los Angeles, California 	 Haze	55	Calm		52	29.86		88	3.0
Tue Feb  2 15:02:40 2010	Los Angeles, California 	 Haze	56	Calm		50	29.86		80	3.0
Tue Feb  2 15:49:04 2010	Los Angeles, California 	 Haze	56	Calm		50	29.86		80	3.0
Tue Feb  2 16:41:40 2010	Los Angeles, California 	 Haze	55	Calm		50	29.86		82	2.5
Tue Feb  2 17:29:20 2010	Los Angeles, California 	 Haze	55	NNE	4	50	29.86		83	2.0
Tue Feb  2 18:14:44 2010	Los Angeles, California 	 Haze	57	Calm		50	29.86		77	2.5
Tue Feb  2 18:58:44 2010	Los Angeles, California 	 Haze	61	Calm		50	29.86		67	2.5
Tue Feb  2 19:47:41 2010	Los Angeles, California 	 Haze	61	Calm		50	29.85		68	3.0
Tue Feb  2 20:39:26 2010	Los Angeles, California 	 Haze	63	Calm		45	29.84		52	5.0
Tue Feb  2 21:25:59 2010	Los Angeles, California 	 Haze	65	Calm		46	29.82		50	5.0
Tue Feb  2 22:13:42 2010	Los Angeles, California 	 Haze	64	Variable	6	50	29.80		60	4.0
Tue Feb  2 22:58:57 2010	Los Angeles, California 	 Haze	64	West	5	50	29.79		60	5.0
Tue Feb  2 23:43:55 2010	Los Angeles, California 	 Haze	64	West	5	50	29.79		60	5.0
Wed Feb  3 00:28:48 2010	Los Angeles, California 	 Haze	64	Variable	4	50	29.78		60	6.0
Wed Feb  3 01:15:46 2010	Los Angeles, California 	 Clear	64	Variable	4	49	29.78		58	10.0
Wed Feb  3 02:00:38 2010	Los Angeles, California 	 Clear	63	West	5	49	29.78		60	9.0
Wed Feb  3 02:49:23 2010	Los Angeles, California 	 Clear	63	West	5	49	29.78		60	9.0
Wed Feb  3 03:36:21 2010	Los Angeles, California 	 Mostly Cloudy	60	West	4	50	29.78		69	10.0
Wed Feb  3 04:24:23 2010	Los Angeles, California 	 Clear	58	Calm		49	29.79		72	10.0
Wed Feb  3 05:10:57 2010	Los Angeles, California 	 Clear	57	Calm		50	29.79		77	9.0
Wed Feb  3 05:58:59 2010	Los Angeles, California 	 Clear	56	Calm		51	29.79		84	8.0
Wed Feb  3 06:45:48 2010	Los Angeles, California 	 Clear	56	Calm		51	29.79		84	8.0
Wed Feb  3 07:30:24 2010	Los Angeles, California 	 Mostly Cloudy	57	Calm		51	29.79		81	8.0
Wed Feb  3 08:13:29 2010	Los Angeles, California 	 Mostly Cloudy	55	Calm		51	29.79		86	8.0
Wed Feb  3 08:59:52 2010	Los Angeles, California 	 Overcast	56	Calm		51	29.78		84	7.0
Wed Feb  3 09:43:22 2010	Los Angeles, California 	 Overcast	56	Calm		51	29.78		84	7.0
Wed Feb  3 10:27:21 2010	Los Angeles, California 	 Scattered Clouds	56	Calm		50	29.78		80	7.0
Wed Feb  3 11:14:00 2010	Los Angeles, California 	 Haze	54	Calm		49	29.77		83	6.0
Wed Feb  3 11:58:52 2010	Los Angeles, California 	 Clear	52	Calm		48	29.75		86	6.0
Wed Feb  3 12:42:02 2010	Los Angeles, California 	 Clear	52	Calm		48	29.75		86	6.0
Wed Feb  3 13:25:40 2010	Los Angeles, California 	 Clear	51	Calm		46	29.75		83	8.0
Wed Feb  3 14:11:15 2010	Los Angeles, California 	 Clear	50	Calm		45	29.75	50	83	7.0
Wed Feb  3 14:57:14 2010	Los Angeles, California 	 Clear	50	Calm		45	29.75	50	83	7.0
Wed Feb  3 15:42:19 2010	Los Angeles, California 	 Clear	50	Calm		45	29.75	50	83	7.0
Wed Feb  3 16:27:58 2010	Los Angeles, California 	 Clear	49	Calm		44	29.76	48	83	7.0
Wed Feb  3 17:15:25 2010	Los Angeles, California 	 Clear	51	Calm		44	29.77		77	7.0
Wed Feb  3 18:04:00 2010	Los Angeles, California 	 Clear	57	Calm		45	29.79		64	7.0
Wed Feb  3 18:47:05 2010	Los Angeles, California 	 Clear	57	Calm		45	29.79		64	7.0
Wed Feb  3 19:30:55 2010	Los Angeles, California 	 Clear	61	Calm		44	29.79		54	8.0
Wed Feb  3 20:14:34 2010	Los Angeles, California 	 Clear	64	Calm		43	29.78		46	10.0
Wed Feb  3 20:59:22 2010	Los Angeles, California 	 Clear	66	Calm		48	29.76		52	10.0
Wed Feb  3 21:47:15 2010	Los Angeles, California 	 Clear	66	Calm		48	29.76		52	10.0
Wed Feb  3 22:32:47 2010	Los Angeles, California 	 Clear	69	Variable	5	44	29.73		40	10.0
Wed Feb  3 23:23:32 2010	Los Angeles, California 	 Clear	68	Calm		42	29.71		39	10.0
Fri Jan 29 08:38:21 2010	Memphis, Tennessee 	 Overcast	33	NE	16	22	30.31	23	64	10.0
Fri Jan 29 09:22:20 2010	Memphis, Tennessee 	 Overcast	32	ENE	14	22	30.30	22	66	10.0
Fri Jan 29 11:54:18 2010	Memphis, Tennessee 	 Overcast	32	ENE	18	21	30.24	20	64	10.0
Fri Jan 29 12:38:54 2010	Memphis, Tennessee 	 Overcast	32	ENE	18	21	30.21	20	64	10.0
Fri Jan 29 13:25:25 2010	Memphis, Tennessee 	 Overcast	32	ENE	13	21	30.24	22	64	10.0
Fri Jan 29 14:14:09 2010	Memphis, Tennessee 	 Light Freezing Rain	32	NE	15	21	30.24	22	64	9.0
Fri Jan 29 14:58:49 2010	Memphis, Tennessee 	 Light Freezing Rain	32	NE	15	21	30.24	22	64	9.0
Fri Jan 29 15:44:50 2010	Memphis, Tennessee 	 Light Freezing Rain	30	ENE	15	25	30.24	19	80	8.0
Fri Jan 29 16:31:59 2010	Memphis, Tennessee 	 Ice Pellets	30	ENE	9	25	30.28	22	80	4.0
Fri Jan 29 17:16:38 2010	Memphis, Tennessee 	 Heavy Ice Pellets	30	NE	15	26	30.27	19	85	2.0
Fri Jan 29 18:05:01 2010	Memphis, Tennessee 	 Light Freezing Rain	30	ENE	17	27	30.22	18	88	5.0
Fri Jan 29 18:49:44 2010	Memphis, Tennessee 	 Light Freezing Rain	30	ENE	22	27	30.15	17	86	8.0
Fri Jan 29 19:42:10 2010	Memphis, Tennessee 	 Light Freezing Rain	31	ENE	23	27	30.12	18	85	8.0
Fri Jan 29 20:40:08 2010	Memphis, Tennessee 	 Light Freezing Rain	30	East	16	27	30.05	19	86	9.0
Fri Jan 29 21:24:12 2010	Memphis, Tennessee 	 Light Freezing Rain	30	ENE	10	28	30.05	21	93	4.0
Fri Jan 29 22:10:13 2010	Memphis, Tennessee 	 Light Rain	32	NNE	13	28	30.06	22	85	4.0
Fri Jan 29 22:56:36 2010	Memphis, Tennessee 	 Light Freezing Rain	30	NE	18	28	30.00	18	93	2.0
Fri Jan 29 23:40:33 2010	Memphis, Tennessee 	 Light Freezing Rain	30	NNE	18	28	30.00	18	93	2.5
Mon Feb  1 00:07:34 2010	Memphis, Tennessee 	 Mostly Cloudy	36	NE	7	27	30.31	30	70	10.0
Mon Feb  1 00:50:47 2010	Memphis, Tennessee 	 Mostly Cloudy	36	NE	7	27	30.31	30	70	10.0
Mon Feb  1 01:35:33 2010	Memphis, Tennessee 	 Mostly Cloudy	34	ENE	7	26	30.31	28	73	10.0
Mon Feb  1 02:20:25 2010	Memphis, Tennessee 	 Scattered Clouds	33	NE	7	26	30.32	27	75	10.0
Mon Feb  1 03:04:35 2010	Memphis, Tennessee 	 Mostly Cloudy	32	ENE	5	27	30.32	28	82	10.0
Mon Feb  1 03:48:06 2010	Memphis, Tennessee 	 Mostly Cloudy	32	ENE	5	27	30.32	28	82	10.0
Mon Feb  1 04:33:46 2010	Memphis, Tennessee 	 Mostly Cloudy	31	ENE	6	26	30.32	25	82	10.0
Mon Feb  1 05:17:22 2010	Memphis, Tennessee 	 Mostly Cloudy	30	ENE	6	24	30.32	24	79	9.0
Mon Feb  1 06:02:16 2010	Memphis, Tennessee 	 Mostly Cloudy	30	ENE	6	23	30.31	24	75	10.0
Mon Feb  1 06:45:10 2010	Memphis, Tennessee 	 Mostly Cloudy	30	ENE	6	23	30.31	24	75	10.0
Mon Feb  1 07:29:12 2010	Memphis, Tennessee 	 Mostly Cloudy	28	East	6	22	30.31	22	78	10.0
Mon Feb  1 08:12:16 2010	Memphis, Tennessee 	 Overcast	28	East	7	22	30.28	21	78	10.0
Mon Feb  1 08:56:05 2010	Memphis, Tennessee 	 Overcast	28	East	7	22	30.28	21	78	10.0
Mon Feb  1 09:39:07 2010	Memphis, Tennessee 	 Mostly Cloudy	28	East	5	22	30.28	23	78	10.0
Mon Feb  1 10:22:29 2010	Memphis, Tennessee 	 Mostly Cloudy	27	Calm		22	30.28	27	81	10.0
Mon Feb  1 11:05:36 2010	Memphis, Tennessee 	 Mostly Cloudy	27	Calm		22	30.28	27	81	10.0
Mon Feb  1 11:48:53 2010	Memphis, Tennessee 	 Mostly Cloudy	27	Calm		22	30.28	27	81	10.0
Mon Feb  1 12:32:26 2010	Memphis, Tennessee 	 Overcast	26	East	5	22	30.27	20	84	9.0
Mon Feb  1 13:15:49 2010	Memphis, Tennessee 	 Mostly Cloudy	25	Calm		22	30.27	25	88	9.0
Mon Feb  1 13:59:43 2010	Memphis, Tennessee 	 Mostly Cloudy	26	Calm		21	30.27	27	81	7.0
Mon Feb  1 14:44:12 2010	Memphis, Tennessee 	 Mostly Cloudy	26	Calm		21	30.27	27	81	7.0
Mon Feb  1 15:28:31 2010	Memphis, Tennessee 	 Overcast	28	Calm		25	30.27	28	88	9.0
Mon Feb  1 16:12:40 2010	Memphis, Tennessee 	 Mostly Cloudy	32	East	4	27	30.28	29	82	10.0
Mon Feb  1 16:57:53 2010	Memphis, Tennessee 	 Mostly Cloudy	32	East	4	27	30.28	29	82	10.0
Mon Feb  1 17:41:54 2010	Memphis, Tennessee 	 Mostly Cloudy	37	SE	7	29	30.27	32	73	10.0
Mon Feb  1 18:25:05 2010	Memphis, Tennessee 	 Mostly Cloudy	40	Calm		29	30.25	39	65	10.0
Mon Feb  1 19:08:47 2010	Memphis, Tennessee 	 Mostly Cloudy	44	ESE	6	30	30.21	41	58	10.0
Mon Feb  1 19:53:55 2010	Memphis, Tennessee 	 Mostly Cloudy	44	ESE	6	30	30.21	41	58	10.0
Mon Feb  1 20:40:27 2010	Memphis, Tennessee 	 Overcast	46	Calm		30	30.18	46	54	10.0
Mon Feb  1 21:25:11 2010	Memphis, Tennessee 	 Overcast	47	SSE	5	29	30.15	45	50	10.0
Mon Feb  1 22:08:42 2010	Memphis, Tennessee 	 Overcast	46	SE	4	30	30.14	45	54	10.0
Mon Feb  1 22:51:53 2010	Memphis, Tennessee 	 Overcast	46	SE	4	30	30.14	45	54	10.0
Mon Feb  1 23:38:05 2010	Memphis, Tennessee 	 Overcast	46	SE	4	30	30.14	45	54	10.0
Sat Jan 30 00:24:41 2010	Memphis, Tennessee 	 Light Freezing Rain	31	NE	13	28	30.01	21	89	2.5
Sat Jan 30 01:08:47 2010	Memphis, Tennessee 	 Light Freezing Rain	31	NE	17	27	29.98	19	85	3.0
Sat Jan 30 01:52:26 2010	Memphis, Tennessee 	 Light Freezing Rain	31	NE	17	27	29.98	19	85	3.0
Sat Jan 30 02:37:10 2010	Memphis, Tennessee 	 Light Freezing Rain	30	NE	15	27	29.93	19	86	2.5
Sat Jan 30 03:20:47 2010	Memphis, Tennessee 	 Light Freezing Rain	30	NE	16	27	29.94	19	88	3.0
Sat Jan 30 04:04:43 2010	Memphis, Tennessee 	 Light Freezing Drizzle	30	NE	16	27	29.94	19	88	3.0
Sat Jan 30 04:48:24 2010	Memphis, Tennessee 	 Light Freezing Drizzle	30	NE	16	27	29.94	19	88	3.0
Sat Jan 30 05:32:12 2010	Memphis, Tennessee 	 Light Freezing Drizzle	30	NE	12	26	29.94	20	85	5.0
Sat Jan 30 06:15:52 2010	Memphis, Tennessee 	 Light Freezing Drizzle	29	North	12	26	29.94	19	89	6.0
Sat Jan 30 07:01:36 2010	Memphis, Tennessee 	 Light Freezing Drizzle	29	North	10	25	29.95	20	85	7.0
Sat Jan 30 07:45:05 2010	Memphis, Tennessee 	 Light Freezing Rain	28	North	13	25	29.95	18	86	6.0
Sat Jan 30 08:28:10 2010	Memphis, Tennessee 	 Light Snow	28	North	14	25	29.94	18	86	6.0
Sat Jan 30 11:57:43 2010	Memphis, Tennessee 	 Overcast	25	North	9	21	29.98	16	85	7.0
Sat Jan 30 12:41:33 2010	Memphis, Tennessee 	 Overcast	25	North	9	21	29.98	16	85	7.0
Sat Jan 30 13:24:39 2010	Memphis, Tennessee 	 Overcast	25	North	10	21	29.98	15	86	9.0
Sat Jan 30 14:08:25 2010	Memphis, Tennessee 	 Light Snow	25	North	9	20	30.02	16	81	4.0
Sat Jan 30 14:52:41 2010	Memphis, Tennessee 	 Overcast	25	NNW	10	21	30.02	15	86	8.0
Sat Jan 30 15:37:21 2010	Memphis, Tennessee 	 Overcast	24	North	9	21	30.04	14	88	9.0
Sat Jan 30 16:23:36 2010	Memphis, Tennessee 	 Overcast	25	NNW	9	21	30.06	16	85	10.0
Sat Jan 30 17:07:52 2010	Memphis, Tennessee 	 Overcast	25	NNW	13	21	30.10	14	85	9.0
Sat Jan 30 17:51:24 2010	Memphis, Tennessee 	 Overcast	25	NNW	13	21	30.10	14	85	9.0
Sat Jan 30 18:35:13 2010	Memphis, Tennessee 	 Haze	25	NNW	12	20	30.12	14	81	6.0
Sat Jan 30 19:18:29 2010	Memphis, Tennessee 	 Overcast	25	North	9	21	30.12	16	85	9.0
Sat Jan 30 20:02:36 2010	Memphis, Tennessee 	 Overcast	25	North	12	21	30.12	14	85	10.0
Sat Jan 30 20:45:47 2010	Memphis, Tennessee 	 Overcast	25	North	12	21	30.12	14	85	10.0
Sat Jan 30 21:29:49 2010	Memphis, Tennessee 	 Overcast	26	North	14	21	30.12	14	81	9.0
Sat Jan 30 22:12:46 2010	Memphis, Tennessee 	 Overcast	27	North	12	22	30.13	17	81	9.0
Sat Jan 30 22:57:36 2010	Memphis, Tennessee 	 Overcast	27	North	12	22	30.13	17	81	9.0
Sat Jan 30 23:43:16 2010	Memphis, Tennessee 	 Overcast	28	North	9	23	30.15	19	81	10.0
Sun Jan 31 00:27:20 2010	Memphis, Tennessee 	 Partly Cloudy	27	North	8	21	30.16	18	80	10.0
Sun Jan 31 01:17:57 2010	Memphis, Tennessee 	 Clear	26	North	7	21	30.18	18	81	10.0
Sun Jan 31 02:01:50 2010	Memphis, Tennessee 	 Clear	26	NNW	4	20	30.19	22	78	10.0
Sun Jan 31 02:45:29 2010	Memphis, Tennessee 	 Clear	26	NNW	4	20	30.19	22	78	10.0
Sun Jan 31 03:29:30 2010	Memphis, Tennessee 	 Clear	25	North	4	20	30.20	21	81	10.0
Sun Jan 31 04:12:12 2010	Memphis, Tennessee 	 Clear	24	North	5	18	30.22	18	77	9.0
Sun Jan 31 04:57:18 2010	Memphis, Tennessee 	 Clear	24	Calm		18	30.25	25	77	10.0
Sun Jan 31 05:43:32 2010	Memphis, Tennessee 	 Clear	24	Calm		18	30.25	25	77	10.0
Sun Jan 31 06:28:38 2010	Memphis, Tennessee 	 Clear	24	Calm		18	30.27	25	77	10.0
Sun Jan 31 07:11:39 2010	Memphis, Tennessee 	 Clear	24	Calm		18	30.27	25	77	10.0
Sun Jan 31 07:58:15 2010	Memphis, Tennessee 	 Clear	24	Calm		18	30.27	25	77	10.0
Sun Jan 31 08:43:02 2010	Memphis, Tennessee 	 Clear	22	North	7	16	30.27	13	78	10.0
Sun Jan 31 09:26:13 2010	Memphis, Tennessee 	 Clear	22	Calm		16	30.29	21	78	10.0
Sun Jan 31 10:09:23 2010	Memphis, Tennessee 	 Clear	20	Calm		15	30.30	19	81	9.0
Sun Jan 31 10:53:13 2010	Memphis, Tennessee 	 Clear	20	Calm		15	30.30	19	81	9.0
Sun Jan 31 11:36:35 2010	Memphis, Tennessee 	 Clear	21	Calm		16	30.30	21	81	9.0
Sun Jan 31 12:20:18 2010	Memphis, Tennessee 	 Clear	21	Calm		15	30.30	21	78	9.0
Sun Jan 31 13:03:24 2010	Memphis, Tennessee 	 Clear	20	Calm		15	30.31	19	81	10.0
Sun Jan 31 13:47:24 2010	Memphis, Tennessee 	 Clear	20	Calm		15	30.31	19	81	10.0
Sun Jan 31 14:30:10 2010	Memphis, Tennessee 	 Clear	20	Calm		15	30.33	19	81	10.0
Sun Jan 31 15:14:07 2010	Memphis, Tennessee 	 Clear	22	Calm		18	30.36	21	85	10.0
Sun Jan 31 15:57:31 2010	Memphis, Tennessee 	 Clear	22	Calm		18	30.36	21	85	10.0
Sun Jan 31 16:47:19 2010	Memphis, Tennessee 	 Clear	25	Calm		21	30.37	25	85	10.0
Sun Jan 31 17:31:12 2010	Memphis, Tennessee 	 Clear	29	NE	4	23	30.37	25	78	10.0
Sun Jan 31 18:15:30 2010	Memphis, Tennessee 	 Partly Cloudy	31	ENE	4	24	30.38	28	76	10.0
Sun Jan 31 18:59:40 2010	Memphis, Tennessee 	 Scattered Clouds	32	East	6	24	30.34	26	73	10.0
Sun Jan 31 19:45:12 2010	Memphis, Tennessee 	 Scattered Clouds	32	East	6	24	30.34	26	73	10.0
Sun Jan 31 20:28:13 2010	Memphis, Tennessee 	 Scattered Clouds	34	Calm		24	30.33	34	67	10.0
Sun Jan 31 21:12:22 2010	Memphis, Tennessee 	 Scattered Clouds	36	Calm		26	30.32	36	67	10.0
Sun Jan 31 21:55:44 2010	Memphis, Tennessee 	 Scattered Clouds	36	Calm		26	30.32	36	67	10.0
Sun Jan 31 22:40:29 2010	Memphis, Tennessee 	 Partly Cloudy	37	NNE	5	26	30.31	33	65	10.0
Sun Jan 31 23:23:33 2010	Memphis, Tennessee 	 Scattered Clouds	37	Variable	4	26	30.32	34	65	10.0
Thu Feb  4 00:09:05 2010	Memphis, Tennessee 	 Overcast	44	North	9	29	30.25	39	55	10.0
Thu Feb  4 00:53:28 2010	Memphis, Tennessee 	 Overcast	44	North	9	29	30.25	39	55	10.0
Thu Feb  4 01:36:26 2010	Memphis, Tennessee 	 Overcast	43	NE	10	28	30.28	37	56	10.0
Thu Feb  4 02:23:33 2010	Memphis, Tennessee 	 Overcast	42	NE	13	28	30.27	35	58	10.0
Thu Feb  4 03:07:29 2010	Memphis, Tennessee 	 Overcast	40	NNE	5	30	30.27	37	68	10.0
Thu Feb  4 03:52:00 2010	Memphis, Tennessee 	 Overcast	40	NNE	5	30	30.27	37	68	10.0
Thu Feb  4 04:35:11 2010	Memphis, Tennessee 	 Overcast	40	NE	12	28	30.26	33	63	10.0
Thu Feb  4 05:18:20 2010	Memphis, Tennessee 	 Overcast	40	NE	12	28	30.23	33	63	10.0
Thu Feb  4 06:01:31 2010	Memphis, Tennessee 	 Overcast	39	ENE	10	28	30.23	32	65	10.0
Thu Feb  4 06:44:31 2010	Memphis, Tennessee 	 Overcast	39	ENE	10	28	30.23	32	65	10.0
Thu Feb  4 07:28:05 2010	Memphis, Tennessee 	 Overcast	39	NE	8	28	30.25	33	65	10.0
Thu Feb  4 08:10:45 2010	Memphis, Tennessee 	 Overcast	40	ENE	9	28	30.22	34	63	10.0
Thu Feb  4 08:54:29 2010	Memphis, Tennessee 	 Overcast	40	ENE	9	28	30.22	34	63	10.0
Thu Feb  4 09:38:13 2010	Memphis, Tennessee 	 Overcast	39	ENE	7	28	30.21	34	65	10.0
Thu Feb  4 10:21:37 2010	Memphis, Tennessee 	 Overcast	40	ENE	8	29	30.21	34	65	10.0
Thu Feb  4 11:07:54 2010	Memphis, Tennessee 	 Overcast	40	ENE	8	29	30.20	34	65	10.0
Thu Feb  4 11:51:28 2010	Memphis, Tennessee 	 Overcast	40	ENE	8	29	30.20	34	65	10.0
Thu Feb  4 12:34:32 2010	Memphis, Tennessee 	 Overcast	39	NE	8	29	30.19	33	67	9.0
Thu Feb  4 13:18:01 2010	Memphis, Tennessee 	 Light Rain	38	NE	8	29	30.20	32	70	9.0
Thu Feb  4 14:02:22 2010	Memphis, Tennessee 	 Light Rain	38	NE	7	30	30.20	33	73	8.0
Thu Feb  4 14:55:05 2010	Memphis, Tennessee 	 Light Rain	38	NE	7	30	30.20	33	73	8.0
Thu Jan 28 15:35:13 2010	Memphis, Tennessee 	 Overcast	44	North	13	34	30.35	38	68	10.0
Thu Jan 28 15:56:25 2010	Memphis, Tennessee 	 Overcast	44	North	13	34	30.35	38	68	10.0
Thu Jan 28 16:44:43 2010	Memphis, Tennessee 	 Overcast	42	North	10	34	30.39	36	73	10.0
Thu Jan 28 17:09:31 2010	Memphis, Tennessee 	 Overcast	41	NNE	15	32	30.42	33	70	10.0
Thu Jan 28 17:25:45 2010	Memphis, Tennessee 	 Overcast	41	NNE	15	32	30.42	33	70	10.0
Tue Feb  2 00:24:59 2010	Memphis, Tennessee 	 Overcast	44	South	4	31	30.14	42	60	10.0
Tue Feb  2 01:10:27 2010	Memphis, Tennessee 	 Overcast	44	SE	4	31	30.14	42	60	10.0
Tue Feb  2 01:53:54 2010	Memphis, Tennessee 	 Overcast	44	SE	4	31	30.14	42	60	10.0
Tue Feb  2 02:37:55 2010	Memphis, Tennessee 	 Overcast	42	Calm		32	30.15	43	67	10.0
Tue Feb  2 03:21:07 2010	Memphis, Tennessee 	 Overcast	40	Calm		32	30.14	39	73	10.0
Tue Feb  2 04:05:09 2010	Memphis, Tennessee 	 Overcast	40	Calm		32	30.12	39	73	10.0
Tue Feb  2 04:48:45 2010	Memphis, Tennessee 	 Overcast	40	Calm		32	30.12	39	73	10.0
Tue Feb  2 05:32:07 2010	Memphis, Tennessee 	 Overcast	41	SE	5	33	30.11	38	73	10.0
Tue Feb  2 06:15:04 2010	Memphis, Tennessee 	 Overcast	41	South	6	34	30.11	37	76	10.0
Tue Feb  2 07:02:33 2010	Memphis, Tennessee 	 Overcast	41	SE	6	34	30.10	37	76	10.0
Tue Feb  2 07:45:39 2010	Memphis, Tennessee 	 Overcast	41	SE	6	34	30.10	37	76	10.0
Tue Feb  2 08:28:45 2010	Memphis, Tennessee 	 Overcast	41	Calm		35	30.11	41	79	10.0
Tue Feb  2 09:12:12 2010	Memphis, Tennessee 	 Overcast	40	Calm		34	30.11	39	79	10.0
Tue Feb  2 09:55:44 2010	Memphis, Tennessee 	 Overcast	40	Calm		34	30.11	39	79	10.0
Tue Feb  2 10:39:22 2010	Memphis, Tennessee 	 Mostly Cloudy	39	Calm		33	30.11	39	79	10.0
Tue Feb  2 11:23:27 2010	Memphis, Tennessee 	 Mostly Cloudy	38	Calm		33	30.10	37	83	10.0
Tue Feb  2 12:06:59 2010	Memphis, Tennessee 	 Scattered Clouds	36	West	5	32	30.11	32	86	10.0
Tue Feb  2 12:51:19 2010	Memphis, Tennessee 	 Scattered Clouds	36	West	5	32	30.11	32	86	10.0
Tue Feb  2 13:34:40 2010	Memphis, Tennessee 	 Mostly Cloudy	36	Calm		33	30.11	36	89	9.0
Tue Feb  2 14:18:11 2010	Memphis, Tennessee 	 Overcast	37	Calm		33	30.11	37	86	9.0
Tue Feb  2 15:02:36 2010	Memphis, Tennessee 	 Mostly Cloudy	39	Calm		34	30.12	39	82	9.0
Tue Feb  2 15:49:00 2010	Memphis, Tennessee 	 Mostly Cloudy	39	Calm		34	30.12	39	82	9.0
Tue Feb  2 16:41:34 2010	Memphis, Tennessee 	 Overcast	39	West	5	34	30.15	36	82	8.0
Tue Feb  2 17:29:16 2010	Memphis, Tennessee 	 Overcast	41	West	4	34	30.15	39	76	9.0
Tue Feb  2 18:14:39 2010	Memphis, Tennessee 	 Overcast	44	NW	7	35	30.16	40	71	10.0
Tue Feb  2 18:58:41 2010	Memphis, Tennessee 	 Overcast	45	WNW	9	35	30.15	40	68	10.0
Tue Feb  2 19:47:37 2010	Memphis, Tennessee 	 Overcast	45	WNW	9	35	30.15	40	68	10.0
Tue Feb  2 20:39:22 2010	Memphis, Tennessee 	 Overcast	45	NNW	12	34	30.15	39	65	10.0
Tue Feb  2 21:25:53 2010	Memphis, Tennessee 	 Overcast	45	WNW	8	33	30.14	41	63	10.0
Tue Feb  2 22:13:37 2010	Memphis, Tennessee 	 Overcast	44	NW	10	33	30.15	39	65	10.0
Tue Feb  2 22:58:53 2010	Memphis, Tennessee 	 Overcast	43	NNW	8	33	30.16	38	68	10.0
Tue Feb  2 23:43:51 2010	Memphis, Tennessee 	 Overcast	43	NNW	8	33	30.16	38	68	10.0
Wed Feb  3 00:28:44 2010	Memphis, Tennessee 	 Overcast	41	NNW	8	32	30.17	36	70	10.0
Wed Feb  3 01:15:41 2010	Memphis, Tennessee 	 Overcast	41	NNW	7	32	30.19	36	70	10.0
Wed Feb  3 02:00:32 2010	Memphis, Tennessee 	 Mostly Cloudy	39	NW	4	31	30.21	37	73	10.0
Wed Feb  3 02:49:18 2010	Memphis, Tennessee 	 Mostly Cloudy	39	NW	4	31	30.21	37	73	10.0
Wed Feb  3 03:36:17 2010	Memphis, Tennessee 	 Clear	37	WNW	4	30	30.24	34	76	10.0
Wed Feb  3 04:24:19 2010	Memphis, Tennessee 	 Clear	36	Calm		30	30.24	36	79	10.0
Wed Feb  3 05:10:53 2010	Memphis, Tennessee 	 Clear	36	Calm		29	30.25	36	76	10.0
Wed Feb  3 05:58:55 2010	Memphis, Tennessee 	 Clear	32	Calm		27	30.24	32	82	10.0
Wed Feb  3 06:45:44 2010	Memphis, Tennessee 	 Clear	32	Calm		27	30.24	32	82	10.0
Wed Feb  3 07:30:20 2010	Memphis, Tennessee 	 Clear	31	Calm		26	30.25	30	82	10.0
Wed Feb  3 08:13:25 2010	Memphis, Tennessee 	 Clear	33	NNE	4	27	30.25	30	78	10.0
Wed Feb  3 08:59:48 2010	Memphis, Tennessee 	 Clear	30	Calm		26	30.25	30	85	9.0
Wed Feb  3 09:43:18 2010	Memphis, Tennessee 	 Clear	30	Calm		26	30.25	30	85	9.0
Wed Feb  3 10:27:16 2010	Memphis, Tennessee 	 Clear	29	SSW	4	25	30.26	25	85	9.0
Wed Feb  3 11:13:56 2010	Memphis, Tennessee 	 Clear	29	Calm		26	30.25	28	89	9.0
Wed Feb  3 11:58:47 2010	Memphis, Tennessee 	 Partly Cloudy	29	Calm		25	30.25	28	85	9.0
Wed Feb  3 12:41:57 2010	Memphis, Tennessee 	 Partly Cloudy	29	Calm		25	30.25	28	85	9.0
Wed Feb  3 13:25:36 2010	Memphis, Tennessee 	 Scattered Clouds	28	Calm		24	30.29	28	85	9.0
Wed Feb  3 14:11:11 2010	Memphis, Tennessee 	 Scattered Clouds	28	Calm		25	30.32	28	88	5.0
Wed Feb  3 14:57:10 2010	Memphis, Tennessee 	 Scattered Clouds	28	Calm		25	30.32	28	88	5.0
Wed Feb  3 15:42:15 2010	Memphis, Tennessee 	 Partly Cloudy	31	Calm		27	30.30	30	85	5.0
Wed Feb  3 16:27:53 2010	Memphis, Tennessee 	 Haze	37	NNE	6	32	30.32	32	82	6.0
Wed Feb  3 17:15:22 2010	Memphis, Tennessee 	 Mostly Cloudy	40	NE	7	30	30.33	35	68	10.0
Wed Feb  3 18:03:56 2010	Memphis, Tennessee 	 Scattered Clouds	43	NNE	5	30	30.31	40	60	10.0
Wed Feb  3 18:47:03 2010	Memphis, Tennessee 	 Scattered Clouds	43	NNE	5	30	30.31	40	60	10.0
Wed Feb  3 19:30:51 2010	Memphis, Tennessee 	 Scattered Clouds	45	NNE	7	30	30.29	41	56	10.0
Wed Feb  3 20:14:30 2010	Memphis, Tennessee 	 Mostly Cloudy	48	NNE	8	30	30.26	44	50	10.0
Wed Feb  3 20:59:18 2010	Memphis, Tennessee 	 Overcast	47	ENE	7	30	30.24	44	52	10.0
Wed Feb  3 21:47:11 2010	Memphis, Tennessee 	 Overcast	47	ENE	7	30	30.24	44	52	10.0
Wed Feb  3 22:32:43 2010	Memphis, Tennessee 	 Overcast	48	ENE	12	29	30.22	43	48	10.0
Wed Feb  3 23:23:30 2010	Memphis, Tennessee 	 Overcast	47	ENE	10	29	30.22	42	50	10.0
Fri Jan 29 08:40:06 2010	Milwaukee, Wisconsin 	 Partly Cloudy	5	NW	6	-11	30.57	-6	48	10.0
Fri Jan 29 09:23:59 2010	Milwaukee, Wisconsin 	 Partly Cloudy	4	NW	7	-10	30.57	-8	53	10.0
Fri Jan 29 11:55:59 2010	Milwaukee, Wisconsin 	 Clear	3	WNW	7	-9	30.56	-9	57	10.0
Fri Jan 29 12:40:33 2010	Milwaukee, Wisconsin 	 Clear	3	WNW	7	-9	30.56	-9	57	10.0
Fri Jan 29 13:27:07 2010	Milwaukee, Wisconsin 	 Partly Cloudy	3	WNW	7	-9	30.58	-9	57	10.0
Fri Jan 29 14:15:54 2010	Milwaukee, Wisconsin 	 Partly Cloudy	3	WNW	7	-9	30.58	-9	57	10.0
Fri Jan 29 15:00:35 2010	Milwaukee, Wisconsin 	 Scattered Clouds	4	NW	7	-8	30.57	-8	58	10.0
Fri Jan 29 15:46:26 2010	Milwaukee, Wisconsin 	 Scattered Clouds	4	NW	7	-8	30.57	-8	58	10.0
Fri Jan 29 16:33:55 2010	Milwaukee, Wisconsin 	 Scattered Clouds	7	NW	8	-6	30.55	-6	55	10.0
Fri Jan 29 17:18:26 2010	Milwaukee, Wisconsin 	 Scattered Clouds	10	Variable	4	-6	30.56	4	48	10.0
Fri Jan 29 18:06:42 2010	Milwaukee, Wisconsin 	 Scattered Clouds	12	Calm		-4	30.57	12	49	10.0
Fri Jan 29 18:51:19 2010	Milwaukee, Wisconsin 	 Scattered Clouds	12	Calm		-4	30.57	12	49	10.0
Fri Jan 29 19:43:48 2010	Milwaukee, Wisconsin 	 Scattered Clouds	14	Calm		-5	30.55	14	43	10.0
Fri Jan 29 20:41:50 2010	Milwaukee, Wisconsin 	 Scattered Clouds	15	Calm		-6	30.52	16	39	10.0
Fri Jan 29 21:25:52 2010	Milwaukee, Wisconsin 	 Scattered Clouds	17	ENE	7	2	30.48	8	52	10.0
Fri Jan 29 22:11:54 2010	Milwaukee, Wisconsin 	 Scattered Clouds	16	NE	8	1	30.46	5	52	10.0
Fri Jan 29 22:58:14 2010	Milwaukee, Wisconsin 	 Scattered Clouds	16	ESE	5	1	30.46	9	52	10.0
Fri Jan 29 23:42:15 2010	Milwaukee, Wisconsin 	 Scattered Clouds	16	ESE	5	1	30.46	9	52	10.0
Mon Feb  1 00:09:14 2010	Milwaukee, Wisconsin 	 Mostly Cloudy	23	WNW	13	5	30.27	11	46	10.0
Mon Feb  1 00:52:27 2010	Milwaukee, Wisconsin 	 Mostly Cloudy	23	WNW	13	5	30.27	11	46	10.0
Mon Feb  1 01:37:10 2010	Milwaukee, Wisconsin 	 Partly Cloudy	22	WNW	8	6	30.28	12	51	10.0
Mon Feb  1 02:22:04 2010	Milwaukee, Wisconsin 	 Partly Cloudy	20	NW	8	6	30.30	10	55	10.0
Mon Feb  1 03:06:13 2010	Milwaukee, Wisconsin 	 Partly Cloudy	19	NW	7	5	30.31	10	54	10.0
Mon Feb  1 03:49:45 2010	Milwaukee, Wisconsin 	 Partly Cloudy	19	NW	7	5	30.31	10	54	10.0
Mon Feb  1 04:35:24 2010	Milwaukee, Wisconsin 	 Scattered Clouds	18	NW	8	5	30.32	8	57	10.0
Mon Feb  1 05:18:59 2010	Milwaukee, Wisconsin 	 Partly Cloudy	17	NW	8	5	30.33	7	59	10.0
Mon Feb  1 06:03:55 2010	Milwaukee, Wisconsin 	 Scattered Clouds	16	NW	7	4	30.33	6	59	10.0
Mon Feb  1 06:46:47 2010	Milwaukee, Wisconsin 	 Scattered Clouds	16	NW	7	4	30.33	6	59	10.0
Mon Feb  1 07:30:52 2010	Milwaukee, Wisconsin 	 Scattered Clouds	15	NW	9	4	30.33	3	61	10.0
Mon Feb  1 08:14:02 2010	Milwaukee, Wisconsin 	 Partly Cloudy	14	NW	6	3	30.34	5	62	10.0
Mon Feb  1 08:57:45 2010	Milwaukee, Wisconsin 	 Clear	14	West	4	3	30.35	8	62	10.0
Mon Feb  1 09:40:47 2010	Milwaukee, Wisconsin 	 Clear	14	West	4	3	30.35	8	62	10.0
Mon Feb  1 10:24:07 2010	Milwaukee, Wisconsin 	 Clear	12	Calm		3	30.34	12	67	10.0
Mon Feb  1 11:07:17 2010	Milwaukee, Wisconsin 	 Partly Cloudy	13	WNW	5	3	30.34	5	65	10.0
Mon Feb  1 11:50:32 2010	Milwaukee, Wisconsin 	 Partly Cloudy	13	WNW	5	3	30.34	5	65	10.0
Mon Feb  1 12:34:03 2010	Milwaukee, Wisconsin 	 Clear	14	NW	4	4	30.34	8	64	9.0
Mon Feb  1 13:17:33 2010	Milwaukee, Wisconsin 	 Scattered Clouds	15	NW	4	5	30.33	9	64	8.0
Mon Feb  1 14:01:21 2010	Milwaukee, Wisconsin 	 Overcast	16	WNW	4	6	30.35	10	65	8.0
Mon Feb  1 14:45:50 2010	Milwaukee, Wisconsin 	 Overcast	16	WNW	4	6	30.35	10	65	8.0
Mon Feb  1 15:30:10 2010	Milwaukee, Wisconsin 	 Overcast	16	Variable	4	7	30.36	10	68	8.0
Mon Feb  1 16:14:21 2010	Milwaukee, Wisconsin 	 Haze	19	Calm		9	30.35	19	65	6.0
Mon Feb  1 16:59:29 2010	Milwaukee, Wisconsin 	 Haze	21	Calm		10	30.35	21	63	6.0
Mon Feb  1 17:43:32 2010	Milwaukee, Wisconsin 	 Haze	21	Calm		10	30.35	21	63	6.0
Mon Feb  1 18:26:41 2010	Milwaukee, Wisconsin 	 Overcast	23	Calm		9	30.34	23	55	7.0
Mon Feb  1 19:10:34 2010	Milwaukee, Wisconsin 	 Overcast	24	Calm		9	30.31	25	53	9.0
Mon Feb  1 19:55:35 2010	Milwaukee, Wisconsin 	 Overcast	25	Calm		9	30.28	25	51	10.0
Mon Feb  1 20:42:02 2010	Milwaukee, Wisconsin 	 Overcast	25	Calm		9	30.28	25	51	10.0
Mon Feb  1 21:26:49 2010	Milwaukee, Wisconsin 	 Mostly Cloudy	28	ENE	5	11	30.26	23	49	8.0
Mon Feb  1 22:10:23 2010	Milwaukee, Wisconsin 	 Overcast	27	East	5	12	30.25	22	53	8.0
Mon Feb  1 22:53:38 2010	Milwaukee, Wisconsin 	 Overcast	27	East	5	12	30.25	22	53	8.0
Mon Feb  1 23:39:45 2010	Milwaukee, Wisconsin 	 Mostly Cloudy	26	East	7	12	30.25	18	55	9.0
Sat Jan 30 00:26:18 2010	Milwaukee, Wisconsin 	 Scattered Clouds	15	NNE	4	4	30.47	9	61	10.0
Sat Jan 30 01:10:33 2010	Milwaukee, Wisconsin 	 Scattered Clouds	15	Calm		5	30.47	16	64	10.0
Sat Jan 30 01:54:10 2010	Milwaukee, Wisconsin 	 Scattered Clouds	15	Calm		5	30.47	16	64	10.0
Sat Jan 30 02:38:49 2010	Milwaukee, Wisconsin 	 Mostly Cloudy	16	NNW	5	6	30.45	9	65	10.0
Sat Jan 30 03:22:27 2010	Milwaukee, Wisconsin 	 Mostly Cloudy	16	NNW	4	6	30.42	10	65	10.0
Sat Jan 30 04:06:20 2010	Milwaukee, Wisconsin 	 Overcast	16	NW	6	5	30.42	7	62	10.0
Sat Jan 30 04:50:02 2010	Milwaukee, Wisconsin 	 Overcast	16	NW	6	5	30.42	7	62	10.0
Sat Jan 30 05:33:50 2010	Milwaukee, Wisconsin 	 Overcast	16	WNW	7	4	30.40	6	59	10.0
Sat Jan 30 06:17:35 2010	Milwaukee, Wisconsin 	 Overcast	16	WNW	8	4	30.39	5	59	10.0
Sat Jan 30 07:03:13 2010	Milwaukee, Wisconsin 	 Overcast	16	NW	10	4	30.39	4	59	10.0
Sat Jan 30 07:46:45 2010	Milwaukee, Wisconsin 	 Overcast	16	NW	10	4	30.39	4	59	10.0
Sat Jan 30 08:29:46 2010	Milwaukee, Wisconsin 	 Light Snow	16	NNW	9	5	30.37	4	62	9.0
Sat Jan 30 11:59:22 2010	Milwaukee, Wisconsin 	 Light Snow	18	NNW	8	11	30.31	8	74	4.0
Sat Jan 30 12:43:10 2010	Milwaukee, Wisconsin 	 Light Snow	18	NNW	8	11	30.31	8	74	4.0
Sat Jan 30 13:26:18 2010	Milwaukee, Wisconsin 	 Light Snow	19	NNW	8	13	30.30	9	77	7.0
Sat Jan 30 14:10:17 2010	Milwaukee, Wisconsin 	 Light Snow	19	NW	5	13	30.30	12	77	6.0
Sat Jan 30 14:54:22 2010	Milwaukee, Wisconsin 	 Light Snow	19	NW	5	13	30.30	12	77	6.0
Sat Jan 30 15:39:04 2010	Milwaukee, Wisconsin 	 Light Snow	19	WNW	5	13	30.30	12	77	7.0
Sat Jan 30 16:25:15 2010	Milwaukee, Wisconsin 	 Light Snow	19	NW	5	14	30.31	12	81	2.5
Sat Jan 30 17:09:34 2010	Milwaukee, Wisconsin 	 Light Snow	20	WNW	5	15	30.31	13	81	2.5
Sat Jan 30 17:53:03 2010	Milwaukee, Wisconsin 	 Light Snow	21	North	5	16	30.27	15	80	2.0
Sat Jan 30 18:36:55 2010	Milwaukee, Wisconsin 	 Light Snow	21	Calm		18	30.24	21	86	2.0
Sat Jan 30 19:20:11 2010	Milwaukee, Wisconsin 	 Light Snow	21	Calm		18	30.23	21	86	1.5
Sat Jan 30 20:04:16 2010	Milwaukee, Wisconsin 	 Light Snow	23	Calm		18	30.20	23	80	2.0
Sat Jan 30 20:47:24 2010	Milwaukee, Wisconsin 	 Overcast	25	Calm		16	30.19	25	69	9.0
Sat Jan 30 21:31:22 2010	Milwaukee, Wisconsin 	 Mostly Cloudy	24	Variable	4	14	30.23	20	65	10.0
Sat Jan 30 22:14:28 2010	Milwaukee, Wisconsin 	 Overcast	23	South	7	16	30.22	15	74	10.0
Sat Jan 30 22:59:13 2010	Milwaukee, Wisconsin 	 Overcast	23	SSW	6	16	30.23	16	74	9.0
Sat Jan 30 23:44:57 2010	Milwaukee, Wisconsin 	 Overcast	23	SSW	6	16	30.23	16	74	9.0
Sun Jan 31 00:28:58 2010	Milwaukee, Wisconsin 	 Overcast	23	SSW	7	15	30.22	15	72	10.0
Sun Jan 31 01:19:34 2010	Milwaukee, Wisconsin 	 Overcast	22	SSW	6	15	30.21	14	75	10.0
Sun Jan 31 02:03:29 2010	Milwaukee, Wisconsin 	 Overcast	22	SW	7	15	30.22	13	75	10.0
Sun Jan 31 02:47:06 2010	Milwaukee, Wisconsin 	 Overcast	22	SW	7	15	30.22	13	75	10.0
Sun Jan 31 03:31:06 2010	Milwaukee, Wisconsin 	 Mostly Cloudy	22	SW	6	15	30.20	14	75	10.0
Sun Jan 31 04:13:51 2010	Milwaukee, Wisconsin 	 Overcast	23	West	6	14	30.20	16	68	10.0
Sun Jan 31 04:58:57 2010	Milwaukee, Wisconsin 	 Overcast	22	West	6	12	30.19	14	66	10.0
Sun Jan 31 05:45:11 2010	Milwaukee, Wisconsin 	 Overcast	22	West	6	12	30.19	14	66	10.0
Sun Jan 31 06:30:14 2010	Milwaukee, Wisconsin 	 Overcast	19	WSW	5	12	30.15	13	74	10.0
Sun Jan 31 07:13:19 2010	Milwaukee, Wisconsin 	 Mostly Cloudy	20	WSW	6	11	30.19	12	68	10.0
Sun Jan 31 07:59:54 2010	Milwaukee, Wisconsin 	 Partly Cloudy	18	WSW	5	10	30.18	11	71	9.0
Sun Jan 31 08:44:44 2010	Milwaukee, Wisconsin 	 Partly Cloudy	18	WSW	5	10	30.18	11	71	9.0
Sun Jan 31 09:27:50 2010	Milwaukee, Wisconsin 	 Mostly Cloudy	17	WSW	6	9	30.19	9	71	8.0
Sun Jan 31 10:11:01 2010	Milwaukee, Wisconsin 	 Scattered Clouds	16	West	5	9	30.18	9	74	9.0
Sun Jan 31 10:54:49 2010	Milwaukee, Wisconsin 	 Scattered Clouds	16	West	5	7	30.17	9	68	9.0
Sun Jan 31 11:38:17 2010	Milwaukee, Wisconsin 	 Scattered Clouds	16	West	5	7	30.17	9	68	9.0
Sun Jan 31 12:21:55 2010	Milwaukee, Wisconsin 	 Scattered Clouds	15	West	7	6	30.18	5	68	9.0
Sun Jan 31 13:04:57 2010	Milwaukee, Wisconsin 	 Mostly Cloudy	14	West	7	6	30.18	4	71	9.0
Sun Jan 31 13:49:00 2010	Milwaukee, Wisconsin 	 Mostly Cloudy	14	West	7	6	30.18	4	71	9.0
Sun Jan 31 14:31:49 2010	Milwaukee, Wisconsin 	 Mostly Cloudy	14	West	7	5	30.18	4	67	9.0
Sun Jan 31 15:15:48 2010	Milwaukee, Wisconsin 	 Mostly Cloudy	15	West	7	4	30.19	5	61	8.0
Sun Jan 31 15:59:12 2010	Milwaukee, Wisconsin 	 Partly Cloudy	16	West	9	5	30.20	4	62	8.0
Sun Jan 31 16:48:58 2010	Milwaukee, Wisconsin 	 Partly Cloudy	16	West	9	5	30.20	4	62	8.0
Sun Jan 31 17:32:53 2010	Milwaukee, Wisconsin 	 Scattered Clouds	18	West	9	4	30.20	7	54	9.0
Sun Jan 31 18:17:12 2010	Milwaukee, Wisconsin 	 Partly Cloudy	20	WNW	13	5	30.20	7	52	9.0
Sun Jan 31 19:01:18 2010	Milwaukee, Wisconsin 	 Partly Cloudy	23	West	12	5	30.19	12	46	9.0
Sun Jan 31 19:46:52 2010	Milwaukee, Wisconsin 	 Partly Cloudy	23	West	12	5	30.19	12	46	9.0
Sun Jan 31 20:29:50 2010	Milwaukee, Wisconsin 	 Partly Cloudy	25	West	12	5	30.17	14	43	10.0
Sun Jan 31 21:13:59 2010	Milwaukee, Wisconsin 	 Overcast	25	WNW	15	4	30.19	13	41	10.0
Sun Jan 31 21:57:21 2010	Milwaukee, Wisconsin 	 Scattered Clouds	25	NW	14	5	30.21	13	43	8.0
Sun Jan 31 22:42:10 2010	Milwaukee, Wisconsin 	 Scattered Clouds	25	NW	14	5	30.21	13	43	8.0
Sun Jan 31 23:25:20 2010	Milwaukee, Wisconsin 	 Mostly Cloudy	24	NW	13	5	30.25	12	44	9.0
Thu Feb  4 00:10:50 2010	Milwaukee, Wisconsin 	 Scattered Clouds	27	Calm		16	30.36	27	63	10.0
Thu Feb  4 00:55:01 2010	Milwaukee, Wisconsin 	 Partly Cloudy	25	Calm		16	30.38	25	69	10.0
Thu Feb  4 01:38:01 2010	Milwaukee, Wisconsin 	 Partly Cloudy	25	Calm		16	30.38	25	69	10.0
Thu Feb  4 02:25:11 2010	Milwaukee, Wisconsin 	 Partly Cloudy	25	South	4	17	30.39	21	72	10.0
Thu Feb  4 03:09:05 2010	Milwaukee, Wisconsin 	 Partly Cloudy	24	South	5	16	30.40	18	71	10.0
Thu Feb  4 03:53:36 2010	Milwaukee, Wisconsin 	 Partly Cloudy	24	South	5	16	30.40	18	71	10.0
Thu Feb  4 04:36:47 2010	Milwaukee, Wisconsin 	 Partly Cloudy	24	Calm		17	30.42	25	75	9.0
Thu Feb  4 05:19:59 2010	Milwaukee, Wisconsin 	 Partly Cloudy	22	SW	4	17	30.42	17	82	7.0
Thu Feb  4 06:03:06 2010	Milwaukee, Wisconsin 	 Partly Cloudy	18	Calm		14	30.40	18	84	5.0
Thu Feb  4 06:46:06 2010	Milwaukee, Wisconsin 	 Partly Cloudy	18	Calm		14	30.40	18	84	5.0
Thu Feb  4 07:29:46 2010	Milwaukee, Wisconsin 	 Haze	20	Calm		15	30.41	19	81	5.0
Thu Feb  4 08:12:20 2010	Milwaukee, Wisconsin 	 Clear	17	Calm		13	30.37	18	84	5.0
Thu Feb  4 08:56:05 2010	Milwaukee, Wisconsin 	 Haze	16	Calm		11	30.37	16	81	5.0
Thu Feb  4 09:39:51 2010	Milwaukee, Wisconsin 	 Haze	16	Calm		11	30.37	16	81	5.0
Thu Feb  4 10:23:14 2010	Milwaukee, Wisconsin 	 Haze	18	Calm		13	30.39	18	81	5.0
Thu Feb  4 11:09:29 2010	Milwaukee, Wisconsin 	 Mostly Cloudy	21	SSW	6	17	30.42	13	85	5.0
Thu Feb  4 11:53:02 2010	Milwaukee, Wisconsin 	 Mostly Cloudy	21	SSW	6	17	30.42	13	85	5.0
Thu Feb  4 12:36:10 2010	Milwaukee, Wisconsin 	 Mostly Cloudy	18	Calm		14	30.40	18	84	4.0
Thu Feb  4 13:19:40 2010	Milwaukee, Wisconsin 	 Mostly Cloudy	18	Calm		14	30.40	18	84	4.0
Thu Feb  4 14:04:01 2010	Milwaukee, Wisconsin 	 Haze	23	Calm		18	30.40	23	81	4.0
Thu Feb  4 14:56:42 2010	Milwaukee, Wisconsin 	 Haze	24	Calm		18	30.41	25	77	4.0
Thu Jan 28 15:36:56 2010	Milwaukee, Wisconsin 	 Partly Cloudy	7	NW	18	-6	30.38	-12	55	10.0
Thu Jan 28 15:58:05 2010	Milwaukee, Wisconsin 	 Partly Cloudy	7	NNW	18	-5	30.40	-12	58	10.0
Thu Jan 28 16:46:23 2010	Milwaukee, Wisconsin 	 Partly Cloudy	7	NNW	18	-5	30.40	-12	58	10.0
Thu Jan 28 17:11:18 2010	Milwaukee, Wisconsin 	 Partly Cloudy	9	NNW	18	-7	30.42	-10	48	10.0
Thu Jan 28 17:27:31 2010	Milwaukee, Wisconsin 	 Partly Cloudy	9	NNW	18	-7	30.42	-10	48	10.0
Tue Feb  2 00:26:39 2010	Milwaukee, Wisconsin 	 Overcast	26	ESE	6	14	30.25	19	60	8.0
Tue Feb  2 01:12:12 2010	Milwaukee, Wisconsin 	 Overcast	25	ESE	5	16	30.24	19	69	9.0
Tue Feb  2 01:55:33 2010	Milwaukee, Wisconsin 	 Mostly Cloudy	24	ESE	5	18	30.23	18	77	9.0
Tue Feb  2 02:39:35 2010	Milwaukee, Wisconsin 	 Mostly Cloudy	24	ESE	5	18	30.23	18	77	9.0
Tue Feb  2 03:22:45 2010	Milwaukee, Wisconsin 	 Overcast	25	Calm		18	30.22	25	75	7.0
Tue Feb  2 04:06:47 2010	Milwaukee, Wisconsin 	 Overcast	27	Calm		21	30.20	27	78	7.0
Tue Feb  2 04:50:25 2010	Milwaukee, Wisconsin 	 Light Snow	28	Calm		23	30.16	28	80	2.5
Tue Feb  2 05:33:46 2010	Milwaukee, Wisconsin 	 Light Snow	27	South	5	23	30.15	21	86	1.8
Tue Feb  2 06:16:43 2010	Milwaukee, Wisconsin 	 Light Snow	27	South	4	23	30.15	23	86	1.2
Tue Feb  2 07:04:12 2010	Milwaukee, Wisconsin 	 Light Snow	26	Calm		23	30.18	27	88	1.2
Tue Feb  2 07:47:18 2010	Milwaukee, Wisconsin 	 Light Snow	27	Calm		25	30.13	27	93	1.5
Tue Feb  2 08:30:23 2010	Milwaukee, Wisconsin 	 Light Snow	26	Calm		24	30.17	27	92	1.5
Tue Feb  2 09:13:51 2010	Milwaukee, Wisconsin 	 Light Snow	26	Calm		24	30.15	27	92	1.5
Tue Feb  2 09:57:23 2010	Milwaukee, Wisconsin 	 Light Snow	26	Calm		24	30.12	27	92	1.5
Tue Feb  2 10:41:01 2010	Milwaukee, Wisconsin 	 Light Snow	27	Calm		25	30.09	27	93	2.0
Tue Feb  2 11:25:06 2010	Milwaukee, Wisconsin 	 Light Snow	26	ENE	4	24	30.11	22	92	1.8
Tue Feb  2 12:08:40 2010	Milwaukee, Wisconsin 	 Light Snow	27	Calm		25	30.09	27	92	1.5
Tue Feb  2 12:52:59 2010	Milwaukee, Wisconsin 	 Light Snow	28	SE	5	27	30.04	23	93	2.0
Tue Feb  2 13:36:18 2010	Milwaukee, Wisconsin 	 Light Snow	28	Calm		27	30.04	28	93	3.0
Tue Feb  2 14:19:48 2010	Milwaukee, Wisconsin 	 Light Snow	28	Calm		27	30.02	28	93	2.0
Tue Feb  2 15:04:18 2010	Milwaukee, Wisconsin 	 Light Snow	29	Calm		27	30.06	28	92	1.8
Tue Feb  2 15:50:37 2010	Milwaukee, Wisconsin 	 Snow	28	South	5	27	30.02	23	93	0.5
Tue Feb  2 16:43:17 2010	Milwaukee, Wisconsin 	 Light Snow	30	South	6	27	30.01	24	86	0.5
Tue Feb  2 17:30:51 2010	Milwaukee, Wisconsin 	 Light Snow	30	South	7	27	30.01	23	86	1.0
Tue Feb  2 18:16:17 2010	Milwaukee, Wisconsin 	 Light Snow	30	SSW	7	27	30.00	23	86	1.0
Tue Feb  2 19:00:18 2010	Milwaukee, Wisconsin 	 Light Snow	32	SSW	6	27	30.01	26	82	2.5
Tue Feb  2 19:49:23 2010	Milwaukee, Wisconsin 	 Light Snow	32	South	5	27	29.97	28	80	3.0
Tue Feb  2 20:40:59 2010	Milwaukee, Wisconsin 	 Light Snow	32	SW	4	27	29.96	29	80	5.0
Tue Feb  2 21:27:33 2010	Milwaukee, Wisconsin 	 Haze	33	Calm		27	29.98	34	78	5.0
Tue Feb  2 22:15:15 2010	Milwaukee, Wisconsin 	 Light Snow	32	West	4	26	29.99	29	79	4.0
Tue Feb  2 23:00:30 2010	Milwaukee, Wisconsin 	 Light Snow	32	West	5	27	29.99	28	82	4.0
Tue Feb  2 23:45:29 2010	Milwaukee, Wisconsin 	 Light Snow	32	West	5	27	29.99	28	82	4.0
Wed Feb  3 00:30:23 2010	Milwaukee, Wisconsin 	 Light Snow	32	West	4	27	30.00	29	82	4.0
Wed Feb  3 01:17:25 2010	Milwaukee, Wisconsin 	 Light Snow	32	West	5	27	30.01	28	82	4.0
Wed Feb  3 02:02:11 2010	Milwaukee, Wisconsin 	 Light Snow	32	West	4	27	30.03	29	82	3.0
Wed Feb  3 02:50:56 2010	Milwaukee, Wisconsin 	 Light Snow	32	West	4	27	30.03	29	82	3.0
Wed Feb  3 03:37:53 2010	Milwaukee, Wisconsin 	 Light Snow	31	WNW	6	27	30.04	25	85	3.0
Wed Feb  3 04:25:59 2010	Milwaukee, Wisconsin 	 Light Snow	31	West	5	27	30.05	26	85	3.0
Wed Feb  3 05:12:30 2010	Milwaukee, Wisconsin 	 Light Snow	31	West	5	27	30.06	26	85	3.0
Wed Feb  3 06:00:33 2010	Milwaukee, Wisconsin 	 Mostly Cloudy	29	Calm		25	30.06	28	85	3.0
Wed Feb  3 06:47:21 2010	Milwaukee, Wisconsin 	 Mostly Cloudy	30	West	5	27	30.05	25	86	3.0
Wed Feb  3 07:31:57 2010	Milwaukee, Wisconsin 	 Mostly Cloudy	30	West	5	27	30.05	25	86	3.0
Wed Feb  3 08:15:02 2010	Milwaukee, Wisconsin 	 Overcast	30	NW	7	26	30.09	23	85	5.0
Wed Feb  3 09:01:29 2010	Milwaukee, Wisconsin 	 Haze	29	NW	8	24	30.12	21	82	4.0
Wed Feb  3 09:44:52 2010	Milwaukee, Wisconsin 	 Haze	29	NW	8	24	30.12	21	82	4.0
Wed Feb  3 10:28:52 2010	Milwaukee, Wisconsin 	 Haze	29	WNW	8	23	30.14	21	78	5.0
Wed Feb  3 11:15:37 2010	Milwaukee, Wisconsin 	 Haze	28	NW	8	23	30.15	20	81	5.0
Wed Feb  3 12:00:27 2010	Milwaukee, Wisconsin 	 Overcast	27	WNW	10	20	30.18	17	75	7.0
Wed Feb  3 12:43:35 2010	Milwaukee, Wisconsin 	 Haze	27	NNW	9	19	30.16	18	74	6.0
Wed Feb  3 13:27:16 2010	Milwaukee, Wisconsin 	 Overcast	26	WNW	8	20	30.20	18	78	8.0
Wed Feb  3 14:12:55 2010	Milwaukee, Wisconsin 	 Overcast	25	NW	8	19	30.22	16	78	8.0
Wed Feb  3 14:58:46 2010	Milwaukee, Wisconsin 	 Overcast	25	NW	9	19	30.25	16	78	7.0
Wed Feb  3 15:43:53 2010	Milwaukee, Wisconsin 	 Overcast	25	NW	9	19	30.25	16	78	7.0
Wed Feb  3 16:29:31 2010	Milwaukee, Wisconsin 	 Haze	26	WNW	10	20	30.27	16	78	5.0
Wed Feb  3 17:16:59 2010	Milwaukee, Wisconsin 	 Haze	27	NW	10	20	30.31	17	75	5.0
Wed Feb  3 18:05:34 2010	Milwaukee, Wisconsin 	 Haze	29	NNW	9	18	30.32	20	64	6.0
Wed Feb  3 18:48:36 2010	Milwaukee, Wisconsin 	 Haze	29	NNW	9	18	30.32	20	64	6.0
Wed Feb  3 19:32:29 2010	Milwaukee, Wisconsin 	 Mostly Cloudy	28	NW	7	18	30.35	21	66	7.0
Wed Feb  3 20:16:14 2010	Milwaukee, Wisconsin 	 Mostly Cloudy	28	NNW	5	18	30.32	23	66	8.0
Wed Feb  3 21:01:00 2010	Milwaukee, Wisconsin 	 Scattered Clouds	32	North	5	18	30.29	28	56	10.0
Wed Feb  3 21:48:47 2010	Milwaukee, Wisconsin 	 Scattered Clouds	32	North	5	18	30.29	28	56	10.0
Wed Feb  3 22:34:18 2010	Milwaukee, Wisconsin 	 Scattered Clouds	29	ENE	5	18	30.31	24	64	10.0
Wed Feb  3 23:25:08 2010	Milwaukee, Wisconsin 	 Partly Cloudy	28	ENE	6	18	30.33	22	66	10.0
Fri Jan 29 08:39:08 2010	Nashville, Tennessee 	 Mostly Cloudy	28	North	8	15	30.38	20	58	10.0
Fri Jan 29 09:23:03 2010	Nashville, Tennessee 	 Mostly Cloudy	29	NNE	10	15	30.38	20	56	10.0
Fri Jan 29 11:55:05 2010	Nashville, Tennessee 	 Overcast	28	North	8	15	30.35	20	58	10.0
Fri Jan 29 12:39:37 2010	Nashville, Tennessee 	 Overcast	28	North	12	15	30.35	18	58	10.0
Fri Jan 29 13:26:08 2010	Nashville, Tennessee 	 Overcast	28	NNE	10	15	30.32	19	58	10.0
Fri Jan 29 14:14:54 2010	Nashville, Tennessee 	 Overcast	28	NNE	10	15	30.32	19	58	10.0
Fri Jan 29 14:59:36 2010	Nashville, Tennessee 	 Overcast	28	NNE	10	15	30.32	19	58	10.0
Fri Jan 29 15:45:34 2010	Nashville, Tennessee 	 Light Snow	28	NE	10	14	30.35	19	56	9.0
Fri Jan 29 16:32:55 2010	Nashville, Tennessee 	 Light Ice Pellets	26	NNE	10	17	30.36	16	69	4.0
Fri Jan 29 17:17:27 2010	Nashville, Tennessee 	 Light Snow	25	NNE	9	21	30.38	16	85	1.0
Fri Jan 29 18:05:45 2010	Nashville, Tennessee 	 Light Snow	25	NE	9	21	30.37	16	85	1.5
Fri Jan 29 18:50:23 2010	Nashville, Tennessee 	 Light Snow	25	NNE	10	21	30.35	15	86	1.5
Fri Jan 29 19:42:52 2010	Nashville, Tennessee 	 Light Snow	25	NNE	9	21	30.32	15	86	0.8
Fri Jan 29 20:40:58 2010	Nashville, Tennessee 	 Light Snow	25	ENE	10	21	30.26	15	86	0.8
Fri Jan 29 21:24:53 2010	Nashville, Tennessee 	 Snow	25	NE	12	22	30.25	14	88	0.2
Fri Jan 29 22:10:57 2010	Nashville, Tennessee 	 Light Snow	26	NE	12	22	30.21	16	84	1.0
Fri Jan 29 22:57:17 2010	Nashville, Tennessee 	 Light Snow	26	ENE	12	23	30.18	16	88	1.0
Fri Jan 29 23:41:19 2010	Nashville, Tennessee 	 Light Snow	27	NE	15	23	30.14	15	86	0.8
Mon Feb  1 00:08:18 2010	Nashville, Tennessee 	 Partly Cloudy	35	Calm		17	30.32	36	48	10.0
Mon Feb  1 00:51:31 2010	Nashville, Tennessee 	 Partly Cloudy	35	Calm		17	30.32	36	48	10.0
Mon Feb  1 01:36:16 2010	Nashville, Tennessee 	 Partly Cloudy	32	SSE	4	22	30.32	29	66	10.0
Mon Feb  1 02:21:08 2010	Nashville, Tennessee 	 Clear	29	South	4	23	30.34	25	78	10.0
Mon Feb  1 03:05:18 2010	Nashville, Tennessee 	 Partly Cloudy	28	Calm		23	30.35	28	81	9.0
Mon Feb  1 03:48:49 2010	Nashville, Tennessee 	 Partly Cloudy	28	Calm		23	30.35	28	81	9.0
Mon Feb  1 04:34:29 2010	Nashville, Tennessee 	 Scattered Clouds	27	Calm		22	30.35	27	81	9.0
Mon Feb  1 05:18:05 2010	Nashville, Tennessee 	 Partly Cloudy	26	Calm		23	30.35	27	88	7.0
Mon Feb  1 06:02:59 2010	Nashville, Tennessee 	 Partly Cloudy	24	Calm		22	30.35	25	91	5.0
Mon Feb  1 06:45:52 2010	Nashville, Tennessee 	 Partly Cloudy	24	Calm		22	30.35	25	91	5.0
Mon Feb  1 07:29:55 2010	Nashville, Tennessee 	 Partly Cloudy	23	Calm		21	30.34	23	92	3.0
Mon Feb  1 08:13:06 2010	Nashville, Tennessee 	 Mostly Cloudy	23	Calm		21	30.32	23	93	1.5
Mon Feb  1 08:56:49 2010	Nashville, Tennessee 	 Light Freezing Fog	22	Calm		22	30.33	21	100	0.5
Mon Feb  1 09:39:50 2010	Nashville, Tennessee 	 Light Freezing Fog	22	Calm		22	30.33	21	100	0.5
Mon Feb  1 10:23:11 2010	Nashville, Tennessee 	 Light Freezing Fog	20	Calm		19	30.33	19	96	0.2
Mon Feb  1 11:06:19 2010	Nashville, Tennessee 	 Partly Cloudy	21	Calm		19	30.32	21	92	1.8
Mon Feb  1 11:49:36 2010	Nashville, Tennessee 	 Light Freezing Fog	19	Calm		19	30.30	19	100	0.2
Mon Feb  1 12:33:09 2010	Nashville, Tennessee 	 Light Freezing Fog	20	NE	4	18	30.31	15	92	0.0
Mon Feb  1 13:16:35 2010	Nashville, Tennessee 	 Light Freezing Fog	19	Calm		18	30.30	19	93	0.2
Mon Feb  1 14:00:25 2010	Nashville, Tennessee 	 Scattered Clouds	19	Calm		16	30.31	19	88	0.8
Mon Feb  1 14:44:56 2010	Nashville, Tennessee 	 Scattered Clouds	19	Calm		16	30.29	19	86	3.0
Mon Feb  1 15:29:14 2010	Nashville, Tennessee 	 Mostly Cloudy	20	Calm		18	30.34	19	92	4.0
Mon Feb  1 16:13:25 2010	Nashville, Tennessee 	 Mostly Cloudy	24	Calm		23	30.34	25	96	4.0
Mon Feb  1 16:58:34 2010	Nashville, Tennessee 	 Mostly Cloudy	28	Calm		25	30.32	28	88	5.0
Mon Feb  1 17:42:36 2010	Nashville, Tennessee 	 Mostly Cloudy	28	Calm		25	30.32	28	88	5.0
Mon Feb  1 18:25:46 2010	Nashville, Tennessee 	 Mostly Cloudy	33	South	4	25	30.32	30	72	10.0
Mon Feb  1 19:09:30 2010	Nashville, Tennessee 	 Mostly Cloudy	38	South	4	25	30.29	36	60	10.0
Mon Feb  1 19:54:38 2010	Nashville, Tennessee 	 Mostly Cloudy	38	South	4	25	30.29	36	60	10.0
Mon Feb  1 20:41:07 2010	Nashville, Tennessee 	 Mostly Cloudy	41	Calm		24	30.24	41	51	10.0
Mon Feb  1 21:25:53 2010	Nashville, Tennessee 	 Mostly Cloudy	42	East	6	27	30.21	38	55	10.0
Mon Feb  1 22:09:25 2010	Nashville, Tennessee 	 Overcast	40	ESE	5	28	30.21	37	63	10.0
Mon Feb  1 22:52:39 2010	Nashville, Tennessee 	 Overcast	40	ESE	5	28	30.21	37	63	10.0
Mon Feb  1 23:38:46 2010	Nashville, Tennessee 	 Overcast	39	SE	5	28	30.21	36	65	10.0
Sat Jan 30 00:25:24 2010	Nashville, Tennessee 	 Light Snow	27	NE	12	23	30.10	16	86	1.0
Sat Jan 30 01:09:30 2010	Nashville, Tennessee 	 Light Snow	26	NE	13	23	30.11	15	88	1.0
Sat Jan 30 01:53:14 2010	Nashville, Tennessee 	 Light Snow	26	NE	13	23	30.11	15	88	1.0
Sat Jan 30 02:37:53 2010	Nashville, Tennessee 	 Snow	27	NNE	10	25	30.07	17	93	1.0
Sat Jan 30 03:21:30 2010	Nashville, Tennessee 	 Light Snow	27	NE	12	25	30.04	16	93	1.0
Sat Jan 30 04:05:24 2010	Nashville, Tennessee 	 Light Snow	26	NE	10	24	30.05	16	92	1.0
Sat Jan 30 04:49:06 2010	Nashville, Tennessee 	 Light Snow	26	NE	10	24	30.05	16	92	1.0
Sat Jan 30 05:32:56 2010	Nashville, Tennessee 	 Light Snow	26	NE	10	24	29.99	16	92	1.0
Sat Jan 30 06:16:36 2010	Nashville, Tennessee 	 Light Ice Pellets	27	NNE	12	25	29.97	16	93	1.0
Sat Jan 30 07:02:16 2010	Nashville, Tennessee 	 Light Ice Pellets	26	NNE	13	24	29.98	15	92	2.5
Sat Jan 30 07:45:48 2010	Nashville, Tennessee 	 Light Snow	27	NE	9	23	29.95	18	86	2.5
Sat Jan 30 08:28:50 2010	Nashville, Tennessee 	 Light Snow	26	NE	9	24	29.96	17	92	2.5
Sat Jan 30 11:58:26 2010	Nashville, Tennessee 	 Light Snow	24	NNE	16	21	29.91	11	88	2.5
Sat Jan 30 12:42:16 2010	Nashville, Tennessee 	 Light Snow	23	North	13	19	29.91	11	86	2.5
Sat Jan 30 13:25:27 2010	Nashville, Tennessee 	 Light Snow	23	NNE	13	19	29.94	11	85	2.5
Sat Jan 30 14:09:10 2010	Nashville, Tennessee 	 Light Snow	22	North	8	19	29.94	12	89	2.5
Sat Jan 30 14:53:24 2010	Nashville, Tennessee 	 Overcast	21	North	12	18	29.95	10	86	9.0
Sat Jan 30 15:38:01 2010	Nashville, Tennessee 	 Overcast	22	North	10	18	29.97	11	85	10.0
Sat Jan 30 16:24:18 2010	Nashville, Tennessee 	 Overcast	23	NNE	10	18	29.99	12	81	8.0
Sat Jan 30 17:08:37 2010	Nashville, Tennessee 	 Light Snow	23	North	9	19	29.98	13	86	5.0
Sat Jan 30 17:52:07 2010	Nashville, Tennessee 	 Light Snow	23	North	14	18	29.98	11	80	9.0
Sat Jan 30 18:35:57 2010	Nashville, Tennessee 	 Overcast	25	North	12	18	29.98	14	74	9.0
Sat Jan 30 19:19:13 2010	Nashville, Tennessee 	 Overcast	24	North	12	18	29.99	13	77	10.0
Sat Jan 30 20:03:19 2010	Nashville, Tennessee 	 Overcast	25	North	12	18	29.99	14	75	10.0
Sat Jan 30 20:46:28 2010	Nashville, Tennessee 	 Overcast	25	North	12	18	29.99	14	75	10.0
Sat Jan 30 21:30:30 2010	Nashville, Tennessee 	 Overcast	25	North	14	18	30.03	13	75	10.0
Sat Jan 30 22:13:31 2010	Nashville, Tennessee 	 Overcast	25	North	15	18	30.04	13	75	10.0
Sat Jan 30 22:58:19 2010	Nashville, Tennessee 	 Overcast	25	North	15	18	30.07	13	75	10.0
Sat Jan 30 23:44:02 2010	Nashville, Tennessee 	 Overcast	25	North	15	18	30.07	13	75	10.0
Sun Jan 31 00:28:02 2010	Nashville, Tennessee 	 Overcast	25	North	9	18	30.11	16	75	10.0
Sun Jan 31 01:18:40 2010	Nashville, Tennessee 	 Overcast	25	North	13	18	30.14	14	75	10.0
Sun Jan 31 02:02:33 2010	Nashville, Tennessee 	 Overcast	26	North	8	18	30.16	18	71	10.0
Sun Jan 31 02:46:10 2010	Nashville, Tennessee 	 Overcast	26	North	8	18	30.16	18	71	10.0
Sun Jan 31 03:30:13 2010	Nashville, Tennessee 	 Overcast	27	NW	6	18	30.16	20	69	10.0
Sun Jan 31 04:12:55 2010	Nashville, Tennessee 	 Scattered Clouds	25	NNW	6	17	30.18	18	72	10.0
Sun Jan 31 04:58:02 2010	Nashville, Tennessee 	 Clear	23	NNW	6	16	30.19	16	74	10.0
Sun Jan 31 05:44:15 2010	Nashville, Tennessee 	 Clear	23	NNW	6	16	30.19	16	74	10.0
Sun Jan 31 06:29:19 2010	Nashville, Tennessee 	 Clear	22	NNW	5	16	30.20	16	78	10.0
Sun Jan 31 07:12:23 2010	Nashville, Tennessee 	 Clear	19	Calm		15	30.21	19	85	10.0
Sun Jan 31 07:58:58 2010	Nashville, Tennessee 	 Clear	16	Calm		14	30.24	16	92	8.0
Sun Jan 31 08:43:48 2010	Nashville, Tennessee 	 Clear	16	Calm		14	30.24	16	92	8.0
Sun Jan 31 09:26:56 2010	Nashville, Tennessee 	 Clear	19	WNW	6	15	30.25	11	85	9.0
Sun Jan 31 10:10:07 2010	Nashville, Tennessee 	 Clear	17	West	5	13	30.26	10	84	8.0
Sun Jan 31 10:53:53 2010	Nashville, Tennessee 	 Clear	17	West	5	13	30.26	10	84	8.0
Sun Jan 31 11:37:21 2010	Nashville, Tennessee 	 Clear	15	Calm		12	30.27	16	88	7.0
Sun Jan 31 12:20:59 2010	Nashville, Tennessee 	 Clear	14	Calm		12	30.29	14	92	6.0
Sun Jan 31 13:04:02 2010	Nashville, Tennessee 	 Clear	15	Calm		12	30.31	16	88	6.0
Sun Jan 31 13:48:04 2010	Nashville, Tennessee 	 Clear	15	Calm		12	30.31	16	88	6.0
Sun Jan 31 14:30:52 2010	Nashville, Tennessee 	 Clear	12	South	4	9	30.32	6	88	5.0
Sun Jan 31 15:14:51 2010	Nashville, Tennessee 	 Clear	14	Calm		13	30.35	14	95	10.0
Sun Jan 31 15:58:14 2010	Nashville, Tennessee 	 Clear	18	Calm		17	30.36	18	96	9.0
Sun Jan 31 16:48:01 2010	Nashville, Tennessee 	 Clear	18	Calm		17	30.36	18	96	9.0
Sun Jan 31 17:31:57 2010	Nashville, Tennessee 	 Clear	24	Calm		18	30.36	25	77	9.0
Sun Jan 31 18:16:15 2010	Nashville, Tennessee 	 Clear	28	Calm		19	30.37	28	69	10.0
Sun Jan 31 19:00:22 2010	Nashville, Tennessee 	 Clear	32	Calm		15	30.34	32	50	10.0
Sun Jan 31 19:45:56 2010	Nashville, Tennessee 	 Clear	32	Calm		15	30.34	32	50	10.0
Sun Jan 31 20:28:56 2010	Nashville, Tennessee 	 Clear	33	Calm		18	30.33	34	54	10.0
Sun Jan 31 21:13:03 2010	Nashville, Tennessee 	 Clear	36	Calm		18	30.31	36	48	10.0
Sun Jan 31 21:56:25 2010	Nashville, Tennessee 	 Clear	36	Calm		18	30.31	36	48	10.0
Sun Jan 31 22:41:15 2010	Nashville, Tennessee 	 Clear	38	Calm		17	30.31	37	43	10.0
Sun Jan 31 23:24:17 2010	Nashville, Tennessee 	 Partly Cloudy	35	Calm		17	30.32	36	48	10.0
Thu Feb  4 00:09:49 2010	Nashville, Tennessee 	 Scattered Clouds	42	NE	8	27	30.24	37	55	10.0
Thu Feb  4 00:54:07 2010	Nashville, Tennessee 	 Scattered Clouds	42	NE	8	27	30.24	37	55	10.0
Thu Feb  4 01:37:07 2010	Nashville, Tennessee 	 Scattered Clouds	38	NNE	7	27	30.28	33	65	10.0
Thu Feb  4 02:24:16 2010	Nashville, Tennessee 	 Partly Cloudy	37	NNE	6	27	30.32	32	67	10.0
Thu Feb  4 03:08:12 2010	Nashville, Tennessee 	 Clear	37	North	6	27	30.33	32	67	10.0
Thu Feb  4 03:52:42 2010	Nashville, Tennessee 	 Clear	37	North	6	27	30.33	32	67	10.0
Thu Feb  4 04:35:52 2010	Nashville, Tennessee 	 Clear	34	NNE	7	27	30.32	28	75	9.0
Thu Feb  4 05:19:03 2010	Nashville, Tennessee 	 Scattered Clouds	33	NNE	6	26	30.30	28	75	8.0
Thu Feb  4 06:02:11 2010	Nashville, Tennessee 	 Mostly Cloudy	34	NE	7	26	30.28	28	73	8.0
Thu Feb  4 06:45:14 2010	Nashville, Tennessee 	 Mostly Cloudy	34	NE	7	26	30.28	28	73	8.0
Thu Feb  4 07:28:47 2010	Nashville, Tennessee 	 Overcast	33	NE	6	26	30.27	28	75	8.0
Thu Feb  4 08:11:28 2010	Nashville, Tennessee 	 Overcast	33	NE	4	26	30.29	30	75	8.0
Thu Feb  4 08:55:12 2010	Nashville, Tennessee 	 Overcast	33	NE	4	26	30.29	30	75	8.0
Thu Feb  4 09:38:56 2010	Nashville, Tennessee 	 Clear	34	NE	7	27	30.26	28	75	8.0
Thu Feb  4 10:22:20 2010	Nashville, Tennessee 	 Overcast	33	NE	5	27	30.27	29	78	8.0
Thu Feb  4 11:08:37 2010	Nashville, Tennessee 	 Overcast	33	NE	6	27	30.25	28	78	9.0
Thu Feb  4 11:52:10 2010	Nashville, Tennessee 	 Overcast	33	NE	6	27	30.25	28	78	9.0
Thu Feb  4 12:35:15 2010	Nashville, Tennessee 	 Overcast	34	NE	6	27	30.26	29	75	10.0
Thu Feb  4 13:18:44 2010	Nashville, Tennessee 	 Overcast	34	ENE	7	27	30.25	28	75	10.0
Thu Feb  4 14:03:05 2010	Nashville, Tennessee 	 Overcast	34	ENE	7	27	30.25	28	75	10.0
Thu Feb  4 14:55:47 2010	Nashville, Tennessee 	 Overcast	34	ENE	8	27	30.25	27	75	7.0
Thu Jan 28 15:35:59 2010	Nashville, Tennessee 	 Mostly Cloudy	43	NNW	12	31	30.33	37	62	10.0
Thu Jan 28 15:57:09 2010	Nashville, Tennessee 	 Mostly Cloudy	39	North	14	32	30.36	31	75	10.0
Thu Jan 28 16:45:27 2010	Nashville, Tennessee 	 Mostly Cloudy	39	NNW	17	31	30.38	30	73	10.0
Thu Jan 28 17:10:20 2010	Nashville, Tennessee 	 Overcast	38	NNW	12	30	30.41	30	73	10.0
Thu Jan 28 17:26:30 2010	Nashville, Tennessee 	 Overcast	38	NNW	12	30	30.41	30	73	10.0
Tue Feb  2 00:25:42 2010	Nashville, Tennessee 	 Overcast	39	SE	5	28	30.21	36	65	10.0
Tue Feb  2 01:11:13 2010	Nashville, Tennessee 	 Overcast	38	Calm		29	30.19	37	70	10.0
Tue Feb  2 01:54:37 2010	Nashville, Tennessee 	 Overcast	38	Calm		29	30.19	37	70	10.0
Tue Feb  2 02:38:38 2010	Nashville, Tennessee 	 Overcast	37	Calm		30	30.18	37	76	10.0
Tue Feb  2 03:21:50 2010	Nashville, Tennessee 	 Overcast	35	Calm		30	30.17	36	82	10.0
Tue Feb  2 04:05:53 2010	Nashville, Tennessee 	 Overcast	36	Calm		30	30.16	36	79	10.0
Tue Feb  2 04:49:28 2010	Nashville, Tennessee 	 Overcast	36	Calm		30	30.16	36	79	10.0
Tue Feb  2 05:32:50 2010	Nashville, Tennessee 	 Overcast	35	Calm		30	30.16	36	82	9.0
Tue Feb  2 06:15:47 2010	Nashville, Tennessee 	 Light Rain	35	Calm		31	30.16	36	85	6.0
Tue Feb  2 07:03:17 2010	Nashville, Tennessee 	 Light Rain	34	Calm		33	30.14	34	96	4.0
Tue Feb  2 07:46:22 2010	Nashville, Tennessee 	 Light Rain	34	Calm		33	30.14	34	96	4.0
Tue Feb  2 08:29:27 2010	Nashville, Tennessee 	 Light Rain	34	Calm		34	30.12	34	100	2.5
Tue Feb  2 09:12:56 2010	Nashville, Tennessee 	 Light Rain	35	Calm		34	30.12	36	96	2.5
Tue Feb  2 09:56:27 2010	Nashville, Tennessee 	 Light Rain	36	SSE	4	34	30.11	33	93	3.0
Tue Feb  2 10:40:05 2010	Nashville, Tennessee 	 Light Drizzle	36	Calm		34	30.11	36	93	1.8
Tue Feb  2 11:24:10 2010	Nashville, Tennessee 	 Light Drizzle	35	Calm		34	30.10	36	96	1.2
Tue Feb  2 12:07:44 2010	Nashville, Tennessee 	 Overcast	35	SSE	4	34	30.09	32	96	1.0
Tue Feb  2 12:52:02 2010	Nashville, Tennessee 	 Overcast	36	Calm		34	30.08	36	93	1.5
Tue Feb  2 13:35:23 2010	Nashville, Tennessee 	 Overcast	34	South	4	34	30.09	31	100	1.2
Tue Feb  2 14:18:51 2010	Nashville, Tennessee 	 Light Drizzle	36	Calm		35	30.11	36	97	0.8
Tue Feb  2 15:03:20 2010	Nashville, Tennessee 	 Light Drizzle	36	Calm		35	30.11	36	97	0.8
Tue Feb  2 15:49:42 2010	Nashville, Tennessee 	 Light Drizzle	36	NW	5	36	30.11	32	100	0.5
Tue Feb  2 16:42:19 2010	Nashville, Tennessee 	 Light Drizzle	37	Calm		37	30.11	37	100	0.2
Tue Feb  2 17:29:58 2010	Nashville, Tennessee 	 Fog	37	Calm		37	30.13	37	100	0.2
Tue Feb  2 18:15:21 2010	Nashville, Tennessee 	 Fog	38	Calm		37	30.11	37	97	0.5
Tue Feb  2 18:59:23 2010	Nashville, Tennessee 	 Overcast	40	WNW	7	37	30.09	35	89	1.0
Tue Feb  2 19:48:23 2010	Nashville, Tennessee 	 Mostly Cloudy	43	WNW	7	37	30.06	39	81	7.0
Tue Feb  2 20:40:04 2010	Nashville, Tennessee 	 Mostly Cloudy	44	Variable	5	36	30.06	42	73	7.0
Tue Feb  2 21:26:36 2010	Nashville, Tennessee 	 Mostly Cloudy	45	West	5	35	30.06	43	68	8.0
Tue Feb  2 22:14:20 2010	Nashville, Tennessee 	 Mostly Cloudy	46	WNW	7	32	30.07	42	58	10.0
Tue Feb  2 22:59:34 2010	Nashville, Tennessee 	 Overcast	45	WNW	6	31	30.08	42	58	10.0
Tue Feb  2 23:44:34 2010	Nashville, Tennessee 	 Overcast	45	WNW	6	31	30.08	42	58	10.0
Wed Feb  3 00:29:27 2010	Nashville, Tennessee 	 Overcast	44	WNW	5	31	30.09	42	60	10.0
Wed Feb  3 01:16:28 2010	Nashville, Tennessee 	 Overcast	43	WNW	5	31	30.11	40	62	10.0
Wed Feb  3 02:01:17 2010	Nashville, Tennessee 	 Overcast	42	WNW	8	30	30.13	37	62	10.0
Wed Feb  3 02:50:01 2010	Nashville, Tennessee 	 Overcast	42	WNW	8	30	30.13	37	62	10.0
Wed Feb  3 03:36:58 2010	Nashville, Tennessee 	 Overcast	41	WNW	5	30	30.15	38	65	10.0
Wed Feb  3 04:25:02 2010	Nashville, Tennessee 	 Overcast	40	WNW	8	30	30.18	34	68	10.0
Wed Feb  3 05:11:36 2010	Nashville, Tennessee 	 Overcast	39	NW	7	29	30.21	34	67	10.0
Wed Feb  3 05:59:38 2010	Nashville, Tennessee 	 Overcast	38	NNW	7	29	30.21	33	70	10.0
Wed Feb  3 06:46:26 2010	Nashville, Tennessee 	 Overcast	38	NNW	7	29	30.21	33	70	10.0
Wed Feb  3 07:31:02 2010	Nashville, Tennessee 	 Overcast	37	NW	8	28	30.21	31	70	10.0
Wed Feb  3 08:14:08 2010	Nashville, Tennessee 	 Overcast	37	North	8	29	30.22	31	73	10.0
Wed Feb  3 09:00:31 2010	Nashville, Tennessee 	 Overcast	36	NW	9	25	30.25	29	64	10.0
Wed Feb  3 09:43:59 2010	Nashville, Tennessee 	 Overcast	36	North	8	25	30.24	29	65	10.0
Wed Feb  3 10:27:58 2010	Nashville, Tennessee 	 Overcast	36	North	7	25	30.25	30	64	10.0
Wed Feb  3 11:14:41 2010	Nashville, Tennessee 	 Overcast	35	NE	4	26	30.25	32	70	10.0
Wed Feb  3 11:59:27 2010	Nashville, Tennessee 	 Overcast	34	Calm		27	30.24	34	75	10.0
Wed Feb  3 12:42:40 2010	Nashville, Tennessee 	 Overcast	34	Calm		27	30.24	34	75	10.0
Wed Feb  3 13:26:23 2010	Nashville, Tennessee 	 Overcast	34	Calm		27	30.24	34	75	7.0
Wed Feb  3 14:11:54 2010	Nashville, Tennessee 	 Overcast	35	Calm		26	30.28	36	70	7.0
Wed Feb  3 14:57:52 2010	Nashville, Tennessee 	 Overcast	35	Calm		26	30.28	36	70	7.0
Wed Feb  3 15:42:59 2010	Nashville, Tennessee 	 Overcast	37	Calm		26	30.30	37	65	10.0
Wed Feb  3 16:28:39 2010	Nashville, Tennessee 	 Overcast	38	North	5	26	30.30	34	62	10.0
Wed Feb  3 17:16:03 2010	Nashville, Tennessee 	 Mostly Cloudy	39	North	6	26	30.33	35	60	10.0
Wed Feb  3 18:04:38 2010	Nashville, Tennessee 	 Scattered Clouds	41	NNW	5	27	30.33	38	57	10.0
Wed Feb  3 18:47:44 2010	Nashville, Tennessee 	 Scattered Clouds	41	NNW	5	27	30.33	38	57	10.0
Wed Feb  3 19:31:32 2010	Nashville, Tennessee 	 Scattered Clouds	43	West	7	27	30.30	39	53	10.0
Wed Feb  3 20:15:16 2010	Nashville, Tennessee 	 Partly Cloudy	44	NE	5	27	30.27	42	51	10.0
Wed Feb  3 21:00:00 2010	Nashville, Tennessee 	 Partly Cloudy	44	Calm		26	30.25	45	49	10.0
Wed Feb  3 21:47:52 2010	Nashville, Tennessee 	 Partly Cloudy	44	Calm		26	30.25	45	49	10.0
Wed Feb  3 22:33:23 2010	Nashville, Tennessee 	 Partly Cloudy	46	NNE	9	27	30.24	41	47	10.0
Wed Feb  3 23:24:11 2010	Nashville, Tennessee 	 Scattered Clouds	45	NNE	7	27	30.24	41	49	10.0
Fri Jan 29 08:38:34 2010	New York, New York 	 Clear	19	West	18	-1	30.17	4	42	10.0
Fri Jan 29 09:22:33 2010	New York, New York 	 Clear	18	West	14	-1	30.19	4	44	10.0
Fri Jan 29 11:54:31 2010	New York, New York 	 Clear	17	West	10	-1	30.25	5	45	10.0
Fri Jan 29 12:39:07 2010	New York, New York 	 Clear	17	West	10	-1	30.25	5	45	10.0
Fri Jan 29 13:25:38 2010	New York, New York 	 Clear	16	WNW	16	-2	30.25	1	45	10.0
Fri Jan 29 14:14:25 2010	New York, New York 	 Clear	16	WNW	15	-2	30.28	1	45	10.0
Fri Jan 29 14:59:02 2010	New York, New York 	 Clear	16	WNW	17	-2	30.29	0	45	10.0
Fri Jan 29 15:45:02 2010	New York, New York 	 Clear	16	WNW	17	-2	30.29	0	45	10.0
Fri Jan 29 16:32:13 2010	New York, New York 	 Clear	18	WNW	13	-4	30.30	5	38	10.0
Fri Jan 29 17:16:56 2010	New York, New York 	 Clear	19	WNW	15	-4	30.28	5	36	10.0
Fri Jan 29 18:05:14 2010	New York, New York 	 Clear	20	WNW	12	-3	30.25	8	37	10.0
Fri Jan 29 18:49:57 2010	New York, New York 	 Clear	20	WNW	12	-3	30.25	8	37	10.0
Fri Jan 29 19:42:23 2010	New York, New York 	 Partly Cloudy	21	West	10	-2	30.23	10	36	10.0
Fri Jan 29 20:40:25 2010	New York, New York 	 Partly Cloudy	22	WNW	14	-2	30.21	9	35	10.0
Fri Jan 29 21:24:23 2010	New York, New York 	 Clear	23	West	14	-2	30.21	11	34	10.0
Fri Jan 29 22:10:27 2010	New York, New York 	 Clear	23	WNW	12	-1	30.22	12	35	10.0
Fri Jan 29 22:56:49 2010	New York, New York 	 Clear	22	West	8	-2	30.24	12	35	10.0
Fri Jan 29 23:40:49 2010	New York, New York 	 Clear	22	West	8	-2	30.24	12	35	10.0
Mon Feb  1 00:07:47 2010	New York, New York 	 Clear	28	SW	8	3	30.08	20	34	10.0
Mon Feb  1 00:50:58 2010	New York, New York 	 Clear	28	SW	8	3	30.08	20	34	10.0
Mon Feb  1 01:35:46 2010	New York, New York 	 Clear	28	Variable	5	2	30.08	23	33	10.0
Mon Feb  1 02:20:38 2010	New York, New York 	 Clear	28	Variable	7	1	30.09	21	31	10.0
Mon Feb  1 03:04:48 2010	New York, New York 	 Clear	28	Variable	4	3	30.10	24	34	10.0
Mon Feb  1 03:48:19 2010	New York, New York 	 Clear	28	Variable	4	3	30.10	24	34	10.0
Mon Feb  1 04:33:59 2010	New York, New York 	 Partly Cloudy	27	Variable	4	3	30.09	23	36	10.0
Mon Feb  1 05:17:35 2010	New York, New York 	 Clear	27	SW	8	3	30.11	19	36	10.0
Mon Feb  1 06:02:29 2010	New York, New York 	 Partly Cloudy	26	WSW	8	4	30.10	18	39	10.0
Mon Feb  1 06:45:21 2010	New York, New York 	 Partly Cloudy	26	WSW	8	4	30.10	18	39	10.0
Mon Feb  1 07:29:25 2010	New York, New York 	 Clear	26	Variable	6	6	30.11	19	43	10.0
Mon Feb  1 08:12:30 2010	New York, New York 	 Clear	26	Variable	7	5	30.12	18	41	10.0
Mon Feb  1 08:56:19 2010	New York, New York 	 Clear	25	Variable	7	6	30.15	17	45	10.0
Mon Feb  1 09:39:20 2010	New York, New York 	 Clear	25	Variable	7	6	30.15	17	45	10.0
Mon Feb  1 10:22:41 2010	New York, New York 	 Clear	25	West	8	6	30.16	16	45	10.0
Mon Feb  1 11:05:49 2010	New York, New York 	 Clear	26	West	16	6	30.18	14	43	10.0
Mon Feb  1 11:49:06 2010	New York, New York 	 Clear	26	West	16	6	30.18	14	43	10.0
Mon Feb  1 12:32:39 2010	New York, New York 	 Clear	26	West	9	8	30.19	17	47	10.0
Mon Feb  1 13:16:02 2010	New York, New York 	 Clear	25	WSW	6	9	30.22	18	51	10.0
Mon Feb  1 13:59:56 2010	New York, New York 	 Clear	26	WSW	9	10	30.26	17	51	10.0
Mon Feb  1 14:44:25 2010	New York, New York 	 Clear	26	WSW	9	10	30.26	17	51	10.0
Mon Feb  1 15:28:44 2010	New York, New York 	 Clear	27	Variable	7	10	30.27	20	49	10.0
Mon Feb  1 16:12:53 2010	New York, New York 	 Clear	28	West	14	10	30.28	17	47	10.0
Mon Feb  1 16:58:06 2010	New York, New York 	 Clear	29	West	12	9	30.26	19	43	10.0
Mon Feb  1 17:42:07 2010	New York, New York 	 Clear	29	West	12	9	30.26	19	43	10.0
Mon Feb  1 18:25:18 2010	New York, New York 	 Clear	32	WNW	9	10	30.24	24	40	10.0
Mon Feb  1 19:09:00 2010	New York, New York 	 Clear	33	West	12	9	30.22	24	37	10.0
Mon Feb  1 19:54:08 2010	New York, New York 	 Clear	33	WSW	7	9	30.19	27	37	10.0
Mon Feb  1 20:40:37 2010	New York, New York 	 Clear	33	WSW	7	9	30.19	27	37	10.0
Mon Feb  1 21:25:24 2010	New York, New York 	 Clear	34	West	10	9	30.20	26	35	10.0
Mon Feb  1 22:08:55 2010	New York, New York 	 Clear	35	West	9	9	30.21	28	34	10.0
Mon Feb  1 22:52:06 2010	New York, New York 	 Clear	35	West	9	9	30.21	28	34	10.0
Mon Feb  1 23:38:16 2010	New York, New York 	 Clear	34	Variable	6	10	30.21	29	37	10.0
Sat Jan 30 00:24:54 2010	New York, New York 	 Clear	22	WNW	9	0	30.25	12	38	10.0
Sat Jan 30 01:09:00 2010	New York, New York 	 Clear	21	West	10	1	30.26	10	42	10.0
Sat Jan 30 01:52:40 2010	New York, New York 	 Clear	21	West	10	1	30.26	10	42	10.0
Sat Jan 30 02:37:23 2010	New York, New York 	 Clear	20	West	10	0	30.27	9	42	10.0
Sat Jan 30 03:21:00 2010	New York, New York 	 Clear	19	Variable	5	2	30.28	12	47	10.0
Sat Jan 30 04:04:56 2010	New York, New York 	 Clear	18	WNW	9	0	30.30	7	45	10.0
Sat Jan 30 04:48:36 2010	New York, New York 	 Clear	18	WNW	9	0	30.30	7	45	10.0
Sat Jan 30 05:32:26 2010	New York, New York 	 Clear	17	WNW	10	0	30.28	5	47	10.0
Sat Jan 30 06:16:06 2010	New York, New York 	 Clear	16	Variable	5	-2	30.28	9	45	10.0
Sat Jan 30 07:01:49 2010	New York, New York 	 Clear	16	West	8	-2	30.28	5	45	10.0
Sat Jan 30 07:45:18 2010	New York, New York 	 Clear	16	West	8	-2	30.28	5	45	10.0
Sat Jan 30 08:28:22 2010	New York, New York 	 Clear	16	Variable	7	-1	30.30	6	47	10.0
Sat Jan 30 11:57:56 2010	New York, New York 	 Clear	15	West	9	-3	30.28	3	45	10.0
Sat Jan 30 12:41:46 2010	New York, New York 	 Clear	15	West	9	-3	30.28	3	45	10.0
Sat Jan 30 13:24:56 2010	New York, New York 	 Clear	13	WNW	9	-5	30.27	1	45	10.0
Sat Jan 30 14:08:38 2010	New York, New York 	 Clear	13	West	10	-6	30.27	0	43	10.0
Sat Jan 30 14:52:56 2010	New York, New York 	 Clear	13	West	10	-6	30.27	0	43	10.0
Sat Jan 30 15:37:34 2010	New York, New York 	 Clear	14	North	12	-6	30.28	0	41	10.0
Sat Jan 30 16:23:49 2010	New York, New York 	 Clear	13	West	7	-6	30.25	3	43	10.0
Sat Jan 30 17:08:07 2010	New York, New York 	 Clear	16	Variable	5	-5	30.23	9	39	10.0
Sat Jan 30 17:51:37 2010	New York, New York 	 Clear	16	Variable	5	-5	30.23	9	39	10.0
Sat Jan 30 18:35:26 2010	New York, New York 	 Clear	17	Variable	6	-4	30.20	9	39	10.0
Sat Jan 30 19:18:43 2010	New York, New York 	 Scattered Clouds	18	Variable	6	-3	30.17	10	40	10.0
Sat Jan 30 20:02:49 2010	New York, New York 	 Partly Cloudy	18	WNW	8	-3	30.16	8	40	10.0
Sat Jan 30 20:46:00 2010	New York, New York 	 Partly Cloudy	18	WNW	8	-3	30.16	8	40	10.0
Sat Jan 30 21:29:59 2010	New York, New York 	 Partly Cloudy	20	NNE	6	-1	30.13	12	40	10.0
Sat Jan 30 22:13:01 2010	New York, New York 	 Mostly Cloudy	20	North	8	-1	30.13	10	40	10.0
Sat Jan 30 22:57:49 2010	New York, New York 	 Mostly Cloudy	19	NNE	14	-1	30.11	6	42	10.0
Sat Jan 30 23:43:29 2010	New York, New York 	 Mostly Cloudy	19	NNE	14	-1	30.11	6	42	10.0
Sun Jan 31 00:27:33 2010	New York, New York 	 Overcast	19	NE	12	0	30.10	7	43	10.0
Sun Jan 31 01:18:10 2010	New York, New York 	 Overcast	19	North	12	0	30.08	7	43	10.0
Sun Jan 31 02:02:03 2010	New York, New York 	 Overcast	19	North	10	3	30.05	8	50	10.0
Sun Jan 31 02:45:42 2010	New York, New York 	 Overcast	19	North	10	3	30.05	8	50	10.0
Sun Jan 31 03:29:43 2010	New York, New York 	 Overcast	19	North	9	2	30.03	8	47	10.0
Sun Jan 31 04:12:25 2010	New York, New York 	 Overcast	19	Variable	7	2	30.01	10	47	10.0
Sun Jan 31 04:57:31 2010	New York, New York 	 Overcast	19	NNW	12	2	30.00	7	47	10.0
Sun Jan 31 05:43:45 2010	New York, New York 	 Overcast	19	NNW	12	2	30.00	7	47	10.0
Sun Jan 31 06:28:51 2010	New York, New York 	 Overcast	18	North	8	2	29.98	8	50	10.0
Sun Jan 31 07:11:52 2010	New York, New York 	 Mostly Cloudy	17	North	8	0	29.99	7	47	10.0
Sun Jan 31 07:58:28 2010	New York, New York 	 Clear	17	North	8	0	29.98	7	47	10.0
Sun Jan 31 08:43:15 2010	New York, New York 	 Clear	17	North	8	0	29.98	7	47	10.0
Sun Jan 31 09:26:26 2010	New York, New York 	 Clear	17	NNE	8	0	30.00	7	47	10.0
Sun Jan 31 10:09:36 2010	New York, New York 	 Clear	17	Variable	7	0	30.02	8	47	10.0
Sun Jan 31 10:53:23 2010	New York, New York 	 Clear	16	Variable	7	-1	30.05	6	47	10.0
Sun Jan 31 11:36:48 2010	New York, New York 	 Clear	16	Variable	7	-1	30.05	6	47	10.0
Sun Jan 31 12:20:31 2010	New York, New York 	 Clear	15	NNW	8	-1	30.05	4	49	10.0
Sun Jan 31 13:03:34 2010	New York, New York 	 Clear	14	Variable	6	-1	30.07	5	52	10.0
Sun Jan 31 13:47:37 2010	New York, New York 	 Clear	14	Variable	6	-1	30.07	5	52	10.0
Sun Jan 31 14:30:21 2010	New York, New York 	 Clear	14	Variable	4	-1	30.11	8	52	10.0
Sun Jan 31 15:14:20 2010	New York, New York 	 Clear	15	Calm		-1	30.11	16	49	10.0
Sun Jan 31 15:57:44 2010	New York, New York 	 Clear	17	WNW	9	-1	30.12	6	45	10.0
Sun Jan 31 16:47:31 2010	New York, New York 	 Clear	17	WNW	9	-1	30.12	6	45	10.0
Sun Jan 31 17:31:24 2010	New York, New York 	 Clear	20	Variable	6	-1	30.12	12	40	10.0
Sun Jan 31 18:15:44 2010	New York, New York 	 Clear	22	Variable	6	0	30.11	14	38	10.0
Sun Jan 31 18:59:52 2010	New York, New York 	 Clear	25	Variable	5	1	30.09	19	36	10.0
Sun Jan 31 19:45:26 2010	New York, New York 	 Clear	25	Variable	5	1	30.09	19	36	10.0
Sun Jan 31 20:28:26 2010	New York, New York 	 Partly Cloudy	28	West	8	0	30.08	20	30	10.0
Sun Jan 31 21:12:35 2010	New York, New York 	 Clear	29	Variable	7	1	30.07	22	30	10.0
Sun Jan 31 21:55:57 2010	New York, New York 	 Clear	30	West	7	1	30.06	23	29	10.0
Sun Jan 31 22:40:42 2010	New York, New York 	 Clear	30	West	7	1	30.06	23	29	10.0
Sun Jan 31 23:23:46 2010	New York, New York 	 Clear	29	WSW	8	1	30.06	21	30	10.0
Thu Feb  4 00:09:19 2010	New York, New York 	 Overcast	36	WNW	8	21	30.05	30	55	10.0
Thu Feb  4 00:53:40 2010	New York, New York 	 Clear	35	WNW	8	21	30.08	29	57	10.0
Thu Feb  4 01:36:39 2010	New York, New York 	 Clear	35	WNW	8	21	30.08	29	57	10.0
Thu Feb  4 02:23:46 2010	New York, New York 	 Clear	34	Variable	5	21	30.11	30	59	10.0
Thu Feb  4 03:07:42 2010	New York, New York 	 Clear	34	Variable	7	20	30.12	28	56	10.0
Thu Feb  4 03:52:12 2010	New York, New York 	 Clear	34	Variable	7	20	30.12	28	56	10.0
Thu Feb  4 04:35:24 2010	New York, New York 	 Clear	33	Variable	6	20	30.14	28	59	10.0
Thu Feb  4 05:18:33 2010	New York, New York 	 Clear	32	WNW	12	19	30.16	23	59	10.0
Thu Feb  4 06:01:44 2010	New York, New York 	 Clear	31	West	7	19	30.16	24	61	10.0
Thu Feb  4 06:44:44 2010	New York, New York 	 Clear	31	West	7	19	30.16	24	61	10.0
Thu Feb  4 07:28:18 2010	New York, New York 	 Clear	31	West	8	20	30.16	24	64	10.0
Thu Feb  4 08:10:58 2010	New York, New York 	 Clear	31	West	9	19	30.17	23	61	10.0
Thu Feb  4 08:54:42 2010	New York, New York 	 Clear	31	West	9	18	30.19	23	59	10.0
Thu Feb  4 09:38:26 2010	New York, New York 	 Clear	31	West	9	18	30.19	23	59	10.0
Thu Feb  4 10:21:50 2010	New York, New York 	 Scattered Clouds	31	WNW	10	17	30.19	22	57	10.0
Thu Feb  4 11:08:06 2010	New York, New York 	 Clear	31	WNW	16	15	30.20	20	52	10.0
Thu Feb  4 11:51:40 2010	New York, New York 	 Clear	31	WNW	16	15	30.20	20	52	10.0
Thu Feb  4 12:34:45 2010	New York, New York 	 Clear	29	West	9	15	30.26	20	56	10.0
Thu Feb  4 13:18:14 2010	New York, New York 	 Clear	28	Variable	7	13	30.29	21	53	10.0
Thu Feb  4 14:02:35 2010	New York, New York 	 Clear	28	WNW	9	11	30.32	19	49	10.0
Thu Feb  4 14:55:18 2010	New York, New York 	 Clear	28	WNW	14	9	30.34	17	45	10.0
Thu Jan 28 15:35:29 2010	New York, New York 	 Snow	31	SW	9	29	30.05	23	92	0.2
Thu Jan 28 15:56:38 2010	New York, New York 	 Snow	32	Calm		31	30.01	32	96	0.5
Thu Jan 28 16:44:56 2010	New York, New York 	 Overcast	36	Calm		32	30.00	36	87	8.0
Thu Jan 28 17:09:44 2010	New York, New York 	 Overcast	35	WSW	9	32	29.99	28	89	10.0
Thu Jan 28 17:25:59 2010	New York, New York 	 Overcast	34	SW	12	30	30.01	25	87	9.0
Tue Feb  2 00:25:11 2010	New York, New York 	 Clear	33	Variable	4	10	30.21	30	38	10.0
Tue Feb  2 01:10:40 2010	New York, New York 	 Mostly Cloudy	33	Variable	5	10	30.22	29	38	10.0
Tue Feb  2 01:54:07 2010	New York, New York 	 Clear	32	Variable	6	11	30.23	26	42	10.0
Tue Feb  2 02:38:08 2010	New York, New York 	 Clear	32	Variable	6	11	30.23	26	42	10.0
Tue Feb  2 03:21:20 2010	New York, New York 	 Clear	32	West	8	11	30.22	25	42	10.0
Tue Feb  2 04:05:23 2010	New York, New York 	 Clear	31	Variable	6	12	30.22	25	46	10.0
Tue Feb  2 04:48:58 2010	New York, New York 	 Clear	31	Variable	6	12	30.22	25	46	10.0
Tue Feb  2 05:32:20 2010	New York, New York 	 Clear	31	Variable	6	12	30.23	25	46	10.0
Tue Feb  2 06:15:17 2010	New York, New York 	 Clear	30	Variable	7	12	30.24	23	47	10.0
Tue Feb  2 07:02:46 2010	New York, New York 	 Clear	30	Variable	4	12	30.24	26	47	10.0
Tue Feb  2 07:45:52 2010	New York, New York 	 Clear	30	Variable	4	12	30.24	26	47	10.0
Tue Feb  2 08:28:58 2010	New York, New York 	 Clear	31	West	4	12	30.25	28	46	10.0
Tue Feb  2 09:12:25 2010	New York, New York 	 Clear	30	West	6	12	30.26	24	47	10.0
Tue Feb  2 09:55:57 2010	New York, New York 	 Clear	29	West	4	11	30.25	25	47	10.0
Tue Feb  2 10:39:35 2010	New York, New York 	 Clear	29	West	4	11	30.25	25	47	10.0
Tue Feb  2 11:23:40 2010	New York, New York 	 Clear	28	Variable	4	12	30.26	24	51	10.0
Tue Feb  2 12:07:12 2010	New York, New York 	 Clear	28	NNW	9	9	30.26	19	45	10.0
Tue Feb  2 12:51:32 2010	New York, New York 	 Clear	28	NNW	9	9	30.26	19	45	10.0
Tue Feb  2 13:34:53 2010	New York, New York 	 Clear	28	Calm		9	30.27	28	45	10.0
Tue Feb  2 14:18:21 2010	New York, New York 	 Clear	28	Calm		9	30.27	28	45	10.0
Tue Feb  2 15:02:49 2010	New York, New York 	 Mostly Cloudy	29	Variable	4	10	30.28	25	45	10.0
Tue Feb  2 15:49:13 2010	New York, New York 	 Mostly Cloudy	29	Variable	4	10	30.28	25	45	10.0
Tue Feb  2 16:41:49 2010	New York, New York 	 Clear	29	Calm		11	30.27	28	47	10.0
Tue Feb  2 17:29:28 2010	New York, New York 	 Mostly Cloudy	31	ESE	9	11	30.26	23	43	10.0
Tue Feb  2 18:14:52 2010	New York, New York 	 Mostly Cloudy	32	Variable	5	12	30.23	28	44	10.0
Tue Feb  2 18:58:53 2010	New York, New York 	 Overcast	33	SSE	7	9	30.21	27	37	10.0
Tue Feb  2 19:47:51 2010	New York, New York 	 Overcast	33	SSE	7	9	30.21	27	37	10.0
Tue Feb  2 20:39:34 2010	New York, New York 	 Mostly Cloudy	33	SSE	8	11	30.19	26	40	10.0
Tue Feb  2 21:26:07 2010	New York, New York 	 Mostly Cloudy	33	Variable	6	15	30.20	28	48	10.0
Tue Feb  2 22:13:50 2010	New York, New York 	 Mostly Cloudy	33	South	5	15	30.20	29	48	10.0
Tue Feb  2 22:59:04 2010	New York, New York 	 Mostly Cloudy	33	Variable	6	18	30.18	28	54	10.0
Tue Feb  2 23:44:04 2010	New York, New York 	 Mostly Cloudy	33	Variable	6	18	30.18	28	54	10.0
Wed Feb  3 00:28:57 2010	New York, New York 	 Overcast	33	Variable	4	19	30.17	30	56	10.0
Wed Feb  3 01:15:54 2010	New York, New York 	 Overcast	32	Variable	7	20	30.17	26	61	10.0
Wed Feb  3 02:00:47 2010	New York, New York 	 Overcast	32	SE	8	21	30.16	25	64	9.0
Wed Feb  3 02:49:31 2010	New York, New York 	 Overcast	32	SE	8	21	30.16	25	64	9.0
Wed Feb  3 03:36:30 2010	New York, New York 	 Light Snow	30	ENE	6	25	30.16	24	80	2.5
Wed Feb  3 04:24:32 2010	New York, New York 	 Light Snow	30	NE	5	25	30.13	25	82	2.0
Wed Feb  3 05:11:06 2010	New York, New York 	 Light Snow	29	NNE	4	26	30.12	25	89	2.0
Wed Feb  3 05:59:08 2010	New York, New York 	 Light Snow	29	Calm		27	30.09	28	92	1.2
Wed Feb  3 06:45:57 2010	New York, New York 	 Light Snow	28	Variable	4	27	30.11	25	93	1.2
Wed Feb  3 07:30:33 2010	New York, New York 	 Light Snow	28	Variable	5	27	30.08	23	93	2.0
Wed Feb  3 08:13:38 2010	New York, New York 	 Light Snow	28	NNE	5	27	30.08	23	93	2.0
Wed Feb  3 09:00:01 2010	New York, New York 	 Light Snow	29	NE	6	26	30.05	23	89	3.0
Wed Feb  3 09:43:31 2010	New York, New York 	 Overcast	28	ENE	8	27	30.06	20	93	8.0
Wed Feb  3 10:27:29 2010	New York, New York 	 Light Snow	28	Variable	7	27	30.06	21	93	1.2
Wed Feb  3 11:14:11 2010	New York, New York 	 Light Snow	29	NE	5	27	30.04	24	92	3.0
Wed Feb  3 11:58:59 2010	New York, New York 	 Overcast	29	Calm		27	30.04	28	92	4.0
Wed Feb  3 12:42:10 2010	New York, New York 	 Overcast	29	Calm		27	30.04	28	92	4.0
Wed Feb  3 13:25:48 2010	New York, New York 	 Overcast	30	Calm		27	30.04	30	88	6.0
Wed Feb  3 14:11:26 2010	New York, New York 	 Overcast	30	Calm		27	30.06	30	88	6.0
Wed Feb  3 14:57:22 2010	New York, New York 	 Overcast	30	Calm		28	30.06	30	92	5.0
Wed Feb  3 15:42:29 2010	New York, New York 	 Overcast	30	Calm		28	30.06	30	92	5.0
Wed Feb  3 16:28:06 2010	New York, New York 	 Overcast	31	Variable	4	27	30.07	28	85	5.0
Wed Feb  3 17:15:34 2010	New York, New York 	 Overcast	33	Variable	6	28	30.05	28	82	9.0
Wed Feb  3 18:04:08 2010	New York, New York 	 Scattered Clouds	34	West	7	28	30.04	28	81	10.0
Wed Feb  3 18:47:14 2010	New York, New York 	 Scattered Clouds	34	West	7	28	30.04	28	81	10.0
Wed Feb  3 19:31:04 2010	New York, New York 	 Mostly Cloudy	36	West	4	27	30.00	33	70	10.0
Wed Feb  3 20:14:43 2010	New York, New York 	 Mostly Cloudy	38	WNW	9	27	29.99	32	65	10.0
Wed Feb  3 20:59:31 2010	New York, New York 	 Overcast	37	Variable	4	25	29.99	34	62	10.0
Wed Feb  3 21:47:23 2010	New York, New York 	 Overcast	37	Variable	4	25	29.99	34	62	10.0
Wed Feb  3 22:32:55 2010	New York, New York 	 Mostly Cloudy	37	WNW	12	22	30.00	29	54	10.0
Wed Feb  3 23:23:41 2010	New York, New York 	 Overcast	36	WNW	7	23	30.02	30	59	10.0
Fri Jan 29 08:39:03 2010	Oklahoma City, Oklahoma 	 Light Freezing Rain	27	North	16	25	30.16	14	93	6.0
Fri Jan 29 09:22:59 2010	Oklahoma City, Oklahoma 	 Light Snow	25	North	22	23	30.13	10	93	4.0
Fri Jan 29 11:55:00 2010	Oklahoma City, Oklahoma 	 Light Freezing Rain	25	NNE	17	21	30.12	12	86	3.0
Fri Jan 29 12:39:33 2010	Oklahoma City, Oklahoma 	 Light Freezing Rain	24	NNE	16	22	30.17	11	91	3.0
Fri Jan 29 13:26:04 2010	Oklahoma City, Oklahoma 	 Light Freezing Rain	24	North	16	22	30.17	11	91	4.0
Fri Jan 29 14:14:49 2010	Oklahoma City, Oklahoma 	 Light Freezing Rain	24	NNE	17	21	30.18	11	88	5.0
Fri Jan 29 14:59:32 2010	Oklahoma City, Oklahoma 	 Light Snow	25	North	12	21	30.13	14	86	1.2
Fri Jan 29 15:45:30 2010	Oklahoma City, Oklahoma 	 Light Snow	23	North	15	21	30.17	10	92	1.0
Fri Jan 29 16:32:50 2010	Oklahoma City, Oklahoma 	 Light Snow	23	North	14	19	30.12	11	86	1.8
Fri Jan 29 17:17:22 2010	Oklahoma City, Oklahoma 	 Light Snow	23	North	13	20	30.19	11	88	1.8
Fri Jan 29 18:05:41 2010	Oklahoma City, Oklahoma 	 Light Snow	23	North	16	20	30.17	10	88	1.5
Fri Jan 29 18:50:19 2010	Oklahoma City, Oklahoma 	 Light Snow	23	North	13	19	30.13	11	86	0.8
Fri Jan 29 19:42:48 2010	Oklahoma City, Oklahoma 	 Light Freezing Fog	23	North	16	19	30.11	10	86	0.5
Fri Jan 29 20:40:53 2010	Oklahoma City, Oklahoma 	 Light Freezing Fog	21	North	17	19	30.09	7	93	0.5
Fri Jan 29 21:24:49 2010	Oklahoma City, Oklahoma 	 Mist	21	North	17	19	30.07	7	93	0.5
Fri Jan 29 22:10:53 2010	Oklahoma City, Oklahoma 	 Light Freezing Fog	21	North	17	19	30.07	7	93	0.2
Fri Jan 29 22:57:15 2010	Oklahoma City, Oklahoma 	 Mist	21	North	16	19	30.08	7	93	0.5
Fri Jan 29 23:41:15 2010	Oklahoma City, Oklahoma 	 Overcast	21	North	21	19	30.08	6	93	1.2
Mon Feb  1 00:08:13 2010	Oklahoma City, Oklahoma 	 Overcast	27	SE	12	24	30.21	17	89	2.0
Mon Feb  1 00:51:27 2010	Oklahoma City, Oklahoma 	 Overcast	27	SE	12	24	30.21	17	89	2.0
Mon Feb  1 01:36:12 2010	Oklahoma City, Oklahoma 	 Overcast	27	SSE	14	25	30.22	16	92	2.0
Mon Feb  1 02:21:04 2010	Oklahoma City, Oklahoma 	 Overcast	27	South	13	25	30.22	16	92	2.0
Mon Feb  1 03:05:14 2010	Oklahoma City, Oklahoma 	 Overcast	27	South	13	26	30.22	16	96	1.5
Mon Feb  1 03:48:45 2010	Oklahoma City, Oklahoma 	 Light Freezing Rain	28	SSE	13	27	30.16	18	93	1.0
Mon Feb  1 04:34:24 2010	Oklahoma City, Oklahoma 	 Light Freezing Rain	28	SE	12	27	30.15	18	93	0.8
Mon Feb  1 05:18:01 2010	Oklahoma City, Oklahoma 	 Light Freezing Rain	27	SSE	13	27	30.15	16	100	1.2
Mon Feb  1 06:02:55 2010	Oklahoma City, Oklahoma 	 Light Snow	28	South	10	27	30.18	19	96	0.8
Mon Feb  1 06:45:47 2010	Oklahoma City, Oklahoma 	 Light Freezing Rain	28	South	10	27	30.14	19	93	1.0
Mon Feb  1 07:29:50 2010	Oklahoma City, Oklahoma 	 Light Freezing Rain	28	SSE	12	27	30.18	18	96	1.0
Mon Feb  1 08:13:02 2010	Oklahoma City, Oklahoma 	 Light Freezing Rain	29	South	12	27	30.17	19	92	0.8
Mon Feb  1 08:56:45 2010	Oklahoma City, Oklahoma 	 Light Freezing Rain	29	South	12	27	30.17	19	92	0.8
Mon Feb  1 09:39:46 2010	Oklahoma City, Oklahoma 	 Light Freezing Rain	28	SSE	10	28	30.13	19	100	0.8
Mon Feb  1 10:23:07 2010	Oklahoma City, Oklahoma 	 Light Freezing Rain	29	South	7	28	30.17	22	96	0.5
Mon Feb  1 11:06:15 2010	Oklahoma City, Oklahoma 	 Overcast	30	SSE	10	28	30.14	21	92	1.2
Mon Feb  1 11:49:32 2010	Oklahoma City, Oklahoma 	 Overcast	30	SSE	15	28	30.08	19	93	3.0
Mon Feb  1 12:33:05 2010	Oklahoma City, Oklahoma 	 Overcast	30	SSE	15	28	30.10	19	92	3.0
Mon Feb  1 13:16:31 2010	Oklahoma City, Oklahoma 	 Overcast	30	South	16	28	30.08	19	92	4.0
Mon Feb  1 14:00:20 2010	Oklahoma City, Oklahoma 	 Overcast	30	SSE	17	28	30.08	18	92	5.0
Mon Feb  1 14:44:52 2010	Oklahoma City, Oklahoma 	 Overcast	30	SSE	17	28	30.08	18	92	5.0
Mon Feb  1 15:29:10 2010	Oklahoma City, Oklahoma 	 Overcast	29	South	14	28	30.10	18	96	2.5
Mon Feb  1 16:13:19 2010	Oklahoma City, Oklahoma 	 Overcast	29	South	14	28	30.10	18	96	2.5
Mon Feb  1 16:58:29 2010	Oklahoma City, Oklahoma 	 Overcast	30	South	9	29	30.09	22	96	2.5
Mon Feb  1 17:42:32 2010	Oklahoma City, Oklahoma 	 Overcast	30	South	9	29	30.09	22	96	2.5
Mon Feb  1 18:25:41 2010	Oklahoma City, Oklahoma 	 Overcast	31	South	7	29	30.09	24	92	2.5
Mon Feb  1 19:09:26 2010	Oklahoma City, Oklahoma 	 Overcast	31	South	8	30	30.08	24	96	1.5
Mon Feb  1 19:54:34 2010	Oklahoma City, Oklahoma 	 Overcast	31	South	8	30	30.08	24	96	1.5
Mon Feb  1 20:41:02 2010	Oklahoma City, Oklahoma 	 Overcast	31	SSW	14	29	30.06	21	92	1.5
Mon Feb  1 21:25:48 2010	Oklahoma City, Oklahoma 	 Overcast	30	South	13	28	30.00	20	93	2.0
Mon Feb  1 22:09:21 2010	Oklahoma City, Oklahoma 	 Overcast	31	SW	8	29	30.04	24	92	2.0
Mon Feb  1 22:52:35 2010	Oklahoma City, Oklahoma 	 Overcast	31	SW	8	29	30.04	24	92	2.0
Mon Feb  1 23:38:42 2010	Oklahoma City, Oklahoma 	 Overcast	32	SW	7	30	30.04	26	92	2.0
Sat Jan 30 00:25:20 2010	Oklahoma City, Oklahoma 	 Overcast	22	North	17	18	30.13	8	85	1.5
Sat Jan 30 01:09:26 2010	Oklahoma City, Oklahoma 	 Mostly Cloudy	21	North	18	18	30.14	6	88	2.0
Sat Jan 30 01:53:06 2010	Oklahoma City, Oklahoma 	 Overcast	21	North	16	18	30.10	7	86	3.0
Sat Jan 30 02:37:49 2010	Oklahoma City, Oklahoma 	 Overcast	19	North	21	18	30.11	3	93	9.0
Sat Jan 30 03:21:26 2010	Oklahoma City, Oklahoma 	 Overcast	20	North	16	17	30.17	6	89	10.0
Sat Jan 30 04:05:19 2010	Oklahoma City, Oklahoma 	 Overcast	20	North	9	16	30.18	9	85	10.0
Sat Jan 30 04:49:01 2010	Oklahoma City, Oklahoma 	 Overcast	19	North	16	16	30.13	5	86	10.0
Sat Jan 30 05:32:52 2010	Oklahoma City, Oklahoma 	 Overcast	20	North	14	16	30.18	7	85	10.0
Sat Jan 30 06:16:32 2010	Oklahoma City, Oklahoma 	 Overcast	19	North	18	15	30.19	4	85	10.0
Sat Jan 30 07:02:15 2010	Oklahoma City, Oklahoma 	 Overcast	19	North	16	15	30.18	4	85	10.0
Sat Jan 30 07:45:44 2010	Oklahoma City, Oklahoma 	 Overcast	19	North	16	15	30.18	4	85	10.0
Sat Jan 30 08:28:46 2010	Oklahoma City, Oklahoma 	 Overcast	20	North	14	16	30.19	7	85	10.0
Sat Jan 30 11:58:22 2010	Oklahoma City, Oklahoma 	 Overcast	20	North	10	16	30.22	9	85	10.0
Sat Jan 30 12:42:12 2010	Oklahoma City, Oklahoma 	 Overcast	20	North	10	16	30.22	9	85	10.0
Sat Jan 30 13:25:22 2010	Oklahoma City, Oklahoma 	 Overcast	19	North	9	16	30.22	8	88	9.0
Sat Jan 30 14:09:05 2010	Oklahoma City, Oklahoma 	 Overcast	20	North	10	16	30.24	9	85	8.0
Sat Jan 30 14:53:20 2010	Oklahoma City, Oklahoma 	 Overcast	20	North	10	16	30.24	9	85	8.0
Sat Jan 30 15:37:57 2010	Oklahoma City, Oklahoma 	 Overcast	19	North	12	16	30.27	7	88	7.0
Sat Jan 30 16:24:14 2010	Oklahoma City, Oklahoma 	 Overcast	20	North	14	17	30.30	7	89	2.0
Sat Jan 30 17:08:32 2010	Oklahoma City, Oklahoma 	 Overcast	20	North	12	16	30.31	8	85	2.5
Sat Jan 30 17:52:02 2010	Oklahoma City, Oklahoma 	 Haze	21	North	12	16	30.27	10	80	3.0
Sat Jan 30 18:35:53 2010	Oklahoma City, Oklahoma 	 Haze	20	North	10	15	30.33	9	81	6.0
Sat Jan 30 19:19:08 2010	Oklahoma City, Oklahoma 	 Light Snow	22	NNW	7	17	30.31	13	82	6.0
Sat Jan 30 20:03:15 2010	Oklahoma City, Oklahoma 	 Light Snow	23	North	4	18	30.29	18	81	6.0
Sat Jan 30 20:46:24 2010	Oklahoma City, Oklahoma 	 Light Snow	23	North	4	18	30.29	18	81	6.0
Sat Jan 30 21:30:25 2010	Oklahoma City, Oklahoma 	 Light Snow	23	NW	4	19	30.27	18	85	7.0
Sat Jan 30 22:13:27 2010	Oklahoma City, Oklahoma 	 Overcast	24	NW	5	20	30.26	18	84	6.0
Sat Jan 30 22:58:15 2010	Oklahoma City, Oklahoma 	 Overcast	25	Calm		20	30.26	25	81	7.0
Sat Jan 30 23:43:58 2010	Oklahoma City, Oklahoma 	 Overcast	25	Calm		20	30.26	25	81	7.0
Sun Jan 31 00:27:58 2010	Oklahoma City, Oklahoma 	 Overcast	25	Calm		21	30.26	25	85	6.0
Sun Jan 31 01:18:36 2010	Oklahoma City, Oklahoma 	 Overcast	24	WSW	4	21	30.27	20	88	6.0
Sun Jan 31 02:02:29 2010	Oklahoma City, Oklahoma 	 Overcast	24	South	4	21	30.27	20	88	6.0
Sun Jan 31 02:46:05 2010	Oklahoma City, Oklahoma 	 Overcast	24	South	4	21	30.27	20	88	6.0
Sun Jan 31 03:30:09 2010	Oklahoma City, Oklahoma 	 Mostly Cloudy	19	South	6	17	30.28	11	92	5.0
Sun Jan 31 04:12:50 2010	Oklahoma City, Oklahoma 	 Overcast	22	SSE	7	19	30.28	13	89	3.0
Sun Jan 31 04:57:57 2010	Oklahoma City, Oklahoma 	 Overcast	21	South	5	20	30.29	15	96	3.0
Sun Jan 31 05:44:11 2010	Oklahoma City, Oklahoma 	 Overcast	21	South	7	19	30.24	13	93	1.8
Sun Jan 31 06:29:14 2010	Oklahoma City, Oklahoma 	 Light Freezing Rain	21	South	6	21	30.24	14	100	0.8
Sun Jan 31 07:12:17 2010	Oklahoma City, Oklahoma 	 Light Freezing Rain	23	Calm		21	30.24	23	93	0.8
Sun Jan 31 07:58:54 2010	Oklahoma City, Oklahoma 	 Overcast	23	SSE	6	21	30.30	16	92	0.8
Sun Jan 31 08:43:44 2010	Oklahoma City, Oklahoma 	 Light Freezing Rain	23	SSE	5	21	30.25	17	93	0.5
Sun Jan 31 09:26:52 2010	Oklahoma City, Oklahoma 	 Light Freezing Rain	23	SSE	6	21	30.24	16	93	1.2
Sun Jan 31 10:10:03 2010	Oklahoma City, Oklahoma 	 Light Freezing Fog	23	South	7	21	30.24	15	93	0.5
Sun Jan 31 10:53:49 2010	Oklahoma City, Oklahoma 	 Overcast	21	SSE	5	21	30.23	15	100	5.0
Sun Jan 31 11:37:17 2010	Oklahoma City, Oklahoma 	 Overcast	22	SSE	4	20	30.27	17	92	5.0
Sun Jan 31 12:20:55 2010	Oklahoma City, Oklahoma 	 Overcast	21	South	7	19	30.22	13	93	3.0
Sun Jan 31 13:03:57 2010	Oklahoma City, Oklahoma 	 Light Freezing Rain	19	South	10	18	30.23	8	93	1.2
Sun Jan 31 13:48:02 2010	Oklahoma City, Oklahoma 	 Light Snow	19	South	10	18	30.24	8	93	1.5
Sun Jan 31 14:30:47 2010	Oklahoma City, Oklahoma 	 Light Snow	19	SSW	7	18	30.24	10	93	1.5
Sun Jan 31 15:14:46 2010	Oklahoma City, Oklahoma 	 Light Freezing Rain	20	SSW	9	19	30.31	9	96	0.8
Sun Jan 31 15:58:09 2010	Oklahoma City, Oklahoma 	 Light Snow	21	South	7	20	30.31	12	96	0.8
Sun Jan 31 16:47:57 2010	Oklahoma City, Oklahoma 	 Overcast	21	South	9	19	30.26	11	93	1.5
Sun Jan 31 17:31:53 2010	Oklahoma City, Oklahoma 	 Overcast	23	South	7	21	30.32	15	92	1.5
Sun Jan 31 18:16:10 2010	Oklahoma City, Oklahoma 	 Light Snow	25	South	8	21	30.27	16	86	0.8
Sun Jan 31 19:00:18 2010	Oklahoma City, Oklahoma 	 Light Freezing Fog	25	South	7	23	30.31	17	92	1.0
Sun Jan 31 19:45:52 2010	Oklahoma City, Oklahoma 	 Light Freezing Fog	25	South	7	23	30.31	17	92	1.0
Sun Jan 31 20:28:52 2010	Oklahoma City, Oklahoma 	 Overcast	27	SSE	10	23	30.23	17	86	1.5
Sun Jan 31 21:12:59 2010	Oklahoma City, Oklahoma 	 Overcast	26	SSE	10	24	30.25	16	92	1.5
Sun Jan 31 21:56:21 2010	Oklahoma City, Oklahoma 	 Overcast	26	SSE	10	24	30.25	16	92	1.5
Sun Jan 31 22:41:10 2010	Oklahoma City, Oklahoma 	 Overcast	27	South	9	25	30.19	18	93	2.5
Sun Jan 31 23:24:12 2010	Oklahoma City, Oklahoma 	 Overcast	27	SE	12	24	30.22	17	89	2.5
Thu Feb  4 00:09:45 2010	Oklahoma City, Oklahoma 	 Scattered Clouds	37	ENE	9	33	30.13	30	86	6.0
Thu Feb  4 00:54:04 2010	Oklahoma City, Oklahoma 	 Scattered Clouds	37	ENE	9	33	30.13	30	86	6.0
Thu Feb  4 01:37:05 2010	Oklahoma City, Oklahoma 	 Partly Cloudy	36	East	7	33	30.13	30	89	6.0
Thu Feb  4 02:24:11 2010	Oklahoma City, Oklahoma 	 Mostly Cloudy	36	ENE	7	34	30.13	30	93	6.0
Thu Feb  4 03:08:08 2010	Oklahoma City, Oklahoma 	 Overcast	35	ENE	6	33	30.16	30	92	3.0
Thu Feb  4 03:52:38 2010	Oklahoma City, Oklahoma 	 Overcast	36	East	6	34	30.13	31	93	3.0
Thu Feb  4 04:35:48 2010	Oklahoma City, Oklahoma 	 Light Rain	36	NE	6	34	30.12	31	93	2.0
Thu Feb  4 05:18:59 2010	Oklahoma City, Oklahoma 	 Light Rain	36	NE	8	34	30.10	29	93	3.0
Thu Feb  4 06:02:06 2010	Oklahoma City, Oklahoma 	 Overcast	35	NE	7	34	30.13	29	96	3.0
Thu Feb  4 06:45:09 2010	Oklahoma City, Oklahoma 	 Light Rain	36	ENE	6	34	30.10	31	93	4.0
Thu Feb  4 07:28:43 2010	Oklahoma City, Oklahoma 	 Light Rain	36	ENE	10	34	30.09	28	93	4.0
Thu Feb  4 08:11:24 2010	Oklahoma City, Oklahoma 	 Light Rain	36	East	6	34	30.12	31	93	4.0
Thu Feb  4 08:55:08 2010	Oklahoma City, Oklahoma 	 Light Rain	36	East	6	34	30.12	31	93	4.0
Thu Feb  4 09:38:51 2010	Oklahoma City, Oklahoma 	 Light Rain	35	NE	8	33	30.09	29	92	6.0
Thu Feb  4 10:22:16 2010	Oklahoma City, Oklahoma 	 Light Rain	35	NE	8	33	30.08	29	92	5.0
Thu Feb  4 11:08:32 2010	Oklahoma City, Oklahoma 	 Overcast	35	ENE	9	33	30.06	28	92	7.0
Thu Feb  4 11:52:06 2010	Oklahoma City, Oklahoma 	 Overcast	36	East	10	34	30.02	28	93	6.0
Thu Feb  4 12:35:11 2010	Oklahoma City, Oklahoma 	 Overcast	36	East	10	34	30.01	28	93	4.0
Thu Feb  4 13:18:42 2010	Oklahoma City, Oklahoma 	 Overcast	35	ENE	9	33	30.03	28	92	4.0
Thu Feb  4 14:03:01 2010	Oklahoma City, Oklahoma 	 Overcast	35	East	8	33	30.04	29	92	3.0
Thu Feb  4 14:55:42 2010	Oklahoma City, Oklahoma 	 Light Rain	36	East	8	34	30.01	29	93	2.5
Thu Jan 28 15:35:55 2010	Oklahoma City, Oklahoma 	 Overcast	30	NE	21	19	30.35	17	64	10.0
Thu Jan 28 15:57:04 2010	Oklahoma City, Oklahoma 	 Light Freezing Rain	29	NNE	24	18	30.36	15	64	9.0
Thu Jan 28 16:45:22 2010	Oklahoma City, Oklahoma 	 Light Freezing Rain	28	NE	22	19	30.34	15	69	6.0
Thu Jan 28 17:10:16 2010	Oklahoma City, Oklahoma 	 Light Freezing Rain	28	NE	22	19	30.34	15	69	6.0
Thu Jan 28 17:26:26 2010	Oklahoma City, Oklahoma 	 Overcast	28	NE	16	21	30.35	17	74	10.0
Tue Feb  2 00:25:37 2010	Oklahoma City, Oklahoma 	 Overcast	32	SW	6	30	30.01	26	93	2.0
Tue Feb  2 01:11:09 2010	Oklahoma City, Oklahoma 	 Overcast	32	SW	5	30	30.06	28	92	2.0
Tue Feb  2 01:54:33 2010	Oklahoma City, Oklahoma 	 Overcast	32	SW	5	30	30.06	28	92	2.0
Tue Feb  2 02:38:34 2010	Oklahoma City, Oklahoma 	 Overcast	32	SSW	4	31	30.06	29	96	2.0
Tue Feb  2 03:21:46 2010	Oklahoma City, Oklahoma 	 Overcast	32	SW	4	30	30.09	29	92	2.0
Tue Feb  2 04:05:49 2010	Oklahoma City, Oklahoma 	 Overcast	32	SW	4	31	30.09	29	96	2.0
Tue Feb  2 04:49:24 2010	Oklahoma City, Oklahoma 	 Overcast	32	SW	4	31	30.09	29	96	2.0
Tue Feb  2 05:32:46 2010	Oklahoma City, Oklahoma 	 Overcast	32	Calm		31	30.09	32	96	2.0
Tue Feb  2 06:15:43 2010	Oklahoma City, Oklahoma 	 Overcast	32	Calm		31	30.11	32	96	2.0
Tue Feb  2 07:03:12 2010	Oklahoma City, Oklahoma 	 Overcast	32	WSW	5	31	30.13	28	96	2.0
Tue Feb  2 07:46:18 2010	Oklahoma City, Oklahoma 	 Overcast	32	WSW	5	31	30.13	28	96	2.0
Tue Feb  2 08:29:23 2010	Oklahoma City, Oklahoma 	 Overcast	32	WSW	4	31	30.13	29	96	2.0
Tue Feb  2 09:12:51 2010	Oklahoma City, Oklahoma 	 Overcast	32	Calm		31	30.14	32	96	2.0
Tue Feb  2 09:56:23 2010	Oklahoma City, Oklahoma 	 Overcast	32	West	6	30	30.11	26	93	2.0
Tue Feb  2 10:40:00 2010	Oklahoma City, Oklahoma 	 Overcast	34	NW	5	30	30.12	30	87	2.0
Tue Feb  2 11:24:05 2010	Oklahoma City, Oklahoma 	 Overcast	33	NW	5	31	30.16	29	92	2.0
Tue Feb  2 12:07:40 2010	Oklahoma City, Oklahoma 	 Overcast	34	NNW	5	31	30.18	30	89	2.0
Tue Feb  2 12:51:58 2010	Oklahoma City, Oklahoma 	 Overcast	34	NNW	5	31	30.18	30	89	2.0
Tue Feb  2 13:35:18 2010	Oklahoma City, Oklahoma 	 Overcast	34	NW	4	31	30.20	31	89	2.0
Tue Feb  2 14:18:46 2010	Oklahoma City, Oklahoma 	 Overcast	33	NW	6	30	30.20	28	89	9.0
Tue Feb  2 15:03:16 2010	Oklahoma City, Oklahoma 	 Overcast	33	NNW	6	30	30.21	28	89	7.0
Tue Feb  2 15:49:38 2010	Oklahoma City, Oklahoma 	 Overcast	33	NNW	6	30	30.21	28	89	7.0
Tue Feb  2 16:42:15 2010	Oklahoma City, Oklahoma 	 Overcast	34	North	5	29	30.22	30	82	7.0
Tue Feb  2 17:29:54 2010	Oklahoma City, Oklahoma 	 Overcast	34	WNW	4	30	30.25	31	85	6.0
Tue Feb  2 18:15:17 2010	Oklahoma City, Oklahoma 	 Overcast	34	WSW	4	30	30.27	31	85	7.0
Tue Feb  2 18:59:18 2010	Oklahoma City, Oklahoma 	 Overcast	34	Calm		31	30.26	34	89	7.0
Tue Feb  2 19:48:19 2010	Oklahoma City, Oklahoma 	 Overcast	34	Calm		31	30.26	34	89	7.0
Tue Feb  2 20:40:00 2010	Oklahoma City, Oklahoma 	 Haze	36	Calm		31	30.23	36	82	6.0
Tue Feb  2 21:26:32 2010	Oklahoma City, Oklahoma 	 Mostly Cloudy	36	SSW	4	30	30.19	33	81	6.0
Tue Feb  2 22:14:16 2010	Oklahoma City, Oklahoma 	 Partly Cloudy	36	SSW	5	32	30.21	32	86	5.0
Tue Feb  2 22:59:30 2010	Oklahoma City, Oklahoma 	 Partly Cloudy	36	SSW	4	32	30.21	33	86	6.0
Tue Feb  2 23:44:30 2010	Oklahoma City, Oklahoma 	 Partly Cloudy	36	SSW	4	32	30.21	33	86	6.0
Wed Feb  3 00:29:23 2010	Oklahoma City, Oklahoma 	 Partly Cloudy	35	SW	6	31	30.22	30	85	6.0
Wed Feb  3 01:16:23 2010	Oklahoma City, Oklahoma 	 Clear	34	South	8	30	30.21	27	85	5.0
Wed Feb  3 02:01:13 2010	Oklahoma City, Oklahoma 	 Clear	32	South	5	29	30.22	28	88	4.0
Wed Feb  3 02:49:57 2010	Oklahoma City, Oklahoma 	 Scattered Clouds	30	South	5	28	30.20	25	93	4.0
Wed Feb  3 03:36:54 2010	Oklahoma City, Oklahoma 	 Overcast	32	South	5	30	30.21	28	93	2.5
Wed Feb  3 04:24:58 2010	Oklahoma City, Oklahoma 	 Overcast	32	South	7	30	30.21	26	93	0.5
Wed Feb  3 05:11:32 2010	Oklahoma City, Oklahoma 	 Mist	32	South	6	31	30.24	26	96	0.5
Wed Feb  3 05:59:33 2010	Oklahoma City, Oklahoma 	 Light Freezing Fog	31	South	8	29	30.25	24	92	0.2
Wed Feb  3 06:46:22 2010	Oklahoma City, Oklahoma 	 Light Freezing Fog	30	South	7	30	30.22	23	100	0.5
Wed Feb  3 07:30:58 2010	Oklahoma City, Oklahoma 	 Overcast	30	South	5	29	30.24	25	96	0.5
Wed Feb  3 08:14:03 2010	Oklahoma City, Oklahoma 	 Overcast	30	South	6	29	30.23	24	96	0.5
Wed Feb  3 09:00:27 2010	Oklahoma City, Oklahoma 	 Overcast	30	SSW	9	29	30.23	22	96	0.5
Wed Feb  3 09:43:55 2010	Oklahoma City, Oklahoma 	 Overcast	30	SSW	9	29	30.23	22	96	0.5
Wed Feb  3 10:27:54 2010	Oklahoma City, Oklahoma 	 Light Freezing Fog	29	SSW	4	29	30.21	25	100	0.5
Wed Feb  3 11:14:37 2010	Oklahoma City, Oklahoma 	 Light Freezing Fog	29	South	5	28	30.22	24	96	0.2
Wed Feb  3 11:59:23 2010	Oklahoma City, Oklahoma 	 Light Freezing Fog	29	Calm		29	30.20	28	100	0.2
Wed Feb  3 12:42:36 2010	Oklahoma City, Oklahoma 	 Light Freezing Fog	29	Calm		29	30.20	28	100	0.2
Wed Feb  3 13:26:14 2010	Oklahoma City, Oklahoma 	 Light Freezing Fog	29	ENE	6	27	30.19	23	92	0.2
Wed Feb  3 14:11:52 2010	Oklahoma City, Oklahoma 	 Light Freezing Fog	28	ENE	4	27	30.20	24	96	0.1
Wed Feb  3 14:57:48 2010	Oklahoma City, Oklahoma 	 Light Freezing Fog	29	East	4	28	30.21	25	96	0.1
Wed Feb  3 15:42:55 2010	Oklahoma City, Oklahoma 	 Light Freezing Fog	29	East	4	28	30.21	25	96	0.1
Wed Feb  3 16:28:35 2010	Oklahoma City, Oklahoma 	 Overcast	30	East	6	28	30.19	24	93	1.5
Wed Feb  3 17:15:59 2010	Oklahoma City, Oklahoma 	 Overcast	30	ESE	5	30	30.19	25	100	2.0
Wed Feb  3 18:04:34 2010	Oklahoma City, Oklahoma 	 Mostly Cloudy	32	SE	7	31	30.22	26	96	2.0
Wed Feb  3 18:47:40 2010	Oklahoma City, Oklahoma 	 Mostly Cloudy	32	SE	7	31	30.22	26	96	2.0
Wed Feb  3 19:31:27 2010	Oklahoma City, Oklahoma 	 Overcast	34	SSE	8	32	30.18	27	93	6.0
Wed Feb  3 20:15:11 2010	Oklahoma City, Oklahoma 	 Mostly Cloudy	36	SSE	8	32	30.18	30	86	6.0
Wed Feb  3 20:59:56 2010	Oklahoma City, Oklahoma 	 Mostly Cloudy	37	ESE	4	33	30.15	34	86	5.0
Wed Feb  3 21:47:48 2010	Oklahoma City, Oklahoma 	 Mostly Cloudy	37	ESE	4	33	30.15	34	86	5.0
Wed Feb  3 22:33:19 2010	Oklahoma City, Oklahoma 	 Partly Cloudy	37	East	7	34	30.11	32	87	9.0
Wed Feb  3 23:24:07 2010	Oklahoma City, Oklahoma 	 Partly Cloudy	38	ENE	7	33	30.12	33	83	9.0
Fri Jan 29 08:40:15 2010	Philadelphia, Pennsylvania 	 Clear	18	WNW	15	-2	30.30	4	41	10.0
Fri Jan 29 09:24:08 2010	Philadelphia, Pennsylvania 	 Clear	18	NW	10	-3	30.31	6	40	10.0
Fri Jan 29 11:56:05 2010	Philadelphia, Pennsylvania 	 Clear	17	NW	12	-2	30.33	4	43	10.0
Fri Jan 29 12:40:42 2010	Philadelphia, Pennsylvania 	 Clear	17	WNW	7	-1	30.34	8	45	10.0
Fri Jan 29 13:27:15 2010	Philadelphia, Pennsylvania 	 Clear	16	WNW	10	0	30.35	4	49	10.0
Fri Jan 29 14:16:03 2010	Philadelphia, Pennsylvania 	 Clear	17	WNW	9	1	30.37	6	50	10.0
Fri Jan 29 15:00:45 2010	Philadelphia, Pennsylvania 	 Clear	17	WNW	9	1	30.37	6	50	10.0
Fri Jan 29 15:46:35 2010	Philadelphia, Pennsylvania 	 Clear	18	WNW	12	1	30.38	5	48	10.0
Fri Jan 29 16:34:03 2010	Philadelphia, Pennsylvania 	 Clear	19	WNW	15	1	30.39	5	46	10.0
Fri Jan 29 17:18:41 2010	Philadelphia, Pennsylvania 	 Clear	19	WNW	15	1	30.39	5	46	10.0
Fri Jan 29 18:06:50 2010	Philadelphia, Pennsylvania 	 Clear	21	WNW	10	1	30.33	10	42	10.0
Fri Jan 29 18:51:28 2010	Philadelphia, Pennsylvania 	 Clear	21	WNW	10	1	30.33	10	42	10.0
Fri Jan 29 19:43:57 2010	Philadelphia, Pennsylvania 	 Clear	21	WNW	12	1	30.32	9	42	10.0
Fri Jan 29 20:41:59 2010	Philadelphia, Pennsylvania 	 Clear	23	WNW	15	2	30.31	10	40	10.0
Fri Jan 29 21:25:59 2010	Philadelphia, Pennsylvania 	 Clear	23	WNW	16	2	30.30	10	40	10.0
Fri Jan 29 22:12:02 2010	Philadelphia, Pennsylvania 	 Clear	23	WNW	12	1	30.31	12	39	10.0
Fri Jan 29 22:58:22 2010	Philadelphia, Pennsylvania 	 Clear	23	WNW	12	1	30.31	12	39	10.0
Fri Jan 29 23:42:24 2010	Philadelphia, Pennsylvania 	 Clear	22	NW	12	1	30.32	10	40	10.0
Mon Feb  1 00:09:23 2010	Philadelphia, Pennsylvania 	 Clear	26	WSW	8	3	30.15	18	37	10.0
Mon Feb  1 00:52:36 2010	Philadelphia, Pennsylvania 	 Clear	26	WSW	8	3	30.15	18	37	10.0
Mon Feb  1 01:37:16 2010	Philadelphia, Pennsylvania 	 Clear	26	WSW	6	4	30.15	19	39	10.0
Mon Feb  1 02:22:12 2010	Philadelphia, Pennsylvania 	 Clear	26	WSW	8	5	30.15	18	41	10.0
Mon Feb  1 03:06:22 2010	Philadelphia, Pennsylvania 	 Clear	26	SW	7	7	30.16	18	44	10.0
Mon Feb  1 03:49:54 2010	Philadelphia, Pennsylvania 	 Clear	26	SW	7	7	30.16	18	44	10.0
Mon Feb  1 04:35:32 2010	Philadelphia, Pennsylvania 	 Partly Cloudy	25	WSW	8	8	30.17	16	49	10.0
Mon Feb  1 05:19:08 2010	Philadelphia, Pennsylvania 	 Clear	24	SW	8	8	30.18	15	51	10.0
Mon Feb  1 06:04:03 2010	Philadelphia, Pennsylvania 	 Clear	24	West	10	7	30.17	14	48	10.0
Mon Feb  1 06:46:56 2010	Philadelphia, Pennsylvania 	 Clear	24	West	10	7	30.17	14	48	10.0
Mon Feb  1 07:31:01 2010	Philadelphia, Pennsylvania 	 Clear	23	West	8	8	30.19	14	53	10.0
Mon Feb  1 08:14:11 2010	Philadelphia, Pennsylvania 	 Clear	23	West	7	8	30.21	15	53	10.0
Mon Feb  1 08:57:53 2010	Philadelphia, Pennsylvania 	 Clear	24	West	8	8	30.23	15	51	10.0
Mon Feb  1 09:40:55 2010	Philadelphia, Pennsylvania 	 Clear	24	West	8	8	30.23	15	51	10.0
Mon Feb  1 10:24:16 2010	Philadelphia, Pennsylvania 	 Clear	21	West	6	8	30.25	13	57	10.0
Mon Feb  1 11:07:26 2010	Philadelphia, Pennsylvania 	 Clear	23	WSW	5	9	30.26	17	55	10.0
Mon Feb  1 11:50:41 2010	Philadelphia, Pennsylvania 	 Clear	23	WSW	5	9	30.26	17	55	10.0
Mon Feb  1 12:34:10 2010	Philadelphia, Pennsylvania 	 Clear	23	WSW	6	9	30.28	16	54	10.0
Mon Feb  1 13:17:43 2010	Philadelphia, Pennsylvania 	 Clear	22	West	5	10	30.32	16	60	10.0
Mon Feb  1 14:01:29 2010	Philadelphia, Pennsylvania 	 Clear	22	West	5	10	30.32	16	60	10.0
Mon Feb  1 14:45:58 2010	Philadelphia, Pennsylvania 	 Clear	24	West	7	11	30.35	16	57	10.0
Mon Feb  1 15:30:18 2010	Philadelphia, Pennsylvania 	 Clear	28	West	9	12	30.35	20	51	10.0
Mon Feb  1 16:14:29 2010	Philadelphia, Pennsylvania 	 Clear	28	West	9	12	30.35	20	51	10.0
Mon Feb  1 16:59:37 2010	Philadelphia, Pennsylvania 	 Clear	30	NW	13	10	30.34	20	44	10.0
Mon Feb  1 17:43:40 2010	Philadelphia, Pennsylvania 	 Clear	31	WNW	16	11	30.34	20	43	10.0
Mon Feb  1 18:26:50 2010	Philadelphia, Pennsylvania 	 Clear	33	West	9	11	30.31	26	40	10.0
Mon Feb  1 19:10:42 2010	Philadelphia, Pennsylvania 	 Clear	34	West	8	11	30.27	27	38	10.0
Mon Feb  1 19:55:42 2010	Philadelphia, Pennsylvania 	 Clear	34	West	8	11	30.27	27	38	10.0
Mon Feb  1 20:42:10 2010	Philadelphia, Pennsylvania 	 Clear	35	WSW	10	11	30.28	27	37	10.0
Mon Feb  1 21:26:58 2010	Philadelphia, Pennsylvania 	 Clear	35	West	10	11	30.28	27	37	10.0
Mon Feb  1 22:10:31 2010	Philadelphia, Pennsylvania 	 Clear	35	West	14	11	30.28	26	37	10.0
Mon Feb  1 22:53:47 2010	Philadelphia, Pennsylvania 	 Clear	35	West	14	11	30.28	26	37	10.0
Mon Feb  1 23:39:54 2010	Philadelphia, Pennsylvania 	 Clear	34	WNW	10	11	30.27	26	38	10.0
Sat Jan 30 00:26:27 2010	Philadelphia, Pennsylvania 	 Clear	22	WNW	10	1	30.32	11	40	10.0
Sat Jan 30 01:10:41 2010	Philadelphia, Pennsylvania 	 Clear	22	NW	9	2	30.32	12	42	10.0
Sat Jan 30 01:54:18 2010	Philadelphia, Pennsylvania 	 Clear	22	NW	9	2	30.32	12	42	10.0
Sat Jan 30 02:38:58 2010	Philadelphia, Pennsylvania 	 Clear	21	WNW	10	2	30.33	10	44	10.0
Sat Jan 30 03:22:35 2010	Philadelphia, Pennsylvania 	 Clear	20	WNW	7	2	30.33	11	46	10.0
Sat Jan 30 04:06:28 2010	Philadelphia, Pennsylvania 	 Clear	20	WNW	7	3	30.34	11	48	10.0
Sat Jan 30 04:50:10 2010	Philadelphia, Pennsylvania 	 Clear	20	WNW	7	3	30.34	11	48	10.0
Sat Jan 30 05:33:58 2010	Philadelphia, Pennsylvania 	 Clear	20	NW	8	3	30.34	10	48	10.0
Sat Jan 30 06:17:44 2010	Philadelphia, Pennsylvania 	 Clear	20	NNW	10	0	30.33	9	42	10.0
Sat Jan 30 07:03:21 2010	Philadelphia, Pennsylvania 	 Clear	19	NW	9	0	30.34	8	43	10.0
Sat Jan 30 07:46:53 2010	Philadelphia, Pennsylvania 	 Clear	19	NW	9	0	30.34	8	43	10.0
Sat Jan 30 08:29:58 2010	Philadelphia, Pennsylvania 	 Clear	19	NNW	12	-1	30.35	7	42	10.0
Sat Jan 30 11:59:31 2010	Philadelphia, Pennsylvania 	 Clear	17	NNW	13	-1	30.30	4	45	10.0
Sat Jan 30 12:43:18 2010	Philadelphia, Pennsylvania 	 Clear	17	NNW	13	-1	30.30	4	45	10.0
Sat Jan 30 13:26:27 2010	Philadelphia, Pennsylvania 	 Clear	16	North	10	-1	30.30	4	47	10.0
Sat Jan 30 14:10:26 2010	Philadelphia, Pennsylvania 	 Clear	16	North	10	-1	30.30	4	47	10.0
Sat Jan 30 14:54:30 2010	Philadelphia, Pennsylvania 	 Clear	17	North	8	0	30.30	7	47	10.0
Sat Jan 30 15:39:13 2010	Philadelphia, Pennsylvania 	 Clear	17	North	10	-1	30.29	5	45	10.0
Sat Jan 30 16:25:24 2010	Philadelphia, Pennsylvania 	 Scattered Clouds	18	North	13	-1	30.29	5	44	10.0
Sat Jan 30 17:09:43 2010	Philadelphia, Pennsylvania 	 Mostly Cloudy	17	North	8	-4	30.26	7	39	10.0
Sat Jan 30 17:53:11 2010	Philadelphia, Pennsylvania 	 Mostly Cloudy	17	North	8	-4	30.26	7	39	10.0
Sat Jan 30 18:37:04 2010	Philadelphia, Pennsylvania 	 Mostly Cloudy	18	NNE	10	-3	30.22	6	40	10.0
Sat Jan 30 19:20:19 2010	Philadelphia, Pennsylvania 	 Mostly Cloudy	18	North	7	-3	30.20	9	40	10.0
Sat Jan 30 20:04:24 2010	Philadelphia, Pennsylvania 	 Overcast	19	NNE	7	-3	30.19	10	38	10.0
Sat Jan 30 20:47:33 2010	Philadelphia, Pennsylvania 	 Overcast	19	NNE	7	-3	30.19	10	38	10.0
Sat Jan 30 21:31:31 2010	Philadelphia, Pennsylvania 	 Overcast	18	North	7	-2	30.17	9	41	10.0
Sat Jan 30 22:14:37 2010	Philadelphia, Pennsylvania 	 Light Snow	17	North	8	6	30.14	7	62	3.0
Sat Jan 30 22:59:21 2010	Philadelphia, Pennsylvania 	 Light Snow	17	North	8	7	30.13	7	65	7.0
Sat Jan 30 23:45:05 2010	Philadelphia, Pennsylvania 	 Light Snow	16	NNE	12	9	30.11	3	73	2.0
Sun Jan 31 00:29:06 2010	Philadelphia, Pennsylvania 	 Light Snow	16	NNE	9	10	30.10	4	79	1.8
Sun Jan 31 01:19:43 2010	Philadelphia, Pennsylvania 	 Light Snow	16	NNE	12	11	30.09	3	81	2.0
Sun Jan 31 02:03:38 2010	Philadelphia, Pennsylvania 	 Light Snow	17	NNE	8	10	30.06	7	74	7.0
Sun Jan 31 02:47:14 2010	Philadelphia, Pennsylvania 	 Light Snow	18	North	9	10	30.05	6	73	9.0
Sun Jan 31 03:31:15 2010	Philadelphia, Pennsylvania 	 Overcast	19	NNE	8	7	30.04	9	59	10.0
Sun Jan 31 04:13:59 2010	Philadelphia, Pennsylvania 	 Overcast	19	North	12	3	30.03	7	50	10.0
Sun Jan 31 04:59:06 2010	Philadelphia, Pennsylvania 	 Overcast	19	North	15	3	30.02	5	50	10.0
Sun Jan 31 05:45:20 2010	Philadelphia, Pennsylvania 	 Overcast	19	North	15	3	30.02	5	50	10.0
Sun Jan 31 06:30:23 2010	Philadelphia, Pennsylvania 	 Overcast	19	North	10	4	30.01	8	52	10.0
Sun Jan 31 07:13:27 2010	Philadelphia, Pennsylvania 	 Overcast	19	North	13	4	30.01	6	52	10.0
Sun Jan 31 08:00:03 2010	Philadelphia, Pennsylvania 	 Mostly Cloudy	18	North	14	4	30.02	4	54	10.0
Sun Jan 31 08:44:52 2010	Philadelphia, Pennsylvania 	 Mostly Cloudy	18	North	14	4	30.02	4	54	10.0
Sun Jan 31 09:27:58 2010	Philadelphia, Pennsylvania 	 Clear	18	North	13	3	30.03	4	53	10.0
Sun Jan 31 10:11:10 2010	Philadelphia, Pennsylvania 	 Clear	17	NNW	10	3	30.05	5	54	10.0
Sun Jan 31 10:54:57 2010	Philadelphia, Pennsylvania 	 Clear	17	NNW	10	3	30.05	5	54	10.0
Sun Jan 31 11:38:25 2010	Philadelphia, Pennsylvania 	 Clear	16	North	13	1	30.08	2	52	10.0
Sun Jan 31 12:22:04 2010	Philadelphia, Pennsylvania 	 Clear	16	NNW	9	1	30.09	4	53	10.0
Sun Jan 31 13:05:05 2010	Philadelphia, Pennsylvania 	 Clear	15	NNW	7	0	30.12	5	51	10.0
Sun Jan 31 13:49:09 2010	Philadelphia, Pennsylvania 	 Clear	15	NNW	7	0	30.12	5	51	10.0
Sun Jan 31 14:31:56 2010	Philadelphia, Pennsylvania 	 Clear	15	NNW	10	0	30.14	2	51	10.0
Sun Jan 31 15:15:57 2010	Philadelphia, Pennsylvania 	 Clear	17	NNW	10	0	30.17	5	47	10.0
Sun Jan 31 15:59:20 2010	Philadelphia, Pennsylvania 	 Clear	19	NNW	7	0	30.18	10	43	10.0
Sun Jan 31 16:49:07 2010	Philadelphia, Pennsylvania 	 Clear	19	NNW	7	0	30.18	10	43	10.0
Sun Jan 31 17:32:59 2010	Philadelphia, Pennsylvania 	 Clear	22	North	7	-1	30.18	13	37	10.0
Sun Jan 31 18:17:20 2010	Philadelphia, Pennsylvania 	 Clear	25	NW	6	0	30.17	18	34	10.0
Sun Jan 31 19:01:29 2010	Philadelphia, Pennsylvania 	 Clear	27	West	8	1	30.15	19	33	10.0
Sun Jan 31 19:47:01 2010	Philadelphia, Pennsylvania 	 Clear	27	West	8	1	30.15	19	33	10.0
Sun Jan 31 20:29:57 2010	Philadelphia, Pennsylvania 	 Clear	29	West	12	0	30.14	19	29	10.0
Sun Jan 31 21:14:07 2010	Philadelphia, Pennsylvania 	 Clear	29	WNW	9	0	30.14	20	29	10.0
Sun Jan 31 21:57:30 2010	Philadelphia, Pennsylvania 	 Clear	29	WNW	9	0	30.14	20	29	10.0
Sun Jan 31 22:42:19 2010	Philadelphia, Pennsylvania 	 Clear	30	West	10	0	30.13	21	28	10.0
Sun Jan 31 23:25:29 2010	Philadelphia, Pennsylvania 	 Clear	28	WSW	6	2	30.14	22	33	10.0
Thu Feb  4 00:10:57 2010	Philadelphia, Pennsylvania 	 Overcast	37	NW	4	26	30.11	34	65	10.0
Thu Feb  4 00:55:10 2010	Philadelphia, Pennsylvania 	 Overcast	37	NW	4	26	30.11	34	65	10.0
Thu Feb  4 01:38:10 2010	Philadelphia, Pennsylvania 	 Partly Cloudy	35	West	6	25	30.14	30	67	10.0
Thu Feb  4 02:25:19 2010	Philadelphia, Pennsylvania 	 Mostly Cloudy	35	NW	4	26	30.15	32	70	10.0
Thu Feb  4 03:09:13 2010	Philadelphia, Pennsylvania 	 Scattered Clouds	34	NNW	6	24	30.17	29	67	10.0
Thu Feb  4 03:53:44 2010	Philadelphia, Pennsylvania 	 Scattered Clouds	34	NNW	6	24	30.17	29	67	10.0
Thu Feb  4 04:36:56 2010	Philadelphia, Pennsylvania 	 Scattered Clouds	35	NW	8	23	30.19	29	61	10.0
Thu Feb  4 05:20:06 2010	Philadelphia, Pennsylvania 	 Partly Cloudy	33	West	4	23	30.21	30	66	10.0
Thu Feb  4 06:03:13 2010	Philadelphia, Pennsylvania 	 Overcast	32	West	4	24	30.22	29	73	10.0
Thu Feb  4 06:46:14 2010	Philadelphia, Pennsylvania 	 Overcast	32	West	4	24	30.22	29	73	10.0
Thu Feb  4 07:29:54 2010	Philadelphia, Pennsylvania 	 Scattered Clouds	32	WNW	6	22	30.23	26	66	10.0
Thu Feb  4 08:12:29 2010	Philadelphia, Pennsylvania 	 Clear	31	WNW	8	18	30.24	24	59	10.0
Thu Feb  4 08:56:13 2010	Philadelphia, Pennsylvania 	 Clear	31	WNW	8	18	30.24	24	59	10.0
Thu Feb  4 09:39:59 2010	Philadelphia, Pennsylvania 	 Clear	31	WNW	7	18	30.26	24	59	10.0
Thu Feb  4 10:23:22 2010	Philadelphia, Pennsylvania 	 Scattered Clouds	31	NW	7	17	30.27	24	57	10.0
Thu Feb  4 11:09:38 2010	Philadelphia, Pennsylvania 	 Clear	30	WNW	5	16	30.30	25	56	10.0
Thu Feb  4 11:53:10 2010	Philadelphia, Pennsylvania 	 Clear	30	WNW	5	16	30.30	25	56	10.0
Thu Feb  4 12:36:19 2010	Philadelphia, Pennsylvania 	 Clear	29	NW	5	14	30.33	24	54	10.0
Thu Feb  4 13:19:49 2010	Philadelphia, Pennsylvania 	 Clear	29	NW	7	13	30.36	22	51	10.0
Thu Feb  4 14:04:09 2010	Philadelphia, Pennsylvania 	 Clear	29	NNW	7	15	30.38	22	56	10.0
Thu Feb  4 14:56:49 2010	Philadelphia, Pennsylvania 	 Clear	29	NNW	7	15	30.38	22	56	10.0
Thu Jan 28 15:37:04 2010	Philadelphia, Pennsylvania 	 Overcast	35	Calm		23	30.05	36	61	10.0
Thu Jan 28 15:58:14 2010	Philadelphia, Pennsylvania 	 Overcast	35	Calm		23	30.05	36	61	10.0
Thu Jan 28 16:46:31 2010	Philadelphia, Pennsylvania 	 Overcast	36	WSW	5	23	30.06	32	59	10.0
Thu Jan 28 17:11:26 2010	Philadelphia, Pennsylvania 	 Overcast	40	SSW	9	25	30.01	34	55	10.0
Thu Jan 28 17:27:40 2010	Philadelphia, Pennsylvania 	 Overcast	40	SSW	9	25	30.01	34	55	10.0
Tue Feb  2 00:26:48 2010	Philadelphia, Pennsylvania 	 Clear	32	West	9	11	30.28	24	42	10.0
Tue Feb  2 01:12:20 2010	Philadelphia, Pennsylvania 	 Clear	30	West	7	12	30.29	23	47	10.0
Tue Feb  2 01:55:42 2010	Philadelphia, Pennsylvania 	 Clear	30	West	7	12	30.29	23	47	10.0
Tue Feb  2 02:39:43 2010	Philadelphia, Pennsylvania 	 Clear	29	WSW	6	13	30.29	23	51	10.0
Tue Feb  2 03:22:54 2010	Philadelphia, Pennsylvania 	 Clear	30	SW	4	14	30.29	26	51	10.0
Tue Feb  2 04:06:56 2010	Philadelphia, Pennsylvania 	 Clear	29	WSW	7	15	30.29	22	56	10.0
Tue Feb  2 04:50:33 2010	Philadelphia, Pennsylvania 	 Clear	29	WSW	7	15	30.29	22	56	10.0
Tue Feb  2 05:33:55 2010	Philadelphia, Pennsylvania 	 Clear	27	West	7	16	30.30	20	63	10.0
Tue Feb  2 06:16:52 2010	Philadelphia, Pennsylvania 	 Clear	27	West	5	15	30.30	22	61	10.0
Tue Feb  2 07:04:21 2010	Philadelphia, Pennsylvania 	 Clear	26	Calm		15	30.29	27	63	10.0
Tue Feb  2 07:47:26 2010	Philadelphia, Pennsylvania 	 Clear	26	Calm		15	30.29	27	63	10.0
Tue Feb  2 08:30:32 2010	Philadelphia, Pennsylvania 	 Clear	27	NW	5	15	30.29	22	61	10.0
Tue Feb  2 09:14:00 2010	Philadelphia, Pennsylvania 	 Clear	24	NNW	4	15	30.29	20	69	10.0
Tue Feb  2 09:57:32 2010	Philadelphia, Pennsylvania 	 Clear	24	NNW	4	15	30.29	20	69	10.0
Tue Feb  2 10:41:10 2010	Philadelphia, Pennsylvania 	 Clear	25	NNW	5	15	30.28	19	66	10.0
Tue Feb  2 11:25:15 2010	Philadelphia, Pennsylvania 	 Clear	23	Calm		14	30.29	23	68	10.0
Tue Feb  2 12:08:49 2010	Philadelphia, Pennsylvania 	 Clear	23	Calm		14	30.30	23	68	10.0
Tue Feb  2 12:53:07 2010	Philadelphia, Pennsylvania 	 Clear	23	Calm		14	30.30	23	68	10.0
Tue Feb  2 13:36:26 2010	Philadelphia, Pennsylvania 	 Partly Cloudy	21	Calm		14	30.29	21	74	10.0
Tue Feb  2 14:19:56 2010	Philadelphia, Pennsylvania 	 Clear	22	Calm		16	30.29	21	78	10.0
Tue Feb  2 15:04:27 2010	Philadelphia, Pennsylvania 	 Mostly Cloudy	27	NE	9	14	30.30	18	58	10.0
Tue Feb  2 15:50:45 2010	Philadelphia, Pennsylvania 	 Mostly Cloudy	27	NE	9	14	30.30	18	58	10.0
Tue Feb  2 16:43:25 2010	Philadelphia, Pennsylvania 	 Scattered Clouds	30	ENE	8	12	30.30	22	47	10.0
Tue Feb  2 17:31:00 2010	Philadelphia, Pennsylvania 	 Scattered Clouds	32	East	8	11	30.27	25	42	10.0
Tue Feb  2 18:16:25 2010	Philadelphia, Pennsylvania 	 Mostly Cloudy	33	ESE	9	12	30.25	26	42	10.0
Tue Feb  2 19:00:27 2010	Philadelphia, Pennsylvania 	 Overcast	33	SE	5	13	30.23	29	43	10.0
Tue Feb  2 19:49:33 2010	Philadelphia, Pennsylvania 	 Overcast	33	SE	5	13	30.23	29	43	10.0
Tue Feb  2 20:41:08 2010	Philadelphia, Pennsylvania 	 Overcast	34	East	4	15	30.20	31	46	10.0
Tue Feb  2 21:27:42 2010	Philadelphia, Pennsylvania 	 Mostly Cloudy	35	East	4	15	30.20	32	44	10.0
Tue Feb  2 22:15:24 2010	Philadelphia, Pennsylvania 	 Overcast	35	East	6	17	30.18	30	48	10.0
Tue Feb  2 23:00:39 2010	Philadelphia, Pennsylvania 	 Overcast	35	East	6	18	30.17	30	50	10.0
Tue Feb  2 23:45:38 2010	Philadelphia, Pennsylvania 	 Overcast	35	East	6	18	30.17	30	50	10.0
Wed Feb  3 00:30:32 2010	Philadelphia, Pennsylvania 	 Overcast	34	East	8	20	30.17	27	56	10.0
Wed Feb  3 01:17:33 2010	Philadelphia, Pennsylvania 	 Overcast	34	ESE	6	21	30.17	29	59	10.0
Wed Feb  3 02:02:20 2010	Philadelphia, Pennsylvania 	 Overcast	33	East	6	22	30.17	28	64	10.0
Wed Feb  3 02:51:04 2010	Philadelphia, Pennsylvania 	 Overcast	33	East	6	22	30.17	28	64	10.0
Wed Feb  3 03:38:02 2010	Philadelphia, Pennsylvania 	 Overcast	33	NE	5	22	30.14	29	64	10.0
Wed Feb  3 04:26:08 2010	Philadelphia, Pennsylvania 	 Overcast	33	NNE	5	22	30.13	29	64	10.0
Wed Feb  3 05:12:35 2010	Philadelphia, Pennsylvania 	 Overcast	33	NNE	6	24	30.12	28	70	10.0
Wed Feb  3 06:00:43 2010	Philadelphia, Pennsylvania 	 Light Snow	30	NNE	4	27	30.10	26	88	2.5
Wed Feb  3 06:47:30 2010	Philadelphia, Pennsylvania 	 Light Snow	30	NNE	6	28	30.08	24	93	3.0
Wed Feb  3 07:32:05 2010	Philadelphia, Pennsylvania 	 Light Snow	30	North	6	28	30.07	24	93	2.0
Wed Feb  3 08:15:10 2010	Philadelphia, Pennsylvania 	 Light Snow	31	NNE	6	29	30.06	25	92	2.5
Wed Feb  3 09:01:39 2010	Philadelphia, Pennsylvania 	 Light Snow	30	NE	4	29	30.06	26	96	3.0
Wed Feb  3 09:45:01 2010	Philadelphia, Pennsylvania 	 Light Snow	30	NNE	4	28	30.05	27	93	1.8
Wed Feb  3 10:29:00 2010	Philadelphia, Pennsylvania 	 Light Snow	30	NE	4	28	30.05	27	93	2.5
Wed Feb  3 11:15:46 2010	Philadelphia, Pennsylvania 	 Light Snow	30	Calm		29	30.06	30	96	1.5
Wed Feb  3 12:00:35 2010	Philadelphia, Pennsylvania 	 Light Snow	29	Calm		29	30.06	28	100	3.0
Wed Feb  3 12:43:43 2010	Philadelphia, Pennsylvania 	 Overcast	30	NNW	4	28	30.06	27	93	4.0
Wed Feb  3 13:27:24 2010	Philadelphia, Pennsylvania 	 Overcast	30	NNW	4	28	30.07	27	93	5.0
Wed Feb  3 14:13:01 2010	Philadelphia, Pennsylvania 	 Overcast	30	NNW	6	29	30.09	24	96	4.0
Wed Feb  3 14:58:54 2010	Philadelphia, Pennsylvania 	 Overcast	30	WNW	4	28	30.10	27	93	4.0
Wed Feb  3 15:44:02 2010	Philadelphia, Pennsylvania 	 Overcast	31	WNW	4	30	30.10	28	96	4.0
Wed Feb  3 16:29:40 2010	Philadelphia, Pennsylvania 	 Overcast	32	NW	7	28	30.10	26	87	8.0
Wed Feb  3 17:17:08 2010	Philadelphia, Pennsylvania 	 Overcast	32	WNW	6	29	30.09	26	88	8.0
Wed Feb  3 18:05:42 2010	Philadelphia, Pennsylvania 	 Mostly Cloudy	34	WNW	8	30	30.07	27	85	9.0
Wed Feb  3 18:48:45 2010	Philadelphia, Pennsylvania 	 Scattered Clouds	36	WNW	9	30	30.06	29	81	10.0
Wed Feb  3 19:32:38 2010	Philadelphia, Pennsylvania 	 Partly Cloudy	37	West	10	30	30.06	30	76	10.0
Wed Feb  3 20:16:23 2010	Philadelphia, Pennsylvania 	 Scattered Clouds	38	NW	13	28	30.05	30	68	10.0
Wed Feb  3 21:01:11 2010	Philadelphia, Pennsylvania 	 Mostly Cloudy	39	West	12	28	30.05	32	65	10.0
Wed Feb  3 21:48:56 2010	Philadelphia, Pennsylvania 	 Overcast	39	WNW	12	28	30.05	32	65	10.0
Wed Feb  3 22:34:27 2010	Philadelphia, Pennsylvania 	 Overcast	37	NW	12	28	30.06	29	70	9.0
Wed Feb  3 23:25:16 2010	Philadelphia, Pennsylvania 	 Clear	37	NW	9	26	30.08	30	65	10.0
Fri Jan 29 08:39:16 2010	Phoenix, Arizona 	 Mostly Cloudy	55	ESE	7	49	30.01		80	10.0
Fri Jan 29 09:23:12 2010	Phoenix, Arizona 	 Scattered Clouds	53	ESE	8	48	30.01		83	10.0
Fri Jan 29 11:55:13 2010	Phoenix, Arizona 	 Mostly Cloudy	53	East	5	48	30.01		83	10.0
Fri Jan 29 12:39:46 2010	Phoenix, Arizona 	 Mostly Cloudy	53	East	5	48	30.01		83	10.0
Fri Jan 29 13:26:17 2010	Phoenix, Arizona 	 Mostly Cloudy	53	East	8	48	30.01		83	10.0
Fri Jan 29 14:15:05 2010	Phoenix, Arizona 	 Scattered Clouds	51	East	5	48	30.01		89	10.0
Fri Jan 29 14:59:45 2010	Phoenix, Arizona 	 Scattered Clouds	51	ESE	4	48	30.02		89	10.0
Fri Jan 29 15:45:43 2010	Phoenix, Arizona 	 Scattered Clouds	51	ESE	4	48	30.02		89	10.0
Fri Jan 29 16:33:03 2010	Phoenix, Arizona 	 Scattered Clouds	51	East	4	48	30.03		89	10.0
Fri Jan 29 17:17:36 2010	Phoenix, Arizona 	 Scattered Clouds	54	East	4	49	30.06		83	10.0
Fri Jan 29 18:05:54 2010	Phoenix, Arizona 	 Scattered Clouds	56	East	6	48	30.07		75	10.0
Fri Jan 29 18:50:32 2010	Phoenix, Arizona 	 Scattered Clouds	56	East	6	48	30.07		75	10.0
Fri Jan 29 19:43:01 2010	Phoenix, Arizona 	 Scattered Clouds	59	East	6	48	30.07		67	10.0
Fri Jan 29 20:41:06 2010	Phoenix, Arizona 	 Mostly Cloudy	59	Calm		47	30.05		64	10.0
Fri Jan 29 21:25:02 2010	Phoenix, Arizona 	 Scattered Clouds	62	Calm		47	30.02		58	10.0
Fri Jan 29 22:11:06 2010	Phoenix, Arizona 	 Scattered Clouds	64	Calm		45	29.99		50	10.0
Fri Jan 29 22:57:26 2010	Phoenix, Arizona 	 Scattered Clouds	64	Calm		42	29.98		45	10.0
Fri Jan 29 23:41:28 2010	Phoenix, Arizona 	 Scattered Clouds	64	Calm		42	29.98		45	10.0
Mon Feb  1 00:08:26 2010	Phoenix, Arizona 	 Scattered Clouds	69	SW	7	39	29.83		33	10.0
Mon Feb  1 00:51:40 2010	Phoenix, Arizona 	 Scattered Clouds	69	SW	7	39	29.83		33	10.0
Mon Feb  1 01:36:25 2010	Phoenix, Arizona 	 Scattered Clouds	68	SW	6	39	29.84		35	10.0
Mon Feb  1 02:21:17 2010	Phoenix, Arizona 	 Scattered Clouds	66	West	6	39	29.85		37	10.0
Mon Feb  1 03:05:26 2010	Phoenix, Arizona 	 Scattered Clouds	65	West	7	40	29.87		40	10.0
Mon Feb  1 03:48:58 2010	Phoenix, Arizona 	 Scattered Clouds	65	West	7	40	29.87		40	10.0
Mon Feb  1 04:34:37 2010	Phoenix, Arizona 	 Scattered Clouds	60	SW	5	47	29.88		62	10.0
Mon Feb  1 05:18:14 2010	Phoenix, Arizona 	 Scattered Clouds	58	SW	4	47	29.90		67	10.0
Mon Feb  1 06:03:08 2010	Phoenix, Arizona 	 Scattered Clouds	58	Calm		43	29.90		58	10.0
Mon Feb  1 06:46:00 2010	Phoenix, Arizona 	 Scattered Clouds	58	Calm		43	29.90		58	10.0
Mon Feb  1 07:30:03 2010	Phoenix, Arizona 	 Scattered Clouds	58	Calm		42	29.90		56	10.0
Mon Feb  1 08:13:15 2010	Phoenix, Arizona 	 Mostly Cloudy	57	Calm		42	29.90		57	10.0
Mon Feb  1 08:56:58 2010	Phoenix, Arizona 	 Mostly Cloudy	54	ESE	5	44	29.91		69	10.0
Mon Feb  1 09:39:59 2010	Phoenix, Arizona 	 Mostly Cloudy	54	ESE	5	44	29.91		69	10.0
Mon Feb  1 10:23:20 2010	Phoenix, Arizona 	 Scattered Clouds	53	ESE	4	43	29.91		69	10.0
Mon Feb  1 11:06:27 2010	Phoenix, Arizona 	 Scattered Clouds	51	East	5	43	29.92		74	10.0
Mon Feb  1 11:49:45 2010	Phoenix, Arizona 	 Scattered Clouds	51	East	5	43	29.92		74	10.0
Mon Feb  1 12:33:17 2010	Phoenix, Arizona 	 Scattered Clouds	51	East	4	43	29.92		74	10.0
Mon Feb  1 13:16:43 2010	Phoenix, Arizona 	 Partly Cloudy	50	ESE	4	43	29.92	49	77	10.0
Mon Feb  1 14:00:33 2010	Phoenix, Arizona 	 Partly Cloudy	50	ESE	6	42	29.93	48	74	10.0
Mon Feb  1 14:45:05 2010	Phoenix, Arizona 	 Partly Cloudy	50	ESE	6	42	29.93	48	74	10.0
Mon Feb  1 15:29:22 2010	Phoenix, Arizona 	 Scattered Clouds	49	ESE	5	41	29.94	47	74	10.0
Mon Feb  1 16:13:33 2010	Phoenix, Arizona 	 Mostly Cloudy	49	East	6	41	29.95	46	74	10.0
Mon Feb  1 16:58:43 2010	Phoenix, Arizona 	 Mostly Cloudy	51	East	6	41	29.96		68	10.0
Mon Feb  1 17:42:45 2010	Phoenix, Arizona 	 Mostly Cloudy	51	East	6	41	29.96		68	10.0
Mon Feb  1 18:25:54 2010	Phoenix, Arizona 	 Mostly Cloudy	55	East	8	41	29.97		59	10.0
Mon Feb  1 19:09:39 2010	Phoenix, Arizona 	 Mostly Cloudy	58	East	7	40	29.98		51	10.0
Mon Feb  1 19:54:47 2010	Phoenix, Arizona 	 Mostly Cloudy	61	East	5	42	29.96		50	10.0
Mon Feb  1 20:41:14 2010	Phoenix, Arizona 	 Mostly Cloudy	61	East	5	42	29.96		50	10.0
Mon Feb  1 21:26:01 2010	Phoenix, Arizona 	 Mostly Cloudy	63	Calm		40	29.92		43	10.0
Mon Feb  1 22:09:34 2010	Phoenix, Arizona 	 Mostly Cloudy	65	Calm		40	29.89		40	10.0
Mon Feb  1 22:52:48 2010	Phoenix, Arizona 	 Mostly Cloudy	65	Calm		40	29.89		40	10.0
Mon Feb  1 23:38:55 2010	Phoenix, Arizona 	 Mostly Cloudy	65	Calm		35	29.88		33	10.0
Sat Jan 30 00:25:33 2010	Phoenix, Arizona 	 Scattered Clouds	66	ESE	4	43	29.97		43	10.0
Sat Jan 30 01:09:38 2010	Phoenix, Arizona 	 Scattered Clouds	65	SW	4	42	29.97		43	10.0
Sat Jan 30 01:53:22 2010	Phoenix, Arizona 	 Scattered Clouds	65	SW	4	42	29.97		43	10.0
Sat Jan 30 02:38:02 2010	Phoenix, Arizona 	 Scattered Clouds	63	SSW	4	44	29.98		50	10.0
Sat Jan 30 03:21:39 2010	Phoenix, Arizona 	 Scattered Clouds	61	Calm		47	29.99		60	10.0
Sat Jan 30 04:05:32 2010	Phoenix, Arizona 	 Scattered Clouds	60	Calm		46	29.99		60	10.0
Sat Jan 30 04:49:14 2010	Phoenix, Arizona 	 Scattered Clouds	60	Calm		46	29.99		60	10.0
Sat Jan 30 05:33:05 2010	Phoenix, Arizona 	 Scattered Clouds	59	Calm		46	29.99		62	10.0
Sat Jan 30 06:16:45 2010	Phoenix, Arizona 	 Scattered Clouds	57	Calm		48	29.99		72	10.0
Sat Jan 30 07:02:25 2010	Phoenix, Arizona 	 Scattered Clouds	56	ENE	4	46	29.99		69	10.0
Sat Jan 30 07:45:57 2010	Phoenix, Arizona 	 Scattered Clouds	56	ENE	4	46	29.99		69	10.0
Sat Jan 30 08:28:59 2010	Phoenix, Arizona 	 Mostly Cloudy	54	East	5	45	29.98		72	10.0
Sat Jan 30 11:58:35 2010	Phoenix, Arizona 	 Scattered Clouds	52	SE	6	44	29.96		74	10.0
Sat Jan 30 12:42:22 2010	Phoenix, Arizona 	 Scattered Clouds	52	SE	6	44	29.96		74	10.0
Sat Jan 30 13:25:35 2010	Phoenix, Arizona 	 Scattered Clouds	52	ESE	7	43	29.95		71	10.0
Sat Jan 30 14:09:18 2010	Phoenix, Arizona 	 Scattered Clouds	51	East	7	42	29.95		71	10.0
Sat Jan 30 14:53:33 2010	Phoenix, Arizona 	 Scattered Clouds	51	East	7	42	29.95		71	10.0
Sat Jan 30 15:38:10 2010	Phoenix, Arizona 	 Mostly Cloudy	50	East	6	43	29.97	48	76	10.0
Sat Jan 30 16:24:25 2010	Phoenix, Arizona 	 Mostly Cloudy	52	Calm		42	29.97		69	10.0
Sat Jan 30 17:08:45 2010	Phoenix, Arizona 	 Mostly Cloudy	55	ENE	8	40	29.98		57	10.0
Sat Jan 30 17:52:15 2010	Phoenix, Arizona 	 Mostly Cloudy	55	ENE	8	40	29.98		57	10.0
Sat Jan 30 18:36:06 2010	Phoenix, Arizona 	 Mostly Cloudy	58	East	10	38	29.98		47	10.0
Sat Jan 30 19:19:21 2010	Phoenix, Arizona 	 Mostly Cloudy	60	ENE	12	37	29.98		42	10.0
Sat Jan 30 20:03:27 2010	Phoenix, Arizona 	 Mostly Cloudy	62	ENE	7	36	29.96		38	10.0
Sat Jan 30 20:46:37 2010	Phoenix, Arizona 	 Mostly Cloudy	62	ENE	7	36	29.96		38	10.0
Sat Jan 30 21:30:39 2010	Phoenix, Arizona 	 Mostly Cloudy	64	ENE	7	36	29.92		35	10.0
Sat Jan 30 22:13:40 2010	Phoenix, Arizona 	 Mostly Cloudy	65	Variable	5	36	29.90		34	10.0
Sat Jan 30 22:58:28 2010	Phoenix, Arizona 	 Mostly Cloudy	66	East	12	36	29.87		33	10.0
Sat Jan 30 23:44:10 2010	Phoenix, Arizona 	 Mostly Cloudy	66	East	12	36	29.87		33	10.0
Sun Jan 31 00:28:11 2010	Phoenix, Arizona 	 Mostly Cloudy	67	East	10	36	29.86		32	10.0
Sun Jan 31 01:18:48 2010	Phoenix, Arizona 	 Scattered Clouds	67	ESE	6	36	29.86		32	10.0
Sun Jan 31 02:02:42 2010	Phoenix, Arizona 	 Scattered Clouds	65	East	6	38	29.87		37	10.0
Sun Jan 31 02:46:18 2010	Phoenix, Arizona 	 Scattered Clouds	65	East	6	38	29.87		37	10.0
Sun Jan 31 03:30:22 2010	Phoenix, Arizona 	 Partly Cloudy	63	East	4	38	29.88		40	10.0
Sun Jan 31 04:13:03 2010	Phoenix, Arizona 	 Partly Cloudy	60	ENE	4	42	29.88		51	10.0
Sun Jan 31 04:58:10 2010	Phoenix, Arizona 	 Partly Cloudy	60	ENE	4	42	29.88		51	10.0
Sun Jan 31 05:44:24 2010	Phoenix, Arizona 	 Partly Cloudy	57	Calm		48	29.89		72	10.0
Sun Jan 31 06:29:27 2010	Phoenix, Arizona 	 Partly Cloudy	57	Calm		43	29.88		59	10.0
Sun Jan 31 07:12:31 2010	Phoenix, Arizona 	 Clear	56	East	5	41	29.88		57	10.0
Sun Jan 31 07:59:07 2010	Phoenix, Arizona 	 Clear	53	ESE	5	42	29.87		66	10.0
Sun Jan 31 08:43:56 2010	Phoenix, Arizona 	 Clear	53	ESE	5	42	29.87		66	10.0
Sun Jan 31 09:27:05 2010	Phoenix, Arizona 	 Clear	52	ESE	4	42	29.87		69	10.0
Sun Jan 31 10:10:16 2010	Phoenix, Arizona 	 Clear	51	East	4	41	29.87		68	10.0
Sun Jan 31 10:54:01 2010	Phoenix, Arizona 	 Clear	51	East	4	41	29.87		68	10.0
Sun Jan 31 11:37:30 2010	Phoenix, Arizona 	 Clear	50	Calm		42	29.86	50	74	10.0
Sun Jan 31 12:21:08 2010	Phoenix, Arizona 	 Clear	51	Calm		40	29.86		66	10.0
Sun Jan 31 13:04:10 2010	Phoenix, Arizona 	 Clear	51	Calm		40	29.86		66	10.0
Sun Jan 31 13:48:13 2010	Phoenix, Arizona 	 Scattered Clouds	50	Calm		43	29.88	50	76	10.0
Sun Jan 31 14:30:59 2010	Phoenix, Arizona 	 Scattered Clouds	48	Calm		41	29.87	48	77	10.0
Sun Jan 31 15:14:57 2010	Phoenix, Arizona 	 Mostly Cloudy	48	East	5	40	29.88	46	74	10.0
Sun Jan 31 15:58:22 2010	Phoenix, Arizona 	 Mostly Cloudy	49	Calm		42	29.90	48	77	10.0
Sun Jan 31 16:48:10 2010	Phoenix, Arizona 	 Mostly Cloudy	49	Calm		42	29.90	48	77	10.0
Sun Jan 31 17:32:06 2010	Phoenix, Arizona 	 Mostly Cloudy	51	Calm		41	29.91		68	10.0
Sun Jan 31 18:16:24 2010	Phoenix, Arizona 	 Mostly Cloudy	56	East	4	41	29.92		57	10.0
Sun Jan 31 19:00:31 2010	Phoenix, Arizona 	 Mostly Cloudy	61	East	6	40	29.92		46	10.0
Sun Jan 31 19:46:05 2010	Phoenix, Arizona 	 Mostly Cloudy	61	East	6	40	29.92		46	10.0
Sun Jan 31 20:29:05 2010	Phoenix, Arizona 	 Mostly Cloudy	63	NNE	5	39	29.91		41	10.0
Sun Jan 31 21:13:12 2010	Phoenix, Arizona 	 Scattered Clouds	65	Calm		39	29.87		39	10.0
Sun Jan 31 21:56:34 2010	Phoenix, Arizona 	 Scattered Clouds	66	Calm		39	29.85		37	10.0
Sun Jan 31 22:41:23 2010	Phoenix, Arizona 	 Scattered Clouds	66	Calm		39	29.85		37	10.0
Sun Jan 31 23:24:28 2010	Phoenix, Arizona 	 Scattered Clouds	67	Calm		39	29.83		36	10.0
Thu Feb  4 00:09:58 2010	Phoenix, Arizona 	 Mostly Cloudy	69	SSE	8	39	29.59		33	10.0
Thu Feb  4 00:54:14 2010	Phoenix, Arizona 	 Mostly Cloudy	69	SSE	8	39	29.59		33	10.0
Thu Feb  4 01:37:15 2010	Phoenix, Arizona 	 Mostly Cloudy	69	South	7	39	29.60		33	10.0
Thu Feb  4 02:24:24 2010	Phoenix, Arizona 	 Mostly Cloudy	68	South	6	40	29.62		36	10.0
Thu Feb  4 03:08:20 2010	Phoenix, Arizona 	 Overcast	67	NE	8	42	29.65		40	10.0
Thu Feb  4 03:52:50 2010	Phoenix, Arizona 	 Overcast	67	NE	8	42	29.65		40	10.0
Thu Feb  4 04:36:01 2010	Phoenix, Arizona 	 Overcast	62	Calm		49	29.65		62	10.0
Thu Feb  4 05:19:12 2010	Phoenix, Arizona 	 Mostly Cloudy	61	SE	8	51	29.66		70	10.0
Thu Feb  4 06:02:19 2010	Phoenix, Arizona 	 Mostly Cloudy	61	SE	8	51	29.66		70	10.0
Thu Feb  4 06:45:22 2010	Phoenix, Arizona 	 Mostly Cloudy	61	SSE	10	48	29.70		63	10.0
Thu Feb  4 07:28:56 2010	Phoenix, Arizona 	 Partly Cloudy	57	SE	9	47	29.70		69	10.0
Thu Feb  4 08:11:36 2010	Phoenix, Arizona 	 Partly Cloudy	56	SE	10	47	29.72		72	10.0
Thu Feb  4 08:55:20 2010	Phoenix, Arizona 	 Partly Cloudy	55	East	7	48	29.75		77	10.0
Thu Feb  4 09:39:04 2010	Phoenix, Arizona 	 Partly Cloudy	55	East	7	48	29.75		77	10.0
Thu Feb  4 10:22:28 2010	Phoenix, Arizona 	 Scattered Clouds	54	East	4	48	29.75		80	10.0
Thu Feb  4 11:08:42 2010	Phoenix, Arizona 	 Partly Cloudy	53	ESE	7	47	29.76		80	10.0
Thu Feb  4 11:52:18 2010	Phoenix, Arizona 	 Partly Cloudy	53	ESE	7	47	29.76		80	10.0
Thu Feb  4 12:35:23 2010	Phoenix, Arizona 	 Clear	52	East	6	47	29.77		83	10.0
Thu Feb  4 13:18:53 2010	Phoenix, Arizona 	 Clear	51	East	6	46	29.80		83	10.0
Thu Feb  4 14:03:14 2010	Phoenix, Arizona 	 Clear	50	East	5	45	29.82	48	83	10.0
Thu Feb  4 14:55:55 2010	Phoenix, Arizona 	 Partly Cloudy	50	East	8	47	29.82	47	89	10.0
Thu Jan 28 15:36:08 2010	Phoenix, Arizona 	 Overcast	52	SSE	7	50	29.86		93	6.0
Thu Jan 28 15:57:17 2010	Phoenix, Arizona 	 Overcast	52	SSE	4	48	29.88		86	10.0
Thu Jan 28 16:45:35 2010	Phoenix, Arizona 	 Overcast	52	SSE	4	48	29.88		86	10.0
Thu Jan 28 17:10:29 2010	Phoenix, Arizona 	 Overcast	54	Calm		50	29.91		86	10.0
Thu Jan 28 17:26:39 2010	Phoenix, Arizona 	 Overcast	54	Calm		50	29.91		86	10.0
Tue Feb  2 00:25:50 2010	Phoenix, Arizona 	 Overcast	67	WSW	5	35	29.87		31	10.0
Tue Feb  2 01:11:22 2010	Phoenix, Arizona 	 Overcast	66	Calm		35	29.87		32	10.0
Tue Feb  2 01:54:46 2010	Phoenix, Arizona 	 Overcast	64	South	5	38	29.88		38	10.0
Tue Feb  2 02:38:47 2010	Phoenix, Arizona 	 Overcast	64	South	5	38	29.88		38	10.0
Tue Feb  2 03:21:59 2010	Phoenix, Arizona 	 Mostly Cloudy	62	SW	4	40	29.88		44	10.0
Tue Feb  2 04:06:01 2010	Phoenix, Arizona 	 Mostly Cloudy	62	Calm		39	29.88		43	10.0
Tue Feb  2 04:49:37 2010	Phoenix, Arizona 	 Mostly Cloudy	62	Calm		39	29.88		43	10.0
Tue Feb  2 05:32:59 2010	Phoenix, Arizona 	 Mostly Cloudy	62	North	6	35	29.87		37	10.0
Tue Feb  2 06:15:56 2010	Phoenix, Arizona 	 Mostly Cloudy	57	Calm		43	29.88		59	10.0
Tue Feb  2 07:03:25 2010	Phoenix, Arizona 	 Mostly Cloudy	57	Calm		40	29.88		53	10.0
Tue Feb  2 07:46:30 2010	Phoenix, Arizona 	 Mostly Cloudy	57	Calm		40	29.88		53	10.0
Tue Feb  2 08:29:36 2010	Phoenix, Arizona 	 Overcast	56	Calm		42	29.87		60	10.0
Tue Feb  2 09:13:04 2010	Phoenix, Arizona 	 Overcast	55	East	4	42	29.87		62	10.0
Tue Feb  2 09:56:36 2010	Phoenix, Arizona 	 Overcast	54	Calm		42	29.87		64	10.0
Tue Feb  2 10:40:14 2010	Phoenix, Arizona 	 Overcast	54	Calm		42	29.87		64	10.0
Tue Feb  2 11:24:19 2010	Phoenix, Arizona 	 Overcast	52	ESE	5	43	29.86		71	10.0
Tue Feb  2 12:07:53 2010	Phoenix, Arizona 	 Mostly Cloudy	54	Calm		43	29.87		67	10.0
Tue Feb  2 12:52:11 2010	Phoenix, Arizona 	 Mostly Cloudy	54	Calm		43	29.87		67	10.0
Tue Feb  2 13:35:31 2010	Phoenix, Arizona 	 Mostly Cloudy	52	Calm		41	29.85		66	10.0
Tue Feb  2 14:18:59 2010	Phoenix, Arizona 	 Scattered Clouds	52	ESE	4	44	29.85		74	10.0
Tue Feb  2 15:03:29 2010	Phoenix, Arizona 	 Mostly Cloudy	53	Calm		39	29.85		59	10.0
Tue Feb  2 15:49:51 2010	Phoenix, Arizona 	 Mostly Cloudy	53	Calm		39	29.85		59	10.0
Tue Feb  2 16:42:29 2010	Phoenix, Arizona 	 Mostly Cloudy	54	ESE	6	39	29.85		57	10.0
Tue Feb  2 17:30:06 2010	Phoenix, Arizona 	 Overcast	56	East	6	39	29.85		53	10.0
Tue Feb  2 18:15:30 2010	Phoenix, Arizona 	 Mostly Cloudy	61	East	5	37	29.87		42	10.0
Tue Feb  2 18:59:31 2010	Phoenix, Arizona 	 Mostly Cloudy	63	East	8	37	29.85		38	10.0
Tue Feb  2 19:48:33 2010	Phoenix, Arizona 	 Mostly Cloudy	63	East	8	37	29.85		38	10.0
Tue Feb  2 20:40:13 2010	Phoenix, Arizona 	 Mostly Cloudy	67	East	5	36	29.81		32	10.0
Tue Feb  2 21:26:46 2010	Phoenix, Arizona 	 Mostly Cloudy	68	Variable	5	36	29.78		31	10.0
Tue Feb  2 22:14:29 2010	Phoenix, Arizona 	 Mostly Cloudy	71	East	6	36	29.75		28	10.0
Tue Feb  2 22:59:43 2010	Phoenix, Arizona 	 Mostly Cloudy	71	Calm		36	29.73		28	10.0
Tue Feb  2 23:44:42 2010	Phoenix, Arizona 	 Mostly Cloudy	71	Calm		36	29.73		28	10.0
Wed Feb  3 00:29:36 2010	Phoenix, Arizona 	 Mostly Cloudy	72	SSE	4	38	29.71		29	10.0
Wed Feb  3 01:16:36 2010	Phoenix, Arizona 	 Mostly Cloudy	71	East	4	38	29.70		30	10.0
Wed Feb  3 02:01:26 2010	Phoenix, Arizona 	 Mostly Cloudy	70	Calm		39	29.70		32	10.0
Wed Feb  3 02:50:10 2010	Phoenix, Arizona 	 Mostly Cloudy	70	Calm		39	29.70		32	10.0
Wed Feb  3 03:37:06 2010	Phoenix, Arizona 	 Mostly Cloudy	67	Calm		43	29.70		42	10.0
Wed Feb  3 04:25:11 2010	Phoenix, Arizona 	 Mostly Cloudy	63	SW	4	47	29.71		56	10.0
Wed Feb  3 05:11:45 2010	Phoenix, Arizona 	 Overcast	62	SW	5	45	29.69		53	10.0
Wed Feb  3 05:59:46 2010	Phoenix, Arizona 	 Mostly Cloudy	60	SW	5	47	29.68		62	10.0
Wed Feb  3 06:46:35 2010	Phoenix, Arizona 	 Mostly Cloudy	60	SW	5	47	29.68		62	10.0
Wed Feb  3 07:31:11 2010	Phoenix, Arizona 	 Overcast	61	WSW	4	46	29.69		59	10.0
Wed Feb  3 08:14:16 2010	Phoenix, Arizona 	 Overcast	59	WSW	4	45	29.66		60	10.0
Wed Feb  3 09:00:39 2010	Phoenix, Arizona 	 Overcast	57	WSW	5	45	29.65		64	10.0
Wed Feb  3 09:44:08 2010	Phoenix, Arizona 	 Overcast	57	WSW	5	45	29.65		64	10.0
Wed Feb  3 10:28:06 2010	Phoenix, Arizona 	 Overcast	56	SW	5	45	29.63		67	10.0
Wed Feb  3 11:14:50 2010	Phoenix, Arizona 	 Overcast	58	West	5	42	29.61		56	10.0
Wed Feb  3 11:59:36 2010	Phoenix, Arizona 	 Overcast	56	WSW	4	44	29.60		64	10.0
Wed Feb  3 12:42:48 2010	Phoenix, Arizona 	 Overcast	56	WSW	4	44	29.60		64	10.0
Wed Feb  3 13:26:32 2010	Phoenix, Arizona 	 Overcast	55	Calm		44	29.59		67	10.0
Wed Feb  3 14:12:02 2010	Phoenix, Arizona 	 Overcast	55	WSW	4	43	29.59		64	10.0
Wed Feb  3 14:58:01 2010	Phoenix, Arizona 	 Mostly Cloudy	55	Calm		42	29.59		62	10.0
Wed Feb  3 15:43:08 2010	Phoenix, Arizona 	 Mostly Cloudy	55	Calm		42	29.59		62	10.0
Wed Feb  3 16:28:48 2010	Phoenix, Arizona 	 Mostly Cloudy	54	Calm		43	29.60		66	10.0
Wed Feb  3 17:16:12 2010	Phoenix, Arizona 	 Mostly Cloudy	57	SW	4	42	29.61		57	10.0
Wed Feb  3 18:04:47 2010	Phoenix, Arizona 	 Mostly Cloudy	59	WSW	5	41	29.62		51	10.0
Wed Feb  3 18:47:52 2010	Phoenix, Arizona 	 Mostly Cloudy	59	WSW	5	41	29.62		51	10.0
Wed Feb  3 19:31:40 2010	Phoenix, Arizona 	 Mostly Cloudy	61	Calm		40	29.62		46	10.0
Wed Feb  3 20:15:24 2010	Phoenix, Arizona 	 Mostly Cloudy	67	ESE	6	36	29.61		32	10.0
Wed Feb  3 21:00:09 2010	Phoenix, Arizona 	 Mostly Cloudy	69	Calm		36	29.59		30	10.0
Wed Feb  3 21:48:00 2010	Phoenix, Arizona 	 Mostly Cloudy	69	Calm		36	29.59		30	10.0
Wed Feb  3 22:33:31 2010	Phoenix, Arizona 	 Mostly Cloudy	70	SSW	4	36	29.57		29	10.0
Wed Feb  3 23:24:21 2010	Phoenix, Arizona 	 Mostly Cloudy	70	SSE	8	37	29.57		30	10.0
Fri Jan 29 08:39:20 2010	Portland, Oregon 	 Overcast	48	ESE	13	35	30.00	43	61	10.0
Fri Jan 29 09:23:16 2010	Portland, Oregon 	 Overcast	47	East	9	36	29.99	43	66	10.0
Fri Jan 29 11:55:18 2010	Portland, Oregon 	 Overcast	47	NE	6	36	29.95	44	66	10.0
Fri Jan 29 12:39:50 2010	Portland, Oregon 	 Overcast	49	ESE	12	35	29.96	44	59	10.0
Fri Jan 29 13:26:22 2010	Portland, Oregon 	 Overcast	48	East	14	35	29.98	42	61	10.0
Fri Jan 29 14:15:11 2010	Portland, Oregon 	 Overcast	47	ESE	12	36	29.99	42	66	10.0
Fri Jan 29 14:59:49 2010	Portland, Oregon 	 Overcast	47	ESE	12	36	29.99	42	66	10.0
Fri Jan 29 15:45:47 2010	Portland, Oregon 	 Mostly Cloudy	47	ESE	9	36	29.98	43	66	10.0
Fri Jan 29 16:33:08 2010	Portland, Oregon 	 Overcast	49	ESE	13	35	29.97	44	59	10.0
Fri Jan 29 17:17:43 2010	Portland, Oregon 	 Overcast	47	ESE	15	36	29.96	41	66	10.0
Fri Jan 29 18:05:58 2010	Portland, Oregon 	 Overcast	48	East	13	36	29.98	43	63	10.0
Fri Jan 29 18:50:36 2010	Portland, Oregon 	 Overcast	48	East	13	36	29.98	43	63	10.0
Fri Jan 29 19:43:05 2010	Portland, Oregon 	 Overcast	49	ESE	24	36	29.97	42	61	10.0
Fri Jan 29 20:41:10 2010	Portland, Oregon 	 Light Rain	49	East	20	38	29.99	42	66	10.0
Fri Jan 29 21:25:07 2010	Portland, Oregon 	 Overcast	50	East	10	38	29.98	46	63	10.0
Fri Jan 29 22:11:10 2010	Portland, Oregon 	 Overcast	50	East	17	38	29.96	44	63	10.0
Fri Jan 29 22:57:30 2010	Portland, Oregon 	 Overcast	50	East	17	38	29.96	44	63	10.0
Fri Jan 29 23:41:32 2010	Portland, Oregon 	 Overcast	50	SE	8	39	29.96	47	66	10.0
Mon Feb  1 00:08:30 2010	Portland, Oregon 	 Mostly Cloudy	51	East	4	44	29.97		77	10.0
Mon Feb  1 00:51:44 2010	Portland, Oregon 	 Mostly Cloudy	51	East	4	44	29.97		77	10.0
Mon Feb  1 01:36:27 2010	Portland, Oregon 	 Scattered Clouds	52	Calm		44	29.96		74	10.0
Mon Feb  1 02:21:21 2010	Portland, Oregon 	 Mostly Cloudy	50	WNW	4	44	29.97	49	80	10.0
Mon Feb  1 03:05:31 2010	Portland, Oregon 	 Mostly Cloudy	48	Calm		44	29.97	48	86	10.0
Mon Feb  1 03:49:02 2010	Portland, Oregon 	 Mostly Cloudy	48	Calm		44	29.97	48	86	10.0
Mon Feb  1 04:34:41 2010	Portland, Oregon 	 Scattered Clouds	44	Calm		42	29.96	45	93	10.0
Mon Feb  1 05:18:18 2010	Portland, Oregon 	 Scattered Clouds	44	ESE	4	42	29.97	42	93	10.0
Mon Feb  1 06:03:12 2010	Portland, Oregon 	 Scattered Clouds	42	East	6	41	29.96	38	96	10.0
Mon Feb  1 06:46:05 2010	Portland, Oregon 	 Scattered Clouds	42	East	6	41	29.96	38	96	10.0
Mon Feb  1 07:30:08 2010	Portland, Oregon 	 Scattered Clouds	41	East	7	40	29.96	36	96	10.0
Mon Feb  1 08:13:19 2010	Portland, Oregon 	 Mostly Cloudy	41	East	7	39	29.95	36	93	10.0
Mon Feb  1 08:57:02 2010	Portland, Oregon 	 Scattered Clouds	39	East	5	37	29.95	36	93	10.0
Mon Feb  1 09:40:03 2010	Portland, Oregon 	 Scattered Clouds	39	East	5	38	29.95	36	96	10.0
Mon Feb  1 10:23:24 2010	Portland, Oregon 	 Scattered Clouds	39	Calm		38	29.95	39	96	10.0
Mon Feb  1 11:06:32 2010	Portland, Oregon 	 Overcast	37	Calm		37	29.94	37	100	1.0
Mon Feb  1 11:49:49 2010	Portland, Oregon 	 Overcast	39	Calm		39	29.93	39	100	0.5
Mon Feb  1 12:33:20 2010	Portland, Oregon 	 Overcast	39	West	4	39	29.92	37	100	1.5
Mon Feb  1 13:16:48 2010	Portland, Oregon 	 Overcast	39	WNW	4	39	29.91	37	100	2.0
Mon Feb  1 14:00:38 2010	Portland, Oregon 	 Overcast	40	Calm		40	29.91	39	100	0.8
Mon Feb  1 14:45:09 2010	Portland, Oregon 	 Light Rain	39	Calm		37	29.93	39	93	7.0
Mon Feb  1 15:29:27 2010	Portland, Oregon 	 Light Rain	40	East	4	38	29.92	38	93	7.0
Mon Feb  1 16:13:38 2010	Portland, Oregon 	 Overcast	41	East	13	38	29.91	34	89	10.0
Mon Feb  1 16:58:48 2010	Portland, Oregon 	 Overcast	40	SE	6	38	29.91	36	93	10.0
Mon Feb  1 17:42:49 2010	Portland, Oregon 	 Overcast	40	SE	6	38	29.91	36	93	10.0
Mon Feb  1 18:25:58 2010	Portland, Oregon 	 Overcast	41	Calm		38	29.91	41	89	10.0
Mon Feb  1 19:09:43 2010	Portland, Oregon 	 Overcast	42	Calm		38	29.90	43	85	10.0
Mon Feb  1 19:54:51 2010	Portland, Oregon 	 Overcast	42	Calm		38	29.90	43	85	10.0
Mon Feb  1 20:41:19 2010	Portland, Oregon 	 Light Rain	42	WNW	4	40	29.91	40	92	10.0
Mon Feb  1 21:26:06 2010	Portland, Oregon 	 Light Rain	43	East	12	39	29.88	37	87	10.0
Mon Feb  1 22:09:38 2010	Portland, Oregon 	 Light Rain	43	ESE	7	41	29.88	39	93	10.0
Mon Feb  1 22:52:52 2010	Portland, Oregon 	 Light Rain	43	ESE	7	41	29.88	39	93	10.0
Mon Feb  1 23:38:59 2010	Portland, Oregon 	 Overcast	45	ESE	8	42	29.86	41	90	10.0
Sat Jan 30 00:25:37 2010	Portland, Oregon 	 Overcast	49	ESE	13	39	29.96	44	69	10.0
Sat Jan 30 01:09:43 2010	Portland, Oregon 	 Overcast	49	ESE	9	38	29.96	45	66	10.0
Sat Jan 30 01:53:27 2010	Portland, Oregon 	 Overcast	49	ESE	9	38	29.96	45	66	10.0
Sat Jan 30 02:38:06 2010	Portland, Oregon 	 Overcast	48	ESE	10	38	29.97	44	68	10.0
Sat Jan 30 03:21:43 2010	Portland, Oregon 	 Light Rain	46	ESE	9	40	29.98	41	79	10.0
Sat Jan 30 04:05:36 2010	Portland, Oregon 	 Overcast	46	ESE	8	40	29.98	42	79	10.0
Sat Jan 30 04:49:19 2010	Portland, Oregon 	 Overcast	46	ESE	8	40	29.98	42	79	10.0
Sat Jan 30 05:33:09 2010	Portland, Oregon 	 Overcast	46	East	6	40	29.98	43	79	10.0
Sat Jan 30 06:16:49 2010	Portland, Oregon 	 Light Rain	45	Calm		40	29.98	45	82	10.0
Sat Jan 30 07:02:29 2010	Portland, Oregon 	 Light Rain	45	Calm		40	29.98	45	82	10.0
Sat Jan 30 07:46:02 2010	Portland, Oregon 	 Light Rain	45	Calm		40	29.98	45	82	10.0
Sat Jan 30 08:29:03 2010	Portland, Oregon 	 Light Rain	44	Calm		40	29.98	45	85	10.0
Sat Jan 30 11:58:39 2010	Portland, Oregon 	 Light Rain	42	ESE	7	40	29.98	38	92	10.0
Sat Jan 30 12:42:26 2010	Portland, Oregon 	 Light Rain	42	ESE	7	40	29.98	38	92	10.0
Sat Jan 30 13:25:39 2010	Portland, Oregon 	 Light Rain	42	SE	6	40	29.98	38	92	10.0
Sat Jan 30 14:09:23 2010	Portland, Oregon 	 Light Rain	42	SE	7	39	29.98	38	89	10.0
Sat Jan 30 14:53:38 2010	Portland, Oregon 	 Light Rain	42	SE	7	39	29.98	38	89	10.0
Sat Jan 30 15:38:14 2010	Portland, Oregon 	 Overcast	42	East	6	39	29.97	38	89	10.0
Sat Jan 30 16:24:29 2010	Portland, Oregon 	 Overcast	42	ESE	6	38	29.98	38	85	10.0
Sat Jan 30 17:08:50 2010	Portland, Oregon 	 Overcast	42	ESE	6	38	29.99	38	85	10.0
Sat Jan 30 17:52:20 2010	Portland, Oregon 	 Overcast	42	ESE	6	38	29.99	38	85	10.0
Sat Jan 30 18:36:11 2010	Portland, Oregon 	 Light Rain	42	ESE	8	38	30.00	37	85	10.0
Sat Jan 30 19:19:23 2010	Portland, Oregon 	 Light Rain	42	ESE	7	39	30.01	38	89	10.0
Sat Jan 30 20:03:31 2010	Portland, Oregon 	 Light Rain	43	ESE	5	39	30.02	40	87	10.0
Sat Jan 30 20:46:41 2010	Portland, Oregon 	 Light Rain	45	ESE	6	39	30.02	41	81	10.0
Sat Jan 30 21:30:43 2010	Portland, Oregon 	 Overcast	44	ESE	5	40	30.01	42	85	10.0
Sat Jan 30 22:13:46 2010	Portland, Oregon 	 Light Rain	44	East	4	40	30.01	42	85	10.0
Sat Jan 30 22:58:32 2010	Portland, Oregon 	 Overcast	45	East	6	41	30.00	42	86	10.0
Sat Jan 30 23:44:14 2010	Portland, Oregon 	 Overcast	45	East	6	41	30.00	42	86	10.0
Sun Jan 31 00:28:15 2010	Portland, Oregon 	 Overcast	45	Calm		40	29.99	45	82	10.0
Sun Jan 31 01:18:52 2010	Portland, Oregon 	 Overcast	46	Calm		41	30.00	46	83	10.0
Sun Jan 31 02:02:46 2010	Portland, Oregon 	 Overcast	44	Calm		41	30.00	45	89	10.0
Sun Jan 31 02:46:22 2010	Portland, Oregon 	 Overcast	44	Calm		41	30.00	45	89	10.0
Sun Jan 31 03:30:24 2010	Portland, Oregon 	 Overcast	45	East	4	39	30.00	43	81	10.0
Sun Jan 31 04:13:08 2010	Portland, Oregon 	 Light Rain	44	Calm		41	30.01	45	89	10.0
Sun Jan 31 04:58:14 2010	Portland, Oregon 	 Light Rain	44	Calm		41	30.01	45	89	10.0
Sun Jan 31 05:44:28 2010	Portland, Oregon 	 Light Rain	44	Calm		41	30.01	45	89	10.0
Sun Jan 31 06:29:32 2010	Portland, Oregon 	 Light Rain	44	Calm		41	30.01	45	89	10.0
Sun Jan 31 07:12:36 2010	Portland, Oregon 	 Overcast	43	Calm		41	30.01	43	93	10.0
Sun Jan 31 07:59:11 2010	Portland, Oregon 	 Overcast	42	East	4	41	30.01	40	96	10.0
Sun Jan 31 08:44:01 2010	Portland, Oregon 	 Overcast	42	East	4	41	30.01	40	96	10.0
Sun Jan 31 09:27:09 2010	Portland, Oregon 	 Light Rain	43	Calm		42	30.01	43	97	10.0
Sun Jan 31 10:10:20 2010	Portland, Oregon 	 Overcast	43	East	4	42	30.01	41	97	10.0
Sun Jan 31 10:54:06 2010	Portland, Oregon 	 Overcast	43	East	4	42	30.01	41	97	10.0
Sun Jan 31 11:37:34 2010	Portland, Oregon 	 Light Rain	43	East	4	42	30.01	41	97	10.0
Sun Jan 31 12:21:12 2010	Portland, Oregon 	 Overcast	43	Calm		43	30.01	43	100	3.0
Sun Jan 31 13:04:14 2010	Portland, Oregon 	 Overcast	43	Calm		43	30.01	43	100	6.0
Sun Jan 31 13:48:17 2010	Portland, Oregon 	 Overcast	43	Calm		43	30.01	43	100	6.0
Sun Jan 31 14:31:03 2010	Portland, Oregon 	 Overcast	45	Calm		43	30.01	45	93	2.0
Sun Jan 31 15:15:01 2010	Portland, Oregon 	 Overcast	43	Calm		43	30.01	43	100	1.0
Sun Jan 31 15:58:27 2010	Portland, Oregon 	 Overcast	43	Calm		43	30.01	43	100	1.5
Sun Jan 31 16:48:14 2010	Portland, Oregon 	 Overcast	45	Calm		45	30.03	45	100	1.5
Sun Jan 31 17:32:10 2010	Portland, Oregon 	 Overcast	44	Calm		43	30.02	45	96	2.0
Sun Jan 31 18:16:28 2010	Portland, Oregon 	 Overcast	45	Calm		44	30.02	45	97	3.0
Sun Jan 31 19:00:35 2010	Portland, Oregon 	 Mostly Cloudy	47	SE	4	45	30.04	46	93	5.0
Sun Jan 31 19:46:09 2010	Portland, Oregon 	 Mostly Cloudy	47	SE	4	45	30.04	46	93	5.0
Sun Jan 31 20:29:09 2010	Portland, Oregon 	 Overcast	49	Calm		45	30.04	48	86	10.0
Sun Jan 31 21:13:16 2010	Portland, Oregon 	 Mostly Cloudy	49	ENE	5	45	30.02	47	86	10.0
Sun Jan 31 21:56:38 2010	Portland, Oregon 	 Mostly Cloudy	49	ENE	5	45	30.02	47	86	10.0
Sun Jan 31 22:41:27 2010	Portland, Oregon 	 Overcast	51	South	4	44	30.00		77	10.0
Sun Jan 31 23:24:32 2010	Portland, Oregon 	 Overcast	52	ENE	6	45	29.98		76	10.0
Thu Feb  4 00:10:02 2010	Portland, Oregon 	 Mostly Cloudy	46	ESE	15	42	29.70	40	86	10.0
Thu Feb  4 00:54:18 2010	Portland, Oregon 	 Mostly Cloudy	46	ESE	15	42	29.70	40	86	10.0
Thu Feb  4 01:37:20 2010	Portland, Oregon 	 Overcast	46	ESE	17	42	29.71	39	86	10.0
Thu Feb  4 02:24:28 2010	Portland, Oregon 	 Light Rain	45	ESE	18	41	29.72	37	86	10.0
Thu Feb  4 03:08:25 2010	Portland, Oregon 	 Mostly Cloudy	44	ESE	14	40	29.73	37	85	10.0
Thu Feb  4 03:52:55 2010	Portland, Oregon 	 Mostly Cloudy	44	ESE	14	40	29.73	37	85	10.0
Thu Feb  4 04:36:05 2010	Portland, Oregon 	 Mostly Cloudy	45	ESE	12	41	29.74	39	86	10.0
Thu Feb  4 05:19:16 2010	Portland, Oregon 	 Overcast	45	ESE	12	41	29.75	39	86	10.0
Thu Feb  4 06:02:23 2010	Portland, Oregon 	 Overcast	45	ESE	17	41	29.76	38	86	10.0
Thu Feb  4 06:45:26 2010	Portland, Oregon 	 Overcast	45	ESE	17	41	29.76	38	86	10.0
Thu Feb  4 07:29:00 2010	Portland, Oregon 	 Overcast	45	ESE	12	41	29.76	39	86	10.0
Thu Feb  4 08:11:40 2010	Portland, Oregon 	 Light Rain	45	ESE	12	41	29.76	39	87	10.0
Thu Feb  4 08:55:24 2010	Portland, Oregon 	 Light Rain	45	ESE	12	41	29.76	39	87	10.0
Thu Feb  4 09:39:08 2010	Portland, Oregon 	 Overcast	44	ESE	14	41	29.76	37	89	10.0
Thu Feb  4 10:22:32 2010	Portland, Oregon 	 Overcast	43	ESE	14	41	29.75	36	93	10.0
Thu Feb  4 11:08:46 2010	Portland, Oregon 	 Overcast	43	ESE	13	40	29.75	36	89	10.0
Thu Feb  4 11:52:19 2010	Portland, Oregon 	 Overcast	43	ESE	13	40	29.75	36	89	10.0
Thu Feb  4 12:35:27 2010	Portland, Oregon 	 Overcast	43	ESE	13	40	29.74	36	89	10.0
Thu Feb  4 13:18:57 2010	Portland, Oregon 	 Overcast	44	ESE	10	40	29.73	39	85	10.0
Thu Feb  4 14:03:18 2010	Portland, Oregon 	 Overcast	44	ESE	10	40	29.73	39	85	10.0
Thu Feb  4 14:55:59 2010	Portland, Oregon 	 Overcast	44	ESE	10	40	29.73	39	85	10.0
Thu Jan 28 15:36:12 2010	Portland, Oregon 	 Overcast	46	ESE	12	36	30.07	41	68	10.0
Thu Jan 28 15:57:21 2010	Portland, Oregon 	 Overcast	46	East	15	35	30.07	40	66	10.0
Thu Jan 28 16:45:40 2010	Portland, Oregon 	 Overcast	46	East	15	35	30.07	40	66	10.0
Thu Jan 28 17:10:33 2010	Portland, Oregon 	 Overcast	46	ESE	9	36	30.07	41	68	10.0
Thu Jan 28 17:26:43 2010	Portland, Oregon 	 Overcast	46	ESE	9	36	30.07	41	68	10.0
Tue Feb  2 00:25:55 2010	Portland, Oregon 	 Light Rain	44	ESE	9	42	29.86	39	93	10.0
Tue Feb  2 01:11:26 2010	Portland, Oregon 	 Light Rain	44	ESE	12	41	29.86	38	89	10.0
Tue Feb  2 01:54:50 2010	Portland, Oregon 	 Light Rain	44	ESE	12	41	29.86	38	89	10.0
Tue Feb  2 02:38:51 2010	Portland, Oregon 	 Light Rain	43	ESE	12	41	29.86	37	93	10.0
Tue Feb  2 03:22:02 2010	Portland, Oregon 	 Light Rain	43	ESE	10	41	29.87	37	93	9.0
Tue Feb  2 04:06:05 2010	Portland, Oregon 	 Light Rain	43	ESE	9	41	29.87	38	93	10.0
Tue Feb  2 04:49:41 2010	Portland, Oregon 	 Light Rain	43	ESE	10	41	29.87	37	93	10.0
Tue Feb  2 05:33:03 2010	Portland, Oregon 	 Overcast	43	ESE	10	41	29.87	37	93	10.0
Tue Feb  2 06:16:00 2010	Portland, Oregon 	 Light Rain	43	ESE	10	41	29.88	37	93	10.0
Tue Feb  2 07:03:29 2010	Portland, Oregon 	 Overcast	43	ESE	10	41	29.89	37	93	10.0
Tue Feb  2 07:46:35 2010	Portland, Oregon 	 Overcast	43	ESE	10	41	29.89	37	93	10.0
Tue Feb  2 08:29:40 2010	Portland, Oregon 	 Overcast	42	ESE	10	41	29.89	36	96	10.0
Tue Feb  2 09:13:09 2010	Portland, Oregon 	 Overcast	42	Calm		41	29.89	43	96	10.0
Tue Feb  2 09:56:40 2010	Portland, Oregon 	 Mostly Cloudy	42	ESE	7	40	29.89	38	92	10.0
Tue Feb  2 10:40:18 2010	Portland, Oregon 	 Mostly Cloudy	42	ESE	7	40	29.89	38	92	10.0
Tue Feb  2 11:24:23 2010	Portland, Oregon 	 Overcast	42	ESE	7	40	29.90	38	92	10.0
Tue Feb  2 12:07:57 2010	Portland, Oregon 	 Overcast	41	ESE	4	39	29.91	39	93	10.0
Tue Feb  2 12:52:15 2010	Portland, Oregon 	 Overcast	41	ESE	4	39	29.91	39	93	10.0
Tue Feb  2 13:35:35 2010	Portland, Oregon 	 Overcast	41	East	5	39	29.90	38	93	10.0
Tue Feb  2 14:19:04 2010	Portland, Oregon 	 Mostly Cloudy	40	ESE	6	38	29.89	36	93	10.0
Tue Feb  2 15:03:34 2010	Portland, Oregon 	 Mostly Cloudy	40	Calm		39	29.89	39	97	10.0
Tue Feb  2 15:49:55 2010	Portland, Oregon 	 Mostly Cloudy	40	Calm		39	29.89	39	97	10.0
Tue Feb  2 16:42:33 2010	Portland, Oregon 	 Mostly Cloudy	40	Calm		39	29.88	39	97	10.0
Tue Feb  2 17:30:10 2010	Portland, Oregon 	 Partly Cloudy	39	West	4	39	29.89	37	100	2.5
Tue Feb  2 18:15:34 2010	Portland, Oregon 	 Mostly Cloudy	41	NW	4	39	29.89	39	93	6.0
Tue Feb  2 18:59:36 2010	Portland, Oregon 	 Scattered Clouds	43	NW	5	40	29.88	40	89	10.0
Tue Feb  2 19:48:37 2010	Portland, Oregon 	 Scattered Clouds	43	NW	5	40	29.88	40	89	10.0
Tue Feb  2 20:40:17 2010	Portland, Oregon 	 Scattered Clouds	45	Calm		40	29.87	45	82	10.0
Tue Feb  2 21:26:50 2010	Portland, Oregon 	 Mostly Cloudy	46	West	5	42	29.85	44	86	10.0
Tue Feb  2 22:14:33 2010	Portland, Oregon 	 Mostly Cloudy	48	Variable	4	43	29.81	47	83	10.0
Tue Feb  2 22:59:47 2010	Portland, Oregon 	 Mostly Cloudy	50	North	4	44	29.79	49	80	10.0
Tue Feb  2 23:44:47 2010	Portland, Oregon 	 Mostly Cloudy	50	North	4	44	29.79	49	80	10.0
Wed Feb  3 00:29:40 2010	Portland, Oregon 	 Mostly Cloudy	53	Calm		43	29.78		69	10.0
Wed Feb  3 01:16:40 2010	Portland, Oregon 	 Mostly Cloudy	51	Calm		41	29.77		68	10.0
Wed Feb  3 02:01:30 2010	Portland, Oregon 	 Mostly Cloudy	48	ESE	13	39	29.76	43	71	10.0
Wed Feb  3 02:50:14 2010	Portland, Oregon 	 Mostly Cloudy	48	ESE	13	39	29.76	43	71	10.0
Wed Feb  3 03:37:11 2010	Portland, Oregon 	 Overcast	48	SE	12	39	29.76	43	71	10.0
Wed Feb  3 04:25:15 2010	Portland, Oregon 	 Light Rain	47	ESE	15	39	29.78	41	74	10.0
Wed Feb  3 05:11:49 2010	Portland, Oregon 	 Overcast	46	ESE	14	39	29.77	40	76	10.0
Wed Feb  3 05:59:50 2010	Portland, Oregon 	 Light Rain	45	ESE	10	40	29.77	40	82	10.0
Wed Feb  3 06:46:39 2010	Portland, Oregon 	 Light Rain	45	ESE	10	40	29.77	40	82	10.0
Wed Feb  3 07:31:15 2010	Portland, Oregon 	 Light Rain	44	ESE	13	41	29.76	38	89	10.0
Wed Feb  3 08:14:20 2010	Portland, Oregon 	 Mostly Cloudy	43	East	7	40	29.74	39	89	10.0
Wed Feb  3 09:00:43 2010	Portland, Oregon 	 Overcast	43	Calm		40	29.74	43	89	10.0
Wed Feb  3 09:44:12 2010	Portland, Oregon 	 Overcast	43	Calm		40	29.74	43	89	10.0
Wed Feb  3 10:28:11 2010	Portland, Oregon 	 Overcast	43	NNW	5	41	29.72	40	93	10.0
Wed Feb  3 11:14:54 2010	Portland, Oregon 	 Mostly Cloudy	43	Calm		41	29.71	43	93	10.0
Wed Feb  3 11:59:40 2010	Portland, Oregon 	 Overcast	42	Calm		40	29.71	43	92	10.0
Wed Feb  3 12:42:52 2010	Portland, Oregon 	 Overcast	42	Calm		40	29.71	43	92	10.0
Wed Feb  3 13:26:36 2010	Portland, Oregon 	 Overcast	45	SE	14	39	29.72	38	80	10.0
Wed Feb  3 14:12:14 2010	Portland, Oregon 	 Overcast	45	ESE	16	39	29.73	38	80	10.0
Wed Feb  3 14:58:05 2010	Portland, Oregon 	 Rain	43	ESE	12	41	29.74	37	93	5.0
Wed Feb  3 15:43:12 2010	Portland, Oregon 	 Light Rain	45	ESE	10	41	29.75	39	87	7.0
Wed Feb  3 16:28:50 2010	Portland, Oregon 	 Light Rain	43	ESE	9	41	29.75	38	93	7.0
Wed Feb  3 17:16:16 2010	Portland, Oregon 	 Overcast	43	ESE	12	40	29.74	37	89	10.0
Wed Feb  3 18:04:51 2010	Portland, Oregon 	 Mostly Cloudy	44	ESE	12	41	29.74	38	89	10.0
Wed Feb  3 18:47:57 2010	Portland, Oregon 	 Mostly Cloudy	44	ESE	12	41	29.74	38	89	10.0
Wed Feb  3 19:31:45 2010	Portland, Oregon 	 Mostly Cloudy	47	ESE	15	41	29.74	41	80	10.0
Wed Feb  3 20:15:28 2010	Portland, Oregon 	 Mostly Cloudy	46	ESE	15	40	29.74	40	79	10.0
Wed Feb  3 21:00:14 2010	Portland, Oregon 	 Light Rain	46	SE	10	40	29.74	41	79	10.0
Wed Feb  3 21:48:04 2010	Portland, Oregon 	 Light Rain	46	SE	10	40	29.74	41	79	10.0
Wed Feb  3 22:33:36 2010	Portland, Oregon 	 Rain	45	ESE	10	41	29.73	40	86	7.0
Wed Feb  3 23:24:25 2010	Portland, Oregon 	 Light Rain	46	ESE	13	42	29.72	40	86	9.0
Fri Jan 29 08:39:29 2010	San Antonio, Texas 	 Light Rain	57	North	12	54	29.90		88	5.0
Fri Jan 29 09:23:25 2010	San Antonio, Texas 	 Light Rain	56	North	13	53	29.86		90	5.0
Fri Jan 29 11:55:26 2010	San Antonio, Texas 	 Overcast	49	NNW	14	46	29.87	44	90	8.0
Fri Jan 29 12:39:59 2010	San Antonio, Texas 	 Light Rain	46	NNW	18	43	29.90	39	89	5.0
Fri Jan 29 13:26:31 2010	San Antonio, Texas 	 Light Rain	45	NNW	14	42	29.95	38	90	10.0
Fri Jan 29 14:15:19 2010	San Antonio, Texas 	 Light Rain	43	NNW	21	41	29.98	34	93	10.0
Fri Jan 29 14:59:58 2010	San Antonio, Texas 	 Heavy Rain	41	NNW	14	37	30.04	34	87	4.0
Fri Jan 29 15:45:54 2010	San Antonio, Texas 	 Rain	41	NNW	14	39	30.02	34	93	4.0
Fri Jan 29 16:33:16 2010	San Antonio, Texas 	 Light Rain	42	NNW	17	38	30.02	34	85	8.0
Fri Jan 29 17:17:52 2010	San Antonio, Texas 	 Light Rain	43	NNW	21	38	30.03	34	82	10.0
Fri Jan 29 18:06:07 2010	San Antonio, Texas 	 Scattered Clouds	44	NNW	24	37	30.04	35	76	10.0
Fri Jan 29 18:50:45 2010	San Antonio, Texas 	 Scattered Clouds	44	NNW	24	37	30.04	35	76	10.0
Fri Jan 29 19:43:13 2010	San Antonio, Texas 	 Scattered Clouds	47	NNW	18	38	30.03	40	71	10.0
Fri Jan 29 20:41:19 2010	San Antonio, Texas 	 Scattered Clouds	48	NW	20	37	30.01	41	66	10.0
Fri Jan 29 21:25:15 2010	San Antonio, Texas 	 Scattered Clouds	49	NW	15	37	29.99	43	64	10.0
Fri Jan 29 22:11:19 2010	San Antonio, Texas 	 Scattered Clouds	48	WNW	18	35	29.99	41	61	10.0
Fri Jan 29 22:57:39 2010	San Antonio, Texas 	 Partly Cloudy	47	NNW	17	32	30.01	40	56	10.0
Fri Jan 29 23:41:41 2010	San Antonio, Texas 	 Partly Cloudy	47	NNW	17	32	30.01	40	56	10.0
Mon Feb  1 00:08:39 2010	San Antonio, Texas 	 Overcast	36	ENE	8	31	30.16	30	82	7.0
Mon Feb  1 00:51:53 2010	San Antonio, Texas 	 Overcast	36	ENE	8	31	30.16	30	82	7.0
Mon Feb  1 01:36:36 2010	San Antonio, Texas 	 Overcast	36	NE	7	30	30.16	30	79	7.0
Mon Feb  1 02:21:30 2010	San Antonio, Texas 	 Overcast	36	East	6	31	30.17	31	82	7.0
Mon Feb  1 03:05:39 2010	San Antonio, Texas 	 Overcast	36	ENE	6	31	30.19	31	82	7.0
Mon Feb  1 03:49:11 2010	San Antonio, Texas 	 Overcast	36	ENE	6	31	30.19	31	82	7.0
Mon Feb  1 04:34:50 2010	San Antonio, Texas 	 Overcast	36	NE	6	31	30.19	31	82	7.0
Mon Feb  1 05:18:27 2010	San Antonio, Texas 	 Overcast	36	ENE	6	32	30.18	31	86	5.0
Mon Feb  1 06:03:20 2010	San Antonio, Texas 	 Overcast	36	ENE	5	32	30.18	32	86	5.0
Mon Feb  1 06:46:13 2010	San Antonio, Texas 	 Overcast	36	ENE	5	32	30.18	32	86	5.0
Mon Feb  1 07:30:18 2010	San Antonio, Texas 	 Overcast	36	East	4	33	30.17	33	89	4.0
Mon Feb  1 08:13:28 2010	San Antonio, Texas 	 Overcast	36	East	6	33	30.15	31	89	4.0
Mon Feb  1 08:57:10 2010	San Antonio, Texas 	 Overcast	36	NE	6	33	30.14	31	89	4.0
Mon Feb  1 09:40:12 2010	San Antonio, Texas 	 Overcast	36	NE	6	33	30.14	31	89	4.0
Mon Feb  1 10:23:33 2010	San Antonio, Texas 	 Overcast	36	North	5	33	30.12	32	89	4.0
Mon Feb  1 11:06:40 2010	San Antonio, Texas 	 Overcast	36	NE	5	33	30.11	32	89	6.0
Mon Feb  1 11:49:58 2010	San Antonio, Texas 	 Overcast	36	NE	5	33	30.11	32	89	6.0
Mon Feb  1 12:33:28 2010	San Antonio, Texas 	 Overcast	37	NE	4	34	30.11	34	89	3.0
Mon Feb  1 13:16:58 2010	San Antonio, Texas 	 Light Drizzle	36	NE	4	36	30.11	33	100	1.5
Mon Feb  1 14:00:46 2010	San Antonio, Texas 	 Light Drizzle	37	NNE	5	36	30.10	33	96	2.0
Mon Feb  1 14:45:15 2010	San Antonio, Texas 	 Light Drizzle	37	Calm		36	30.11	37	93	1.2
Mon Feb  1 15:29:35 2010	San Antonio, Texas 	 Light Drizzle	37	NNE	4	36	30.12	35	93	1.5
Mon Feb  1 16:13:44 2010	San Antonio, Texas 	 Light Drizzle	38	NE	5	37	30.12	34	97	1.2
Mon Feb  1 16:58:53 2010	San Antonio, Texas 	 Light Drizzle	39	East	5	37	30.13	36	93	1.2
Mon Feb  1 17:42:58 2010	San Antonio, Texas 	 Light Drizzle	39	East	5	37	30.13	36	93	1.2
Mon Feb  1 18:26:07 2010	San Antonio, Texas 	 Light Drizzle	39	Calm		37	30.13	39	93	1.2
Mon Feb  1 19:09:52 2010	San Antonio, Texas 	 Light Drizzle	42	Calm		40	30.11	43	92	2.0
Mon Feb  1 19:55:00 2010	San Antonio, Texas 	 Light Drizzle	43	Calm		41	30.11	43	93	1.8
Mon Feb  1 20:41:27 2010	San Antonio, Texas 	 Light Drizzle	43	Calm		41	30.07	43	93	1.8
Mon Feb  1 21:26:15 2010	San Antonio, Texas 	 Light Drizzle	45	Calm		43	30.05	45	93	1.2
Mon Feb  1 22:09:47 2010	San Antonio, Texas 	 Light Drizzle	45	Calm		43	30.04	45	93	2.0
Mon Feb  1 22:53:01 2010	San Antonio, Texas 	 Light Drizzle	45	Calm		43	30.04	45	93	2.5
Mon Feb  1 23:39:08 2010	San Antonio, Texas 	 Light Drizzle	45	ENE	4	45	30.04	43	100	1.5
Sat Jan 30 00:25:46 2010	San Antonio, Texas 	 Scattered Clouds	46	NNW	15	31	30.02	40	56	10.0
Sat Jan 30 01:09:51 2010	San Antonio, Texas 	 Scattered Clouds	44	NW	17	28	30.04	36	53	10.0
Sat Jan 30 01:53:35 2010	San Antonio, Texas 	 Scattered Clouds	44	NW	17	28	30.04	36	53	10.0
Sat Jan 30 02:38:14 2010	San Antonio, Texas 	 Partly Cloudy	41	NNW	15	29	30.06	33	62	10.0
Sat Jan 30 03:21:52 2010	San Antonio, Texas 	 Partly Cloudy	40	NNW	12	28	30.09	33	63	10.0
Sat Jan 30 04:05:45 2010	San Antonio, Texas 	 Partly Cloudy	38	NNW	9	27	30.09	32	65	10.0
Sat Jan 30 04:49:27 2010	San Antonio, Texas 	 Partly Cloudy	38	NNW	9	27	30.09	32	65	10.0
Sat Jan 30 05:33:16 2010	San Antonio, Texas 	 Clear	37	NNW	7	27	30.11	32	67	10.0
Sat Jan 30 06:16:57 2010	San Antonio, Texas 	 Clear	35	NNW	6	26	30.12	30	70	10.0
Sat Jan 30 07:02:38 2010	San Antonio, Texas 	 Clear	34	NNW	7	26	30.13	28	73	10.0
Sat Jan 30 07:46:10 2010	San Antonio, Texas 	 Clear	34	NNW	7	26	30.13	28	73	10.0
Sat Jan 30 08:29:12 2010	San Antonio, Texas 	 Clear	34	North	12	24	30.11	26	67	10.0
Sat Jan 30 11:58:48 2010	San Antonio, Texas 	 Clear	31	NW	6	24	30.15	25	76	10.0
Sat Jan 30 12:42:35 2010	San Antonio, Texas 	 Clear	31	NW	6	24	30.15	25	76	10.0
Sat Jan 30 13:25:48 2010	San Antonio, Texas 	 Partly Cloudy	31	NNW	7	24	30.16	24	76	10.0
Sat Jan 30 14:09:31 2010	San Antonio, Texas 	 Partly Cloudy	31	NNW	4	24	30.17	28	76	10.0
Sat Jan 30 14:53:47 2010	San Antonio, Texas 	 Partly Cloudy	31	NNW	4	24	30.17	28	76	10.0
Sat Jan 30 15:38:23 2010	San Antonio, Texas 	 Clear	31	NNW	4	25	30.19	28	79	10.0
Sat Jan 30 16:24:38 2010	San Antonio, Texas 	 Partly Cloudy	34	North	9	24	30.20	27	67	10.0
Sat Jan 30 17:09:00 2010	San Antonio, Texas 	 Partly Cloudy	37	North	12	25	30.23	29	62	10.0
Sat Jan 30 17:52:28 2010	San Antonio, Texas 	 Partly Cloudy	37	North	12	25	30.23	29	62	10.0
Sat Jan 30 18:36:19 2010	San Antonio, Texas 	 Partly Cloudy	40	NNW	8	26	30.23	34	58	10.0
Sat Jan 30 19:19:32 2010	San Antonio, Texas 	 Partly Cloudy	44	NNW	6	28	30.21	41	53	10.0
Sat Jan 30 20:03:39 2010	San Antonio, Texas 	 Partly Cloudy	48	NNW	12	30	30.17	43	50	10.0
Sat Jan 30 20:46:50 2010	San Antonio, Texas 	 Partly Cloudy	48	NNW	12	30	30.17	43	50	10.0
Sat Jan 30 21:30:52 2010	San Antonio, Texas 	 Partly Cloudy	50	North	9	31	30.14	46	48	10.0
Sat Jan 30 22:13:54 2010	San Antonio, Texas 	 Partly Cloudy	52	North	13	33	30.12		49	10.0
Sat Jan 30 22:58:41 2010	San Antonio, Texas 	 Partly Cloudy	52	North	7	33	30.12		49	10.0
Sat Jan 30 23:44:23 2010	San Antonio, Texas 	 Partly Cloudy	52	North	7	33	30.12		49	10.0
Sun Jan 31 00:28:24 2010	San Antonio, Texas 	 Partly Cloudy	52	North	10	33	30.12		49	10.0
Sun Jan 31 01:19:01 2010	San Antonio, Texas 	 Partly Cloudy	50	NNE	7	33	30.13	47	52	10.0
Sun Jan 31 02:02:55 2010	San Antonio, Texas 	 Partly Cloudy	46	NNE	7	33	30.15	42	61	10.0
Sun Jan 31 02:46:31 2010	San Antonio, Texas 	 Partly Cloudy	46	NNE	7	33	30.15	42	61	10.0
Sun Jan 31 03:30:33 2010	San Antonio, Texas 	 Clear	43	NE	7	33	30.18	39	68	10.0
Sun Jan 31 04:13:16 2010	San Antonio, Texas 	 Clear	41	NNE	8	32	30.19	36	70	10.0
Sun Jan 31 04:58:23 2010	San Antonio, Texas 	 Clear	39	NE	6	32	30.20	35	76	10.0
Sun Jan 31 05:44:36 2010	San Antonio, Texas 	 Clear	39	NE	6	32	30.20	35	76	10.0
Sun Jan 31 06:29:40 2010	San Antonio, Texas 	 Clear	37	Calm		31	30.21	37	79	10.0
Sun Jan 31 07:12:44 2010	San Antonio, Texas 	 Clear	35	ENE	6	31	30.22	30	85	10.0
Sun Jan 31 07:59:20 2010	San Antonio, Texas 	 Clear	34	ENE	6	30	30.22	29	85	10.0
Sun Jan 31 08:44:09 2010	San Antonio, Texas 	 Clear	34	ENE	6	30	30.22	29	85	10.0
Sun Jan 31 09:27:15 2010	San Antonio, Texas 	 Clear	32	ENE	5	29	30.22	28	88	10.0
Sun Jan 31 10:10:29 2010	San Antonio, Texas 	 Clear	31	NE	4	29	30.21	28	92	8.0
Sun Jan 31 10:54:14 2010	San Antonio, Texas 	 Overcast	30	NE	5	28	30.22	25	93	6.0
Sun Jan 31 11:37:43 2010	San Antonio, Texas 	 Overcast	32	ENE	6	28	30.23	26	87	6.0
Sun Jan 31 12:21:20 2010	San Antonio, Texas 	 Overcast	32	ENE	7	29	30.22	26	88	6.0
Sun Jan 31 13:04:23 2010	San Antonio, Texas 	 Overcast	32	ENE	8	29	30.23	25	88	5.0
Sun Jan 31 13:48:26 2010	San Antonio, Texas 	 Overcast	32	ENE	8	29	30.23	25	88	5.0
Sun Jan 31 14:31:15 2010	San Antonio, Texas 	 Overcast	31	NE	6	29	30.25	25	92	6.0
Sun Jan 31 15:15:10 2010	San Antonio, Texas 	 Overcast	31	ENE	9	29	30.25	23	92	4.0
Sun Jan 31 15:58:37 2010	San Antonio, Texas 	 Overcast	32	NE	7	29	30.26	26	88	4.0
Sun Jan 31 16:48:23 2010	San Antonio, Texas 	 Overcast	32	NE	7	29	30.26	26	88	4.0
Sun Jan 31 17:32:19 2010	San Antonio, Texas 	 Overcast	32	ENE	8	30	30.29	25	92	4.0
Sun Jan 31 18:16:37 2010	San Antonio, Texas 	 Overcast	32	ENE	7	30	30.29	26	92	4.0
Sun Jan 31 19:00:44 2010	San Antonio, Texas 	 Overcast	33	ESE	8	30	30.27	26	89	4.0
Sun Jan 31 19:46:17 2010	San Antonio, Texas 	 Overcast	33	ESE	8	30	30.27	26	89	4.0
Sun Jan 31 20:29:18 2010	San Antonio, Texas 	 Overcast	33	East	4	30	30.25	30	89	5.0
Sun Jan 31 21:13:23 2010	San Antonio, Texas 	 Overcast	34	East	4	30	30.21	31	85	5.0
Sun Jan 31 21:56:47 2010	San Antonio, Texas 	 Overcast	36	ENE	4	30	30.20	33	81	6.0
Sun Jan 31 22:41:36 2010	San Antonio, Texas 	 Haze	36	NE	5	31	30.18	32	82	6.0
Sun Jan 31 23:24:41 2010	San Antonio, Texas 	 Overcast	37	NE	7	31	30.18	32	79	7.0
Thu Feb  4 00:10:16 2010	San Antonio, Texas 	 Light Rain	50	ENE	8	48	29.86	47	93	6.0
Thu Feb  4 00:54:27 2010	San Antonio, Texas 	 Light Rain	50	ENE	8	48	29.86	47	93	6.0
Thu Feb  4 01:37:27 2010	San Antonio, Texas 	 Overcast	50	East	16	48	29.81	44	93	6.0
Thu Feb  4 02:24:37 2010	San Antonio, Texas 	 Light Rain	50	ENE	9	48	29.87	46	94	3.0
Thu Feb  4 03:08:33 2010	San Antonio, Texas 	 Light Rain	50	ENE	12	49	29.85	46	96	2.0
Thu Feb  4 03:53:03 2010	San Antonio, Texas 	 Light Rain	50	ENE	12	49	29.85	46	96	2.0
Thu Feb  4 04:36:13 2010	San Antonio, Texas 	 Light Rain	50	ENE	8	49	29.86	47	96	2.0
Thu Feb  4 05:19:24 2010	San Antonio, Texas 	 Light Rain	50	ENE	7	49	29.88	47	96	2.0
Thu Feb  4 06:02:32 2010	San Antonio, Texas 	 Light Rain	50	NE	7	48	29.86	47	93	2.0
Thu Feb  4 06:45:35 2010	San Antonio, Texas 	 Light Rain	50	NE	7	48	29.86	47	93	2.0
Thu Feb  4 07:29:08 2010	San Antonio, Texas 	 Overcast	48	NE	8	48	29.86	45	100	2.0
Thu Feb  4 08:11:49 2010	San Antonio, Texas 	 Light Rain	49	NE	8	48	29.83	45	97	2.0
Thu Feb  4 08:55:33 2010	San Antonio, Texas 	 Light Rain	49	NE	8	48	29.83	45	97	2.0
Thu Feb  4 09:39:17 2010	San Antonio, Texas 	 Light Rain	49	NE	8	48	29.83	45	97	2.0
Thu Feb  4 10:22:40 2010	San Antonio, Texas 	 Overcast	49	NE	7	48	29.82	46	97	2.0
Thu Feb  4 11:08:53 2010	San Antonio, Texas 	 Light Rain	49	ENE	6	48	29.81	46	97	4.0
Thu Feb  4 11:52:28 2010	San Antonio, Texas 	 Light Rain	49	ENE	6	48	29.81	46	97	4.0
Thu Feb  4 12:35:36 2010	San Antonio, Texas 	 Light Rain	48	ENE	6	48	29.83	46	100	2.0
Thu Feb  4 13:19:06 2010	San Antonio, Texas 	 Light Rain	49	NE	6	48	29.81	46	97	2.0
Thu Feb  4 14:03:27 2010	San Antonio, Texas 	 Light Drizzle	48	NNE	7	48	29.84	45	100	1.5
Thu Feb  4 14:56:08 2010	San Antonio, Texas 	 Light Drizzle	50	NNE	7	48	29.84	47	94	2.0
Thu Jan 28 15:36:21 2010	San Antonio, Texas 	 Rain	63	ESE	21	63	30.02		100	1.5
Thu Jan 28 15:57:30 2010	San Antonio, Texas 	 Light Rain	63	SE	22	63	30.01		100	3.0
Thu Jan 28 16:45:48 2010	San Antonio, Texas 	 Light Rain	64	SE	28	63	30.00		94	1.5
Thu Jan 28 17:10:42 2010	San Antonio, Texas 	 Light Rain	64	SE	18	63	29.99		96	1.5
Thu Jan 28 17:26:51 2010	San Antonio, Texas 	 Light Rain	64	SE	18	63	29.99		96	1.5
Tue Feb  2 00:26:03 2010	San Antonio, Texas 	 Light Drizzle	45	Calm		44	30.02	45	97	1.0
Tue Feb  2 01:11:35 2010	San Antonio, Texas 	 Light Drizzle	46	East	5	44	30.02	44	93	1.0
Tue Feb  2 01:54:59 2010	San Antonio, Texas 	 Light Drizzle	46	East	5	44	30.02	44	93	1.0
Tue Feb  2 02:39:00 2010	San Antonio, Texas 	 Light Drizzle	45	East	4	44	30.03	44	97	1.0
Tue Feb  2 03:22:11 2010	San Antonio, Texas 	 Light Drizzle	45	East	4	44	30.03	44	97	1.0
Tue Feb  2 04:06:14 2010	San Antonio, Texas 	 Light Drizzle	45	Calm		44	30.03	45	97	1.0
Tue Feb  2 04:49:50 2010	San Antonio, Texas 	 Light Drizzle	45	Calm		44	30.03	45	97	1.0
Tue Feb  2 05:33:12 2010	San Antonio, Texas 	 Light Drizzle	45	North	4	44	30.04	44	97	1.0
Tue Feb  2 06:16:09 2010	San Antonio, Texas 	 Light Drizzle	46	Calm		45	30.04	46	96	0.2
Tue Feb  2 07:03:38 2010	San Antonio, Texas 	 Light Drizzle	46	Calm		45	30.04	46	96	0.2
Tue Feb  2 07:46:43 2010	San Antonio, Texas 	 Light Drizzle	46	Calm		45	30.06	46	93	0.2
Tue Feb  2 08:29:48 2010	San Antonio, Texas 	 Light Drizzle	47	Calm		45	30.04	46	93	0.2
Tue Feb  2 09:13:17 2010	San Antonio, Texas 	 Light Drizzle	47	North	4	46	30.05	46	97	0.2
Tue Feb  2 09:56:48 2010	San Antonio, Texas 	 Light Drizzle	47	North	5	46	30.04	45	97	0.2
Tue Feb  2 10:40:27 2010	San Antonio, Texas 	 Light Drizzle	47	North	5	46	30.04	45	97	0.2
Tue Feb  2 11:24:32 2010	San Antonio, Texas 	 Light Drizzle	47	NNE	4	47	30.05	46	100	0.2
Tue Feb  2 12:08:06 2010	San Antonio, Texas 	 Light Drizzle	48	Calm		47	30.06	48	96	0.2
Tue Feb  2 12:52:24 2010	San Antonio, Texas 	 Light Drizzle	48	Calm		47	30.06	48	96	0.2
Tue Feb  2 13:35:44 2010	San Antonio, Texas 	 Light Drizzle	48	NNE	5	47	30.06	46	96	0.2
Tue Feb  2 14:19:13 2010	San Antonio, Texas 	 Light Drizzle	48	NE	5	47	30.08	46	96	0.2
Tue Feb  2 15:03:43 2010	San Antonio, Texas 	 Light Drizzle	48	NE	8	47	30.09	44	96	0.5
Tue Feb  2 15:50:03 2010	San Antonio, Texas 	 Light Drizzle	48	NE	8	47	30.09	44	96	0.5
Tue Feb  2 16:42:42 2010	San Antonio, Texas 	 Overcast	48	NE	7	46	30.14	45	93	1.2
Tue Feb  2 17:30:19 2010	San Antonio, Texas 	 Light Drizzle	48	NNE	9	47	30.14	44	96	0.8
Tue Feb  2 18:15:43 2010	San Antonio, Texas 	 Overcast	50	NE	8	48	30.17	47	94	1.2
Tue Feb  2 18:59:44 2010	San Antonio, Texas 	 Overcast	52	NE	9	48	30.12		88	2.5
Tue Feb  2 19:48:46 2010	San Antonio, Texas 	 Overcast	52	NE	9	48	30.12		88	2.5
Tue Feb  2 20:40:25 2010	San Antonio, Texas 	 Overcast	52	NE	10	49	30.09		89	5.0
Tue Feb  2 21:26:58 2010	San Antonio, Texas 	 Overcast	53	NNE	9	49	30.06		86	6.0
Tue Feb  2 22:14:41 2010	San Antonio, Texas 	 Overcast	53	ENE	9	49	30.07		86	6.0
Tue Feb  2 22:59:55 2010	San Antonio, Texas 	 Overcast	52	ENE	9	49	30.08		89	6.0
Tue Feb  2 23:44:55 2010	San Antonio, Texas 	 Overcast	52	ENE	9	49	30.08		89	6.0
Wed Feb  3 00:29:49 2010	San Antonio, Texas 	 Light Drizzle	52	NE	13	48	30.12		88	3.0
Wed Feb  3 01:16:49 2010	San Antonio, Texas 	 Light Drizzle	51	NE	10	48	30.10		89	3.0
Wed Feb  3 02:01:39 2010	San Antonio, Texas 	 Light Drizzle	51	ENE	8	48	30.10		89	3.0
Wed Feb  3 02:50:22 2010	San Antonio, Texas 	 Light Drizzle	51	ENE	8	48	30.10		89	3.0
Wed Feb  3 03:37:19 2010	San Antonio, Texas 	 Overcast	52	NE	12	46	30.11		82	6.0
Wed Feb  3 04:25:24 2010	San Antonio, Texas 	 Overcast	51	NE	10	47	30.10		86	9.0
Wed Feb  3 05:11:58 2010	San Antonio, Texas 	 Light Rain	51	NE	9	47	30.09		86	8.0
Wed Feb  3 05:59:59 2010	San Antonio, Texas 	 Light Rain	50	NE	8	48	30.09	47	93	7.0
Wed Feb  3 06:46:48 2010	San Antonio, Texas 	 Rain	50	ENE	8	48	30.11	47	94	3.0
Wed Feb  3 07:31:23 2010	San Antonio, Texas 	 Light Rain	50	ENE	12	48	30.09	46	94	5.0
Wed Feb  3 08:14:29 2010	San Antonio, Texas 	 Light Rain	50	East	9	48	30.05	46	93	3.0
Wed Feb  3 09:00:53 2010	San Antonio, Texas 	 Light Rain	50	ENE	10	48	30.02	46	93	3.0
Wed Feb  3 09:44:20 2010	San Antonio, Texas 	 Light Rain	50	ENE	10	48	30.02	46	93	3.0
Wed Feb  3 10:28:19 2010	San Antonio, Texas 	 Light Rain	50	East	9	48	30.01	46	93	4.0
Wed Feb  3 11:15:00 2010	San Antonio, Texas 	 Light Rain	49	ENE	8	48	29.99	45	97	4.0
Wed Feb  3 11:59:49 2010	San Antonio, Texas 	 Rain	49	East	9	48	29.98	45	97	4.0
Wed Feb  3 12:43:01 2010	San Antonio, Texas 	 Rain	49	East	9	48	29.98	45	97	4.0
Wed Feb  3 13:26:43 2010	San Antonio, Texas 	 Rain	50	ENE	16	48	29.98	44	94	3.0
Wed Feb  3 14:12:23 2010	San Antonio, Texas 	 Light Rain	50	ENE	10	49	29.94	46	96	5.0
Wed Feb  3 14:58:11 2010	San Antonio, Texas 	 Rain	50	ENE	12	48	29.98	46	94	2.5
Wed Feb  3 15:43:21 2010	San Antonio, Texas 	 Rain	50	East	9	48	30.01	46	94	1.8
Wed Feb  3 16:28:59 2010	San Antonio, Texas 	 Rain	50	ENE	10	49	29.99	46	96	2.5
Wed Feb  3 17:16:25 2010	San Antonio, Texas 	 Light Rain	50	ENE	13	49	29.96	45	96	4.0
Wed Feb  3 18:05:00 2010	San Antonio, Texas 	 Light Rain	50	East	16	49	29.96	44	96	3.0
Wed Feb  3 18:48:05 2010	San Antonio, Texas 	 Rain	50	East	17	48	29.96	44	94	1.5
Wed Feb  3 19:31:53 2010	San Antonio, Texas 	 Light Rain	50	East	16	49	29.91	44	96	1.5
Wed Feb  3 20:15:37 2010	San Antonio, Texas 	 Rain	49	East	17	48	29.89	43	97	1.5
Wed Feb  3 21:00:22 2010	San Antonio, Texas 	 Light Rain	49	ENE	16	47	29.84	43	93	3.0
Wed Feb  3 21:48:13 2010	San Antonio, Texas 	 Light Rain	48	ENE	17	46	29.87	42	93	2.0
Wed Feb  3 22:33:44 2010	San Antonio, Texas 	 Light Rain	49	East	16	47	29.86	43	93	2.0
Wed Feb  3 23:24:34 2010	San Antonio, Texas 	 Light Rain	49	East	10	48	29.86	45	97	2.0
Fri Jan 29 08:38:13 2010	San Diego, California 	 Haze	56	Calm		50	30.07		80	5.0
Fri Jan 29 09:22:13 2010	San Diego, California 	 Mostly Cloudy	53	NW	5	49	30.08		86	5.0
Fri Jan 29 11:54:10 2010	San Diego, California 	 Mostly Cloudy	54	Calm		47	30.05		77	8.0
Fri Jan 29 12:38:45 2010	San Diego, California 	 Mostly Cloudy	54	Calm		47	30.05		77	8.0
Fri Jan 29 13:25:19 2010	San Diego, California 	 Mostly Cloudy	53	Calm		46	30.04		77	9.0
Fri Jan 29 14:14:01 2010	San Diego, California 	 Mostly Cloudy	52	Calm		46	30.05		80	9.0
Fri Jan 29 14:58:40 2010	San Diego, California 	 Mostly Cloudy	52	Calm		46	30.05		80	9.0
Fri Jan 29 15:44:41 2010	San Diego, California 	 Mostly Cloudy	51	Calm		45	30.05		80	9.0
Fri Jan 29 16:31:50 2010	San Diego, California 	 Mostly Cloudy	51	Calm		44	30.06		77	10.0
Fri Jan 29 17:16:27 2010	San Diego, California 	 Mostly Cloudy	53	East	4	44	30.08		71	9.0
Fri Jan 29 18:04:52 2010	San Diego, California 	 Mostly Cloudy	56	East	5	43	30.09		62	10.0
Fri Jan 29 18:49:35 2010	San Diego, California 	 Mostly Cloudy	56	East	5	43	30.09		62	10.0
Fri Jan 29 19:42:01 2010	San Diego, California 	 Mostly Cloudy	60	South	7	45	30.10		57	7.0
Fri Jan 29 20:40:01 2010	San Diego, California 	 Mostly Cloudy	61	South	6	44	30.09		54	9.0
Fri Jan 29 21:24:03 2010	San Diego, California 	 Mostly Cloudy	61	South	6	48	30.06		62	9.0
Fri Jan 29 22:10:04 2010	San Diego, California 	 Mostly Cloudy	62	WSW	9	50	30.04		65	9.0
Fri Jan 29 22:56:22 2010	San Diego, California 	 Mostly Cloudy	61	SW	6	51	30.03		70	9.0
Fri Jan 29 23:40:27 2010	San Diego, California 	 Mostly Cloudy	61	SW	6	51	30.03		70	9.0
Mon Feb  1 00:07:25 2010	San Diego, California 	 Scattered Clouds	60	WNW	10	49	29.94		67	10.0
Mon Feb  1 00:50:38 2010	San Diego, California 	 Scattered Clouds	60	WNW	10	49	29.94		67	10.0
Mon Feb  1 01:35:24 2010	San Diego, California 	 Scattered Clouds	59	West	8	50	29.95		72	10.0
Mon Feb  1 02:20:17 2010	San Diego, California 	 Mostly Cloudy	58	WNW	7	49	29.96		72	10.0
Mon Feb  1 03:04:26 2010	San Diego, California 	 Scattered Clouds	57	NW	4	49	29.97		74	10.0
Mon Feb  1 03:47:58 2010	San Diego, California 	 Scattered Clouds	57	NW	4	49	29.97		74	10.0
Mon Feb  1 04:33:37 2010	San Diego, California 	 Partly Cloudy	57	Calm		49	29.98		74	10.0
Mon Feb  1 05:17:13 2010	San Diego, California 	 Partly Cloudy	56	Calm		49	29.98		77	10.0
Mon Feb  1 06:02:08 2010	San Diego, California 	 Scattered Clouds	55	Calm		49	29.99		80	10.0
Mon Feb  1 06:45:01 2010	San Diego, California 	 Scattered Clouds	55	Calm		49	29.99		80	10.0
Mon Feb  1 07:29:03 2010	San Diego, California 	 Scattered Clouds	55	Calm		49	29.99		80	10.0
Mon Feb  1 08:12:07 2010	San Diego, California 	 Partly Cloudy	54	Calm		48	29.98		80	10.0
Mon Feb  1 08:55:57 2010	San Diego, California 	 Haze	53	Calm		48	29.98		83	6.0
Mon Feb  1 09:38:59 2010	San Diego, California 	 Haze	53	Calm		48	29.98		83	6.0
Mon Feb  1 10:22:20 2010	San Diego, California 	 Haze	54	Calm		48	29.97		80	6.0
Mon Feb  1 11:05:27 2010	San Diego, California 	 Haze	53	Calm		48	29.98		83	6.0
Mon Feb  1 11:48:45 2010	San Diego, California 	 Haze	53	Calm		48	29.98		83	6.0
Mon Feb  1 12:32:17 2010	San Diego, California 	 Haze	53	Calm		48	29.96		83	5.0
Mon Feb  1 13:15:40 2010	San Diego, California 	 Haze	52	Calm		47	29.96		83	5.0
Mon Feb  1 13:59:34 2010	San Diego, California 	 Mostly Cloudy	51	Calm		47	29.96		86	5.0
Mon Feb  1 14:44:03 2010	San Diego, California 	 Mostly Cloudy	51	Calm		47	29.96		86	5.0
Mon Feb  1 15:28:22 2010	San Diego, California 	 Haze	52	Calm		47	29.96		83	5.0
Mon Feb  1 16:12:27 2010	San Diego, California 	 Mostly Cloudy	52	Calm		48	29.97		86	4.0
Mon Feb  1 16:57:44 2010	San Diego, California 	 Mostly Cloudy	53	Calm		48	29.99		83	4.0
Mon Feb  1 17:41:46 2010	San Diego, California 	 Mostly Cloudy	53	Calm		48	29.99		83	4.0
Mon Feb  1 18:24:56 2010	San Diego, California 	 Haze	58	NNE	4	50	29.99		75	6.0
Mon Feb  1 19:08:38 2010	San Diego, California 	 Mostly Cloudy	58	North	5	49	30.00		72	7.0
Mon Feb  1 19:53:47 2010	San Diego, California 	 Mostly Cloudy	60	NE	4	49	29.97		67	10.0
Mon Feb  1 20:40:19 2010	San Diego, California 	 Mostly Cloudy	60	NE	4	49	29.97		67	10.0
Mon Feb  1 21:25:02 2010	San Diego, California 	 Mostly Cloudy	61	Variable	5	49	29.95		64	8.0
Mon Feb  1 22:08:33 2010	San Diego, California 	 Mostly Cloudy	62	WNW	6	50	29.92		65	9.0
Mon Feb  1 22:51:44 2010	San Diego, California 	 Mostly Cloudy	62	WNW	6	50	29.92		65	9.0
Mon Feb  1 23:37:56 2010	San Diego, California 	 Mostly Cloudy	61	Calm		50	29.90		67	9.0
Sat Jan 30 00:24:32 2010	San Diego, California 	 Mostly Cloudy	62	WNW	6	52	30.03		70	9.0
Sat Jan 30 01:08:38 2010	San Diego, California 	 Overcast	61	WNW	6	51	30.03		70	10.0
Sat Jan 30 01:52:18 2010	San Diego, California 	 Overcast	61	WNW	6	51	30.03		70	10.0
Sat Jan 30 02:37:00 2010	San Diego, California 	 Overcast	60	WNW	4	51	30.04		72	10.0
Sat Jan 30 03:20:38 2010	San Diego, California 	 Overcast	59	West	4	52	30.04		78	10.0
Sat Jan 30 04:04:34 2010	San Diego, California 	 Haze	59	WNW	4	52	30.04		78	6.0
Sat Jan 30 04:48:16 2010	San Diego, California 	 Haze	59	WNW	4	52	30.04		78	6.0
Sat Jan 30 05:32:03 2010	San Diego, California 	 Overcast	58	Calm		52	30.04		81	10.0
Sat Jan 30 06:15:44 2010	San Diego, California 	 Scattered Clouds	57	Calm		50	30.04		77	10.0
Sat Jan 30 07:01:27 2010	San Diego, California 	 Partly Cloudy	56	Calm		49	30.05		77	8.0
Sat Jan 30 07:44:59 2010	San Diego, California 	 Partly Cloudy	56	Calm		49	30.05		77	8.0
Sat Jan 30 08:28:02 2010	San Diego, California 	 Haze	55	Calm		49	30.05		80	6.0
Sat Jan 30 11:57:35 2010	San Diego, California 	 Clear	51	Calm		47	30.01		86	4.0
Sat Jan 30 12:41:24 2010	San Diego, California 	 Clear	51	Calm		47	30.01		86	4.0
Sat Jan 30 13:24:30 2010	San Diego, California 	 Partly Cloudy	50	Calm		46	30.00	50	86	3.0
Sat Jan 30 14:08:17 2010	San Diego, California 	 Scattered Clouds	49	Calm		46	29.99	48	90	4.0
Sat Jan 30 14:52:32 2010	San Diego, California 	 Mostly Cloudy	48	Calm		46	29.99	48	93	4.0
Sat Jan 30 15:37:12 2010	San Diego, California 	 Mostly Cloudy	50	Calm		47	30.00	50	89	4.0
Sat Jan 30 16:23:27 2010	San Diego, California 	 Mostly Cloudy	51	North	4	47	30.01		86	4.0
Sat Jan 30 17:07:43 2010	San Diego, California 	 Scattered Clouds	52	Calm		48	30.02		86	4.0
Sat Jan 30 17:51:15 2010	San Diego, California 	 Scattered Clouds	52	Calm		48	30.02		86	4.0
Sat Jan 30 18:35:04 2010	San Diego, California 	 Haze	56	NNE	6	49	30.03		77	5.0
Sat Jan 30 19:18:21 2010	San Diego, California 	 Scattered Clouds	60	Calm		48	30.02		64	9.0
Sat Jan 30 20:02:27 2010	San Diego, California 	 Scattered Clouds	61	Calm		48	30.01		62	9.0
Sat Jan 30 20:45:39 2010	San Diego, California 	 Scattered Clouds	61	Calm		48	30.01		62	9.0
Sat Jan 30 21:29:41 2010	San Diego, California 	 Scattered Clouds	61	WNW	13	50	29.98		67	10.0
Sat Jan 30 22:12:39 2010	San Diego, California 	 Scattered Clouds	60	WNW	15	51	29.96		72	10.0
Sat Jan 30 22:57:27 2010	San Diego, California 	 Scattered Clouds	60	WNW	12	50	29.96		69	10.0
Sat Jan 30 23:43:07 2010	San Diego, California 	 Scattered Clouds	60	WNW	12	50	29.96		69	10.0
Sun Jan 31 00:27:11 2010	San Diego, California 	 Scattered Clouds	60	NW	12	50	29.95		69	10.0
Sun Jan 31 01:17:48 2010	San Diego, California 	 Scattered Clouds	60	NW	12	50	29.96		69	10.0
Sun Jan 31 02:01:41 2010	San Diego, California 	 Scattered Clouds	58	NW	9	49	29.96		72	10.0
Sun Jan 31 02:45:20 2010	San Diego, California 	 Scattered Clouds	58	NW	9	49	29.96		72	10.0
Sun Jan 31 03:29:21 2010	San Diego, California 	 Scattered Clouds	58	North	5	49	29.96		72	10.0
Sun Jan 31 04:12:05 2010	San Diego, California 	 Scattered Clouds	57	Calm		49	29.96		74	10.0
Sun Jan 31 04:57:09 2010	San Diego, California 	 Scattered Clouds	56	Calm		49	29.96		77	9.0
Sun Jan 31 05:43:23 2010	San Diego, California 	 Scattered Clouds	56	Calm		49	29.96		77	9.0
Sun Jan 31 06:28:29 2010	San Diego, California 	 Scattered Clouds	55	Calm		49	29.96		80	9.0
Sun Jan 31 07:11:30 2010	San Diego, California 	 Scattered Clouds	54	Calm		48	29.96		80	7.0
Sun Jan 31 07:58:07 2010	San Diego, California 	 Haze	53	Calm		48	29.97		83	6.0
Sun Jan 31 08:42:53 2010	San Diego, California 	 Haze	53	Calm		48	29.97		83	6.0
Sun Jan 31 09:26:05 2010	San Diego, California 	 Scattered Clouds	53	Calm		48	29.97		83	7.0
Sun Jan 31 10:09:14 2010	San Diego, California 	 Haze	52	Calm		47	29.97		83	6.0
Sun Jan 31 10:53:04 2010	San Diego, California 	 Mostly Cloudy	52	Calm		47	29.96		83	7.0
Sun Jan 31 11:36:26 2010	San Diego, California 	 Mostly Cloudy	52	Calm		47	29.96		83	7.0
Sun Jan 31 12:20:09 2010	San Diego, California 	 Haze	53	Calm		48	29.95		83	6.0
Sun Jan 31 13:03:15 2010	San Diego, California 	 Haze	53	Calm		47	29.95		80	6.0
Sun Jan 31 13:47:15 2010	San Diego, California 	 Haze	53	Calm		47	29.95		80	6.0
Sun Jan 31 14:30:03 2010	San Diego, California 	 Haze	52	Calm		46	29.94		82	5.0
Sun Jan 31 15:13:58 2010	San Diego, California 	 Haze	51	Calm		46	29.95		83	5.0
Sun Jan 31 15:57:22 2010	San Diego, California 	 Scattered Clouds	50	Calm		46	29.97	50	86	4.0
Sun Jan 31 16:47:10 2010	San Diego, California 	 Scattered Clouds	50	Calm		46	29.97	50	86	4.0
Sun Jan 31 17:31:03 2010	San Diego, California 	 Scattered Clouds	51	Calm		47	29.98		86	4.0
Sun Jan 31 18:15:21 2010	San Diego, California 	 Haze	53	Calm		47	29.98		80	4.0
Sun Jan 31 18:59:31 2010	San Diego, California 	 Haze	57	NW	7	48	29.99		72	6.0
Sun Jan 31 19:45:03 2010	San Diego, California 	 Haze	57	NW	7	48	29.99		72	6.0
Sun Jan 31 20:28:05 2010	San Diego, California 	 Scattered Clouds	59	WNW	8	48	29.99		67	9.0
Sun Jan 31 21:12:13 2010	San Diego, California 	 Scattered Clouds	60	WNW	10	48	29.96		64	10.0
Sun Jan 31 21:55:36 2010	San Diego, California 	 Scattered Clouds	60	WNW	13	48	29.94		64	10.0
Sun Jan 31 22:40:20 2010	San Diego, California 	 Scattered Clouds	60	WNW	13	48	29.94		64	10.0
Sun Jan 31 23:23:25 2010	San Diego, California 	 Scattered Clouds	61	West	10	48	29.93		62	9.0
Thu Feb  4 00:08:57 2010	San Diego, California 	 Partly Cloudy	61	SSW	9	51	29.77		70	10.0
Thu Feb  4 00:53:19 2010	San Diego, California 	 Partly Cloudy	60	SW	9	51	29.78		72	10.0
Thu Feb  4 01:36:18 2010	San Diego, California 	 Partly Cloudy	60	SW	9	51	29.78		72	10.0
Thu Feb  4 02:23:24 2010	San Diego, California 	 Partly Cloudy	60	SSW	8	51	29.79		72	10.0
Thu Feb  4 03:07:22 2010	San Diego, California 	 Partly Cloudy	59	SW	6	51	29.81		75	10.0
Thu Feb  4 03:51:51 2010	San Diego, California 	 Partly Cloudy	59	SW	6	51	29.81		75	10.0
Thu Feb  4 04:35:03 2010	San Diego, California 	 Mostly Cloudy	58	SW	6	51	29.85		78	10.0
Thu Feb  4 05:18:12 2010	San Diego, California 	 Mostly Cloudy	58	Calm		51	29.88		78	10.0
Thu Feb  4 06:01:23 2010	San Diego, California 	 Mostly Cloudy	58	Calm		51	29.90		78	10.0
Thu Feb  4 06:44:23 2010	San Diego, California 	 Scattered Clouds	57	SE	4	52	29.90		82	10.0
Thu Feb  4 07:27:57 2010	San Diego, California 	 Scattered Clouds	57	ESE	7	52	29.90		82	10.0
Thu Feb  4 08:10:37 2010	San Diego, California 	 Partly Cloudy	57	ESE	7	50	29.90		77	9.0
Thu Feb  4 08:54:21 2010	San Diego, California 	 Partly Cloudy	56	ESE	7	49	29.90		77	9.0
Thu Feb  4 09:38:05 2010	San Diego, California 	 Partly Cloudy	56	ESE	7	49	29.90		77	9.0
Thu Feb  4 10:21:29 2010	San Diego, California 	 Partly Cloudy	54	ESE	6	48	29.90		80	7.0
Thu Feb  4 11:07:45 2010	San Diego, California 	 Scattered Clouds	54	ESE	6	47	29.89		77	7.0
Thu Feb  4 11:51:19 2010	San Diego, California 	 Mostly Cloudy	54	ESE	4	48	29.90		82	7.0
Thu Feb  4 12:34:24 2010	San Diego, California 	 Haze	55	ESE	7	47	29.90		74	6.0
Thu Feb  4 13:17:55 2010	San Diego, California 	 Haze	54	ESE	8	47	29.90		77	6.0
Thu Feb  4 14:02:13 2010	San Diego, California 	 Haze	54	ESE	6	47	29.92		77	6.0
Thu Feb  4 14:54:58 2010	San Diego, California 	 Haze	54	ESE	4	47	29.94		77	6.0
Thu Jan 28 15:35:05 2010	San Diego, California 	 Clear	50	Calm		45	29.99	50	83	10.0
Thu Jan 28 15:56:16 2010	San Diego, California 	 Partly Cloudy	51	Calm		45	30.01		80	10.0
Thu Jan 28 16:44:35 2010	San Diego, California 	 Partly Cloudy	51	Calm		45	30.01		80	10.0
Thu Jan 28 17:09:23 2010	San Diego, California 	 Clear	54	Calm		46	30.03		75	8.0
Thu Jan 28 17:25:36 2010	San Diego, California 	 Clear	54	Calm		46	30.03		75	8.0
Tue Feb  2 00:24:50 2010	San Diego, California 	 Mostly Cloudy	61	Variable	4	51	29.89		70	8.0
Tue Feb  2 01:10:18 2010	San Diego, California 	 Mostly Cloudy	62	WNW	9	50	29.90		65	7.0
Tue Feb  2 01:53:45 2010	San Diego, California 	 Mostly Cloudy	60	West	6	51	29.90		72	8.0
Tue Feb  2 02:37:46 2010	San Diego, California 	 Mostly Cloudy	60	West	6	51	29.90		72	8.0
Tue Feb  2 03:20:58 2010	San Diego, California 	 Mostly Cloudy	57	WNW	6	52	29.92		82	8.0
Tue Feb  2 04:05:01 2010	San Diego, California 	 Mostly Cloudy	58	WNW	5	51	29.92		78	10.0
Tue Feb  2 04:48:36 2010	San Diego, California 	 Mostly Cloudy	58	WNW	5	51	29.92		78	10.0
Tue Feb  2 05:31:58 2010	San Diego, California 	 Mostly Cloudy	58	Calm		51	29.92		78	8.0
Tue Feb  2 06:14:56 2010	San Diego, California 	 Haze	57	Calm		51	29.91		81	6.0
Tue Feb  2 07:02:24 2010	San Diego, California 	 Scattered Clouds	57	Calm		50	29.91		77	8.0
Tue Feb  2 07:45:31 2010	San Diego, California 	 Scattered Clouds	57	Calm		50	29.91		77	8.0
Tue Feb  2 08:28:37 2010	San Diego, California 	 Haze	56	Calm		50	29.91		80	5.0
Tue Feb  2 09:12:04 2010	San Diego, California 	 Haze	55	Calm		50	29.91		82	5.0
Tue Feb  2 09:55:36 2010	San Diego, California 	 Haze	56	Calm		50	29.91		80	5.0
Tue Feb  2 10:39:13 2010	San Diego, California 	 Haze	56	Calm		50	29.91		80	5.0
Tue Feb  2 11:23:19 2010	San Diego, California 	 Haze	56	Calm		50	29.91		80	5.0
Tue Feb  2 12:06:51 2010	San Diego, California 	 Overcast	57	Calm		49	29.89		74	7.0
Tue Feb  2 12:51:10 2010	San Diego, California 	 Overcast	57	Calm		49	29.89		74	7.0
Tue Feb  2 13:34:31 2010	San Diego, California 	 Haze	55	North	5	49	29.88		80	5.0
Tue Feb  2 14:18:02 2010	San Diego, California 	 Haze	54	North	4	49	29.87		83	5.0
Tue Feb  2 15:02:27 2010	San Diego, California 	 Haze	54	Calm		48	29.87		80	5.0
Tue Feb  2 15:48:51 2010	San Diego, California 	 Haze	54	Calm		48	29.87		80	5.0
Tue Feb  2 16:41:26 2010	San Diego, California 	 Haze	53	NE	4	48	29.86		83	4.0
Tue Feb  2 17:29:07 2010	San Diego, California 	 Haze	53	Calm		48	29.86		83	5.0
Tue Feb  2 18:14:31 2010	San Diego, California 	 Haze	56	Calm		48	29.86		75	5.0
Tue Feb  2 18:58:32 2010	San Diego, California 	 Mostly Cloudy	58	WNW	5	48	29.87		70	7.0
Tue Feb  2 19:47:28 2010	San Diego, California 	 Mostly Cloudy	58	WNW	5	48	29.87		70	7.0
Tue Feb  2 20:39:13 2010	San Diego, California 	 Mostly Cloudy	60	NW	8	48	29.86		64	10.0
Tue Feb  2 21:25:45 2010	San Diego, California 	 Mostly Cloudy	60	WNW	7	49	29.84		67	9.0
Tue Feb  2 22:13:29 2010	San Diego, California 	 Mostly Cloudy	61	West	8	49	29.82		64	10.0
Tue Feb  2 22:58:45 2010	San Diego, California 	 Mostly Cloudy	61	NW	9	50	29.81		67	10.0
Tue Feb  2 23:43:43 2010	San Diego, California 	 Mostly Cloudy	61	NW	9	50	29.81		67	10.0
Wed Feb  3 00:28:36 2010	San Diego, California 	 Mostly Cloudy	61	WNW	7	50	29.80		67	10.0
Wed Feb  3 01:15:33 2010	San Diego, California 	 Mostly Cloudy	60	WNW	9	50	29.80		69	10.0
Wed Feb  3 02:00:23 2010	San Diego, California 	 Mostly Cloudy	59	WNW	6	50	29.81		72	10.0
Wed Feb  3 02:49:10 2010	San Diego, California 	 Mostly Cloudy	59	WNW	6	50	29.81		72	10.0
Wed Feb  3 03:36:09 2010	San Diego, California 	 Mostly Cloudy	59	NW	6	51	29.81		75	10.0
Wed Feb  3 04:24:10 2010	San Diego, California 	 Mostly Cloudy	58	NNW	6	50	29.82		75	10.0
Wed Feb  3 05:10:45 2010	San Diego, California 	 Overcast	58	North	4	51	29.83		78	10.0
Wed Feb  3 05:58:46 2010	San Diego, California 	 Overcast	58	North	5	51	29.83		78	10.0
Wed Feb  3 06:45:35 2010	San Diego, California 	 Overcast	58	North	5	51	29.83		78	10.0
Wed Feb  3 07:30:12 2010	San Diego, California 	 Overcast	58	NNE	4	51	29.82		78	10.0
Wed Feb  3 08:13:17 2010	San Diego, California 	 Mostly Cloudy	58	North	4	51	29.81		78	8.0
Wed Feb  3 08:59:39 2010	San Diego, California 	 Mostly Cloudy	57	North	4	51	29.80		81	7.0
Wed Feb  3 09:43:10 2010	San Diego, California 	 Mostly Cloudy	57	North	4	51	29.80		81	7.0
Wed Feb  3 10:27:09 2010	San Diego, California 	 Haze	56	Calm		50	29.78		80	6.0
Wed Feb  3 11:13:47 2010	San Diego, California 	 Mostly Cloudy	55	Calm		51	29.77		86	6.0
Wed Feb  3 11:58:34 2010	San Diego, California 	 Mostly Cloudy	55	NNE	5	50	29.77		83	7.0
Wed Feb  3 12:41:49 2010	San Diego, California 	 Mostly Cloudy	55	NNE	5	50	29.77		83	7.0
Wed Feb  3 13:25:27 2010	San Diego, California 	 Haze	55	Calm		50	29.77		83	6.0
Wed Feb  3 14:11:02 2010	San Diego, California 	 Haze	56	NNE	5	50	29.77		80	6.0
Wed Feb  3 14:57:03 2010	San Diego, California 	 Haze	56	Calm		50	29.77		80	5.0
Wed Feb  3 15:42:07 2010	San Diego, California 	 Haze	56	Calm		50	29.77		80	5.0
Wed Feb  3 16:27:45 2010	San Diego, California 	 Haze	56	NE	4	50	29.78		80	5.0
Wed Feb  3 17:15:13 2010	San Diego, California 	 Haze	57	NE	4	50	29.79		77	6.0
Wed Feb  3 18:03:47 2010	San Diego, California 	 Overcast	57	Calm		49	29.81		74	7.0
Wed Feb  3 18:46:55 2010	San Diego, California 	 Overcast	57	Calm		49	29.81		74	7.0
Wed Feb  3 19:30:43 2010	San Diego, California 	 Mostly Cloudy	59	NNW	6	49	29.83		69	10.0
Wed Feb  3 20:14:22 2010	San Diego, California 	 Mostly Cloudy	61	WNW	9	50	29.84		67	10.0
Wed Feb  3 20:59:13 2010	San Diego, California 	 Mostly Cloudy	61	WNW	8	50	29.83		67	10.0
Wed Feb  3 21:47:03 2010	San Diego, California 	 Scattered Clouds	63	NNW	7	50	29.81		63	10.0
Wed Feb  3 22:32:34 2010	San Diego, California 	 Scattered Clouds	62	Calm		50	29.79		65	10.0
Wed Feb  3 23:23:17 2010	San Diego, California 	 Partly Cloudy	62	NW	7	50	29.78		65	10.0
Fri Jan 29 08:38:59 2010	San Francisco, California 	 Overcast	51	Calm		48	30.04		89	6.0
Fri Jan 29 09:22:54 2010	San Francisco, California 	 Mostly Cloudy	49	Calm		47	30.04	48	93	7.0
Fri Jan 29 11:54:56 2010	San Francisco, California 	 Overcast	46	SSW	4	45	30.04	45	96	6.0
Fri Jan 29 12:39:28 2010	San Francisco, California 	 Mostly Cloudy	49	Calm		46	30.04	48	90	7.0
Fri Jan 29 13:26:00 2010	San Francisco, California 	 Overcast	48	Calm		46	30.03	48	93	7.0
Fri Jan 29 14:14:45 2010	San Francisco, California 	 Overcast	48	South	4	46	30.03	47	93	7.0
Fri Jan 29 14:59:28 2010	San Francisco, California 	 Overcast	48	South	4	46	30.03	47	93	7.0
Fri Jan 29 15:45:26 2010	San Francisco, California 	 Overcast	48	Calm		47	30.01	48	96	6.0
Fri Jan 29 16:32:46 2010	San Francisco, California 	 Overcast	48	SSW	5	46	30.01	46	93	7.0
Fri Jan 29 17:17:18 2010	San Francisco, California 	 Overcast	48	SSW	5	46	30.01	46	93	7.0
Fri Jan 29 18:05:36 2010	San Francisco, California 	 Overcast	51	NE	8	47	30.01		86	7.0
Fri Jan 29 18:50:14 2010	San Francisco, California 	 Overcast	51	NE	8	47	30.01		86	7.0
Fri Jan 29 19:42:43 2010	San Francisco, California 	 Mostly Cloudy	51	East	7	49	30.03		92	5.0
Fri Jan 29 20:40:49 2010	San Francisco, California 	 Mostly Cloudy	51	ESE	6	48	30.01		89	7.0
Fri Jan 29 21:24:44 2010	San Francisco, California 	 Mostly Cloudy	52	ENE	6	47	29.99		83	8.0
Fri Jan 29 22:10:49 2010	San Francisco, California 	 Mostly Cloudy	58	SSW	13	47	29.96		67	10.0
Fri Jan 29 22:57:11 2010	San Francisco, California 	 Mostly Cloudy	58	SSW	13	47	29.96		67	10.0
Fri Jan 29 23:41:11 2010	San Francisco, California 	 Mostly Cloudy	59	SSW	18	47	29.96		64	10.0
Mon Feb  1 00:08:09 2010	San Francisco, California 	 Mostly Cloudy	54	North	5	49	29.98		83	10.0
Mon Feb  1 00:51:23 2010	San Francisco, California 	 Mostly Cloudy	54	North	5	49	29.98		83	10.0
Mon Feb  1 01:36:07 2010	San Francisco, California 	 Mostly Cloudy	53	NNE	4	50	29.98		89	9.0
Mon Feb  1 02:21:00 2010	San Francisco, California 	 Mostly Cloudy	53	Calm		49	29.99		86	10.0
Mon Feb  1 03:05:09 2010	San Francisco, California 	 Overcast	53	WNW	5	49	29.98		86	10.0
Mon Feb  1 03:48:41 2010	San Francisco, California 	 Overcast	53	WNW	5	49	29.98		86	10.0
Mon Feb  1 04:34:20 2010	San Francisco, California 	 Overcast	53	WNW	4	49	29.98		86	10.0
Mon Feb  1 05:17:56 2010	San Francisco, California 	 Overcast	53	Calm		50	29.98		89	10.0
Mon Feb  1 06:02:51 2010	San Francisco, California 	 Overcast	52	SSW	5	48	29.98		86	10.0
Mon Feb  1 06:45:43 2010	San Francisco, California 	 Overcast	52	SSW	5	48	29.98		86	10.0
Mon Feb  1 07:29:46 2010	San Francisco, California 	 Mostly Cloudy	52	Calm		47	29.97		83	10.0
Mon Feb  1 08:12:58 2010	San Francisco, California 	 Mostly Cloudy	52	Calm		49	29.98		89	10.0
Mon Feb  1 08:56:40 2010	San Francisco, California 	 Mostly Cloudy	52	Calm		49	29.98		89	10.0
Mon Feb  1 09:39:42 2010	San Francisco, California 	 Mostly Cloudy	51	Calm		47	29.97		86	10.0
Mon Feb  1 10:23:03 2010	San Francisco, California 	 Mostly Cloudy	51	Calm		47	29.98		86	10.0
Mon Feb  1 11:06:10 2010	San Francisco, California 	 Overcast	50	West	4	47	29.98	49	89	10.0
Mon Feb  1 11:49:28 2010	San Francisco, California 	 Overcast	50	West	4	47	29.98	49	89	10.0
Mon Feb  1 12:33:00 2010	San Francisco, California 	 Mostly Cloudy	50	West	6	47	29.98	48	89	10.0
Mon Feb  1 13:16:26 2010	San Francisco, California 	 Mostly Cloudy	50	East	4	47	29.96	49	89	10.0
Mon Feb  1 14:00:15 2010	San Francisco, California 	 Mostly Cloudy	50	East	4	47	29.96	49	89	10.0
Mon Feb  1 14:44:48 2010	San Francisco, California 	 Mostly Cloudy	47	Calm		45	29.96	46	93	10.0
Mon Feb  1 15:29:06 2010	San Francisco, California 	 Mostly Cloudy	46	South	5	45	29.95	44	93	10.0
Mon Feb  1 16:13:15 2010	San Francisco, California 	 Mostly Cloudy	47	South	5	45	29.95	45	93	10.0
Mon Feb  1 16:58:25 2010	San Francisco, California 	 Mostly Cloudy	48	Calm		45	29.96	48	87	10.0
Mon Feb  1 17:42:27 2010	San Francisco, California 	 Mostly Cloudy	51	Calm		47	29.96		86	10.0
Mon Feb  1 18:25:37 2010	San Francisco, California 	 Mostly Cloudy	51	ENE	8	48	29.95		89	10.0
Mon Feb  1 19:09:22 2010	San Francisco, California 	 Mostly Cloudy	51	ESE	5	47	29.96		86	10.0
Mon Feb  1 19:54:30 2010	San Francisco, California 	 Mostly Cloudy	51	ESE	5	47	29.96		86	10.0
Mon Feb  1 20:40:58 2010	San Francisco, California 	 Mostly Cloudy	53	Calm		48	29.96		83	10.0
Mon Feb  1 21:25:44 2010	San Francisco, California 	 Mostly Cloudy	53	NNE	6	48	29.94		83	10.0
Mon Feb  1 22:09:17 2010	San Francisco, California 	 Mostly Cloudy	54	Calm		48	29.92		80	10.0
Mon Feb  1 22:52:31 2010	San Francisco, California 	 Mostly Cloudy	54	Calm		48	29.92		80	10.0
Mon Feb  1 23:38:38 2010	San Francisco, California 	 Mostly Cloudy	56	Calm		44	29.90		64	10.0
Sat Jan 30 00:25:16 2010	San Francisco, California 	 Mostly Cloudy	59	SSE	15	45	29.95		60	10.0
Sat Jan 30 01:09:21 2010	San Francisco, California 	 Light Rain	58	South	10	46	29.95		65	10.0
Sat Jan 30 01:53:01 2010	San Francisco, California 	 Light Rain	58	South	10	46	29.95		65	10.0
Sat Jan 30 02:37:44 2010	San Francisco, California 	 Light Rain	53	South	9	50	29.96		89	8.0
Sat Jan 30 03:21:22 2010	San Francisco, California 	 Overcast	52	Calm		50	29.96		93	6.0
Sat Jan 30 04:05:15 2010	San Francisco, California 	 Light Rain	53	SE	7	50	29.96		89	10.0
Sat Jan 30 04:48:57 2010	San Francisco, California 	 Light Rain	53	SE	7	50	29.96		89	10.0
Sat Jan 30 05:32:48 2010	San Francisco, California 	 Light Rain	52	SW	4	50	29.97		94	4.0
Sat Jan 30 06:16:27 2010	San Francisco, California 	 Overcast	52	SSW	5	50	29.98		93	10.0
Sat Jan 30 07:02:10 2010	San Francisco, California 	 Overcast	53	South	5	50	29.99		89	10.0
Sat Jan 30 07:45:40 2010	San Francisco, California 	 Overcast	53	South	5	50	29.99		89	10.0
Sat Jan 30 08:28:42 2010	San Francisco, California 	 Overcast	53	SW	5	49	30.00		86	10.0
Sat Jan 30 11:58:18 2010	San Francisco, California 	 Scattered Clouds	47	SSE	4	46	30.01	46	97	10.0
Sat Jan 30 12:42:07 2010	San Francisco, California 	 Scattered Clouds	47	SSE	4	46	30.01	46	97	10.0
Sat Jan 30 13:25:18 2010	San Francisco, California 	 Scattered Clouds	47	Calm		46	30.01	46	97	10.0
Sat Jan 30 14:09:01 2010	San Francisco, California 	 Scattered Clouds	46	Calm		45	30.02	46	96	10.0
Sat Jan 30 14:53:16 2010	San Francisco, California 	 Scattered Clouds	46	Calm		45	30.02	46	96	10.0
Sat Jan 30 15:37:53 2010	San Francisco, California 	 Scattered Clouds	46	South	4	45	30.02	45	96	10.0
Sat Jan 30 16:24:10 2010	San Francisco, California 	 Scattered Clouds	46	Calm		44	30.04	46	93	10.0
Sat Jan 30 17:08:28 2010	San Francisco, California 	 Mostly Cloudy	47	SE	5	46	30.05	45	97	10.0
Sat Jan 30 17:51:58 2010	San Francisco, California 	 Scattered Clouds	48	SE	8	46	30.05	45	93	10.0
Sat Jan 30 18:35:49 2010	San Francisco, California 	 Scattered Clouds	49	SSE	6	48	30.06	46	97	10.0
Sat Jan 30 19:19:04 2010	San Francisco, California 	 Scattered Clouds	52	East	5	48	30.06		86	10.0
Sat Jan 30 20:03:10 2010	San Francisco, California 	 Scattered Clouds	52	East	8	49	30.07		89	10.0
Sat Jan 30 20:46:19 2010	San Francisco, California 	 Scattered Clouds	52	East	8	49	30.07		89	10.0
Sat Jan 30 21:30:21 2010	San Francisco, California 	 Mostly Cloudy	54	East	7	49	30.07		83	10.0
Sat Jan 30 22:13:22 2010	San Francisco, California 	 Mostly Cloudy	54	ENE	4	49	30.05		83	10.0
Sat Jan 30 22:58:11 2010	San Francisco, California 	 Mostly Cloudy	54	ENE	4	49	30.05		83	10.0
Sat Jan 30 23:43:54 2010	San Francisco, California 	 Scattered Clouds	54	East	5	49	30.02		83	10.0
Sun Jan 31 00:27:54 2010	San Francisco, California 	 Scattered Clouds	55	ENE	4	49	30.02		80	10.0
Sun Jan 31 01:18:32 2010	San Francisco, California 	 Scattered Clouds	57	WNW	8	47	30.02		69	10.0
Sun Jan 31 02:02:25 2010	San Francisco, California 	 Scattered Clouds	55	WNW	9	48	30.02		77	10.0
Sun Jan 31 02:46:01 2010	San Francisco, California 	 Scattered Clouds	55	WNW	9	48	30.02		77	10.0
Sun Jan 31 03:30:04 2010	San Francisco, California 	 Scattered Clouds	53	West	12	49	30.01		86	10.0
Sun Jan 31 04:12:46 2010	San Francisco, California 	 Partly Cloudy	52	West	13	49	30.03		89	10.0
Sun Jan 31 04:57:53 2010	San Francisco, California 	 Partly Cloudy	52	West	13	49	30.03		89	10.0
Sun Jan 31 05:44:07 2010	San Francisco, California 	 Partly Cloudy	52	West	12	48	30.03		86	10.0
Sun Jan 31 06:29:10 2010	San Francisco, California 	 Partly Cloudy	51	West	8	48	30.04		89	10.0
Sun Jan 31 07:12:13 2010	San Francisco, California 	 Partly Cloudy	50	West	5	48	30.04	48	93	10.0
Sun Jan 31 07:58:50 2010	San Francisco, California 	 Mostly Cloudy	51	West	4	49	30.04		92	10.0
Sun Jan 31 08:43:39 2010	San Francisco, California 	 Mostly Cloudy	51	West	4	49	30.04		92	10.0
Sun Jan 31 09:26:48 2010	San Francisco, California 	 Mostly Cloudy	50	SE	5	48	30.03	48	94	10.0
Sun Jan 31 10:09:59 2010	San Francisco, California 	 Scattered Clouds	49	SSE	4	47	30.02	48	93	10.0
Sun Jan 31 10:53:44 2010	San Francisco, California 	 Scattered Clouds	49	SSE	4	47	30.02	48	93	10.0
Sun Jan 31 11:37:12 2010	San Francisco, California 	 Scattered Clouds	49	South	4	47	30.02	48	93	10.0
Sun Jan 31 12:20:50 2010	San Francisco, California 	 Mostly Cloudy	47	SSW	5	46	30.02	45	97	10.0
Sun Jan 31 13:03:53 2010	San Francisco, California 	 Overcast	47	SSE	4	45	30.01	46	93	10.0
Sun Jan 31 13:47:57 2010	San Francisco, California 	 Overcast	47	SSE	4	45	30.01	46	93	10.0
Sun Jan 31 14:30:43 2010	San Francisco, California 	 Overcast	48	South	6	45	30.01	46	89	10.0
Sun Jan 31 15:14:44 2010	San Francisco, California 	 Overcast	48	SSW	5	46	30.02	46	93	10.0
Sun Jan 31 15:58:05 2010	San Francisco, California 	 Overcast	48	SSW	5	46	30.02	46	93	10.0
Sun Jan 31 16:47:52 2010	San Francisco, California 	 Overcast	49	South	4	45	30.02	48	86	10.0
Sun Jan 31 17:31:49 2010	San Francisco, California 	 Overcast	49	Calm		46	30.04	48	90	10.0
Sun Jan 31 18:16:06 2010	San Francisco, California 	 Overcast	50	SE	5	46	30.04	48	86	10.0
Sun Jan 31 19:00:14 2010	San Francisco, California 	 Mostly Cloudy	51	ENE	5	46	30.05		83	10.0
Sun Jan 31 19:45:47 2010	San Francisco, California 	 Scattered Clouds	52	NE	4	48	30.05		88	9.0
Sun Jan 31 20:28:48 2010	San Francisco, California 	 Scattered Clouds	52	ENE	6	47	30.05		83	10.0
Sun Jan 31 21:12:55 2010	San Francisco, California 	 Mostly Cloudy	53	Calm		48	30.03		83	10.0
Sun Jan 31 21:56:19 2010	San Francisco, California 	 Mostly Cloudy	53	Calm		48	30.03		83	10.0
Sun Jan 31 22:41:06 2010	San Francisco, California 	 Mostly Cloudy	54	NNE	4	48	30.00		80	10.0
Sun Jan 31 23:24:08 2010	San Francisco, California 	 Mostly Cloudy	53	NNE	5	48	29.98		83	10.0
Thu Feb  4 00:09:41 2010	San Francisco, California 	 Mostly Cloudy	58	NNE	4	50	29.81		75	10.0
Thu Feb  4 00:54:00 2010	San Francisco, California 	 Mostly Cloudy	58	NNE	4	50	29.81		75	10.0
Thu Feb  4 01:37:01 2010	San Francisco, California 	 Overcast	57	West	9	50	29.83		77	10.0
Thu Feb  4 02:24:07 2010	San Francisco, California 	 Overcast	56	West	13	49	29.84		77	10.0
Thu Feb  4 03:08:04 2010	San Francisco, California 	 Overcast	56	WSW	5	49	29.84		77	10.0
Thu Feb  4 03:52:34 2010	San Francisco, California 	 Overcast	56	WSW	5	49	29.84		77	10.0
Thu Feb  4 04:35:45 2010	San Francisco, California 	 Overcast	55	WSW	6	48	29.84		77	10.0
Thu Feb  4 05:18:54 2010	San Francisco, California 	 Overcast	55	Calm		48	29.84		77	10.0
Thu Feb  4 06:02:02 2010	San Francisco, California 	 Mostly Cloudy	54	Calm		48	29.84		80	10.0
Thu Feb  4 06:45:05 2010	San Francisco, California 	 Mostly Cloudy	54	Calm		48	29.84		80	10.0
Thu Feb  4 07:28:39 2010	San Francisco, California 	 Mostly Cloudy	53	Calm		47	29.84		80	10.0
Thu Feb  4 08:11:20 2010	San Francisco, California 	 Mostly Cloudy	51	SSW	4	48	29.85		89	10.0
Thu Feb  4 08:55:04 2010	San Francisco, California 	 Mostly Cloudy	51	SSW	4	48	29.85		89	10.0
Thu Feb  4 09:38:47 2010	San Francisco, California 	 Mostly Cloudy	51	Calm		47	29.85		86	10.0
Thu Feb  4 10:22:11 2010	San Francisco, California 	 Mostly Cloudy	52	Calm		49	29.84		89	10.0
Thu Feb  4 11:08:28 2010	San Francisco, California 	 Mostly Cloudy	53	ESE	5	49	29.83		86	10.0
Thu Feb  4 11:52:02 2010	San Francisco, California 	 Mostly Cloudy	53	ESE	5	49	29.83		86	10.0
Thu Feb  4 12:35:06 2010	San Francisco, California 	 Mostly Cloudy	51	Calm		48	29.83		89	10.0
Thu Feb  4 13:18:35 2010	San Francisco, California 	 Overcast	52	Calm		47	29.83		83	10.0
Thu Feb  4 14:02:57 2010	San Francisco, California 	 Overcast	52	East	5	48	29.81		86	10.0
Thu Feb  4 14:55:38 2010	San Francisco, California 	 Overcast	52	East	5	48	29.81		86	10.0
Thu Jan 28 15:35:51 2010	San Francisco, California 	 Scattered Clouds	47	SE	6	45	30.07	44	93	9.0
Thu Jan 28 15:57:00 2010	San Francisco, California 	 Scattered Clouds	47	SE	6	45	30.07	44	93	9.0
Thu Jan 28 16:45:18 2010	San Francisco, California 	 Scattered Clouds	47	SE	4	45	30.08	46	93	7.0
Thu Jan 28 17:10:12 2010	San Francisco, California 	 Partly Cloudy	47	SE	7	45	30.09	44	93	7.0
Thu Jan 28 17:26:21 2010	San Francisco, California 	 Partly Cloudy	47	SE	7	45	30.09	44	93	7.0
Tue Feb  2 00:25:33 2010	San Francisco, California 	 Overcast	56	Calm		45	29.89		67	10.0
Tue Feb  2 01:11:05 2010	San Francisco, California 	 Overcast	57	WSW	4	45	29.90		64	10.0
Tue Feb  2 01:54:29 2010	San Francisco, California 	 Overcast	57	WSW	4	45	29.90		64	10.0
Tue Feb  2 02:38:30 2010	San Francisco, California 	 Overcast	56	NW	6	47	29.91		72	10.0
Tue Feb  2 03:21:42 2010	San Francisco, California 	 Overcast	54	WNW	7	44	29.91		69	10.0
Tue Feb  2 04:05:44 2010	San Francisco, California 	 Overcast	54	WNW	7	44	29.91		69	10.0
Tue Feb  2 04:49:20 2010	San Francisco, California 	 Overcast	54	WNW	7	44	29.91		69	10.0
Tue Feb  2 05:32:41 2010	San Francisco, California 	 Mostly Cloudy	53	Calm		42	29.92		66	10.0
Tue Feb  2 06:15:39 2010	San Francisco, California 	 Overcast	53	Calm		50	29.92		89	10.0
Tue Feb  2 07:03:08 2010	San Francisco, California 	 Overcast	52	Calm		44	29.92		74	10.0
Tue Feb  2 07:46:13 2010	San Francisco, California 	 Overcast	52	Calm		44	29.92		74	10.0
Tue Feb  2 08:29:19 2010	San Francisco, California 	 Overcast	53	East	4	48	29.92		83	10.0
Tue Feb  2 09:12:47 2010	San Francisco, California 	 Mostly Cloudy	52	ENE	12	48	29.91		86	10.0
Tue Feb  2 09:56:19 2010	San Francisco, California 	 Mostly Cloudy	52	ENE	12	48	29.91		86	10.0
Tue Feb  2 10:39:56 2010	San Francisco, California 	 Mostly Cloudy	52	ENE	8	49	29.90		89	10.0
Tue Feb  2 11:24:01 2010	San Francisco, California 	 Mostly Cloudy	50	Calm		47	29.89	50	89	10.0
Tue Feb  2 12:07:34 2010	San Francisco, California 	 Mostly Cloudy	50	SSE	5	47	29.89	48	89	10.0
Tue Feb  2 12:51:54 2010	San Francisco, California 	 Mostly Cloudy	50	SSE	5	47	29.89	48	89	10.0
Tue Feb  2 13:35:14 2010	San Francisco, California 	 Overcast	50	Calm		47	29.88	50	89	10.0
Tue Feb  2 14:18:42 2010	San Francisco, California 	 Mostly Cloudy	49	Calm		47	29.87	48	93	10.0
Tue Feb  2 15:03:11 2010	San Francisco, California 	 Mostly Cloudy	48	Calm		45	29.88	48	89	10.0
Tue Feb  2 15:49:34 2010	San Francisco, California 	 Mostly Cloudy	48	Calm		45	29.88	48	89	10.0
Tue Feb  2 16:42:11 2010	San Francisco, California 	 Mostly Cloudy	48	Calm		45	29.88	48	89	10.0
Tue Feb  2 17:29:50 2010	San Francisco, California 	 Mostly Cloudy	49	Calm		45	29.88	48	86	10.0
Tue Feb  2 18:15:13 2010	San Francisco, California 	 Mostly Cloudy	50	ESE	4	44	29.89	49	80	10.0
Tue Feb  2 18:59:14 2010	San Francisco, California 	 Mostly Cloudy	52	East	7	46	29.89		80	10.0
Tue Feb  2 19:48:14 2010	San Francisco, California 	 Mostly Cloudy	52	East	7	46	29.89		80	10.0
Tue Feb  2 20:39:56 2010	San Francisco, California 	 Mostly Cloudy	53	ENE	6	46	29.88		77	10.0
Tue Feb  2 21:26:28 2010	San Francisco, California 	 Mostly Cloudy	52	ENE	6	46	29.86		80	10.0
Tue Feb  2 22:14:12 2010	San Francisco, California 	 Overcast	53	North	4	47	29.84		80	10.0
Tue Feb  2 22:59:26 2010	San Francisco, California 	 Overcast	54	Calm		46	29.83		75	10.0
Tue Feb  2 23:44:25 2010	San Francisco, California 	 Overcast	54	Calm		46	29.83		75	10.0
Wed Feb  3 00:29:19 2010	San Francisco, California 	 Mostly Cloudy	54	NNE	4	48	29.83		82	9.0
Wed Feb  3 01:16:20 2010	San Francisco, California 	 Mostly Cloudy	54	ENE	4	48	29.83		82	9.0
Wed Feb  3 02:01:08 2010	San Francisco, California 	 Overcast	54	East	4	49	29.84		83	10.0
Wed Feb  3 02:49:53 2010	San Francisco, California 	 Overcast	54	East	4	49	29.84		83	10.0
Wed Feb  3 03:36:51 2010	San Francisco, California 	 Overcast	54	Calm		49	29.84		83	10.0
Wed Feb  3 04:24:54 2010	San Francisco, California 	 Mostly Cloudy	55	NW	4	48	29.85		77	10.0
Wed Feb  3 05:11:28 2010	San Francisco, California 	 Mostly Cloudy	55	SSE	5	50	29.84		83	10.0
Wed Feb  3 05:59:29 2010	San Francisco, California 	 Mostly Cloudy	54	Calm		50	29.84		86	10.0
Wed Feb  3 06:46:18 2010	San Francisco, California 	 Mostly Cloudy	54	Calm		50	29.84		86	10.0
Wed Feb  3 07:30:54 2010	San Francisco, California 	 Scattered Clouds	53	Calm		50	29.85		89	10.0
Wed Feb  3 08:13:59 2010	San Francisco, California 	 Mostly Cloudy	51	Calm		47	29.85		86	10.0
Wed Feb  3 09:00:22 2010	San Francisco, California 	 Scattered Clouds	51	Calm		47	29.85		86	10.0
Wed Feb  3 09:43:51 2010	San Francisco, California 	 Scattered Clouds	51	Calm		47	29.85		86	10.0
Wed Feb  3 10:27:50 2010	San Francisco, California 	 Mostly Cloudy	50	WSW	5	47	29.85	48	89	10.0
Wed Feb  3 11:14:33 2010	San Francisco, California 	 Scattered Clouds	49	Calm		46	29.84	48	90	10.0
Wed Feb  3 11:59:18 2010	San Francisco, California 	 Scattered Clouds	49	Calm		46	29.84	48	90	10.0
Wed Feb  3 12:42:31 2010	San Francisco, California 	 Scattered Clouds	49	Calm		46	29.84	48	90	10.0
Wed Feb  3 13:26:10 2010	San Francisco, California 	 Partly Cloudy	46	Calm		45	29.83	46	96	10.0
Wed Feb  3 14:11:48 2010	San Francisco, California 	 Partly Cloudy	48	Calm		46	29.84	48	93	10.0
Wed Feb  3 14:57:44 2010	San Francisco, California 	 Partly Cloudy	48	Calm		46	29.84	48	93	10.0
Wed Feb  3 15:42:51 2010	San Francisco, California 	 Scattered Clouds	44	WSW	4	43	29.86	42	96	10.0
Wed Feb  3 16:28:28 2010	San Francisco, California 	 Partly Cloudy	45	Calm		44	29.88	45	97	10.0
Wed Feb  3 17:15:55 2010	San Francisco, California 	 Mostly Cloudy	48	Calm		46	29.89	48	93	10.0
Wed Feb  3 18:04:30 2010	San Francisco, California 	 Mostly Cloudy	51	East	4	48	29.89		89	10.0
Wed Feb  3 18:47:35 2010	San Francisco, California 	 Mostly Cloudy	51	East	4	48	29.89		89	10.0
Wed Feb  3 19:31:26 2010	San Francisco, California 	 Mostly Cloudy	52	East	5	48	29.90		86	10.0
Wed Feb  3 20:15:06 2010	San Francisco, California 	 Mostly Cloudy	53	East	6	50	29.89		89	8.0
Wed Feb  3 20:59:52 2010	San Francisco, California 	 Mostly Cloudy	53	East	6	50	29.89		89	8.0
Wed Feb  3 21:47:44 2010	San Francisco, California 	 Scattered Clouds	55	NE	5	50	29.87		83	10.0
Wed Feb  3 22:33:17 2010	San Francisco, California 	 Mostly Cloudy	56	NE	4	50	29.84		80	10.0
Wed Feb  3 23:24:03 2010	San Francisco, California 	 Mostly Cloudy	57	Calm		49	29.82		74	10.0
Fri Jan 29 08:38:04 2010	San Jose, California 	 Mostly Cloudy	48	Calm		45	30.06	48	89	10.0
Fri Jan 29 09:22:05 2010	San Jose, California 	 Mostly Cloudy	47	South	5	44	30.03	45	90	10.0
Fri Jan 29 11:54:01 2010	San Jose, California 	 Clear	46	Calm		44	30.03	46	93	7.0
Fri Jan 29 12:38:37 2010	San Jose, California 	 Clear	46	Calm		43	30.02	46	89	8.0
Fri Jan 29 13:25:11 2010	San Jose, California 	 Clear	46	Calm		43	30.02	46	89	9.0
Fri Jan 29 14:13:52 2010	San Jose, California 	 Clear	45	Calm		43	30.02	45	93	9.0
Fri Jan 29 14:58:33 2010	San Jose, California 	 Clear	45	Calm		43	30.02	45	93	9.0
Fri Jan 29 15:44:32 2010	San Jose, California 	 Mostly Cloudy	44	Calm		42	30.01	45	93	9.0
Fri Jan 29 16:31:38 2010	San Jose, California 	 Mostly Cloudy	45	Calm		43	30.02	45	93	9.0
Fri Jan 29 17:16:18 2010	San Jose, California 	 Mostly Cloudy	45	Calm		43	30.02	45	93	9.0
Fri Jan 29 18:04:43 2010	San Jose, California 	 Mostly Cloudy	49	NE	5	44	30.03	47	83	8.0
Fri Jan 29 18:49:26 2010	San Jose, California 	 Mostly Cloudy	49	NE	5	44	30.03	47	83	8.0
Fri Jan 29 19:41:50 2010	San Jose, California 	 Mostly Cloudy	52	ESE	7	47	30.02		83	8.0
Fri Jan 29 20:39:49 2010	San Jose, California 	 Overcast	56	ESE	8	48	30.02		75	10.0
Fri Jan 29 21:23:54 2010	San Jose, California 	 Mostly Cloudy	60	ESE	12	49	29.96		67	10.0
Fri Jan 29 22:09:55 2010	San Jose, California 	 Mostly Cloudy	60	ESE	8	48	29.96		64	10.0
Fri Jan 29 22:56:13 2010	San Jose, California 	 Mostly Cloudy	60	ESE	8	48	29.96		64	10.0
Fri Jan 29 23:40:18 2010	San Jose, California 	 Scattered Clouds	62	South	15	44	29.95		52	10.0
Mon Feb  1 00:07:17 2010	San Jose, California 	 Mostly Cloudy	59	West	5	45	29.96		60	10.0
Mon Feb  1 00:50:32 2010	San Jose, California 	 Mostly Cloudy	59	West	5	45	29.96		60	10.0
Mon Feb  1 01:35:16 2010	San Jose, California 	 Mostly Cloudy	60	WNW	6	46	29.96		60	10.0
Mon Feb  1 02:20:08 2010	San Jose, California 	 Mostly Cloudy	56	WNW	7	47	29.97		72	10.0
Mon Feb  1 03:04:18 2010	San Jose, California 	 Mostly Cloudy	53	WNW	9	47	29.98		80	10.0
Mon Feb  1 03:47:49 2010	San Jose, California 	 Mostly Cloudy	53	WNW	9	47	29.98		80	10.0
Mon Feb  1 04:33:29 2010	San Jose, California 	 Scattered Clouds	53	NW	5	47	29.98		80	10.0
Mon Feb  1 05:17:04 2010	San Jose, California 	 Scattered Clouds	53	Calm		47	29.97		80	9.0
Mon Feb  1 06:01:59 2010	San Jose, California 	 Mostly Cloudy	52	Calm		47	29.96		83	9.0
Mon Feb  1 06:44:53 2010	San Jose, California 	 Mostly Cloudy	52	Calm		47	29.96		83	9.0
Mon Feb  1 07:28:54 2010	San Jose, California 	 Mostly Cloudy	52	Calm		45	29.98		77	10.0
Mon Feb  1 08:11:58 2010	San Jose, California 	 Scattered Clouds	49	East	5	45	29.98	47	86	9.0
Mon Feb  1 08:55:48 2010	San Jose, California 	 Scattered Clouds	49	East	5	45	29.98	47	86	9.0
Mon Feb  1 09:38:50 2010	San Jose, California 	 Mostly Cloudy	47	Calm		43	29.97	46	86	10.0
Mon Feb  1 10:22:11 2010	San Jose, California 	 Clear	49	Calm		44	29.98	48	83	10.0
Mon Feb  1 11:05:18 2010	San Jose, California 	 Clear	46	ESE	5	43	29.98	44	89	10.0
Mon Feb  1 11:48:37 2010	San Jose, California 	 Clear	46	ESE	5	43	29.98	44	89	10.0
Mon Feb  1 12:32:06 2010	San Jose, California 	 Clear	47	Calm		43	29.98	46	86	10.0
Mon Feb  1 13:15:32 2010	San Jose, California 	 Clear	46	Calm		43	29.96	46	89	10.0
Mon Feb  1 13:59:26 2010	San Jose, California 	 Clear	46	Calm		42	29.96	46	86	10.0
Mon Feb  1 14:43:55 2010	San Jose, California 	 Clear	46	Calm		42	29.96	46	86	10.0
Mon Feb  1 15:28:16 2010	San Jose, California 	 Mostly Cloudy	43	SE	5	41	29.95	40	93	10.0
Mon Feb  1 16:12:17 2010	San Jose, California 	 Mostly Cloudy	45	SE	6	42	29.95	42	90	10.0
Mon Feb  1 16:57:35 2010	San Jose, California 	 Mostly Cloudy	45	Calm		42	29.96	45	90	10.0
Mon Feb  1 17:41:37 2010	San Jose, California 	 Mostly Cloudy	45	Calm		42	29.96	45	90	10.0
Mon Feb  1 18:24:48 2010	San Jose, California 	 Mostly Cloudy	49	Calm		44	29.96	48	83	10.0
Mon Feb  1 19:08:30 2010	San Jose, California 	 Mostly Cloudy	51	SE	5	44	29.94		77	10.0
Mon Feb  1 19:53:39 2010	San Jose, California 	 Mostly Cloudy	51	SE	5	44	29.94		77	10.0
Mon Feb  1 20:40:10 2010	San Jose, California 	 Mostly Cloudy	57	Calm		45	29.95		64	10.0
Mon Feb  1 21:24:56 2010	San Jose, California 	 Mostly Cloudy	60	ENE	4	44	29.94		55	10.0
Mon Feb  1 22:08:24 2010	San Jose, California 	 Mostly Cloudy	63	East	5	42	29.90		46	10.0
Mon Feb  1 22:51:35 2010	San Jose, California 	 Mostly Cloudy	63	East	5	42	29.90		46	10.0
Mon Feb  1 23:37:47 2010	San Jose, California 	 Mostly Cloudy	63	SSE	6	43	29.87		48	10.0
Sat Jan 30 00:24:24 2010	San Jose, California 	 Mostly Cloudy	61	South	17	45	29.96		56	10.0
Sat Jan 30 01:08:29 2010	San Jose, California 	 Mostly Cloudy	59	South	13	43	29.95		55	10.0
Sat Jan 30 01:52:10 2010	San Jose, California 	 Mostly Cloudy	59	South	13	43	29.95		55	10.0
Sat Jan 30 02:36:51 2010	San Jose, California 	 Mostly Cloudy	57	South	7	42	29.95		57	10.0
Sat Jan 30 03:20:30 2010	San Jose, California 	 Rain	52	Calm		48	29.99		88	3.0
Sat Jan 30 04:04:25 2010	San Jose, California 	 Rain	52	ENE	13	50	29.95		93	5.0
Sat Jan 30 04:48:07 2010	San Jose, California 	 Overcast	52	ESE	6	52	29.97		100	10.0
Sat Jan 30 05:31:55 2010	San Jose, California 	 Overcast	52	ESE	7	51	29.96		97	10.0
Sat Jan 30 06:15:35 2010	San Jose, California 	 Overcast	52	SSE	7	51	29.98		97	10.0
Sat Jan 30 07:01:18 2010	San Jose, California 	 Mostly Cloudy	52	SE	7	51	29.99		97	10.0
Sat Jan 30 07:44:50 2010	San Jose, California 	 Mostly Cloudy	52	SE	7	51	29.99		97	10.0
Sat Jan 30 08:27:53 2010	San Jose, California 	 Mostly Cloudy	52	Calm		48	30.00		86	10.0
Sat Jan 30 11:57:26 2010	San Jose, California 	 Clear	46	SSE	5	45	30.01	44	96	10.0
Sat Jan 30 12:41:16 2010	San Jose, California 	 Clear	46	SSE	5	45	30.01	44	96	10.0
Sat Jan 30 13:24:21 2010	San Jose, California 	 Clear	46	East	4	45	30.01	45	96	10.0
Sat Jan 30 14:08:11 2010	San Jose, California 	 Clear	43	ESE	5	43	30.02	40	100	9.0
Sat Jan 30 14:52:23 2010	San Jose, California 	 Partly Cloudy	41	ESE	4	41	30.03	39	100	10.0
Sat Jan 30 15:37:01 2010	San Jose, California 	 Fog	44	SE	6	43	30.03	41	96	0.5
Sat Jan 30 16:23:18 2010	San Jose, California 	 Fog	45	Calm		45	30.04	45	100	0.2
Sat Jan 30 17:07:34 2010	San Jose, California 	 Fog	46	SE	5	46	30.05	44	100	0.1
Sat Jan 30 17:51:07 2010	San Jose, California 	 Mostly Cloudy	46	Calm		46	30.06	46	100	0.8
Sat Jan 30 18:34:55 2010	San Jose, California 	 Scattered Clouds	46	Calm		46	30.06	46	100	7.0
Sat Jan 30 19:18:12 2010	San Jose, California 	 Scattered Clouds	49	Calm		48	30.07	48	97	10.0
Sat Jan 30 20:02:18 2010	San Jose, California 	 Partly Cloudy	54	Calm		47	30.07		77	10.0
Sat Jan 30 20:45:30 2010	San Jose, California 	 Partly Cloudy	54	Calm		47	30.07		77	10.0
Sat Jan 30 21:29:32 2010	San Jose, California 	 Scattered Clouds	56	Calm		47	30.06		72	10.0
Sat Jan 30 22:12:30 2010	San Jose, California 	 Scattered Clouds	57	WNW	7	46	30.04		67	10.0
Sat Jan 30 22:57:19 2010	San Jose, California 	 Scattered Clouds	60	WNW	6	45	30.02		57	10.0
Sat Jan 30 23:42:59 2010	San Jose, California 	 Scattered Clouds	60	WNW	6	45	30.02		57	10.0
Sun Jan 31 00:27:03 2010	San Jose, California 	 Scattered Clouds	59	WNW	8	44	30.01		58	10.0
Sun Jan 31 01:17:40 2010	San Jose, California 	 Partly Cloudy	58	NW	9	44	30.01		60	10.0
Sun Jan 31 02:01:33 2010	San Jose, California 	 Partly Cloudy	56	NW	10	45	30.01		67	10.0
Sun Jan 31 02:45:12 2010	San Jose, California 	 Partly Cloudy	56	NW	10	45	30.01		67	10.0
Sun Jan 31 03:29:12 2010	San Jose, California 	 Scattered Clouds	53	NW	6	47	30.01		80	10.0
Sun Jan 31 04:11:56 2010	San Jose, California 	 Partly Cloudy	50	WNW	8	47	30.02	47	89	10.0
Sun Jan 31 04:57:01 2010	San Jose, California 	 Partly Cloudy	50	NW	6	47	30.03	48	89	10.0
Sun Jan 31 05:43:14 2010	San Jose, California 	 Partly Cloudy	50	NW	6	47	30.03	48	89	10.0
Sun Jan 31 06:28:20 2010	San Jose, California 	 Partly Cloudy	49	NW	4	46	30.04	48	90	9.0
Sun Jan 31 07:11:21 2010	San Jose, California 	 Mostly Cloudy	48	Calm		46	30.04	48	93	9.0
Sun Jan 31 07:57:57 2010	San Jose, California 	 Overcast	50	Calm		47	30.04	50	89	10.0
Sun Jan 31 08:42:44 2010	San Jose, California 	 Overcast	50	Calm		47	30.04	50	89	10.0
Sun Jan 31 09:25:56 2010	San Jose, California 	 Overcast	50	Calm		47	30.04	50	89	10.0
Sun Jan 31 10:09:05 2010	San Jose, California 	 Overcast	50	Calm		46	30.03	50	86	10.0
Sun Jan 31 10:52:55 2010	San Jose, California 	 Overcast	50	Calm		46	30.03	50	86	10.0
Sun Jan 31 11:36:17 2010	San Jose, California 	 Overcast	50	South	4	46	30.03	49	86	10.0
Sun Jan 31 12:20:01 2010	San Jose, California 	 Overcast	50	Calm		46	30.02	50	86	10.0
Sun Jan 31 13:03:07 2010	San Jose, California 	 Overcast	50	East	4	45	30.02	49	83	10.0
Sun Jan 31 13:47:07 2010	San Jose, California 	 Overcast	50	East	4	45	30.02	49	83	10.0
Sun Jan 31 14:29:54 2010	San Jose, California 	 Overcast	50	Calm		45	30.01	50	83	10.0
Sun Jan 31 15:13:47 2010	San Jose, California 	 Overcast	49	Calm		44	30.01	48	83	10.0
Sun Jan 31 15:57:13 2010	San Jose, California 	 Overcast	49	Calm		44	30.01	48	83	10.0
Sun Jan 31 16:47:02 2010	San Jose, California 	 Overcast	50	ENE	4	44	30.03	49	80	10.0
Sun Jan 31 17:30:54 2010	San Jose, California 	 Mostly Cloudy	49	Calm		43	30.03	48	80	10.0
Sun Jan 31 18:15:12 2010	San Jose, California 	 Mostly Cloudy	49	Calm		44	30.04	48	83	10.0
Sun Jan 31 18:59:23 2010	San Jose, California 	 Mostly Cloudy	52	Calm		45	30.05		77	10.0
Sun Jan 31 19:44:55 2010	San Jose, California 	 Mostly Cloudy	52	Calm		45	30.05		77	10.0
Sun Jan 31 20:27:56 2010	San Jose, California 	 Scattered Clouds	53	Calm		46	30.05		77	10.0
Sun Jan 31 21:12:05 2010	San Jose, California 	 Scattered Clouds	57	Calm		45	30.02		64	10.0
Sun Jan 31 21:55:27 2010	San Jose, California 	 Scattered Clouds	57	Calm		45	30.02		64	10.0
Sun Jan 31 22:40:12 2010	San Jose, California 	 Mostly Cloudy	57	WNW	4	46	29.99		67	10.0
Sun Jan 31 23:23:16 2010	San Jose, California 	 Mostly Cloudy	60	NW	5	46	29.97		60	10.0
Thu Feb  4 00:08:49 2010	San Jose, California 	 Mostly Cloudy	63	Variable	5	45	29.78		52	10.0
Thu Feb  4 00:53:11 2010	San Jose, California 	 Mostly Cloudy	63	Variable	5	45	29.78		52	10.0
Thu Feb  4 01:36:10 2010	San Jose, California 	 Mostly Cloudy	58	WNW	12	46	29.80		65	10.0
Thu Feb  4 02:23:17 2010	San Jose, California 	 Mostly Cloudy	58	NW	13	49	29.82		72	10.0
Thu Feb  4 03:07:14 2010	San Jose, California 	 Overcast	56	WNW	9	50	29.83		80	10.0
Thu Feb  4 03:51:43 2010	San Jose, California 	 Overcast	56	WNW	9	50	29.83		80	10.0
Thu Feb  4 04:34:54 2010	San Jose, California 	 Overcast	55	NW	6	49	29.84		80	10.0
Thu Feb  4 05:18:03 2010	San Jose, California 	 Overcast	55	NW	6	49	29.84		80	10.0
Thu Feb  4 06:01:17 2010	San Jose, California 	 Overcast	54	NW	4	49	29.84		83	10.0
Thu Feb  4 06:44:14 2010	San Jose, California 	 Overcast	54	NW	4	49	29.84		83	10.0
Thu Feb  4 07:27:48 2010	San Jose, California 	 Scattered Clouds	54	Calm		49	29.84		83	10.0
Thu Feb  4 08:10:28 2010	San Jose, California 	 Partly Cloudy	51	Calm		48	29.84		89	10.0
Thu Feb  4 08:54:11 2010	San Jose, California 	 Partly Cloudy	51	Calm		48	29.84		89	10.0
Thu Feb  4 09:37:56 2010	San Jose, California 	 Scattered Clouds	50	Calm		48	29.84	50	94	10.0
Thu Feb  4 10:21:20 2010	San Jose, California 	 Partly Cloudy	51	South	4	48	29.84		89	10.0
Thu Feb  4 11:07:37 2010	San Jose, California 	 Clear	50	SE	4	47	29.83	49	89	10.0
Thu Feb  4 11:51:11 2010	San Jose, California 	 Clear	50	SE	4	47	29.83	49	89	10.0
Thu Feb  4 12:34:15 2010	San Jose, California 	 Clear	51	ESE	6	47	29.83		86	10.0
Thu Feb  4 13:17:47 2010	San Jose, California 	 Clear	50	SE	4	47	29.84	49	89	10.0
Thu Feb  4 14:02:05 2010	San Jose, California 	 Clear	51	ESE	7	48	29.83		89	10.0
Thu Feb  4 14:54:49 2010	San Jose, California 	 Clear	51	ESE	7	48	29.83		89	10.0
Thu Jan 28 15:34:56 2010	San Jose, California 	 Overcast	47	Calm		45	30.07	46	93	5.0
Thu Jan 28 15:56:07 2010	San Jose, California 	 Overcast	47	Calm		45	30.07	46	93	5.0
Thu Jan 28 16:44:26 2010	San Jose, California 	 Scattered Clouds	45	South	4	45	30.08	43	100	5.0
Thu Jan 28 17:09:14 2010	San Jose, California 	 Partly Cloudy	45	ESE	5	43	30.09	43	93	4.0
Thu Jan 28 17:25:28 2010	San Jose, California 	 Partly Cloudy	45	ESE	5	43	30.09	43	93	4.0
Tue Feb  2 00:24:41 2010	San Jose, California 	 Overcast	63	South	6	45	29.87		52	10.0
Tue Feb  2 01:10:01 2010	San Jose, California 	 Overcast	59	NW	8	46	29.88		63	10.0
Tue Feb  2 01:53:36 2010	San Jose, California 	 Overcast	59	NW	8	46	29.88		63	10.0
Tue Feb  2 02:37:38 2010	San Jose, California 	 Overcast	56	NW	9	44	29.90		64	10.0
Tue Feb  2 03:20:52 2010	San Jose, California 	 Overcast	54	WNW	9	45	29.91		72	10.0
Tue Feb  2 04:04:52 2010	San Jose, California 	 Overcast	53	WNW	5	46	29.91		77	10.0
Tue Feb  2 04:48:28 2010	San Jose, California 	 Overcast	53	WNW	5	46	29.91		77	10.0
Tue Feb  2 05:31:49 2010	San Jose, California 	 Scattered Clouds	52	West	5	47	29.91		83	10.0
Tue Feb  2 06:14:47 2010	San Jose, California 	 Scattered Clouds	53	SW	4	47	29.91		80	10.0
Tue Feb  2 07:02:16 2010	San Jose, California 	 Scattered Clouds	52	Calm		45	29.91		77	10.0
Tue Feb  2 07:45:22 2010	San Jose, California 	 Scattered Clouds	52	Calm		45	29.91		77	10.0
Tue Feb  2 08:28:28 2010	San Jose, California 	 Mostly Cloudy	51	Calm		44	29.91		77	10.0
Tue Feb  2 09:11:55 2010	San Jose, California 	 Mostly Cloudy	50	ESE	4	44	29.91	49	80	10.0
Tue Feb  2 09:55:27 2010	San Jose, California 	 Mostly Cloudy	50	ESE	4	44	29.91	49	80	10.0
Tue Feb  2 10:39:04 2010	San Jose, California 	 Mostly Cloudy	50	Calm		45	29.90	50	83	10.0
Tue Feb  2 11:23:10 2010	San Jose, California 	 Mostly Cloudy	50	Calm		44	29.89	50	80	10.0
Tue Feb  2 12:06:42 2010	San Jose, California 	 Scattered Clouds	48	East	4	43	29.88	47	83	10.0
Tue Feb  2 12:51:02 2010	San Jose, California 	 Scattered Clouds	48	East	4	43	29.88	47	83	10.0
Tue Feb  2 13:34:22 2010	San Jose, California 	 Partly Cloudy	48	Calm		44	29.87	48	86	10.0
Tue Feb  2 14:17:55 2010	San Jose, California 	 Mostly Cloudy	47	Calm		43	29.86	46	86	10.0
Tue Feb  2 15:02:19 2010	San Jose, California 	 Mostly Cloudy	47	Calm		43	29.86	46	86	10.0
Tue Feb  2 15:48:43 2010	San Jose, California 	 Mostly Cloudy	47	Calm		43	29.86	46	86	10.0
Tue Feb  2 16:41:18 2010	San Jose, California 	 Mostly Cloudy	47	Calm		43	29.87	46	86	10.0
Tue Feb  2 17:28:59 2010	San Jose, California 	 Mostly Cloudy	48	Calm		44	29.87	48	86	10.0
Tue Feb  2 18:14:22 2010	San Jose, California 	 Mostly Cloudy	49	Calm		45	29.88	48	86	9.0
Tue Feb  2 18:58:24 2010	San Jose, California 	 Overcast	51	Calm		46	29.89		83	8.0
Tue Feb  2 19:47:18 2010	San Jose, California 	 Overcast	51	Calm		46	29.89		83	8.0
Tue Feb  2 20:39:06 2010	San Jose, California 	 Mostly Cloudy	55	Calm		46	29.88		72	8.0
Tue Feb  2 21:25:37 2010	San Jose, California 	 Mostly Cloudy	55	Calm		46	29.85		72	8.0
Tue Feb  2 22:13:20 2010	San Jose, California 	 Overcast	57	Calm		47	29.83		69	8.0
Tue Feb  2 22:58:36 2010	San Jose, California 	 Overcast	58	Calm		48	29.82		70	8.0
Tue Feb  2 23:43:34 2010	San Jose, California 	 Overcast	58	Calm		48	29.82		70	8.0
Wed Feb  3 00:28:27 2010	San Jose, California 	 Overcast	59	NW	5	47	29.82		64	9.0
Wed Feb  3 01:15:24 2010	San Jose, California 	 Light Rain	57	WNW	6	50	29.83		77	9.0
Wed Feb  3 02:00:15 2010	San Jose, California 	 Light Rain	55	Calm		49	29.84		80	9.0
Wed Feb  3 02:49:01 2010	San Jose, California 	 Light Rain	55	Calm		49	29.84		80	9.0
Wed Feb  3 03:36:00 2010	San Jose, California 	 Overcast	55	Calm		49	29.83		80	10.0
Wed Feb  3 04:24:01 2010	San Jose, California 	 Overcast	55	Calm		49	29.84		80	10.0
Wed Feb  3 05:10:36 2010	San Jose, California 	 Mostly Cloudy	53	West	6	49	29.84		86	10.0
Wed Feb  3 05:58:38 2010	San Jose, California 	 Partly Cloudy	52	Calm		49	29.84		89	8.0
Wed Feb  3 06:45:26 2010	San Jose, California 	 Partly Cloudy	52	Calm		49	29.84		89	8.0
Wed Feb  3 07:30:03 2010	San Jose, California 	 Partly Cloudy	50	South	4	48	29.85	49	93	8.0
Wed Feb  3 08:13:08 2010	San Jose, California 	 Partly Cloudy	50	ESE	4	48	29.84	49	93	9.0
Wed Feb  3 08:59:31 2010	San Jose, California 	 Partly Cloudy	48	Calm		46	29.85	48	93	9.0
Wed Feb  3 09:43:01 2010	San Jose, California 	 Partly Cloudy	48	Calm		46	29.85	48	93	9.0
Wed Feb  3 10:27:00 2010	San Jose, California 	 Clear	47	Calm		45	29.85	46	93	10.0
Wed Feb  3 11:13:39 2010	San Jose, California 	 Mostly Cloudy	44	East	5	44	29.84	42	100	7.0
Wed Feb  3 11:58:26 2010	San Jose, California 	 Scattered Clouds	46	South	4	44	29.84	45	93	10.0
Wed Feb  3 12:41:41 2010	San Jose, California 	 Scattered Clouds	46	South	4	44	29.84	45	93	10.0
Wed Feb  3 13:25:19 2010	San Jose, California 	 Partly Cloudy	46	Calm		44	29.83	46	93	7.0
Wed Feb  3 14:10:53 2010	San Jose, California 	 Clear	45	Calm		44	29.83	45	97	6.0
Wed Feb  3 14:56:55 2010	San Jose, California 	 Mostly Cloudy	45	East	4	43	29.86	43	93	7.0
Wed Feb  3 15:41:58 2010	San Jose, California 	 Mostly Cloudy	44	ESE	4	43	29.87	42	96	7.0
Wed Feb  3 16:27:37 2010	San Jose, California 	 Mostly Cloudy	45	SE	4	43	29.88	44	93	7.0
Wed Feb  3 17:15:05 2010	San Jose, California 	 Scattered Clouds	46	SE	5	43	29.89	44	89	6.0
Wed Feb  3 18:03:39 2010	San Jose, California 	 Scattered Clouds	49	ESE	4	46	29.90	48	90	10.0
Wed Feb  3 18:46:49 2010	San Jose, California 	 Scattered Clouds	49	ESE	4	46	29.90	48	90	10.0
Wed Feb  3 19:30:35 2010	San Jose, California 	 Scattered Clouds	53	Calm		47	29.90		80	10.0
Wed Feb  3 20:14:13 2010	San Jose, California 	 Scattered Clouds	58	Calm		47	29.88		67	10.0
Wed Feb  3 20:59:04 2010	San Jose, California 	 Scattered Clouds	60	Calm		47	29.86		62	10.0
Wed Feb  3 21:46:55 2010	San Jose, California 	 Scattered Clouds	60	Calm		47	29.86		62	10.0
Wed Feb  3 22:32:26 2010	San Jose, California 	 Partly Cloudy	62	WNW	6	47	29.83		58	10.0
Wed Feb  3 23:23:09 2010	San Jose, California 	 Mostly Cloudy	62	NW	5	44	29.80		52	10.0
Fri Jan 29 08:40:02 2010	Seattle, Washington 	 Clear	47	SE	4	33	30.00	46	59	10.0
Fri Jan 29 09:23:55 2010	Seattle, Washington 	 Clear	46	Calm		34	30.00	46	63	10.0
Fri Jan 29 11:55:55 2010	Seattle, Washington 	 Clear	44	Calm		34	29.97	45	68	10.0
Fri Jan 29 12:40:29 2010	Seattle, Washington 	 Mostly Cloudy	45	Calm		35	29.96	45	68	10.0
Fri Jan 29 13:27:03 2010	Seattle, Washington 	 Mostly Cloudy	44	Calm		36	29.96	45	73	10.0
Fri Jan 29 14:15:50 2010	Seattle, Washington 	 Mostly Cloudy	45	Calm		38	29.96	45	76	10.0
Fri Jan 29 15:00:31 2010	Seattle, Washington 	 Mostly Cloudy	45	Calm		38	29.96	45	76	10.0
Fri Jan 29 15:46:22 2010	Seattle, Washington 	 Mostly Cloudy	44	Calm		37	29.97	45	76	10.0
Fri Jan 29 16:33:50 2010	Seattle, Washington 	 Mostly Cloudy	45	SE	7	36	29.96	41	71	10.0
Fri Jan 29 17:18:22 2010	Seattle, Washington 	 Mostly Cloudy	45	SE	7	36	29.96	41	71	10.0
Fri Jan 29 18:06:37 2010	Seattle, Washington 	 Overcast	48	Calm		38	29.99	48	68	10.0
Fri Jan 29 18:51:15 2010	Seattle, Washington 	 Overcast	48	Calm		38	29.99	48	68	10.0
Fri Jan 29 19:43:44 2010	Seattle, Washington 	 Overcast	50	Calm		37	29.99	50	61	10.0
Fri Jan 29 20:41:46 2010	Seattle, Washington 	 Clear	52	Calm		37	29.99		57	10.0
Fri Jan 29 21:25:47 2010	Seattle, Washington 	 Overcast	54	Calm		37	29.98		53	10.0
Fri Jan 29 22:11:49 2010	Seattle, Washington 	 Overcast	54	Calm		37	29.96		53	10.0
Fri Jan 29 22:58:09 2010	Seattle, Washington 	 Clear	55	Calm		37	29.95		51	10.0
Fri Jan 29 23:42:11 2010	Seattle, Washington 	 Clear	55	Calm		37	29.95		51	10.0
Mon Feb  1 00:09:10 2010	Seattle, Washington 	 Overcast	50	South	6	43	29.97	48	76	10.0
Mon Feb  1 00:52:23 2010	Seattle, Washington 	 Overcast	50	South	6	43	29.97	48	76	10.0
Mon Feb  1 01:37:06 2010	Seattle, Washington 	 Overcast	50	Variable	4	42	29.97	49	74	10.0
Mon Feb  1 02:22:00 2010	Seattle, Washington 	 Mostly Cloudy	50	Calm		42	29.97	50	74	10.0
Mon Feb  1 03:06:09 2010	Seattle, Washington 	 Overcast	49	Calm		42	29.97	48	77	10.0
Mon Feb  1 03:49:41 2010	Seattle, Washington 	 Overcast	49	Calm		42	29.97	48	77	10.0
Mon Feb  1 04:35:19 2010	Seattle, Washington 	 Mostly Cloudy	47	Calm		43	29.98	46	86	10.0
Mon Feb  1 05:18:55 2010	Seattle, Washington 	 Overcast	48	Calm		43	29.97	48	83	10.0
Mon Feb  1 06:03:50 2010	Seattle, Washington 	 Overcast	48	Calm		43	29.97	48	83	10.0
Mon Feb  1 06:46:43 2010	Seattle, Washington 	 Overcast	48	Calm		43	29.97	48	83	10.0
Mon Feb  1 07:30:48 2010	Seattle, Washington 	 Mostly Cloudy	47	Calm		43	29.97	46	86	10.0
Mon Feb  1 08:13:58 2010	Seattle, Washington 	 Overcast	47	Calm		43	29.96	46	86	10.0
Mon Feb  1 08:57:40 2010	Seattle, Washington 	 Overcast	47	SSE	4	43	29.96	46	86	10.0
Mon Feb  1 09:40:42 2010	Seattle, Washington 	 Overcast	47	SSE	4	43	29.96	46	86	10.0
Mon Feb  1 10:24:03 2010	Seattle, Washington 	 Mostly Cloudy	47	Calm		43	29.95	46	86	10.0
Mon Feb  1 11:07:11 2010	Seattle, Washington 	 Scattered Clouds	45	Calm		41	29.94	45	86	10.0
Mon Feb  1 11:50:28 2010	Seattle, Washington 	 Scattered Clouds	45	Calm		41	29.94	45	86	10.0
Mon Feb  1 12:33:58 2010	Seattle, Washington 	 Clear	43	Calm		39	29.94	43	86	10.0
Mon Feb  1 13:17:29 2010	Seattle, Washington 	 Clear	42	Calm		38	29.92	43	85	3.0
Mon Feb  1 14:01:16 2010	Seattle, Washington 	 Clear	40	Calm		38	29.91	39	93	10.0
Mon Feb  1 14:45:45 2010	Seattle, Washington 	 Clear	40	Calm		38	29.91	39	93	10.0
Mon Feb  1 15:30:05 2010	Seattle, Washington 	 Clear	41	Calm		38	29.91	41	89	9.0
Mon Feb  1 16:14:16 2010	Seattle, Washington 	 Clear	40	Calm		37	29.91	39	89	10.0
Mon Feb  1 16:59:24 2010	Seattle, Washington 	 Patches of Fog	39	Calm		37	29.90	39	93	10.0
Mon Feb  1 17:43:27 2010	Seattle, Washington 	 Patches of Fog	39	Calm		37	29.90	39	93	10.0
Mon Feb  1 18:26:37 2010	Seattle, Washington 	 Scattered Clouds	42	Calm		39	29.89	43	89	10.0
Mon Feb  1 19:10:29 2010	Seattle, Washington 	 Scattered Clouds	44	Calm		41	29.89	45	89	10.0
Mon Feb  1 19:55:30 2010	Seattle, Washington 	 Scattered Clouds	44	Calm		41	29.89	45	89	10.0
Mon Feb  1 20:41:58 2010	Seattle, Washington 	 Overcast	46	Calm		41	29.90	46	83	10.0
Mon Feb  1 21:26:45 2010	Seattle, Washington 	 Overcast	48	Calm		41	29.88	48	77	10.0
Mon Feb  1 22:10:18 2010	Seattle, Washington 	 Scattered Clouds	49	Calm		39	29.86	48	69	10.0
Mon Feb  1 22:53:34 2010	Seattle, Washington 	 Scattered Clouds	49	Calm		39	29.86	48	69	10.0
Mon Feb  1 23:39:41 2010	Seattle, Washington 	 Overcast	49	Calm		40	29.84	48	71	10.0
Sat Jan 30 00:26:14 2010	Seattle, Washington 	 Mostly Cloudy	56	Calm		37	29.96		49	10.0
Sat Jan 30 01:10:28 2010	Seattle, Washington 	 Overcast	54	Calm		38	29.96		55	10.0
Sat Jan 30 01:54:05 2010	Seattle, Washington 	 Overcast	54	Calm		38	29.96		55	10.0
Sat Jan 30 02:38:45 2010	Seattle, Washington 	 Overcast	53	Calm		38	29.96		57	10.0
Sat Jan 30 03:22:23 2010	Seattle, Washington 	 Overcast	52	Calm		40	29.96		63	10.0
Sat Jan 30 04:06:15 2010	Seattle, Washington 	 Overcast	53	Calm		40	29.96		61	10.0
Sat Jan 30 04:49:58 2010	Seattle, Washington 	 Overcast	53	Calm		40	29.96		61	10.0
Sat Jan 30 05:33:45 2010	Seattle, Washington 	 Overcast	51	North	4	43	29.96		74	10.0
Sat Jan 30 06:17:31 2010	Seattle, Washington 	 Overcast	50	Calm		43	29.98	50	77	10.0
Sat Jan 30 07:03:09 2010	Seattle, Washington 	 Overcast	49	Calm		44	29.98	48	83	10.0
Sat Jan 30 07:46:40 2010	Seattle, Washington 	 Overcast	49	Calm		44	29.98	48	83	10.0
Sat Jan 30 08:29:42 2010	Seattle, Washington 	 Light Rain	49	SE	5	43	29.98	47	80	10.0
Sat Jan 30 11:59:18 2010	Seattle, Washington 	 Light Rain	46	South	4	43	29.98	45	89	10.0
Sat Jan 30 12:43:05 2010	Seattle, Washington 	 Light Rain	46	South	4	43	29.98	45	89	10.0
Sat Jan 30 13:26:14 2010	Seattle, Washington 	 Light Rain	45	SE	5	42	29.97	43	90	9.0
Sat Jan 30 14:10:02 2010	Seattle, Washington 	 Light Rain	46	Calm		42	29.97	46	86	9.0
Sat Jan 30 14:54:17 2010	Seattle, Washington 	 Light Rain	46	Calm		42	29.97	46	86	9.0
Sat Jan 30 15:39:00 2010	Seattle, Washington 	 Light Rain	45	Calm		42	29.97	45	90	10.0
Sat Jan 30 16:25:11 2010	Seattle, Washington 	 Light Rain	44	SE	4	42	29.97	42	93	10.0
Sat Jan 30 17:09:30 2010	Seattle, Washington 	 Light Rain	45	SE	4	42	29.98	44	90	10.0
Sat Jan 30 17:52:59 2010	Seattle, Washington 	 Light Rain	45	SE	4	42	29.98	44	90	10.0
Sat Jan 30 18:36:51 2010	Seattle, Washington 	 Light Rain	45	SSE	4	43	29.98	44	93	7.0
Sat Jan 30 19:20:06 2010	Seattle, Washington 	 Overcast	46	SSE	5	43	29.99	44	89	10.0
Sat Jan 30 20:04:11 2010	Seattle, Washington 	 Light Rain	47	SE	4	43	29.99	46	86	10.0
Sat Jan 30 20:47:20 2010	Seattle, Washington 	 Light Rain	47	SE	4	43	29.99	46	86	10.0
Sat Jan 30 21:31:18 2010	Seattle, Washington 	 Overcast	48	SE	4	45	29.99	47	87	10.0
Sat Jan 30 22:14:24 2010	Seattle, Washington 	 Overcast	48	SE	5	44	29.98	46	86	10.0
Sat Jan 30 22:59:08 2010	Seattle, Washington 	 Light Rain	48	SE	5	44	29.97	46	86	10.0
Sat Jan 30 23:44:52 2010	Seattle, Washington 	 Light Rain	48	SE	5	45	29.97	46	87	10.0
Sun Jan 31 00:28:53 2010	Seattle, Washington 	 Light Rain	48	SE	4	44	29.97	47	86	10.0
Sun Jan 31 01:19:30 2010	Seattle, Washington 	 Light Rain	48	Calm		45	29.97	48	87	10.0
Sun Jan 31 02:03:25 2010	Seattle, Washington 	 Overcast	48	South	5	44	29.97	46	86	10.0
Sun Jan 31 02:47:01 2010	Seattle, Washington 	 Overcast	46	Calm		45	29.97	46	93	9.0
Sun Jan 31 03:31:03 2010	Seattle, Washington 	 Overcast	47	South	4	43	29.97	46	86	10.0
Sun Jan 31 04:13:46 2010	Seattle, Washington 	 Overcast	47	Calm		44	29.98	46	90	10.0
Sun Jan 31 04:58:53 2010	Seattle, Washington 	 Light Rain	47	SE	4	44	29.97	46	90	10.0
Sun Jan 31 05:45:07 2010	Seattle, Washington 	 Light Rain	47	SE	4	44	29.97	46	90	10.0
Sun Jan 31 06:30:10 2010	Seattle, Washington 	 Overcast	47	SE	4	44	29.97	46	90	10.0
Sun Jan 31 07:13:14 2010	Seattle, Washington 	 Overcast	47	Variable	4	44	29.98	46	90	10.0
Sun Jan 31 07:59:50 2010	Seattle, Washington 	 Overcast	47	Calm		44	29.98	46	90	10.0
Sun Jan 31 08:44:39 2010	Seattle, Washington 	 Overcast	47	Calm		44	29.98	46	90	10.0
Sun Jan 31 09:27:45 2010	Seattle, Washington 	 Overcast	47	SSE	4	44	29.98	46	90	10.0
Sun Jan 31 10:10:57 2010	Seattle, Washington 	 Light Rain	47	Variable	4	44	29.98	46	90	10.0
Sun Jan 31 10:54:44 2010	Seattle, Washington 	 Light Rain	47	Variable	4	44	29.98	46	90	10.0
Sun Jan 31 11:38:13 2010	Seattle, Washington 	 Light Rain	47	South	4	44	29.98	46	90	7.0
Sun Jan 31 12:21:51 2010	Seattle, Washington 	 Light Rain	47	SE	4	44	29.98	46	90	9.0
Sun Jan 31 13:04:52 2010	Seattle, Washington 	 Light Rain	47	ESE	5	44	29.97	45	90	10.0
Sun Jan 31 13:48:56 2010	Seattle, Washington 	 Light Rain	47	ESE	5	44	29.97	45	90	10.0
Sun Jan 31 14:31:45 2010	Seattle, Washington 	 Light Rain	47	SE	4	44	29.98	46	90	8.0
Sun Jan 31 15:15:44 2010	Seattle, Washington 	 Light Rain	47	SE	5	44	29.98	45	90	10.0
Sun Jan 31 15:59:07 2010	Seattle, Washington 	 Overcast	47	Calm		44	29.98	46	90	10.0
Sun Jan 31 16:48:54 2010	Seattle, Washington 	 Overcast	47	Calm		44	29.98	46	90	10.0
Sun Jan 31 17:32:49 2010	Seattle, Washington 	 Overcast	47	Calm		43	29.99	46	86	10.0
Sun Jan 31 18:17:07 2010	Seattle, Washington 	 Overcast	47	Calm		43	30.00	46	86	10.0
Sun Jan 31 19:01:14 2010	Seattle, Washington 	 Overcast	48	SSW	4	44	30.01	47	86	10.0
Sun Jan 31 19:46:48 2010	Seattle, Washington 	 Overcast	48	South	4	45	30.01	47	87	10.0
Sun Jan 31 20:29:45 2010	Seattle, Washington 	 Mostly Cloudy	48	SSE	4	44	30.01	47	86	10.0
Sun Jan 31 21:13:55 2010	Seattle, Washington 	 Overcast	48	South	6	44	30.01	46	86	10.0
Sun Jan 31 21:57:17 2010	Seattle, Washington 	 Overcast	48	South	6	44	30.01	46	86	10.0
Sun Jan 31 22:42:06 2010	Seattle, Washington 	 Overcast	49	SSE	6	43	29.99	46	80	10.0
Sun Jan 31 23:25:15 2010	Seattle, Washington 	 Overcast	50	SW	5	43	29.97	48	77	10.0
Thu Feb  4 00:10:47 2010	Seattle, Washington 	 Light Rain	49	NE	5	44	29.70	47	83	10.0
Thu Feb  4 00:54:57 2010	Seattle, Washington 	 Light Rain	49	NE	5	44	29.70	47	83	10.0
Thu Feb  4 01:37:57 2010	Seattle, Washington 	 Mostly Cloudy	50	Calm		43	29.70	50	77	10.0
Thu Feb  4 02:25:07 2010	Seattle, Washington 	 Mostly Cloudy	50	ENE	4	43	29.70	49	77	10.0
Thu Feb  4 03:09:01 2010	Seattle, Washington 	 Overcast	48	West	6	44	29.72	46	86	10.0
Thu Feb  4 03:53:31 2010	Seattle, Washington 	 Overcast	48	West	6	44	29.72	46	86	10.0
Thu Feb  4 04:36:43 2010	Seattle, Washington 	 Rain	46	Calm		45	29.73	46	93	4.0
Thu Feb  4 05:19:54 2010	Seattle, Washington 	 Overcast	47	East	4	44	29.73	46	90	10.0
Thu Feb  4 06:03:02 2010	Seattle, Washington 	 Overcast	47	Calm		44	29.73	46	90	10.0
Thu Feb  4 06:46:02 2010	Seattle, Washington 	 Overcast	47	Calm		44	29.73	46	90	10.0
Thu Feb  4 07:29:38 2010	Seattle, Washington 	 Light Rain	47	ESE	5	44	29.74	45	90	10.0
Thu Feb  4 08:12:16 2010	Seattle, Washington 	 Mostly Cloudy	46	Calm		42	29.75	46	86	10.0
Thu Feb  4 08:56:01 2010	Seattle, Washington 	 Mostly Cloudy	46	Calm		42	29.75	46	86	10.0
Thu Feb  4 09:39:47 2010	Seattle, Washington 	 Overcast	44	Calm		40	29.75	45	85	10.0
Thu Feb  4 10:23:10 2010	Seattle, Washington 	 Light Rain	45	Calm		41	29.75	45	86	10.0
Thu Feb  4 11:09:25 2010	Seattle, Washington 	 Overcast	44	Calm		41	29.75	45	89	10.0
Thu Feb  4 11:52:58 2010	Seattle, Washington 	 Overcast	44	Calm		41	29.75	45	89	10.0
Thu Feb  4 12:36:06 2010	Seattle, Washington 	 Mostly Cloudy	43	Calm		40	29.75	43	89	10.0
Thu Feb  4 13:19:36 2010	Seattle, Washington 	 Mostly Cloudy	40	Calm		38	29.75	39	93	10.0
Thu Feb  4 14:03:56 2010	Seattle, Washington 	 Mostly Cloudy	40	Calm		38	29.75	39	93	10.0
Thu Feb  4 14:56:39 2010	Seattle, Washington 	 Mostly Cloudy	40	Calm		38	29.75	39	93	10.0
Thu Jan 28 15:36:51 2010	Seattle, Washington 	 Overcast	43	Calm		40	30.07	43	89	10.0
Thu Jan 28 15:58:01 2010	Seattle, Washington 	 Overcast	43	Calm		39	30.06	43	86	10.0
Thu Jan 28 16:46:18 2010	Seattle, Washington 	 Overcast	43	Calm		39	30.06	43	86	10.0
Thu Jan 28 17:11:13 2010	Seattle, Washington 	 Overcast	43	Calm		39	30.06	43	86	10.0
Thu Jan 28 17:27:27 2010	Seattle, Washington 	 Overcast	43	Calm		39	30.06	43	86	10.0
Tue Feb  2 00:26:34 2010	Seattle, Washington 	 Overcast	50	Calm		39	29.84	50	66	10.0
Tue Feb  2 01:12:07 2010	Seattle, Washington 	 Light Rain	49	Calm		39	29.84	48	69	10.0
Tue Feb  2 01:55:29 2010	Seattle, Washington 	 Light Rain	49	Calm		39	29.84	48	69	10.0
Tue Feb  2 02:39:30 2010	Seattle, Washington 	 Light Rain	48	Calm		42	29.85	48	80	10.0
Tue Feb  2 03:22:41 2010	Seattle, Washington 	 Light Rain	48	Calm		42	29.85	48	80	10.0
Tue Feb  2 04:06:43 2010	Seattle, Washington 	 Overcast	47	South	6	43	29.85	44	86	10.0
Tue Feb  2 04:50:20 2010	Seattle, Washington 	 Overcast	47	South	6	43	29.85	44	86	10.0
Tue Feb  2 05:33:42 2010	Seattle, Washington 	 Overcast	47	Calm		43	29.85	46	86	10.0
Tue Feb  2 06:16:39 2010	Seattle, Washington 	 Overcast	47	Calm		43	29.85	46	86	10.0
Tue Feb  2 07:04:08 2010	Seattle, Washington 	 Light Rain	46	Calm		43	29.86	46	89	10.0
Tue Feb  2 07:47:13 2010	Seattle, Washington 	 Light Rain	46	Calm		43	29.86	46	89	10.0
Tue Feb  2 08:30:19 2010	Seattle, Washington 	 Light Rain	46	SSE	5	43	29.87	44	89	7.0
Tue Feb  2 09:13:47 2010	Seattle, Washington 	 Light Rain	46	SSE	6	43	29.86	44	87	7.0
Tue Feb  2 09:57:19 2010	Seattle, Washington 	 Light Rain	45	SSE	5	43	29.87	43	93	6.0
Tue Feb  2 10:40:57 2010	Seattle, Washington 	 Light Rain	45	SSE	5	43	29.87	43	93	6.0
Tue Feb  2 11:25:02 2010	Seattle, Washington 	 Light Rain	45	ESE	6	43	29.87	42	93	5.0
Tue Feb  2 12:08:36 2010	Seattle, Washington 	 Overcast	45	SSE	7	42	29.87	41	90	10.0
Tue Feb  2 12:52:54 2010	Seattle, Washington 	 Overcast	45	SSE	7	42	29.87	41	90	10.0
Tue Feb  2 13:36:14 2010	Seattle, Washington 	 Overcast	45	SE	7	42	29.87	41	90	10.0
Tue Feb  2 14:19:43 2010	Seattle, Washington 	 Mostly Cloudy	42	SE	6	40	29.86	38	92	10.0
Tue Feb  2 15:04:14 2010	Seattle, Washington 	 Mostly Cloudy	43	SE	6	41	29.87	40	93	10.0
Tue Feb  2 15:50:33 2010	Seattle, Washington 	 Mostly Cloudy	43	SE	6	41	29.87	40	93	10.0
Tue Feb  2 16:43:12 2010	Seattle, Washington 	 Mostly Cloudy	42	SE	5	40	29.87	39	92	10.0
Tue Feb  2 17:30:48 2010	Seattle, Washington 	 Scattered Clouds	40	Calm		38	29.88	39	93	10.0
Tue Feb  2 18:16:12 2010	Seattle, Washington 	 Scattered Clouds	44	Variable	5	41	29.89	42	89	10.0
Tue Feb  2 19:00:14 2010	Seattle, Washington 	 Mostly Cloudy	46	Calm		42	29.89	46	86	10.0
Tue Feb  2 19:49:19 2010	Seattle, Washington 	 Mostly Cloudy	46	Calm		42	29.89	46	86	10.0
Tue Feb  2 20:40:55 2010	Seattle, Washington 	 Mostly Cloudy	48	SSE	5	42	29.89	46	80	10.0
Tue Feb  2 21:27:29 2010	Seattle, Washington 	 Mostly Cloudy	50	South	4	41	29.87	49	71	10.0
Tue Feb  2 22:15:11 2010	Seattle, Washington 	 Mostly Cloudy	52	Calm		39	29.85		61	10.0
Tue Feb  2 23:00:26 2010	Seattle, Washington 	 Scattered Clouds	54	NE	5	40	29.82		59	10.0
Tue Feb  2 23:45:25 2010	Seattle, Washington 	 Scattered Clouds	54	NE	5	40	29.82		59	10.0
Wed Feb  3 00:30:19 2010	Seattle, Washington 	 Mostly Cloudy	55	ENE	5	36	29.81		49	10.0
Wed Feb  3 01:17:20 2010	Seattle, Washington 	 Mostly Cloudy	54	NW	4	40	29.80		59	10.0
Wed Feb  3 02:02:07 2010	Seattle, Washington 	 Mostly Cloudy	52	NNW	6	39	29.79		61	10.0
Wed Feb  3 02:50:52 2010	Seattle, Washington 	 Mostly Cloudy	52	NNW	6	39	29.79		61	10.0
Wed Feb  3 03:37:49 2010	Seattle, Washington 	 Clear	51	West	5	39	29.78		63	10.0
Wed Feb  3 04:25:55 2010	Seattle, Washington 	 Mostly Cloudy	50	Calm		39	29.78	50	66	10.0
Wed Feb  3 05:12:25 2010	Seattle, Washington 	 Scattered Clouds	49	Calm		39	29.77	48	69	10.0
Wed Feb  3 06:00:29 2010	Seattle, Washington 	 Clear	46	Calm		39	29.77	46	76	10.0
Wed Feb  3 06:47:17 2010	Seattle, Washington 	 Clear	46	Calm		39	29.77	46	76	10.0
Wed Feb  3 07:31:53 2010	Seattle, Washington 	 Scattered Clouds	47	Calm		38	29.77	46	71	10.0
Wed Feb  3 08:14:58 2010	Seattle, Washington 	 Clear	45	Calm		37	29.76	45	74	10.0
Wed Feb  3 09:01:25 2010	Seattle, Washington 	 Mostly Cloudy	44	Calm		37	29.76	45	76	10.0
Wed Feb  3 09:44:48 2010	Seattle, Washington 	 Mostly Cloudy	44	Calm		37	29.76	45	76	10.0
Wed Feb  3 10:28:48 2010	Seattle, Washington 	 Mostly Cloudy	44	Calm		38	29.75	45	79	10.0
Wed Feb  3 11:15:33 2010	Seattle, Washington 	 Overcast	42	Calm		38	29.75	43	85	10.0
Wed Feb  3 12:00:23 2010	Seattle, Washington 	 Overcast	42	Calm		38	29.74	43	85	10.0
Wed Feb  3 12:43:31 2010	Seattle, Washington 	 Overcast	42	Calm		38	29.74	43	85	10.0
Wed Feb  3 13:27:11 2010	Seattle, Washington 	 Overcast	42	Calm		39	29.73	43	89	10.0
Wed Feb  3 14:12:51 2010	Seattle, Washington 	 Light Rain	46	NNW	4	42	29.72	45	86	7.0
Wed Feb  3 14:58:41 2010	Seattle, Washington 	 Scattered Clouds	43	Calm		39	29.71	43	86	10.0
Wed Feb  3 15:43:51 2010	Seattle, Washington 	 Scattered Clouds	43	Calm		39	29.71	43	86	10.0
Wed Feb  3 16:29:29 2010	Seattle, Washington 	 Mostly Cloudy	42	Calm		39	29.72	43	89	10.0
Wed Feb  3 17:16:55 2010	Seattle, Washington 	 Overcast	45	Calm		40	29.72	45	82	10.0
Wed Feb  3 18:05:30 2010	Seattle, Washington 	 Light Rain	46	Calm		42	29.74	46	86	10.0
Wed Feb  3 18:48:32 2010	Seattle, Washington 	 Light Rain	46	Calm		42	29.74	46	86	10.0
Wed Feb  3 19:32:24 2010	Seattle, Washington 	 Light Rain	46	SSE	6	42	29.76	43	86	9.0
Wed Feb  3 20:16:10 2010	Seattle, Washington 	 Light Rain	45	SE	4	42	29.76	44	90	8.0
Wed Feb  3 21:00:56 2010	Seattle, Washington 	 Light Rain	45	Calm		42	29.75	45	90	5.0
Wed Feb  3 21:48:43 2010	Seattle, Washington 	 Light Rain	45	Calm		42	29.75	45	90	5.0
Wed Feb  3 22:34:14 2010	Seattle, Washington 	 Light Rain	46	SSE	5	43	29.74	44	89	6.0
Wed Feb  3 23:25:03 2010	Seattle, Washington 	 Light Rain	47	Calm		44	29.72	46	90	9.0
Fri Jan 29 08:38:47 2010	Washington, District of Columbia 	 Scattered Clouds	24	NNW	14	5	30.34	12	44	10.0
Fri Jan 29 09:22:46 2010	Washington, District of Columbia 	 Scattered Clouds	22	NNW	17	4	30.36	8	46	10.0
Fri Jan 29 11:54:47 2010	Washington, District of Columbia 	 Mostly Cloudy	20	NNW	14	0	30.40	7	42	10.0
Fri Jan 29 12:39:20 2010	Washington, District of Columbia 	 Mostly Cloudy	20	NNW	14	0	30.40	7	42	10.0
Fri Jan 29 13:25:51 2010	Washington, District of Columbia 	 Mostly Cloudy	20	NNW	16	0	30.43	6	42	10.0
Fri Jan 29 14:14:36 2010	Washington, District of Columbia 	 Mostly Cloudy	20	NNW	17	0	30.43	5	42	10.0
Fri Jan 29 14:59:19 2010	Washington, District of Columbia 	 Mostly Cloudy	20	NNW	17	0	30.43	5	42	10.0
Fri Jan 29 15:45:15 2010	Washington, District of Columbia 	 Overcast	21	NNW	16	1	30.45	7	42	10.0
Fri Jan 29 16:32:28 2010	Washington, District of Columbia 	 Overcast	22	NNW	15	2	30.46	9	42	10.0
Fri Jan 29 17:17:09 2010	Washington, District of Columbia 	 Overcast	21	NNW	14	2	30.45	8	44	10.0
Fri Jan 29 18:05:28 2010	Washington, District of Columbia 	 Overcast	23	NW	9	1	30.42	13	39	10.0
Fri Jan 29 18:50:06 2010	Washington, District of Columbia 	 Overcast	23	NW	9	1	30.42	13	39	10.0
Fri Jan 29 19:42:35 2010	Washington, District of Columbia 	 Overcast	24	NW	12	2	30.40	13	38	10.0
Fri Jan 29 20:40:37 2010	Washington, District of Columbia 	 Overcast	25	NNW	9	2	30.38	16	37	10.0
Fri Jan 29 21:24:36 2010	Washington, District of Columbia 	 Overcast	26	NW	9	2	30.38	17	35	10.0
Fri Jan 29 22:10:40 2010	Washington, District of Columbia 	 Overcast	26	NNW	13	2	30.37	15	35	10.0
Fri Jan 29 22:57:02 2010	Washington, District of Columbia 	 Overcast	26	NW	9	1	30.36	17	34	10.0
Fri Jan 29 23:41:02 2010	Washington, District of Columbia 	 Overcast	26	NW	9	1	30.36	17	34	10.0
Mon Feb  1 00:08:00 2010	Washington, District of Columbia 	 Clear	32	SSW	6	5	30.19	26	32	10.0
Mon Feb  1 00:51:14 2010	Washington, District of Columbia 	 Clear	32	SSW	6	5	30.19	26	32	10.0
Mon Feb  1 01:35:59 2010	Washington, District of Columbia 	 Clear	28	SW	8	8	30.20	20	43	10.0
Mon Feb  1 02:20:51 2010	Washington, District of Columbia 	 Clear	28	SSW	5	8	30.20	23	43	10.0
Mon Feb  1 03:05:01 2010	Washington, District of Columbia 	 Scattered Clouds	28	SW	5	9	30.21	23	45	10.0
Mon Feb  1 03:48:32 2010	Washington, District of Columbia 	 Scattered Clouds	28	SW	5	9	30.21	23	45	10.0
Mon Feb  1 04:34:12 2010	Washington, District of Columbia 	 Partly Cloudy	27	SSW	7	12	30.22	20	53	10.0
Mon Feb  1 05:17:48 2010	Washington, District of Columbia 	 Partly Cloudy	24	Calm		10	30.24	25	55	10.0
Mon Feb  1 06:02:42 2010	Washington, District of Columbia 	 Partly Cloudy	24	Calm		11	30.24	25	57	10.0
Mon Feb  1 06:45:34 2010	Washington, District of Columbia 	 Partly Cloudy	24	Calm		11	30.24	25	57	10.0
Mon Feb  1 07:29:38 2010	Washington, District of Columbia 	 Partly Cloudy	27	Calm		12	30.24	27	53	10.0
Mon Feb  1 08:12:49 2010	Washington, District of Columbia 	 Clear	21	SW	7	13	30.26	12	71	10.0
Mon Feb  1 08:56:32 2010	Washington, District of Columbia 	 Clear	23	Calm		13	30.28	23	65	10.0
Mon Feb  1 09:39:33 2010	Washington, District of Columbia 	 Clear	23	Calm		13	30.28	23	65	10.0
Mon Feb  1 10:22:54 2010	Washington, District of Columbia 	 Clear	21	Calm		12	30.29	21	68	10.0
Mon Feb  1 11:06:02 2010	Washington, District of Columbia 	 Clear	21	Calm		13	30.32	21	71	10.0
Mon Feb  1 11:49:19 2010	Washington, District of Columbia 	 Clear	21	Calm		13	30.32	21	71	10.0
Mon Feb  1 12:32:52 2010	Washington, District of Columbia 	 Clear	24	NNW	8	11	30.33	15	57	10.0
Mon Feb  1 13:16:18 2010	Washington, District of Columbia 	 Scattered Clouds	27	NW	13	10	30.35	16	49	10.0
Mon Feb  1 14:00:09 2010	Washington, District of Columbia 	 Mostly Cloudy	27	NNW	7	10	30.38	20	49	10.0
Mon Feb  1 14:44:39 2010	Washington, District of Columbia 	 Mostly Cloudy	27	NNW	7	10	30.38	20	49	10.0
Mon Feb  1 15:28:57 2010	Washington, District of Columbia 	 Mostly Cloudy	29	NNW	10	12	30.38	20	49	10.0
Mon Feb  1 16:13:06 2010	Washington, District of Columbia 	 Mostly Cloudy	31	NNW	7	12	30.39	24	46	10.0
Mon Feb  1 16:58:17 2010	Washington, District of Columbia 	 Mostly Cloudy	32	North	10	12	30.38	24	44	10.0
Mon Feb  1 17:42:19 2010	Washington, District of Columbia 	 Mostly Cloudy	32	North	10	12	30.38	24	44	10.0
Mon Feb  1 18:25:28 2010	Washington, District of Columbia 	 Overcast	34	WNW	5	12	30.38	30	40	10.0
Mon Feb  1 19:09:13 2010	Washington, District of Columbia 	 Overcast	35	WNW	14	12	30.36	26	39	10.0
Mon Feb  1 19:54:21 2010	Washington, District of Columbia 	 Overcast	35	WNW	14	12	30.36	26	39	10.0
Mon Feb  1 20:40:48 2010	Washington, District of Columbia 	 Overcast	37	WNW	8	13	30.32	31	37	10.0
Mon Feb  1 21:25:37 2010	Washington, District of Columbia 	 Overcast	38	West	8	12	30.31	32	35	10.0
Mon Feb  1 22:09:08 2010	Washington, District of Columbia 	 Mostly Cloudy	39	WNW	7	12	30.31	34	33	10.0
Mon Feb  1 22:52:19 2010	Washington, District of Columbia 	 Mostly Cloudy	39	WNW	7	12	30.31	34	33	10.0
Mon Feb  1 23:38:29 2010	Washington, District of Columbia 	 Mostly Cloudy	39	West	6	12	30.31	35	33	10.0
Sat Jan 30 00:25:07 2010	Washington, District of Columbia 	 Overcast	26	NNW	10	1	30.37	16	34	10.0
Sat Jan 30 01:09:13 2010	Washington, District of Columbia 	 Overcast	26	WNW	12	1	30.38	16	34	10.0
Sat Jan 30 01:52:53 2010	Washington, District of Columbia 	 Overcast	26	WNW	12	1	30.38	16	34	10.0
Sat Jan 30 02:37:36 2010	Washington, District of Columbia 	 Mostly Cloudy	25	NNW	14	1	30.38	13	36	10.0
Sat Jan 30 03:21:13 2010	Washington, District of Columbia 	 Overcast	25	North	15	1	30.38	13	36	10.0
Sat Jan 30 04:05:06 2010	Washington, District of Columbia 	 Overcast	24	NNW	17	0	30.38	11	35	10.0
Sat Jan 30 04:48:49 2010	Washington, District of Columbia 	 Overcast	24	NNW	17	0	30.38	11	35	10.0
Sat Jan 30 05:32:39 2010	Washington, District of Columbia 	 Overcast	23	NNW	12	1	30.39	12	39	10.0
Sat Jan 30 06:16:19 2010	Washington, District of Columbia 	 Overcast	23	NNW	12	1	30.38	12	39	10.0
Sat Jan 30 07:02:02 2010	Washington, District of Columbia 	 Overcast	22	NW	14	1	30.37	9	40	10.0
Sat Jan 30 07:45:31 2010	Washington, District of Columbia 	 Overcast	22	NW	14	1	30.37	9	40	10.0
Sat Jan 30 08:28:33 2010	Washington, District of Columbia 	 Overcast	22	NNW	8	2	30.35	12	42	10.0
Sat Jan 30 11:58:09 2010	Washington, District of Columbia 	 Overcast	22	NNE	12	2	30.29	10	42	10.0
Sat Jan 30 12:41:59 2010	Washington, District of Columbia 	 Overcast	22	NNE	12	2	30.29	10	42	10.0
Sat Jan 30 13:25:09 2010	Washington, District of Columbia 	 Overcast	22	NNE	10	2	30.27	11	42	10.0
Sat Jan 30 14:08:51 2010	Washington, District of Columbia 	 Overcast	22	NNE	12	3	30.25	10	44	10.0
Sat Jan 30 14:53:07 2010	Washington, District of Columbia 	 Overcast	22	NNE	12	3	30.25	10	44	10.0
Sat Jan 30 15:37:46 2010	Washington, District of Columbia 	 Light Snow	21	NE	10	7	30.24	10	54	2.5
Sat Jan 30 16:24:01 2010	Washington, District of Columbia 	 Heavy Snow	19	NE	12	12	30.26	7	74	0.2
Sat Jan 30 17:08:19 2010	Washington, District of Columbia 	 Snow	18	NNE	8	13	30.27	8	81	0.5
Sat Jan 30 17:51:50 2010	Washington, District of Columbia 	 Snow	18	NE	7	12	30.25	8	79	0.5
Sat Jan 30 18:35:39 2010	Washington, District of Columbia 	 Heavy Snow	18	North	13	12	30.23	4	79	0.2
Sat Jan 30 19:18:56 2010	Washington, District of Columbia 	 Light Snow	19	NNE	10	12	30.18	8	74	0.8
Sat Jan 30 20:03:02 2010	Washington, District of Columbia 	 Light Snow	19	North	16	12	30.15	5	74	1.0
Sat Jan 30 20:46:10 2010	Washington, District of Columbia 	 Snow	19	NNE	13	12	30.13	7	74	0.5
Sat Jan 30 21:30:12 2010	Washington, District of Columbia 	 Light Snow	19	NNE	16	12	30.10	5	74	0.8
Sat Jan 30 22:13:14 2010	Washington, District of Columbia 	 Light Snow	18	NNE	20	12	30.09	2	78	0.8
Sat Jan 30 22:58:02 2010	Washington, District of Columbia 	 Light Snow	18	NNE	16	12	30.08	3	78	0.8
Sat Jan 30 23:43:45 2010	Washington, District of Columbia 	 Light Snow	18	North	16	10	30.07	3	73	3.0
Sun Jan 31 00:27:46 2010	Washington, District of Columbia 	 Light Snow	18	NNE	15	10	30.07	3	73	5.0
Sun Jan 31 01:18:23 2010	Washington, District of Columbia 	 Light Snow	18	North	18	10	30.06	2	73	4.0
Sun Jan 31 02:02:16 2010	Washington, District of Columbia 	 Light Snow	19	North	17	12	30.06	4	74	2.0
Sun Jan 31 02:45:52 2010	Washington, District of Columbia 	 Light Snow	19	North	13	12	30.06	7	74	3.0
Sun Jan 31 03:29:56 2010	Washington, District of Columbia 	 Light Snow	19	North	18	11	30.05	4	71	3.0
Sun Jan 31 04:12:37 2010	Washington, District of Columbia 	 Light Snow	19	North	17	10	30.05	4	68	5.0
Sun Jan 31 04:57:44 2010	Washington, District of Columbia 	 Light Snow	18	NNW	14	10	30.05	4	71	2.5
Sun Jan 31 05:43:58 2010	Washington, District of Columbia 	 Light Snow	18	NNW	16	10	30.06	3	73	2.5
Sun Jan 31 06:29:04 2010	Washington, District of Columbia 	 Light Snow	18	NNW	9	10	30.06	6	73	5.0
Sun Jan 31 07:12:04 2010	Washington, District of Columbia 	 Overcast	19	NW	9	7	30.05	8	59	8.0
Sun Jan 31 07:58:41 2010	Washington, District of Columbia 	 Overcast	20	NNW	15	5	30.06	6	52	10.0
Sun Jan 31 08:43:28 2010	Washington, District of Columbia 	 Overcast	20	NNW	15	5	30.06	6	52	10.0
Sun Jan 31 09:26:39 2010	Washington, District of Columbia 	 Overcast	20	NNW	14	4	30.07	7	50	10.0
Sun Jan 31 10:09:50 2010	Washington, District of Columbia 	 Scattered Clouds	19	NNW	13	4	30.09	6	52	10.0
Sun Jan 31 10:53:36 2010	Washington, District of Columbia 	 Scattered Clouds	19	NNW	13	4	30.09	6	52	10.0
Sun Jan 31 11:37:04 2010	Washington, District of Columbia 	 Scattered Clouds	17	NNW	10	3	30.12	5	54	10.0
Sun Jan 31 12:20:42 2010	Washington, District of Columbia 	 Mostly Cloudy	17	NNW	10	2	30.15	5	52	10.0
Sun Jan 31 13:03:44 2010	Washington, District of Columbia 	 Mostly Cloudy	16	NNW	13	2	30.17	2	54	10.0
Sun Jan 31 13:47:50 2010	Washington, District of Columbia 	 Mostly Cloudy	16	NNW	13	2	30.17	2	54	10.0
Sun Jan 31 14:30:34 2010	Washington, District of Columbia 	 Mostly Cloudy	17	NW	12	1	30.20	4	50	10.0
Sun Jan 31 15:14:33 2010	Washington, District of Columbia 	 Partly Cloudy	19	NNW	14	2	30.21	6	47	10.0
Sun Jan 31 15:57:57 2010	Washington, District of Columbia 	 Clear	22	NW	8	1	30.23	12	40	10.0
Sun Jan 31 16:47:44 2010	Washington, District of Columbia 	 Clear	22	NW	8	1	30.23	12	40	10.0
Sun Jan 31 17:31:37 2010	Washington, District of Columbia 	 Clear	24	NW	13	0	30.25	12	35	10.0
Sun Jan 31 18:15:57 2010	Washington, District of Columbia 	 Clear	25	NNW	13	1	30.24	14	36	10.0
Sun Jan 31 19:00:05 2010	Washington, District of Columbia 	 Clear	28	WNW	8	3	30.22	20	34	10.0
Sun Jan 31 19:45:39 2010	Washington, District of Columbia 	 Clear	28	WNW	8	3	30.22	20	34	10.0
Sun Jan 31 20:28:39 2010	Washington, District of Columbia 	 Clear	30	Variable	6	3	30.19	24	32	10.0
Sun Jan 31 21:12:48 2010	Washington, District of Columbia 	 Clear	31	Calm		3	30.19	30	31	10.0
Sun Jan 31 21:56:10 2010	Washington, District of Columbia 	 Clear	33	WNW	8	5	30.18	26	31	10.0
Sun Jan 31 22:40:54 2010	Washington, District of Columbia 	 Clear	33	WNW	8	5	30.18	26	31	10.0
Sun Jan 31 23:23:59 2010	Washington, District of Columbia 	 Clear	33	West	5	3	30.17	29	28	10.0
Thu Feb  4 00:09:32 2010	Washington, District of Columbia 	 Mostly Cloudy	40	WNW	8	28	30.17	34	63	10.0
Thu Feb  4 00:53:53 2010	Washington, District of Columbia 	 Mostly Cloudy	40	WNW	8	28	30.17	34	63	10.0
Thu Feb  4 01:36:52 2010	Washington, District of Columbia 	 Mostly Cloudy	40	WNW	7	27	30.20	35	60	10.0
Thu Feb  4 02:23:59 2010	Washington, District of Columbia 	 Overcast	40	West	6	27	30.23	36	60	10.0
Thu Feb  4 03:07:55 2010	Washington, District of Columbia 	 Scattered Clouds	38	NNW	6	27	30.24	34	65	10.0
Thu Feb  4 03:52:25 2010	Washington, District of Columbia 	 Scattered Clouds	38	NNW	6	27	30.24	34	65	10.0
Thu Feb  4 04:35:37 2010	Washington, District of Columbia 	 Mostly Cloudy	37	NW	7	26	30.27	32	65	10.0
Thu Feb  4 05:18:46 2010	Washington, District of Columbia 	 Overcast	38	West	6	26	30.27	34	62	10.0
Thu Feb  4 06:01:54 2010	Washington, District of Columbia 	 Scattered Clouds	38	NW	7	25	30.28	33	60	10.0
Thu Feb  4 06:44:57 2010	Washington, District of Columbia 	 Scattered Clouds	38	NW	7	25	30.28	33	60	10.0
Thu Feb  4 07:28:30 2010	Washington, District of Columbia 	 Partly Cloudy	36	NW	9	21	30.29	29	55	10.0
Thu Feb  4 08:11:11 2010	Washington, District of Columbia 	 Scattered Clouds	35	NW	10	20	30.31	27	54	10.0
Thu Feb  4 08:54:55 2010	Washington, District of Columbia 	 Scattered Clouds	33	NNW	8	20	30.33	26	59	10.0
Thu Feb  4 09:38:39 2010	Washington, District of Columbia 	 Scattered Clouds	33	NNW	8	20	30.33	26	59	10.0
Thu Feb  4 10:22:03 2010	Washington, District of Columbia 	 Clear	33	NNW	10	19	30.33	25	56	10.0
Thu Feb  4 11:08:19 2010	Washington, District of Columbia 	 Clear	32	NNW	10	18	30.37	24	56	10.0
Thu Feb  4 11:51:53 2010	Washington, District of Columbia 	 Clear	32	NNW	10	18	30.37	24	56	10.0
Thu Feb  4 12:34:58 2010	Washington, District of Columbia 	 Clear	32	North	9	17	30.39	24	54	10.0
Thu Feb  4 13:18:27 2010	Washington, District of Columbia 	 Partly Cloudy	32	NNW	12	17	30.40	23	54	10.0
Thu Feb  4 14:02:47 2010	Washington, District of Columbia 	 Scattered Clouds	32	NNW	8	17	30.41	25	54	10.0
Thu Feb  4 14:55:29 2010	Washington, District of Columbia 	 Partly Cloudy	34	NNW	12	18	30.44	26	52	10.0
Thu Jan 28 15:35:42 2010	Washington, District of Columbia 	 Overcast	39	SSW	12	24	30.09	32	55	10.0
Thu Jan 28 15:56:51 2010	Washington, District of Columbia 	 Overcast	40	SSW	13	24	30.06	32	53	10.0
Thu Jan 28 16:45:09 2010	Washington, District of Columbia 	 Overcast	40	SSW	13	24	30.06	32	53	10.0
Thu Jan 28 17:09:57 2010	Washington, District of Columbia 	 Overcast	44	SSW	14	24	30.04	37	45	10.0
Thu Jan 28 17:26:13 2010	Washington, District of Columbia 	 Overcast	44	SSW	14	24	30.04	37	45	10.0
Tue Feb  2 00:25:24 2010	Washington, District of Columbia 	 Mostly Cloudy	38	West	5	12	30.30	34	35	10.0
Tue Feb  2 01:10:56 2010	Washington, District of Columbia 	 Scattered Clouds	35	North	5	17	30.30	31	48	10.0
Tue Feb  2 01:54:20 2010	Washington, District of Columbia 	 Mostly Cloudy	33	SSE	4	19	30.30	30	56	10.0
Tue Feb  2 02:38:21 2010	Washington, District of Columbia 	 Mostly Cloudy	33	SSE	4	19	30.30	30	56	10.0
Tue Feb  2 03:21:33 2010	Washington, District of Columbia 	 Mostly Cloudy	34	Calm		19	30.31	34	54	10.0
Tue Feb  2 04:05:36 2010	Washington, District of Columbia 	 Mostly Cloudy	32	South	4	20	30.30	29	61	10.0
Tue Feb  2 04:49:11 2010	Washington, District of Columbia 	 Mostly Cloudy	32	South	4	20	30.30	29	61	10.0
Tue Feb  2 05:32:33 2010	Washington, District of Columbia 	 Mostly Cloudy	31	Calm		21	30.30	30	67	10.0
Tue Feb  2 06:15:30 2010	Washington, District of Columbia 	 Mostly Cloudy	31	Calm		21	30.29	30	67	10.0
Tue Feb  2 07:02:59 2010	Washington, District of Columbia 	 Mostly Cloudy	29	ENE	5	19	30.27	24	67	10.0
Tue Feb  2 07:46:05 2010	Washington, District of Columbia 	 Mostly Cloudy	29	ENE	5	19	30.27	24	67	10.0
Tue Feb  2 08:29:10 2010	Washington, District of Columbia 	 Mostly Cloudy	28	ENE	5	19	30.26	23	69	10.0
Tue Feb  2 09:12:38 2010	Washington, District of Columbia 	 Mostly Cloudy	28	ENE	5	18	30.26	23	66	10.0
Tue Feb  2 09:56:10 2010	Washington, District of Columbia 	 Mostly Cloudy	27	ENE	4	20	30.27	23	75	10.0
Tue Feb  2 10:39:47 2010	Washington, District of Columbia 	 Mostly Cloudy	27	ENE	4	20	30.27	23	75	10.0
Tue Feb  2 11:23:53 2010	Washington, District of Columbia 	 Mostly Cloudy	27	NE	7	19	30.26	20	72	10.0
Tue Feb  2 12:07:25 2010	Washington, District of Columbia 	 Overcast	28	NE	6	20	30.23	22	72	10.0
Tue Feb  2 12:51:45 2010	Washington, District of Columbia 	 Overcast	28	NE	6	20	30.23	22	72	10.0
Tue Feb  2 13:35:05 2010	Washington, District of Columbia 	 Overcast	28	Calm		21	30.24	28	75	10.0
Tue Feb  2 14:18:34 2010	Washington, District of Columbia 	 Overcast	30	Calm		21	30.25	30	69	10.0
Tue Feb  2 15:03:03 2010	Washington, District of Columbia 	 Overcast	30	ENE	6	24	30.25	24	79	10.0
Tue Feb  2 15:49:26 2010	Washington, District of Columbia 	 Overcast	30	ENE	6	24	30.25	24	79	10.0
Tue Feb  2 16:42:02 2010	Washington, District of Columbia 	 Overcast	33	NNE	5	24	30.22	29	70	9.0
Tue Feb  2 17:29:41 2010	Washington, District of Columbia 	 Overcast	35	Calm		23	30.22	36	61	10.0
Tue Feb  2 18:15:04 2010	Washington, District of Columbia 	 Overcast	36	Calm		21	30.20	36	56	10.0
Tue Feb  2 18:59:05 2010	Washington, District of Columbia 	 Overcast	37	Calm		22	30.17	37	54	10.0
Tue Feb  2 19:48:05 2010	Washington, District of Columbia 	 Overcast	37	Calm		22	30.17	37	54	10.0
Tue Feb  2 20:39:47 2010	Washington, District of Columbia 	 Overcast	40	Calm		21	30.15	39	47	10.0
Tue Feb  2 21:26:19 2010	Washington, District of Columbia 	 Overcast	41	Calm		21	30.12	41	45	10.0
Tue Feb  2 22:14:03 2010	Washington, District of Columbia 	 Overcast	40	ESE	8	22	30.12	34	49	10.0
Tue Feb  2 22:59:17 2010	Washington, District of Columbia 	 Overcast	38	East	7	27	30.12	33	65	10.0
Tue Feb  2 23:44:17 2010	Washington, District of Columbia 	 Overcast	38	East	7	27	30.12	33	65	10.0
Wed Feb  3 00:29:10 2010	Washington, District of Columbia 	 Light Snow	36	ENE	8	27	30.12	29	70	5.0
Wed Feb  3 01:16:11 2010	Washington, District of Columbia 	 Light Snow	34	NE	8	28	30.12	27	79	2.5
Wed Feb  3 02:01:00 2010	Washington, District of Columbia 	 Light Snow	33	NNE	6	30	30.11	28	89	1.0
Wed Feb  3 02:49:44 2010	Washington, District of Columbia 	 Light Snow	34	NNE	6	28	30.11	29	81	1.2
Wed Feb  3 03:36:43 2010	Washington, District of Columbia 	 Light Snow	33	NNE	7	30	30.10	27	89	1.5
Wed Feb  3 04:24:44 2010	Washington, District of Columbia 	 Light Snow	32	North	6	30	30.10	26	92	1.0
Wed Feb  3 05:11:19 2010	Washington, District of Columbia 	 Light Snow	33	NNE	5	30	30.08	29	89	1.0
Wed Feb  3 05:59:20 2010	Washington, District of Columbia 	 Light Snow	32	North	6	29	30.07	26	88	1.0
Wed Feb  3 06:46:09 2010	Washington, District of Columbia 	 Light Snow	32	North	5	30	30.06	28	93	0.8
Wed Feb  3 07:30:46 2010	Washington, District of Columbia 	 Light Snow	32	North	6	30	30.05	26	92	0.8
Wed Feb  3 08:13:51 2010	Washington, District of Columbia 	 Light Snow	32	North	7	30	30.06	26	93	2.0
Wed Feb  3 09:00:14 2010	Washington, District of Columbia 	 Light Snow	33	NNE	5	29	30.05	29	85	2.5
Wed Feb  3 09:43:43 2010	Washington, District of Columbia 	 Light Snow	34	NE	4	30	30.05	31	87	3.0
Wed Feb  3 10:27:42 2010	Washington, District of Columbia 	 Light Snow	34	NNW	7	28	30.06	28	81	4.0
Wed Feb  3 11:14:26 2010	Washington, District of Columbia 	 Light Snow	32	NNW	8	29	30.06	25	88	4.0
Wed Feb  3 11:59:10 2010	Washington, District of Columbia 	 Overcast	33	North	4	29	30.08	30	85	4.0
Wed Feb  3 12:42:23 2010	Washington, District of Columbia 	 Overcast	32	Calm		28	30.07	32	87	4.0
Wed Feb  3 13:26:01 2010	Washington, District of Columbia 	 Overcast	34	ENE	4	28	30.10	31	81	3.0
Wed Feb  3 14:11:39 2010	Washington, District of Columbia 	 Overcast	34	Calm		30	30.12	34	87	2.5
Wed Feb  3 14:57:35 2010	Washington, District of Columbia 	 Overcast	33	West	4	29	30.13	30	85	2.5
Wed Feb  3 15:42:42 2010	Washington, District of Columbia 	 Light Snow	34	NW	6	30	30.13	29	87	2.5
Wed Feb  3 16:28:19 2010	Washington, District of Columbia 	 Overcast	34	North	6	30	30.13	29	85	3.0
Wed Feb  3 17:15:47 2010	Washington, District of Columbia 	 Haze	35	North	5	29	30.13	31	78	4.0
Wed Feb  3 18:04:21 2010	Washington, District of Columbia 	 Mostly Cloudy	38	West	8	30	30.14	32	73	7.0
Wed Feb  3 18:47:27 2010	Washington, District of Columbia 	 Haze	37	Variable	5	30	30.13	34	75	5.0
Wed Feb  3 19:31:17 2010	Washington, District of Columbia 	 Mostly Cloudy	41	NW	10	30	30.11	35	65	10.0
Wed Feb  3 20:14:56 2010	Washington, District of Columbia 	 Scattered Clouds	42	NW	10	30	30.11	36	62	10.0
Wed Feb  3 20:59:44 2010	Washington, District of Columbia 	 Overcast	41	WNW	9	29	30.12	35	62	10.0
Wed Feb  3 21:47:35 2010	Washington, District of Columbia 	 Overcast	41	WNW	9	29	30.12	35	62	10.0
Wed Feb  3 22:33:08 2010	Washington, District of Columbia 	 Overcast	41	West	8	29	30.14	36	62	10.0
Wed Feb  3 23:23:54 2010	Washington, District of Columbia 	 Overcast	41	NW	8	29	30.16	36	62	10.0
